<?xml version="1.0" encoding="UTF-8" standalone="no" ?>
<gpx xmlns="http://www.topografix.com/GPX/1/1" xmlns:xsi="http://www.w3.org/2001/XMLSchema-instance" xsi:schemaLocation="http://www.topografix.com/GPX/1/1 http://www.topografix.com/GPX/1/1/gpx.xsd" version="1.1" creator="VisuGPX - https://www.visugpx.com">
  <metadata>
    <name>Vosges - Pyrénées 21. Du chalet de l'Alouette à Saint-Etienne-lès-Remiremont</name>
    <desc><![CDATA[Trace AlpineQuest 29/03/2026 07:32:12]]></desc>
  </metadata>
  <trk>
    <name><![CDATA[visugpx_SSYXa2gPW8_1]]></name>
    <extensions>
      <line xmlns="http://www.topografix.com/GPX/gpx_style/0/2">
        <color>0000FF</color>
        <width>4</width>
      </line>
    </extensions>
    <trkseg>
      <trkpt lat="47.88473" lon="6.71396">
        <ele>685.4</ele>
        <time>2026-03-29T05:32:11Z</time>
      </trkpt>
      <trkpt lat="47.88463" lon="6.71423">
        <ele>677.2</ele>
        <time>2026-03-29T05:32:17Z</time>
      </trkpt>
      <trkpt lat="47.88459" lon="6.71424">
        <ele>676.5</ele>
        <time>2026-03-29T05:32:22Z</time>
      </trkpt>
      <trkpt lat="47.88459" lon="6.71424">
        <ele>676.5</ele>
        <time>2026-03-29T05:32:28Z</time>
      </trkpt>
      <trkpt lat="47.88459" lon="6.71424">
        <ele>676.5</ele>
        <time>2026-03-29T05:32:33Z</time>
      </trkpt>
      <trkpt lat="47.88459" lon="6.71424">
        <ele>676.5</ele>
        <time>2026-03-29T05:32:38Z</time>
      </trkpt>
      <trkpt lat="47.8846" lon="6.71425">
        <ele>676.3</ele>
        <time>2026-03-29T05:32:43Z</time>
      </trkpt>
      <trkpt lat="47.88463" lon="6.71423">
        <ele>677.2</ele>
        <time>2026-03-29T05:32:48Z</time>
      </trkpt>
      <trkpt lat="47.88466" lon="6.7142">
        <ele>678.4</ele>
        <time>2026-03-29T05:32:53Z</time>
      </trkpt>
      <trkpt lat="47.8847" lon="6.71418">
        <ele>679.4</ele>
        <time>2026-03-29T05:32:58Z</time>
      </trkpt>
      <trkpt lat="47.88475" lon="6.71416">
        <ele>680.5</ele>
        <time>2026-03-29T05:33:03Z</time>
      </trkpt>
      <trkpt lat="47.88477" lon="6.71411">
        <ele>682</ele>
        <time>2026-03-29T05:33:08Z</time>
      </trkpt>
      <trkpt lat="47.88477" lon="6.71405">
        <ele>683.5</ele>
        <time>2026-03-29T05:33:13Z</time>
      </trkpt>
      <trkpt lat="47.88474" lon="6.71398">
        <ele>685</ele>
        <time>2026-03-29T05:33:18Z</time>
      </trkpt>
      <trkpt lat="47.88473" lon="6.71389">
        <ele>687.3</ele>
        <time>2026-03-29T05:33:23Z</time>
      </trkpt>
      <trkpt lat="47.88471" lon="6.71383">
        <ele>688.7</ele>
        <time>2026-03-29T05:33:27Z</time>
      </trkpt>
      <trkpt lat="47.88467" lon="6.71372">
        <ele>691.2</ele>
        <time>2026-03-29T05:33:33Z</time>
      </trkpt>
      <trkpt lat="47.88465" lon="6.71368">
        <ele>692.1</ele>
        <time>2026-03-29T05:33:38Z</time>
      </trkpt>
      <trkpt lat="47.88463" lon="6.71363">
        <ele>693.3</ele>
        <time>2026-03-29T05:33:43Z</time>
      </trkpt>
      <trkpt lat="47.88462" lon="6.71356">
        <ele>695.1</ele>
        <time>2026-03-29T05:33:48Z</time>
      </trkpt>
      <trkpt lat="47.8846" lon="6.71349">
        <ele>696.9</ele>
        <time>2026-03-29T05:33:53Z</time>
      </trkpt>
      <trkpt lat="47.88459" lon="6.71345">
        <ele>697.9</ele>
        <time>2026-03-29T05:33:58Z</time>
      </trkpt>
      <trkpt lat="47.88458" lon="6.7134">
        <ele>699.2</ele>
        <time>2026-03-29T05:34:03Z</time>
      </trkpt>
      <trkpt lat="47.88457" lon="6.71334">
        <ele>700.8</ele>
        <time>2026-03-29T05:34:08Z</time>
      </trkpt>
      <trkpt lat="47.88456" lon="6.71328">
        <ele>702.1</ele>
        <time>2026-03-29T05:34:13Z</time>
      </trkpt>
      <trkpt lat="47.88455" lon="6.71326">
        <ele>702.5</ele>
        <time>2026-03-29T05:34:18Z</time>
      </trkpt>
      <trkpt lat="47.88455" lon="6.71325">
        <ele>702.7</ele>
        <time>2026-03-29T05:34:23Z</time>
      </trkpt>
      <trkpt lat="47.88455" lon="6.71325">
        <ele>702.7</ele>
        <time>2026-03-29T05:34:28Z</time>
      </trkpt>
      <trkpt lat="47.88455" lon="6.71325">
        <ele>702.7</ele>
        <time>2026-03-29T05:34:33Z</time>
      </trkpt>
      <trkpt lat="47.88455" lon="6.71325">
        <ele>702.7</ele>
        <time>2026-03-29T05:34:38Z</time>
      </trkpt>
      <trkpt lat="47.88455" lon="6.71325">
        <ele>702.7</ele>
        <time>2026-03-29T05:34:43Z</time>
      </trkpt>
      <trkpt lat="47.88455" lon="6.71325">
        <ele>702.7</ele>
        <time>2026-03-29T05:34:48Z</time>
      </trkpt>
      <trkpt lat="47.88455" lon="6.71325">
        <ele>702.7</ele>
        <time>2026-03-29T05:34:53Z</time>
      </trkpt>
      <trkpt lat="47.88455" lon="6.71325">
        <ele>702.7</ele>
        <time>2026-03-29T05:34:58Z</time>
      </trkpt>
      <trkpt lat="47.88453" lon="6.71322">
        <ele>703.3</ele>
        <time>2026-03-29T05:35:03Z</time>
      </trkpt>
      <trkpt lat="47.88453" lon="6.71318">
        <ele>704.2</ele>
        <time>2026-03-29T05:35:08Z</time>
      </trkpt>
      <trkpt lat="47.88454" lon="6.71313">
        <ele>705.3</ele>
        <time>2026-03-29T05:35:13Z</time>
      </trkpt>
      <trkpt lat="47.88454" lon="6.71308">
        <ele>706.4</ele>
        <time>2026-03-29T05:35:18Z</time>
      </trkpt>
      <trkpt lat="47.88453" lon="6.71303">
        <ele>707.5</ele>
        <time>2026-03-29T05:35:23Z</time>
      </trkpt>
      <trkpt lat="47.88453" lon="6.71298">
        <ele>708.6</ele>
        <time>2026-03-29T05:35:28Z</time>
      </trkpt>
      <trkpt lat="47.88451" lon="6.71289">
        <ele>710.7</ele>
        <time>2026-03-29T05:35:33Z</time>
      </trkpt>
      <trkpt lat="47.8845" lon="6.71283">
        <ele>712.1</ele>
        <time>2026-03-29T05:35:38Z</time>
      </trkpt>
      <trkpt lat="47.88448" lon="6.71276">
        <ele>713.7</ele>
        <time>2026-03-29T05:35:43Z</time>
      </trkpt>
      <trkpt lat="47.88446" lon="6.7127">
        <ele>715.2</ele>
        <time>2026-03-29T05:35:48Z</time>
      </trkpt>
      <trkpt lat="47.88446" lon="6.71267">
        <ele>715.9</ele>
        <time>2026-03-29T05:35:53Z</time>
      </trkpt>
      <trkpt lat="47.88446" lon="6.71267">
        <ele>715.9</ele>
        <time>2026-03-29T05:35:58Z</time>
      </trkpt>
      <trkpt lat="47.88446" lon="6.71267">
        <ele>715.9</ele>
        <time>2026-03-29T05:36:03Z</time>
      </trkpt>
      <trkpt lat="47.88446" lon="6.71267">
        <ele>715.9</ele>
        <time>2026-03-29T05:36:08Z</time>
      </trkpt>
      <trkpt lat="47.88446" lon="6.71267">
        <ele>715.9</ele>
        <time>2026-03-29T05:36:13Z</time>
      </trkpt>
      <trkpt lat="47.88446" lon="6.71267">
        <ele>715.9</ele>
        <time>2026-03-29T05:36:18Z</time>
      </trkpt>
      <trkpt lat="47.88442" lon="6.71261">
        <ele>717.5</ele>
        <time>2026-03-29T05:36:23Z</time>
      </trkpt>
      <trkpt lat="47.88442" lon="6.71258">
        <ele>718.3</ele>
        <time>2026-03-29T05:36:28Z</time>
      </trkpt>
      <trkpt lat="47.88441" lon="6.71254">
        <ele>719.3</ele>
        <time>2026-03-29T05:36:33Z</time>
      </trkpt>
      <trkpt lat="47.8844" lon="6.71249">
        <ele>720.4</ele>
        <time>2026-03-29T05:36:38Z</time>
      </trkpt>
      <trkpt lat="47.88438" lon="6.71245">
        <ele>721.1</ele>
        <time>2026-03-29T05:36:43Z</time>
      </trkpt>
      <trkpt lat="47.88438" lon="6.71241">
        <ele>721.6</ele>
        <time>2026-03-29T05:36:48Z</time>
      </trkpt>
      <trkpt lat="47.88439" lon="6.71236">
        <ele>722.1</ele>
        <time>2026-03-29T05:36:53Z</time>
      </trkpt>
      <trkpt lat="47.88438" lon="6.7123">
        <ele>723</ele>
        <time>2026-03-29T05:36:58Z</time>
      </trkpt>
      <trkpt lat="47.88438" lon="6.71225">
        <ele>723.6</ele>
        <time>2026-03-29T05:37:03Z</time>
      </trkpt>
      <trkpt lat="47.88437" lon="6.71218">
        <ele>724.6</ele>
        <time>2026-03-29T05:37:08Z</time>
      </trkpt>
      <trkpt lat="47.88438" lon="6.71214">
        <ele>725</ele>
        <time>2026-03-29T05:37:13Z</time>
      </trkpt>
      <trkpt lat="47.88438" lon="6.71208">
        <ele>725.7</ele>
        <time>2026-03-29T05:37:18Z</time>
      </trkpt>
      <trkpt lat="47.88437" lon="6.71203">
        <ele>726.5</ele>
        <time>2026-03-29T05:37:23Z</time>
      </trkpt>
      <trkpt lat="47.88437" lon="6.71198">
        <ele>727.1</ele>
        <time>2026-03-29T05:37:28Z</time>
      </trkpt>
      <trkpt lat="47.88436" lon="6.71193">
        <ele>728</ele>
        <time>2026-03-29T05:37:33Z</time>
      </trkpt>
      <trkpt lat="47.88436" lon="6.71188">
        <ele>728.6</ele>
        <time>2026-03-29T05:37:38Z</time>
      </trkpt>
      <trkpt lat="47.88434" lon="6.71184">
        <ele>729.5</ele>
        <time>2026-03-29T05:37:43Z</time>
      </trkpt>
      <trkpt lat="47.88434" lon="6.7118">
        <ele>730.1</ele>
        <time>2026-03-29T05:37:48Z</time>
      </trkpt>
      <trkpt lat="47.88433" lon="6.71175">
        <ele>731</ele>
        <time>2026-03-29T05:37:53Z</time>
      </trkpt>
      <trkpt lat="47.88431" lon="6.71169">
        <ele>732.2</ele>
        <time>2026-03-29T05:37:58Z</time>
      </trkpt>
      <trkpt lat="47.8843" lon="6.71164">
        <ele>732.8</ele>
        <time>2026-03-29T05:38:03Z</time>
      </trkpt>
      <trkpt lat="47.88428" lon="6.71162">
        <ele>733.2</ele>
        <time>2026-03-29T05:38:08Z</time>
      </trkpt>
      <trkpt lat="47.88427" lon="6.71161">
        <ele>733.5</ele>
        <time>2026-03-29T05:38:13Z</time>
      </trkpt>
      <trkpt lat="47.88427" lon="6.71161">
        <ele>733.5</ele>
        <time>2026-03-29T05:38:18Z</time>
      </trkpt>
      <trkpt lat="47.88427" lon="6.71161">
        <ele>733.5</ele>
        <time>2026-03-29T05:38:23Z</time>
      </trkpt>
      <trkpt lat="47.88426" lon="6.71154">
        <ele>733.6</ele>
        <time>2026-03-29T05:38:28Z</time>
      </trkpt>
      <trkpt lat="47.88425" lon="6.7115">
        <ele>733.8</ele>
        <time>2026-03-29T05:38:33Z</time>
      </trkpt>
      <trkpt lat="47.88425" lon="6.71146">
        <ele>733.8</ele>
        <time>2026-03-29T05:38:38Z</time>
      </trkpt>
      <trkpt lat="47.88422" lon="6.71143">
        <ele>734.5</ele>
        <time>2026-03-29T05:38:43Z</time>
      </trkpt>
      <trkpt lat="47.8842" lon="6.71138">
        <ele>734.9</ele>
        <time>2026-03-29T05:38:48Z</time>
      </trkpt>
      <trkpt lat="47.88418" lon="6.71133">
        <ele>735.3</ele>
        <time>2026-03-29T05:38:53Z</time>
      </trkpt>
      <trkpt lat="47.88415" lon="6.71129">
        <ele>735.7</ele>
        <time>2026-03-29T05:38:58Z</time>
      </trkpt>
      <trkpt lat="47.88411" lon="6.71125">
        <ele>736.1</ele>
        <time>2026-03-29T05:39:03Z</time>
      </trkpt>
      <trkpt lat="47.88408" lon="6.71121">
        <ele>736.5</ele>
        <time>2026-03-29T05:39:08Z</time>
      </trkpt>
      <trkpt lat="47.88405" lon="6.71119">
        <ele>736.8</ele>
        <time>2026-03-29T05:39:13Z</time>
      </trkpt>
      <trkpt lat="47.88404" lon="6.71117">
        <ele>736.9</ele>
        <time>2026-03-29T05:39:18Z</time>
      </trkpt>
      <trkpt lat="47.884" lon="6.71114">
        <ele>737.3</ele>
        <time>2026-03-29T05:39:23Z</time>
      </trkpt>
      <trkpt lat="47.88397" lon="6.71111">
        <ele>737.7</ele>
        <time>2026-03-29T05:39:28Z</time>
      </trkpt>
      <trkpt lat="47.88394" lon="6.71108">
        <ele>738</ele>
        <time>2026-03-29T05:39:33Z</time>
      </trkpt>
      <trkpt lat="47.88394" lon="6.71108">
        <ele>738</ele>
        <time>2026-03-29T05:39:38Z</time>
      </trkpt>
      <trkpt lat="47.88394" lon="6.71109">
        <ele>738</ele>
        <time>2026-03-29T05:39:43Z</time>
      </trkpt>
      <trkpt lat="47.88394" lon="6.71109">
        <ele>738</ele>
        <time>2026-03-29T05:39:48Z</time>
      </trkpt>
      <trkpt lat="47.88388" lon="6.71105">
        <ele>738.8</ele>
        <time>2026-03-29T05:39:53Z</time>
      </trkpt>
      <trkpt lat="47.88385" lon="6.71098">
        <ele>739.2</ele>
        <time>2026-03-29T05:39:58Z</time>
      </trkpt>
      <trkpt lat="47.88381" lon="6.71091">
        <ele>739.7</ele>
        <time>2026-03-29T05:40:03Z</time>
      </trkpt>
      <trkpt lat="47.88377" lon="6.71082">
        <ele>740.2</ele>
        <time>2026-03-29T05:40:08Z</time>
      </trkpt>
      <trkpt lat="47.88373" lon="6.71073">
        <ele>740.2</ele>
        <time>2026-03-29T05:40:13Z</time>
      </trkpt>
      <trkpt lat="47.88369" lon="6.71065">
        <ele>740.3</ele>
        <time>2026-03-29T05:40:18Z</time>
      </trkpt>
      <trkpt lat="47.88366" lon="6.71056">
        <ele>740.2</ele>
        <time>2026-03-29T05:40:23Z</time>
      </trkpt>
      <trkpt lat="47.88363" lon="6.71048">
        <ele>740.2</ele>
        <time>2026-03-29T05:40:28Z</time>
      </trkpt>
      <trkpt lat="47.88361" lon="6.7104">
        <ele>740.1</ele>
        <time>2026-03-29T05:40:33Z</time>
      </trkpt>
      <trkpt lat="47.88359" lon="6.71033">
        <ele>740.1</ele>
        <time>2026-03-29T05:40:38Z</time>
      </trkpt>
      <trkpt lat="47.88356" lon="6.71026">
        <ele>740.2</ele>
        <time>2026-03-29T05:40:43Z</time>
      </trkpt>
      <trkpt lat="47.88354" lon="6.71018">
        <ele>740.1</ele>
        <time>2026-03-29T05:40:48Z</time>
      </trkpt>
      <trkpt lat="47.88351" lon="6.71012">
        <ele>740.4</ele>
        <time>2026-03-29T05:40:53Z</time>
      </trkpt>
      <trkpt lat="47.88348" lon="6.71004">
        <ele>740.5</ele>
        <time>2026-03-29T05:40:58Z</time>
      </trkpt>
      <trkpt lat="47.88343" lon="6.70996">
        <ele>740.8</ele>
        <time>2026-03-29T05:41:03Z</time>
      </trkpt>
      <trkpt lat="47.88341" lon="6.70991">
        <ele>740.5</ele>
        <time>2026-03-29T05:41:08Z</time>
      </trkpt>
      <trkpt lat="47.88339" lon="6.70988">
        <ele>740.5</ele>
        <time>2026-03-29T05:41:13Z</time>
      </trkpt>
      <trkpt lat="47.88336" lon="6.70986">
        <ele>740.7</ele>
        <time>2026-03-29T05:41:18Z</time>
      </trkpt>
      <trkpt lat="47.88331" lon="6.70979">
        <ele>740.1</ele>
        <time>2026-03-29T05:41:23Z</time>
      </trkpt>
      <trkpt lat="47.88327" lon="6.7097">
        <ele>738.8</ele>
        <time>2026-03-29T05:41:28Z</time>
      </trkpt>
      <trkpt lat="47.88323" lon="6.70963">
        <ele>737.7</ele>
        <time>2026-03-29T05:41:33Z</time>
      </trkpt>
      <trkpt lat="47.88319" lon="6.70956">
        <ele>736.7</ele>
        <time>2026-03-29T05:41:38Z</time>
      </trkpt>
      <trkpt lat="47.88318" lon="6.70954">
        <ele>736.4</ele>
        <time>2026-03-29T05:41:43Z</time>
      </trkpt>
      <trkpt lat="47.88318" lon="6.70954">
        <ele>736.4</ele>
        <time>2026-03-29T05:41:48Z</time>
      </trkpt>
      <trkpt lat="47.88317" lon="6.7095">
        <ele>735.9</ele>
        <time>2026-03-29T05:41:53Z</time>
      </trkpt>
      <trkpt lat="47.88312" lon="6.70944">
        <ele>735</ele>
        <time>2026-03-29T05:41:58Z</time>
      </trkpt>
      <trkpt lat="47.88308" lon="6.70941">
        <ele>734.6</ele>
        <time>2026-03-29T05:42:03Z</time>
      </trkpt>
      <trkpt lat="47.88305" lon="6.70937">
        <ele>734</ele>
        <time>2026-03-29T05:42:08Z</time>
      </trkpt>
      <trkpt lat="47.88301" lon="6.70932">
        <ele>733.4</ele>
        <time>2026-03-29T05:42:13Z</time>
      </trkpt>
      <trkpt lat="47.88298" lon="6.70928">
        <ele>732.8</ele>
        <time>2026-03-29T05:42:18Z</time>
      </trkpt>
      <trkpt lat="47.88294" lon="6.70922">
        <ele>732.1</ele>
        <time>2026-03-29T05:42:23Z</time>
      </trkpt>
      <trkpt lat="47.8829" lon="6.70915">
        <ele>731.4</ele>
        <time>2026-03-29T05:42:28Z</time>
      </trkpt>
      <trkpt lat="47.88287" lon="6.70905">
        <ele>730.5</ele>
        <time>2026-03-29T05:42:33Z</time>
      </trkpt>
      <trkpt lat="47.88283" lon="6.70898">
        <ele>730</ele>
        <time>2026-03-29T05:42:38Z</time>
      </trkpt>
      <trkpt lat="47.88277" lon="6.70891">
        <ele>729.4</ele>
        <time>2026-03-29T05:42:43Z</time>
      </trkpt>
      <trkpt lat="47.8827" lon="6.70885">
        <ele>728.9</ele>
        <time>2026-03-29T05:42:48Z</time>
      </trkpt>
      <trkpt lat="47.88264" lon="6.7088">
        <ele>728.5</ele>
        <time>2026-03-29T05:42:53Z</time>
      </trkpt>
      <trkpt lat="47.88257" lon="6.70877">
        <ele>728.2</ele>
        <time>2026-03-29T05:42:58Z</time>
      </trkpt>
      <trkpt lat="47.88251" lon="6.7087">
        <ele>727.6</ele>
        <time>2026-03-29T05:43:03Z</time>
      </trkpt>
      <trkpt lat="47.88245" lon="6.70862">
        <ele>727.7</ele>
        <time>2026-03-29T05:43:08Z</time>
      </trkpt>
      <trkpt lat="47.88238" lon="6.70855">
        <ele>728.2</ele>
        <time>2026-03-29T05:43:13Z</time>
      </trkpt>
      <trkpt lat="47.88232" lon="6.70849">
        <ele>728.6</ele>
        <time>2026-03-29T05:43:18Z</time>
      </trkpt>
      <trkpt lat="47.88226" lon="6.70843">
        <ele>729.1</ele>
        <time>2026-03-29T05:43:23Z</time>
      </trkpt>
      <trkpt lat="47.8822" lon="6.70839">
        <ele>729.7</ele>
        <time>2026-03-29T05:43:28Z</time>
      </trkpt>
      <trkpt lat="47.88216" lon="6.70837">
        <ele>730.1</ele>
        <time>2026-03-29T05:43:33Z</time>
      </trkpt>
      <trkpt lat="47.88209" lon="6.70835">
        <ele>731</ele>
        <time>2026-03-29T05:43:38Z</time>
      </trkpt>
      <trkpt lat="47.88203" lon="6.70838">
        <ele>732</ele>
        <time>2026-03-29T05:43:43Z</time>
      </trkpt>
      <trkpt lat="47.88197" lon="6.70844">
        <ele>733.2</ele>
        <time>2026-03-29T05:43:48Z</time>
      </trkpt>
      <trkpt lat="47.88195" lon="6.70847">
        <ele>733.7</ele>
        <time>2026-03-29T05:43:53Z</time>
      </trkpt>
      <trkpt lat="47.88195" lon="6.70848">
        <ele>733.7</ele>
        <time>2026-03-29T05:43:58Z</time>
      </trkpt>
      <trkpt lat="47.88196" lon="6.70844">
        <ele>733.4</ele>
        <time>2026-03-29T05:44:03Z</time>
      </trkpt>
      <trkpt lat="47.88195" lon="6.7083">
        <ele>732.8</ele>
        <time>2026-03-29T05:44:08Z</time>
      </trkpt>
      <trkpt lat="47.88192" lon="6.7082">
        <ele>732.7</ele>
        <time>2026-03-29T05:44:13Z</time>
      </trkpt>
      <trkpt lat="47.8819" lon="6.7081">
        <ele>732.4</ele>
        <time>2026-03-29T05:44:18Z</time>
      </trkpt>
      <trkpt lat="47.88188" lon="6.70802">
        <ele>732.2</ele>
        <time>2026-03-29T05:44:23Z</time>
      </trkpt>
      <trkpt lat="47.88184" lon="6.70793">
        <ele>732.2</ele>
        <time>2026-03-29T05:44:28Z</time>
      </trkpt>
      <trkpt lat="47.88183" lon="6.70787">
        <ele>732</ele>
        <time>2026-03-29T05:44:33Z</time>
      </trkpt>
      <trkpt lat="47.88183" lon="6.70787">
        <ele>732</ele>
        <time>2026-03-29T05:44:38Z</time>
      </trkpt>
      <trkpt lat="47.88183" lon="6.70787">
        <ele>732</ele>
        <time>2026-03-29T05:44:43Z</time>
      </trkpt>
      <trkpt lat="47.88183" lon="6.70787">
        <ele>732</ele>
        <time>2026-03-29T05:44:48Z</time>
      </trkpt>
      <trkpt lat="47.88183" lon="6.70787">
        <ele>732</ele>
        <time>2026-03-29T05:44:53Z</time>
      </trkpt>
      <trkpt lat="47.88183" lon="6.70787">
        <ele>732</ele>
        <time>2026-03-29T05:44:58Z</time>
      </trkpt>
      <trkpt lat="47.88183" lon="6.70787">
        <ele>732</ele>
        <time>2026-03-29T05:45:03Z</time>
      </trkpt>
      <trkpt lat="47.88183" lon="6.70787">
        <ele>732</ele>
        <time>2026-03-29T05:45:08Z</time>
      </trkpt>
      <trkpt lat="47.88183" lon="6.70787">
        <ele>732</ele>
        <time>2026-03-29T05:45:13Z</time>
      </trkpt>
      <trkpt lat="47.88183" lon="6.70787">
        <ele>732</ele>
        <time>2026-03-29T05:45:18Z</time>
      </trkpt>
      <trkpt lat="47.88183" lon="6.70787">
        <ele>732</ele>
        <time>2026-03-29T05:45:23Z</time>
      </trkpt>
      <trkpt lat="47.88183" lon="6.70787">
        <ele>732</ele>
        <time>2026-03-29T05:45:28Z</time>
      </trkpt>
      <trkpt lat="47.88177" lon="6.70781">
        <ele>732.2</ele>
        <time>2026-03-29T05:45:33Z</time>
      </trkpt>
      <trkpt lat="47.88176" lon="6.70774">
        <ele>731.9</ele>
        <time>2026-03-29T05:45:38Z</time>
      </trkpt>
      <trkpt lat="47.88175" lon="6.70764">
        <ele>731.3</ele>
        <time>2026-03-29T05:45:43Z</time>
      </trkpt>
      <trkpt lat="47.88176" lon="6.70752">
        <ele>730.5</ele>
        <time>2026-03-29T05:45:48Z</time>
      </trkpt>
      <trkpt lat="47.88179" lon="6.70742">
        <ele>730.3</ele>
        <time>2026-03-29T05:45:53Z</time>
      </trkpt>
      <trkpt lat="47.88181" lon="6.7073">
        <ele>730.5</ele>
        <time>2026-03-29T05:45:58Z</time>
      </trkpt>
      <trkpt lat="47.88182" lon="6.70722">
        <ele>730.7</ele>
        <time>2026-03-29T05:46:03Z</time>
      </trkpt>
      <trkpt lat="47.88183" lon="6.70715">
        <ele>730.8</ele>
        <time>2026-03-29T05:46:08Z</time>
      </trkpt>
      <trkpt lat="47.88184" lon="6.70706">
        <ele>731</ele>
        <time>2026-03-29T05:46:13Z</time>
      </trkpt>
      <trkpt lat="47.88185" lon="6.70697">
        <ele>731.2</ele>
        <time>2026-03-29T05:46:18Z</time>
      </trkpt>
      <trkpt lat="47.88184" lon="6.70693">
        <ele>731.4</ele>
        <time>2026-03-29T05:46:23Z</time>
      </trkpt>
      <trkpt lat="47.88187" lon="6.70688">
        <ele>731.4</ele>
        <time>2026-03-29T05:46:28Z</time>
      </trkpt>
      <trkpt lat="47.88188" lon="6.70678">
        <ele>731.6</ele>
        <time>2026-03-29T05:46:33Z</time>
      </trkpt>
      <trkpt lat="47.88189" lon="6.70669">
        <ele>731.9</ele>
        <time>2026-03-29T05:46:38Z</time>
      </trkpt>
      <trkpt lat="47.8819" lon="6.7066">
        <ele>732.5</ele>
        <time>2026-03-29T05:46:43Z</time>
      </trkpt>
      <trkpt lat="47.88191" lon="6.70652">
        <ele>733.2</ele>
        <time>2026-03-29T05:46:48Z</time>
      </trkpt>
      <trkpt lat="47.88191" lon="6.70645">
        <ele>733.9</ele>
        <time>2026-03-29T05:46:53Z</time>
      </trkpt>
      <trkpt lat="47.8819" lon="6.70638">
        <ele>734.6</ele>
        <time>2026-03-29T05:46:58Z</time>
      </trkpt>
      <trkpt lat="47.88188" lon="6.70631">
        <ele>735.4</ele>
        <time>2026-03-29T05:47:03Z</time>
      </trkpt>
      <trkpt lat="47.88189" lon="6.70623">
        <ele>736.1</ele>
        <time>2026-03-29T05:47:08Z</time>
      </trkpt>
      <trkpt lat="47.88192" lon="6.70615">
        <ele>736.6</ele>
        <time>2026-03-29T05:47:13Z</time>
      </trkpt>
      <trkpt lat="47.88198" lon="6.70612">
        <ele>736.4</ele>
        <time>2026-03-29T05:47:18Z</time>
      </trkpt>
      <trkpt lat="47.88203" lon="6.70606">
        <ele>736.5</ele>
        <time>2026-03-29T05:47:23Z</time>
      </trkpt>
      <trkpt lat="47.88208" lon="6.70598">
        <ele>736.8</ele>
        <time>2026-03-29T05:47:28Z</time>
      </trkpt>
      <trkpt lat="47.88214" lon="6.70592">
        <ele>736.8</ele>
        <time>2026-03-29T05:47:33Z</time>
      </trkpt>
      <trkpt lat="47.88219" lon="6.70585">
        <ele>736.8</ele>
        <time>2026-03-29T05:47:38Z</time>
      </trkpt>
      <trkpt lat="47.88222" lon="6.70577">
        <ele>737.2</ele>
        <time>2026-03-29T05:47:43Z</time>
      </trkpt>
      <trkpt lat="47.88227" lon="6.70571">
        <ele>737.2</ele>
        <time>2026-03-29T05:47:48Z</time>
      </trkpt>
      <trkpt lat="47.88231" lon="6.70563">
        <ele>737.4</ele>
        <time>2026-03-29T05:47:53Z</time>
      </trkpt>
      <trkpt lat="47.88236" lon="6.70553">
        <ele>737.7</ele>
        <time>2026-03-29T05:47:58Z</time>
      </trkpt>
      <trkpt lat="47.88237" lon="6.7055">
        <ele>737.8</ele>
        <time>2026-03-29T05:48:03Z</time>
      </trkpt>
      <trkpt lat="47.88238" lon="6.70544">
        <ele>738.1</ele>
        <time>2026-03-29T05:48:08Z</time>
      </trkpt>
      <trkpt lat="47.88242" lon="6.70534">
        <ele>738.4</ele>
        <time>2026-03-29T05:48:13Z</time>
      </trkpt>
      <trkpt lat="47.88245" lon="6.70524">
        <ele>738.8</ele>
        <time>2026-03-29T05:48:18Z</time>
      </trkpt>
      <trkpt lat="47.88246" lon="6.70513">
        <ele>739.5</ele>
        <time>2026-03-29T05:48:23Z</time>
      </trkpt>
      <trkpt lat="47.88247" lon="6.70503">
        <ele>740.1</ele>
        <time>2026-03-29T05:48:28Z</time>
      </trkpt>
      <trkpt lat="47.88248" lon="6.70494">
        <ele>740.9</ele>
        <time>2026-03-29T05:48:33Z</time>
      </trkpt>
      <trkpt lat="47.88247" lon="6.70483">
        <ele>742.2</ele>
        <time>2026-03-29T05:48:38Z</time>
      </trkpt>
      <trkpt lat="47.88247" lon="6.70472">
        <ele>743.4</ele>
        <time>2026-03-29T05:48:43Z</time>
      </trkpt>
      <trkpt lat="47.88245" lon="6.70461">
        <ele>744.9</ele>
        <time>2026-03-29T05:48:48Z</time>
      </trkpt>
      <trkpt lat="47.88244" lon="6.7045">
        <ele>746.3</ele>
        <time>2026-03-29T05:48:53Z</time>
      </trkpt>
      <trkpt lat="47.88244" lon="6.70445">
        <ele>746.9</ele>
        <time>2026-03-29T05:48:58Z</time>
      </trkpt>
      <trkpt lat="47.88245" lon="6.70438">
        <ele>747.5</ele>
        <time>2026-03-29T05:49:03Z</time>
      </trkpt>
      <trkpt lat="47.88247" lon="6.70428">
        <ele>748.3</ele>
        <time>2026-03-29T05:49:08Z</time>
      </trkpt>
      <trkpt lat="47.88249" lon="6.70418">
        <ele>749</ele>
        <time>2026-03-29T05:49:13Z</time>
      </trkpt>
      <trkpt lat="47.88251" lon="6.70409">
        <ele>749.6</ele>
        <time>2026-03-29T05:49:18Z</time>
      </trkpt>
      <trkpt lat="47.88253" lon="6.70398">
        <ele>750.4</ele>
        <time>2026-03-29T05:49:23Z</time>
      </trkpt>
      <trkpt lat="47.88252" lon="6.70387">
        <ele>751.8</ele>
        <time>2026-03-29T05:49:28Z</time>
      </trkpt>
      <trkpt lat="47.88254" lon="6.70378">
        <ele>752.3</ele>
        <time>2026-03-29T05:49:33Z</time>
      </trkpt>
      <trkpt lat="47.88255" lon="6.70367">
        <ele>753.2</ele>
        <time>2026-03-29T05:49:38Z</time>
      </trkpt>
      <trkpt lat="47.88256" lon="6.70355">
        <ele>754.2</ele>
        <time>2026-03-29T05:49:43Z</time>
      </trkpt>
      <trkpt lat="47.88258" lon="6.70345">
        <ele>754.7</ele>
        <time>2026-03-29T05:49:48Z</time>
      </trkpt>
      <trkpt lat="47.88258" lon="6.70336">
        <ele>755.6</ele>
        <time>2026-03-29T05:49:53Z</time>
      </trkpt>
      <trkpt lat="47.8826" lon="6.70327">
        <ele>755.3</ele>
        <time>2026-03-29T05:49:58Z</time>
      </trkpt>
      <trkpt lat="47.88262" lon="6.70317">
        <ele>754.7</ele>
        <time>2026-03-29T05:50:03Z</time>
      </trkpt>
      <trkpt lat="47.88264" lon="6.70308">
        <ele>754.1</ele>
        <time>2026-03-29T05:50:08Z</time>
      </trkpt>
      <trkpt lat="47.88263" lon="6.70302">
        <ele>754.3</ele>
        <time>2026-03-29T05:50:13Z</time>
      </trkpt>
      <trkpt lat="47.88264" lon="6.70293">
        <ele>754</ele>
        <time>2026-03-29T05:50:18Z</time>
      </trkpt>
      <trkpt lat="47.88266" lon="6.70285">
        <ele>753.5</ele>
        <time>2026-03-29T05:50:23Z</time>
      </trkpt>
      <trkpt lat="47.88267" lon="6.70277">
        <ele>753.3</ele>
        <time>2026-03-29T05:50:28Z</time>
      </trkpt>
      <trkpt lat="47.8827" lon="6.7027">
        <ele>752.7</ele>
        <time>2026-03-29T05:50:33Z</time>
      </trkpt>
      <trkpt lat="47.88272" lon="6.70261">
        <ele>752.3</ele>
        <time>2026-03-29T05:50:38Z</time>
      </trkpt>
      <trkpt lat="47.88275" lon="6.70252">
        <ele>751.8</ele>
        <time>2026-03-29T05:50:43Z</time>
      </trkpt>
      <trkpt lat="47.88277" lon="6.70245">
        <ele>751.3</ele>
        <time>2026-03-29T05:50:48Z</time>
      </trkpt>
      <trkpt lat="47.8828" lon="6.70237">
        <ele>750.7</ele>
        <time>2026-03-29T05:50:53Z</time>
      </trkpt>
      <trkpt lat="47.88281" lon="6.7023">
        <ele>750.4</ele>
        <time>2026-03-29T05:50:58Z</time>
      </trkpt>
      <trkpt lat="47.88282" lon="6.70223">
        <ele>750.1</ele>
        <time>2026-03-29T05:51:03Z</time>
      </trkpt>
      <trkpt lat="47.88284" lon="6.70215">
        <ele>749.6</ele>
        <time>2026-03-29T05:51:08Z</time>
      </trkpt>
      <trkpt lat="47.88286" lon="6.7021">
        <ele>749.3</ele>
        <time>2026-03-29T05:51:13Z</time>
      </trkpt>
      <trkpt lat="47.88286" lon="6.70205">
        <ele>749.2</ele>
        <time>2026-03-29T05:51:18Z</time>
      </trkpt>
      <trkpt lat="47.88287" lon="6.70199">
        <ele>749</ele>
        <time>2026-03-29T05:51:23Z</time>
      </trkpt>
      <trkpt lat="47.88288" lon="6.70193">
        <ele>748.8</ele>
        <time>2026-03-29T05:51:28Z</time>
      </trkpt>
      <trkpt lat="47.88289" lon="6.70186">
        <ele>748.5</ele>
        <time>2026-03-29T05:51:33Z</time>
      </trkpt>
      <trkpt lat="47.88289" lon="6.70178">
        <ele>748.4</ele>
        <time>2026-03-29T05:51:38Z</time>
      </trkpt>
      <trkpt lat="47.88289" lon="6.70171">
        <ele>748.3</ele>
        <time>2026-03-29T05:51:43Z</time>
      </trkpt>
      <trkpt lat="47.88289" lon="6.70165">
        <ele>748.2</ele>
        <time>2026-03-29T05:51:48Z</time>
      </trkpt>
      <trkpt lat="47.88289" lon="6.70158">
        <ele>748.1</ele>
        <time>2026-03-29T05:51:53Z</time>
      </trkpt>
      <trkpt lat="47.88288" lon="6.7015">
        <ele>748</ele>
        <time>2026-03-29T05:51:58Z</time>
      </trkpt>
      <trkpt lat="47.88286" lon="6.70141">
        <ele>748.1</ele>
        <time>2026-03-29T05:52:03Z</time>
      </trkpt>
      <trkpt lat="47.88284" lon="6.70132">
        <ele>748.1</ele>
        <time>2026-03-29T05:52:08Z</time>
      </trkpt>
      <trkpt lat="47.88283" lon="6.70125">
        <ele>748</ele>
        <time>2026-03-29T05:52:13Z</time>
      </trkpt>
      <trkpt lat="47.8828" lon="6.70117">
        <ele>748.1</ele>
        <time>2026-03-29T05:52:18Z</time>
      </trkpt>
      <trkpt lat="47.88277" lon="6.70108">
        <ele>748.2</ele>
        <time>2026-03-29T05:52:23Z</time>
      </trkpt>
      <trkpt lat="47.88275" lon="6.701">
        <ele>748.2</ele>
        <time>2026-03-29T05:52:28Z</time>
      </trkpt>
      <trkpt lat="47.88274" lon="6.70095">
        <ele>748.2</ele>
        <time>2026-03-29T05:52:33Z</time>
      </trkpt>
      <trkpt lat="47.88273" lon="6.70087">
        <ele>748.1</ele>
        <time>2026-03-29T05:52:38Z</time>
      </trkpt>
      <trkpt lat="47.88273" lon="6.70079">
        <ele>748.1</ele>
        <time>2026-03-29T05:52:43Z</time>
      </trkpt>
      <trkpt lat="47.88273" lon="6.70071">
        <ele>748.2</ele>
        <time>2026-03-29T05:52:48Z</time>
      </trkpt>
      <trkpt lat="47.88274" lon="6.70064">
        <ele>748.3</ele>
        <time>2026-03-29T05:52:53Z</time>
      </trkpt>
      <trkpt lat="47.88276" lon="6.70055">
        <ele>748.2</ele>
        <time>2026-03-29T05:52:58Z</time>
      </trkpt>
      <trkpt lat="47.88278" lon="6.70048">
        <ele>748.2</ele>
        <time>2026-03-29T05:53:03Z</time>
      </trkpt>
      <trkpt lat="47.88279" lon="6.7004">
        <ele>748.3</ele>
        <time>2026-03-29T05:53:08Z</time>
      </trkpt>
      <trkpt lat="47.88281" lon="6.70032">
        <ele>748.3</ele>
        <time>2026-03-29T05:53:13Z</time>
      </trkpt>
      <trkpt lat="47.88283" lon="6.70023">
        <ele>748.4</ele>
        <time>2026-03-29T05:53:18Z</time>
      </trkpt>
      <trkpt lat="47.88284" lon="6.70014">
        <ele>748.5</ele>
        <time>2026-03-29T05:53:23Z</time>
      </trkpt>
      <trkpt lat="47.88285" lon="6.70005">
        <ele>748.6</ele>
        <time>2026-03-29T05:53:28Z</time>
      </trkpt>
      <trkpt lat="47.88285" lon="6.69994">
        <ele>748.8</ele>
        <time>2026-03-29T05:53:33Z</time>
      </trkpt>
      <trkpt lat="47.88286" lon="6.69985">
        <ele>748.9</ele>
        <time>2026-03-29T05:53:38Z</time>
      </trkpt>
      <trkpt lat="47.88286" lon="6.69973">
        <ele>749.1</ele>
        <time>2026-03-29T05:53:43Z</time>
      </trkpt>
      <trkpt lat="47.88286" lon="6.69964">
        <ele>749.3</ele>
        <time>2026-03-29T05:53:48Z</time>
      </trkpt>
      <trkpt lat="47.88285" lon="6.69953">
        <ele>749.5</ele>
        <time>2026-03-29T05:53:53Z</time>
      </trkpt>
      <trkpt lat="47.88284" lon="6.69944">
        <ele>749.6</ele>
        <time>2026-03-29T05:53:58Z</time>
      </trkpt>
      <trkpt lat="47.88283" lon="6.69934">
        <ele>749.8</ele>
        <time>2026-03-29T05:54:03Z</time>
      </trkpt>
      <trkpt lat="47.88283" lon="6.69923">
        <ele>749.9</ele>
        <time>2026-03-29T05:54:08Z</time>
      </trkpt>
      <trkpt lat="47.88281" lon="6.69912">
        <ele>750.1</ele>
        <time>2026-03-29T05:54:13Z</time>
      </trkpt>
      <trkpt lat="47.8828" lon="6.69903">
        <ele>750.2</ele>
        <time>2026-03-29T05:54:18Z</time>
      </trkpt>
      <trkpt lat="47.88279" lon="6.69893">
        <ele>750.3</ele>
        <time>2026-03-29T05:54:23Z</time>
      </trkpt>
      <trkpt lat="47.88278" lon="6.69882">
        <ele>750.4</ele>
        <time>2026-03-29T05:54:28Z</time>
      </trkpt>
      <trkpt lat="47.88278" lon="6.69871">
        <ele>750.5</ele>
        <time>2026-03-29T05:54:33Z</time>
      </trkpt>
      <trkpt lat="47.88276" lon="6.69858">
        <ele>750.7</ele>
        <time>2026-03-29T05:54:38Z</time>
      </trkpt>
      <trkpt lat="47.88275" lon="6.69848">
        <ele>750.8</ele>
        <time>2026-03-29T05:54:43Z</time>
      </trkpt>
      <trkpt lat="47.88274" lon="6.69839">
        <ele>750.9</ele>
        <time>2026-03-29T05:54:48Z</time>
      </trkpt>
      <trkpt lat="47.88272" lon="6.69828">
        <ele>750.7</ele>
        <time>2026-03-29T05:54:53Z</time>
      </trkpt>
      <trkpt lat="47.88271" lon="6.69817">
        <ele>750.1</ele>
        <time>2026-03-29T05:54:58Z</time>
      </trkpt>
      <trkpt lat="47.8827" lon="6.69803">
        <ele>749.3</ele>
        <time>2026-03-29T05:55:03Z</time>
      </trkpt>
      <trkpt lat="47.88269" lon="6.69793">
        <ele>748.7</ele>
        <time>2026-03-29T05:55:08Z</time>
      </trkpt>
      <trkpt lat="47.88269" lon="6.69782">
        <ele>748.1</ele>
        <time>2026-03-29T05:55:13Z</time>
      </trkpt>
      <trkpt lat="47.88268" lon="6.69771">
        <ele>747.4</ele>
        <time>2026-03-29T05:55:18Z</time>
      </trkpt>
      <trkpt lat="47.88267" lon="6.69759">
        <ele>746.7</ele>
        <time>2026-03-29T05:55:23Z</time>
      </trkpt>
      <trkpt lat="47.8827" lon="6.69748">
        <ele>746.1</ele>
        <time>2026-03-29T05:55:28Z</time>
      </trkpt>
      <trkpt lat="47.88272" lon="6.6974">
        <ele>745.6</ele>
        <time>2026-03-29T05:55:33Z</time>
      </trkpt>
      <trkpt lat="47.88274" lon="6.69731">
        <ele>745.1</ele>
        <time>2026-03-29T05:55:38Z</time>
      </trkpt>
      <trkpt lat="47.88277" lon="6.69729">
        <ele>745</ele>
        <time>2026-03-29T05:55:43Z</time>
      </trkpt>
      <trkpt lat="47.88279" lon="6.69721">
        <ele>744.5</ele>
        <time>2026-03-29T05:55:48Z</time>
      </trkpt>
      <trkpt lat="47.8828" lon="6.69707">
        <ele>743.6</ele>
        <time>2026-03-29T05:55:53Z</time>
      </trkpt>
      <trkpt lat="47.88282" lon="6.69697">
        <ele>743.1</ele>
        <time>2026-03-29T05:55:58Z</time>
      </trkpt>
      <trkpt lat="47.88284" lon="6.6969">
        <ele>742.7</ele>
        <time>2026-03-29T05:56:03Z</time>
      </trkpt>
      <trkpt lat="47.88287" lon="6.69684">
        <ele>742.4</ele>
        <time>2026-03-29T05:56:08Z</time>
      </trkpt>
      <trkpt lat="47.88292" lon="6.69675">
        <ele>742</ele>
        <time>2026-03-29T05:56:13Z</time>
      </trkpt>
      <trkpt lat="47.88298" lon="6.69666">
        <ele>741.7</ele>
        <time>2026-03-29T05:56:18Z</time>
      </trkpt>
      <trkpt lat="47.88305" lon="6.69658">
        <ele>741.6</ele>
        <time>2026-03-29T05:56:23Z</time>
      </trkpt>
      <trkpt lat="47.8831" lon="6.6965">
        <ele>741.5</ele>
        <time>2026-03-29T05:56:28Z</time>
      </trkpt>
      <trkpt lat="47.88314" lon="6.69643">
        <ele>741.3</ele>
        <time>2026-03-29T05:56:33Z</time>
      </trkpt>
      <trkpt lat="47.88318" lon="6.69636">
        <ele>741.1</ele>
        <time>2026-03-29T05:56:38Z</time>
      </trkpt>
      <trkpt lat="47.88324" lon="6.69629">
        <ele>741</ele>
        <time>2026-03-29T05:56:43Z</time>
      </trkpt>
      <trkpt lat="47.88329" lon="6.69621">
        <ele>740.7</ele>
        <time>2026-03-29T05:56:48Z</time>
      </trkpt>
      <trkpt lat="47.88333" lon="6.69614">
        <ele>740.5</ele>
        <time>2026-03-29T05:56:53Z</time>
      </trkpt>
      <trkpt lat="47.88337" lon="6.69606">
        <ele>740.1</ele>
        <time>2026-03-29T05:56:58Z</time>
      </trkpt>
      <trkpt lat="47.88343" lon="6.69599">
        <ele>739.9</ele>
        <time>2026-03-29T05:57:03Z</time>
      </trkpt>
      <trkpt lat="47.88348" lon="6.69591">
        <ele>739.6</ele>
        <time>2026-03-29T05:57:08Z</time>
      </trkpt>
      <trkpt lat="47.88352" lon="6.69582">
        <ele>739.5</ele>
        <time>2026-03-29T05:57:13Z</time>
      </trkpt>
      <trkpt lat="47.88356" lon="6.69574">
        <ele>740</ele>
        <time>2026-03-29T05:57:18Z</time>
      </trkpt>
      <trkpt lat="47.88361" lon="6.69565">
        <ele>740.6</ele>
        <time>2026-03-29T05:57:23Z</time>
      </trkpt>
      <trkpt lat="47.88366" lon="6.69557">
        <ele>741.2</ele>
        <time>2026-03-29T05:57:28Z</time>
      </trkpt>
      <trkpt lat="47.88372" lon="6.69546">
        <ele>741.9</ele>
        <time>2026-03-29T05:57:33Z</time>
      </trkpt>
      <trkpt lat="47.88376" lon="6.69537">
        <ele>742.5</ele>
        <time>2026-03-29T05:57:38Z</time>
      </trkpt>
      <trkpt lat="47.88381" lon="6.69529">
        <ele>743.1</ele>
        <time>2026-03-29T05:57:43Z</time>
      </trkpt>
      <trkpt lat="47.88386" lon="6.6952">
        <ele>743.8</ele>
        <time>2026-03-29T05:57:48Z</time>
      </trkpt>
      <trkpt lat="47.88391" lon="6.69512">
        <ele>744.4</ele>
        <time>2026-03-29T05:57:53Z</time>
      </trkpt>
      <trkpt lat="47.88395" lon="6.69503">
        <ele>745</ele>
        <time>2026-03-29T05:57:58Z</time>
      </trkpt>
      <trkpt lat="47.88399" lon="6.69495">
        <ele>745.4</ele>
        <time>2026-03-29T05:58:03Z</time>
      </trkpt>
      <trkpt lat="47.88404" lon="6.69485">
        <ele>745.8</ele>
        <time>2026-03-29T05:58:08Z</time>
      </trkpt>
      <trkpt lat="47.88408" lon="6.69475">
        <ele>746</ele>
        <time>2026-03-29T05:58:13Z</time>
      </trkpt>
      <trkpt lat="47.88412" lon="6.69466">
        <ele>746.3</ele>
        <time>2026-03-29T05:58:18Z</time>
      </trkpt>
      <trkpt lat="47.88417" lon="6.69455">
        <ele>746.5</ele>
        <time>2026-03-29T05:58:23Z</time>
      </trkpt>
      <trkpt lat="47.88421" lon="6.69446">
        <ele>746.4</ele>
        <time>2026-03-29T05:58:28Z</time>
      </trkpt>
      <trkpt lat="47.88425" lon="6.69436">
        <ele>746.4</ele>
        <time>2026-03-29T05:58:33Z</time>
      </trkpt>
      <trkpt lat="47.88428" lon="6.69425">
        <ele>746.5</ele>
        <time>2026-03-29T05:58:38Z</time>
      </trkpt>
      <trkpt lat="47.88432" lon="6.69419">
        <ele>746.4</ele>
        <time>2026-03-29T05:58:43Z</time>
      </trkpt>
      <trkpt lat="47.88433" lon="6.69417">
        <ele>746.4</ele>
        <time>2026-03-29T05:58:48Z</time>
      </trkpt>
      <trkpt lat="47.88434" lon="6.69408">
        <ele>746.8</ele>
        <time>2026-03-29T05:58:53Z</time>
      </trkpt>
      <trkpt lat="47.88439" lon="6.694">
        <ele>747</ele>
        <time>2026-03-29T05:58:58Z</time>
      </trkpt>
      <trkpt lat="47.88443" lon="6.69391">
        <ele>747.4</ele>
        <time>2026-03-29T05:59:03Z</time>
      </trkpt>
      <trkpt lat="47.88449" lon="6.69382">
        <ele>748</ele>
        <time>2026-03-29T05:59:08Z</time>
      </trkpt>
      <trkpt lat="47.88454" lon="6.69372">
        <ele>748.6</ele>
        <time>2026-03-29T05:59:13Z</time>
      </trkpt>
      <trkpt lat="47.88458" lon="6.69362">
        <ele>749.4</ele>
        <time>2026-03-29T05:59:18Z</time>
      </trkpt>
      <trkpt lat="47.88462" lon="6.69352">
        <ele>750.3</ele>
        <time>2026-03-29T05:59:23Z</time>
      </trkpt>
      <trkpt lat="47.88466" lon="6.69342">
        <ele>751.3</ele>
        <time>2026-03-29T05:59:28Z</time>
      </trkpt>
      <trkpt lat="47.88472" lon="6.69332">
        <ele>752.4</ele>
        <time>2026-03-29T05:59:33Z</time>
      </trkpt>
      <trkpt lat="47.88477" lon="6.69323">
        <ele>752.8</ele>
        <time>2026-03-29T05:59:38Z</time>
      </trkpt>
      <trkpt lat="47.88482" lon="6.69315">
        <ele>753.3</ele>
        <time>2026-03-29T05:59:43Z</time>
      </trkpt>
      <trkpt lat="47.88488" lon="6.69309">
        <ele>753.7</ele>
        <time>2026-03-29T05:59:48Z</time>
      </trkpt>
      <trkpt lat="47.88495" lon="6.69303">
        <ele>754.1</ele>
        <time>2026-03-29T05:59:53Z</time>
      </trkpt>
      <trkpt lat="47.88502" lon="6.69299">
        <ele>754.2</ele>
        <time>2026-03-29T05:59:58Z</time>
      </trkpt>
      <trkpt lat="47.88509" lon="6.69296">
        <ele>753.6</ele>
        <time>2026-03-29T06:00:03Z</time>
      </trkpt>
      <trkpt lat="47.88518" lon="6.69293">
        <ele>752.9</ele>
        <time>2026-03-29T06:00:08Z</time>
      </trkpt>
      <trkpt lat="47.88525" lon="6.6929">
        <ele>752.3</ele>
        <time>2026-03-29T06:00:13Z</time>
      </trkpt>
      <trkpt lat="47.88531" lon="6.69288">
        <ele>751.8</ele>
        <time>2026-03-29T06:00:18Z</time>
      </trkpt>
      <trkpt lat="47.88538" lon="6.69286">
        <ele>751.2</ele>
        <time>2026-03-29T06:00:23Z</time>
      </trkpt>
      <trkpt lat="47.88545" lon="6.69284">
        <ele>750.6</ele>
        <time>2026-03-29T06:00:28Z</time>
      </trkpt>
      <trkpt lat="47.88552" lon="6.69281">
        <ele>750</ele>
        <time>2026-03-29T06:00:33Z</time>
      </trkpt>
      <trkpt lat="47.88558" lon="6.69277">
        <ele>749.6</ele>
        <time>2026-03-29T06:00:38Z</time>
      </trkpt>
      <trkpt lat="47.88565" lon="6.69271">
        <ele>749.1</ele>
        <time>2026-03-29T06:00:43Z</time>
      </trkpt>
      <trkpt lat="47.88569" lon="6.69263">
        <ele>748.9</ele>
        <time>2026-03-29T06:00:48Z</time>
      </trkpt>
      <trkpt lat="47.88575" lon="6.69254">
        <ele>748.6</ele>
        <time>2026-03-29T06:00:53Z</time>
      </trkpt>
      <trkpt lat="47.88579" lon="6.69244">
        <ele>748.2</ele>
        <time>2026-03-29T06:00:58Z</time>
      </trkpt>
      <trkpt lat="47.88582" lon="6.69233">
        <ele>747.7</ele>
        <time>2026-03-29T06:01:03Z</time>
      </trkpt>
      <trkpt lat="47.88584" lon="6.69223">
        <ele>747.4</ele>
        <time>2026-03-29T06:01:08Z</time>
      </trkpt>
      <trkpt lat="47.88587" lon="6.69214">
        <ele>747.2</ele>
        <time>2026-03-29T06:01:13Z</time>
      </trkpt>
      <trkpt lat="47.88589" lon="6.69205">
        <ele>747</ele>
        <time>2026-03-29T06:01:18Z</time>
      </trkpt>
      <trkpt lat="47.88592" lon="6.69194">
        <ele>746.8</ele>
        <time>2026-03-29T06:01:23Z</time>
      </trkpt>
      <trkpt lat="47.88595" lon="6.69184">
        <ele>746.6</ele>
        <time>2026-03-29T06:01:28Z</time>
      </trkpt>
      <trkpt lat="47.88597" lon="6.69174">
        <ele>746.5</ele>
        <time>2026-03-29T06:01:33Z</time>
      </trkpt>
      <trkpt lat="47.88598" lon="6.69164">
        <ele>746.3</ele>
        <time>2026-03-29T06:01:38Z</time>
      </trkpt>
      <trkpt lat="47.886" lon="6.69154">
        <ele>746</ele>
        <time>2026-03-29T06:01:43Z</time>
      </trkpt>
      <trkpt lat="47.88604" lon="6.69145">
        <ele>745.9</ele>
        <time>2026-03-29T06:01:48Z</time>
      </trkpt>
      <trkpt lat="47.88606" lon="6.69135">
        <ele>745.7</ele>
        <time>2026-03-29T06:01:53Z</time>
      </trkpt>
      <trkpt lat="47.88608" lon="6.69126">
        <ele>745.6</ele>
        <time>2026-03-29T06:01:58Z</time>
      </trkpt>
      <trkpt lat="47.8861" lon="6.69116">
        <ele>745.4</ele>
        <time>2026-03-29T06:02:03Z</time>
      </trkpt>
      <trkpt lat="47.88612" lon="6.69105">
        <ele>745.2</ele>
        <time>2026-03-29T06:02:08Z</time>
      </trkpt>
      <trkpt lat="47.88613" lon="6.69096">
        <ele>745.1</ele>
        <time>2026-03-29T06:02:13Z</time>
      </trkpt>
      <trkpt lat="47.88616" lon="6.69087">
        <ele>745</ele>
        <time>2026-03-29T06:02:18Z</time>
      </trkpt>
      <trkpt lat="47.88618" lon="6.69078">
        <ele>745.3</ele>
        <time>2026-03-29T06:02:23Z</time>
      </trkpt>
      <trkpt lat="47.8862" lon="6.69067">
        <ele>745.8</ele>
        <time>2026-03-29T06:02:28Z</time>
      </trkpt>
      <trkpt lat="47.88622" lon="6.69058">
        <ele>746.2</ele>
        <time>2026-03-29T06:02:33Z</time>
      </trkpt>
      <trkpt lat="47.88624" lon="6.69047">
        <ele>746.7</ele>
        <time>2026-03-29T06:02:38Z</time>
      </trkpt>
      <trkpt lat="47.88626" lon="6.69038">
        <ele>747.2</ele>
        <time>2026-03-29T06:02:43Z</time>
      </trkpt>
      <trkpt lat="47.88628" lon="6.6903">
        <ele>747.6</ele>
        <time>2026-03-29T06:02:48Z</time>
      </trkpt>
      <trkpt lat="47.88631" lon="6.69022">
        <ele>748.2</ele>
        <time>2026-03-29T06:02:53Z</time>
      </trkpt>
      <trkpt lat="47.88634" lon="6.69013">
        <ele>748.8</ele>
        <time>2026-03-29T06:02:58Z</time>
      </trkpt>
      <trkpt lat="47.88636" lon="6.69004">
        <ele>749.3</ele>
        <time>2026-03-29T06:03:03Z</time>
      </trkpt>
      <trkpt lat="47.88638" lon="6.68995">
        <ele>749.8</ele>
        <time>2026-03-29T06:03:08Z</time>
      </trkpt>
      <trkpt lat="47.88639" lon="6.68986">
        <ele>750.3</ele>
        <time>2026-03-29T06:03:13Z</time>
      </trkpt>
      <trkpt lat="47.88642" lon="6.68978">
        <ele>750.9</ele>
        <time>2026-03-29T06:03:18Z</time>
      </trkpt>
      <trkpt lat="47.88644" lon="6.6897">
        <ele>751.4</ele>
        <time>2026-03-29T06:03:23Z</time>
      </trkpt>
      <trkpt lat="47.88649" lon="6.68964">
        <ele>752.2</ele>
        <time>2026-03-29T06:03:28Z</time>
      </trkpt>
      <trkpt lat="47.88654" lon="6.68959">
        <ele>752.8</ele>
        <time>2026-03-29T06:03:33Z</time>
      </trkpt>
      <trkpt lat="47.88661" lon="6.68957">
        <ele>753.6</ele>
        <time>2026-03-29T06:03:38Z</time>
      </trkpt>
      <trkpt lat="47.88667" lon="6.68956">
        <ele>754.1</ele>
        <time>2026-03-29T06:03:43Z</time>
      </trkpt>
      <trkpt lat="47.88674" lon="6.68955">
        <ele>754.5</ele>
        <time>2026-03-29T06:03:48Z</time>
      </trkpt>
      <trkpt lat="47.88679" lon="6.68954">
        <ele>754.9</ele>
        <time>2026-03-29T06:03:53Z</time>
      </trkpt>
      <trkpt lat="47.88686" lon="6.68953">
        <ele>755.3</ele>
        <time>2026-03-29T06:03:58Z</time>
      </trkpt>
      <trkpt lat="47.88694" lon="6.68953">
        <ele>755.7</ele>
        <time>2026-03-29T06:04:03Z</time>
      </trkpt>
      <trkpt lat="47.88703" lon="6.68952">
        <ele>756.2</ele>
        <time>2026-03-29T06:04:08Z</time>
      </trkpt>
      <trkpt lat="47.8871" lon="6.6895">
        <ele>756.6</ele>
        <time>2026-03-29T06:04:13Z</time>
      </trkpt>
      <trkpt lat="47.88717" lon="6.68949">
        <ele>757</ele>
        <time>2026-03-29T06:04:18Z</time>
      </trkpt>
      <trkpt lat="47.88726" lon="6.68948">
        <ele>757.4</ele>
        <time>2026-03-29T06:04:23Z</time>
      </trkpt>
      <trkpt lat="47.88735" lon="6.68948">
        <ele>757.9</ele>
        <time>2026-03-29T06:04:28Z</time>
      </trkpt>
      <trkpt lat="47.8874" lon="6.68946">
        <ele>758.2</ele>
        <time>2026-03-29T06:04:33Z</time>
      </trkpt>
      <trkpt lat="47.88745" lon="6.6895">
        <ele>758.3</ele>
        <time>2026-03-29T06:04:38Z</time>
      </trkpt>
      <trkpt lat="47.88747" lon="6.68955">
        <ele>758.4</ele>
        <time>2026-03-29T06:04:43Z</time>
      </trkpt>
      <trkpt lat="47.88749" lon="6.68961">
        <ele>758.4</ele>
        <time>2026-03-29T06:04:48Z</time>
      </trkpt>
      <trkpt lat="47.88752" lon="6.68968">
        <ele>758.4</ele>
        <time>2026-03-29T06:04:53Z</time>
      </trkpt>
      <trkpt lat="47.88754" lon="6.68974">
        <ele>758.4</ele>
        <time>2026-03-29T06:04:58Z</time>
      </trkpt>
      <trkpt lat="47.88758" lon="6.68981">
        <ele>758.3</ele>
        <time>2026-03-29T06:05:03Z</time>
      </trkpt>
      <trkpt lat="47.88764" lon="6.68988">
        <ele>758.3</ele>
        <time>2026-03-29T06:05:08Z</time>
      </trkpt>
      <trkpt lat="47.88768" lon="6.68995">
        <ele>758.3</ele>
        <time>2026-03-29T06:05:13Z</time>
      </trkpt>
      <trkpt lat="47.88772" lon="6.68999">
        <ele>758.3</ele>
        <time>2026-03-29T06:05:18Z</time>
      </trkpt>
      <trkpt lat="47.88777" lon="6.69006">
        <ele>758.2</ele>
        <time>2026-03-29T06:05:23Z</time>
      </trkpt>
      <trkpt lat="47.88782" lon="6.69011">
        <ele>758.3</ele>
        <time>2026-03-29T06:05:28Z</time>
      </trkpt>
      <trkpt lat="47.88789" lon="6.69013">
        <ele>758.4</ele>
        <time>2026-03-29T06:05:33Z</time>
      </trkpt>
      <trkpt lat="47.88796" lon="6.69012">
        <ele>758.5</ele>
        <time>2026-03-29T06:05:38Z</time>
      </trkpt>
      <trkpt lat="47.88804" lon="6.69007">
        <ele>758.6</ele>
        <time>2026-03-29T06:05:43Z</time>
      </trkpt>
      <trkpt lat="47.8881" lon="6.69001">
        <ele>758.7</ele>
        <time>2026-03-29T06:05:48Z</time>
      </trkpt>
      <trkpt lat="47.88815" lon="6.68996">
        <ele>758.8</ele>
        <time>2026-03-29T06:05:53Z</time>
      </trkpt>
      <trkpt lat="47.8882" lon="6.68994">
        <ele>758.9</ele>
        <time>2026-03-29T06:05:58Z</time>
      </trkpt>
      <trkpt lat="47.88823" lon="6.68993">
        <ele>759</ele>
        <time>2026-03-29T06:06:03Z</time>
      </trkpt>
      <trkpt lat="47.88829" lon="6.68993">
        <ele>759</ele>
        <time>2026-03-29T06:06:08Z</time>
      </trkpt>
      <trkpt lat="47.88834" lon="6.68995">
        <ele>759.1</ele>
        <time>2026-03-29T06:06:13Z</time>
      </trkpt>
      <trkpt lat="47.88839" lon="6.69001">
        <ele>759.1</ele>
        <time>2026-03-29T06:06:18Z</time>
      </trkpt>
      <trkpt lat="47.88844" lon="6.69008">
        <ele>759.3</ele>
        <time>2026-03-29T06:06:23Z</time>
      </trkpt>
      <trkpt lat="47.88848" lon="6.69013">
        <ele>759.5</ele>
        <time>2026-03-29T06:06:28Z</time>
      </trkpt>
      <trkpt lat="47.88852" lon="6.69017">
        <ele>759.6</ele>
        <time>2026-03-29T06:06:33Z</time>
      </trkpt>
      <trkpt lat="47.88856" lon="6.69022">
        <ele>759.7</ele>
        <time>2026-03-29T06:06:38Z</time>
      </trkpt>
      <trkpt lat="47.88859" lon="6.69027">
        <ele>759.8</ele>
        <time>2026-03-29T06:06:43Z</time>
      </trkpt>
      <trkpt lat="47.88864" lon="6.69031">
        <ele>760</ele>
        <time>2026-03-29T06:06:48Z</time>
      </trkpt>
      <trkpt lat="47.88867" lon="6.69036">
        <ele>760.1</ele>
        <time>2026-03-29T06:06:53Z</time>
      </trkpt>
      <trkpt lat="47.88869" lon="6.69041">
        <ele>760.1</ele>
        <time>2026-03-29T06:06:58Z</time>
      </trkpt>
      <trkpt lat="47.88871" lon="6.69047">
        <ele>760.2</ele>
        <time>2026-03-29T06:07:03Z</time>
      </trkpt>
      <trkpt lat="47.88872" lon="6.69054">
        <ele>760.3</ele>
        <time>2026-03-29T06:07:08Z</time>
      </trkpt>
      <trkpt lat="47.88874" lon="6.69061">
        <ele>760.4</ele>
        <time>2026-03-29T06:07:13Z</time>
      </trkpt>
      <trkpt lat="47.88876" lon="6.69067">
        <ele>760.4</ele>
        <time>2026-03-29T06:07:18Z</time>
      </trkpt>
      <trkpt lat="47.88876" lon="6.69073">
        <ele>760.5</ele>
        <time>2026-03-29T06:07:23Z</time>
      </trkpt>
      <trkpt lat="47.88879" lon="6.6908">
        <ele>760.5</ele>
        <time>2026-03-29T06:07:28Z</time>
      </trkpt>
      <trkpt lat="47.88881" lon="6.69087">
        <ele>760.6</ele>
        <time>2026-03-29T06:07:33Z</time>
      </trkpt>
      <trkpt lat="47.88883" lon="6.69094">
        <ele>760.6</ele>
        <time>2026-03-29T06:07:38Z</time>
      </trkpt>
      <trkpt lat="47.88888" lon="6.691">
        <ele>760.7</ele>
        <time>2026-03-29T06:07:43Z</time>
      </trkpt>
      <trkpt lat="47.88891" lon="6.69104">
        <ele>760.8</ele>
        <time>2026-03-29T06:07:48Z</time>
      </trkpt>
      <trkpt lat="47.88894" lon="6.69109">
        <ele>760.8</ele>
        <time>2026-03-29T06:07:53Z</time>
      </trkpt>
      <trkpt lat="47.88894" lon="6.69112">
        <ele>760.8</ele>
        <time>2026-03-29T06:07:58Z</time>
      </trkpt>
      <trkpt lat="47.88894" lon="6.69113">
        <ele>760.8</ele>
        <time>2026-03-29T06:08:03Z</time>
      </trkpt>
      <trkpt lat="47.88894" lon="6.69113">
        <ele>760.8</ele>
        <time>2026-03-29T06:08:08Z</time>
      </trkpt>
      <trkpt lat="47.88894" lon="6.69113">
        <ele>760.8</ele>
        <time>2026-03-29T06:08:13Z</time>
      </trkpt>
      <trkpt lat="47.88894" lon="6.69113">
        <ele>760.8</ele>
        <time>2026-03-29T06:08:18Z</time>
      </trkpt>
      <trkpt lat="47.88894" lon="6.69113">
        <ele>760.8</ele>
        <time>2026-03-29T06:08:23Z</time>
      </trkpt>
      <trkpt lat="47.88898" lon="6.69113">
        <ele>760.9</ele>
        <time>2026-03-29T06:08:28Z</time>
      </trkpt>
      <trkpt lat="47.88902" lon="6.69118">
        <ele>760.9</ele>
        <time>2026-03-29T06:08:33Z</time>
      </trkpt>
      <trkpt lat="47.88906" lon="6.69126">
        <ele>760.9</ele>
        <time>2026-03-29T06:08:38Z</time>
      </trkpt>
      <trkpt lat="47.88909" lon="6.69129">
        <ele>761</ele>
        <time>2026-03-29T06:08:43Z</time>
      </trkpt>
      <trkpt lat="47.88909" lon="6.6913">
        <ele>761</ele>
        <time>2026-03-29T06:08:48Z</time>
      </trkpt>
      <trkpt lat="47.8891" lon="6.69131">
        <ele>761</ele>
        <time>2026-03-29T06:08:53Z</time>
      </trkpt>
      <trkpt lat="47.88912" lon="6.69132">
        <ele>761</ele>
        <time>2026-03-29T06:08:58Z</time>
      </trkpt>
      <trkpt lat="47.88915" lon="6.69143">
        <ele>761</ele>
        <time>2026-03-29T06:09:03Z</time>
      </trkpt>
      <trkpt lat="47.88919" lon="6.69156">
        <ele>761.1</ele>
        <time>2026-03-29T06:09:08Z</time>
      </trkpt>
      <trkpt lat="47.88923" lon="6.69164">
        <ele>761.2</ele>
        <time>2026-03-29T06:09:13Z</time>
      </trkpt>
      <trkpt lat="47.88929" lon="6.69171">
        <ele>761.5</ele>
        <time>2026-03-29T06:09:18Z</time>
      </trkpt>
      <trkpt lat="47.88933" lon="6.69176">
        <ele>761.7</ele>
        <time>2026-03-29T06:09:23Z</time>
      </trkpt>
      <trkpt lat="47.88935" lon="6.69178">
        <ele>761.8</ele>
        <time>2026-03-29T06:09:28Z</time>
      </trkpt>
      <trkpt lat="47.88938" lon="6.69182">
        <ele>761.9</ele>
        <time>2026-03-29T06:09:33Z</time>
      </trkpt>
      <trkpt lat="47.88943" lon="6.69186">
        <ele>762.1</ele>
        <time>2026-03-29T06:09:38Z</time>
      </trkpt>
      <trkpt lat="47.88947" lon="6.69192">
        <ele>762.3</ele>
        <time>2026-03-29T06:09:43Z</time>
      </trkpt>
      <trkpt lat="47.8895" lon="6.69199">
        <ele>762.4</ele>
        <time>2026-03-29T06:09:48Z</time>
      </trkpt>
      <trkpt lat="47.88953" lon="6.69209">
        <ele>762.6</ele>
        <time>2026-03-29T06:09:53Z</time>
      </trkpt>
      <trkpt lat="47.88955" lon="6.69213">
        <ele>762.7</ele>
        <time>2026-03-29T06:09:58Z</time>
      </trkpt>
      <trkpt lat="47.88962" lon="6.69207">
        <ele>762.9</ele>
        <time>2026-03-29T06:10:03Z</time>
      </trkpt>
      <trkpt lat="47.88967" lon="6.692">
        <ele>763</ele>
        <time>2026-03-29T06:10:08Z</time>
      </trkpt>
      <trkpt lat="47.8897" lon="6.69192">
        <ele>763</ele>
        <time>2026-03-29T06:10:13Z</time>
      </trkpt>
      <trkpt lat="47.88972" lon="6.69185">
        <ele>763.1</ele>
        <time>2026-03-29T06:10:18Z</time>
      </trkpt>
      <trkpt lat="47.88974" lon="6.69178">
        <ele>763.1</ele>
        <time>2026-03-29T06:10:23Z</time>
      </trkpt>
      <trkpt lat="47.88979" lon="6.6917">
        <ele>763.3</ele>
        <time>2026-03-29T06:10:28Z</time>
      </trkpt>
      <trkpt lat="47.88982" lon="6.69161">
        <ele>763.4</ele>
        <time>2026-03-29T06:10:33Z</time>
      </trkpt>
      <trkpt lat="47.88985" lon="6.69152">
        <ele>763.5</ele>
        <time>2026-03-29T06:10:38Z</time>
      </trkpt>
      <trkpt lat="47.88988" lon="6.69146">
        <ele>763.6</ele>
        <time>2026-03-29T06:10:43Z</time>
      </trkpt>
      <trkpt lat="47.88991" lon="6.69145">
        <ele>763.7</ele>
        <time>2026-03-29T06:10:48Z</time>
      </trkpt>
      <trkpt lat="47.88991" lon="6.69145">
        <ele>763.7</ele>
        <time>2026-03-29T06:10:53Z</time>
      </trkpt>
      <trkpt lat="47.88991" lon="6.69145">
        <ele>763.7</ele>
        <time>2026-03-29T06:10:58Z</time>
      </trkpt>
      <trkpt lat="47.88991" lon="6.69145">
        <ele>763.7</ele>
        <time>2026-03-29T06:11:03Z</time>
      </trkpt>
      <trkpt lat="47.88991" lon="6.69145">
        <ele>763.7</ele>
        <time>2026-03-29T06:11:08Z</time>
      </trkpt>
      <trkpt lat="47.88991" lon="6.69145">
        <ele>763.7</ele>
        <time>2026-03-29T06:11:13Z</time>
      </trkpt>
      <trkpt lat="47.88991" lon="6.69145">
        <ele>763.7</ele>
        <time>2026-03-29T06:11:18Z</time>
      </trkpt>
      <trkpt lat="47.88995" lon="6.69132">
        <ele>763.8</ele>
        <time>2026-03-29T06:11:23Z</time>
      </trkpt>
      <trkpt lat="47.88998" lon="6.69126">
        <ele>763.9</ele>
        <time>2026-03-29T06:11:28Z</time>
      </trkpt>
      <trkpt lat="47.89002" lon="6.69121">
        <ele>764</ele>
        <time>2026-03-29T06:11:33Z</time>
      </trkpt>
      <trkpt lat="47.89005" lon="6.69118">
        <ele>764.1</ele>
        <time>2026-03-29T06:11:38Z</time>
      </trkpt>
      <trkpt lat="47.89009" lon="6.69114">
        <ele>764.2</ele>
        <time>2026-03-29T06:11:43Z</time>
      </trkpt>
      <trkpt lat="47.89013" lon="6.69108">
        <ele>764.2</ele>
        <time>2026-03-29T06:11:48Z</time>
      </trkpt>
      <trkpt lat="47.89019" lon="6.69102">
        <ele>764.3</ele>
        <time>2026-03-29T06:11:53Z</time>
      </trkpt>
      <trkpt lat="47.89026" lon="6.69098">
        <ele>764.4</ele>
        <time>2026-03-29T06:11:58Z</time>
      </trkpt>
      <trkpt lat="47.89031" lon="6.69092">
        <ele>764.4</ele>
        <time>2026-03-29T06:12:03Z</time>
      </trkpt>
      <trkpt lat="47.89038" lon="6.6909">
        <ele>764.5</ele>
        <time>2026-03-29T06:12:08Z</time>
      </trkpt>
      <trkpt lat="47.89045" lon="6.69087">
        <ele>764.6</ele>
        <time>2026-03-29T06:12:13Z</time>
      </trkpt>
      <trkpt lat="47.8905" lon="6.69083">
        <ele>764.6</ele>
        <time>2026-03-29T06:12:18Z</time>
      </trkpt>
      <trkpt lat="47.89056" lon="6.69077">
        <ele>764.5</ele>
        <time>2026-03-29T06:12:23Z</time>
      </trkpt>
      <trkpt lat="47.89062" lon="6.69072">
        <ele>764.5</ele>
        <time>2026-03-29T06:12:28Z</time>
      </trkpt>
      <trkpt lat="47.89065" lon="6.69064">
        <ele>764.4</ele>
        <time>2026-03-29T06:12:33Z</time>
      </trkpt>
      <trkpt lat="47.89068" lon="6.69062">
        <ele>764.4</ele>
        <time>2026-03-29T06:12:38Z</time>
      </trkpt>
      <trkpt lat="47.8907" lon="6.69068">
        <ele>764.5</ele>
        <time>2026-03-29T06:12:43Z</time>
      </trkpt>
      <trkpt lat="47.89074" lon="6.69071">
        <ele>764.6</ele>
        <time>2026-03-29T06:12:48Z</time>
      </trkpt>
      <trkpt lat="47.89075" lon="6.69074">
        <ele>764.7</ele>
        <time>2026-03-29T06:12:53Z</time>
      </trkpt>
      <trkpt lat="47.89075" lon="6.69074">
        <ele>764.7</ele>
        <time>2026-03-29T06:12:58Z</time>
      </trkpt>
      <trkpt lat="47.89075" lon="6.69074">
        <ele>764.7</ele>
        <time>2026-03-29T06:13:03Z</time>
      </trkpt>
      <trkpt lat="47.89075" lon="6.69074">
        <ele>764.7</ele>
        <time>2026-03-29T06:13:08Z</time>
      </trkpt>
      <trkpt lat="47.89075" lon="6.69074">
        <ele>764.7</ele>
        <time>2026-03-29T06:13:13Z</time>
      </trkpt>
      <trkpt lat="47.89075" lon="6.69074">
        <ele>764.7</ele>
        <time>2026-03-29T06:13:18Z</time>
      </trkpt>
      <trkpt lat="47.89074" lon="6.69067">
        <ele>764.5</ele>
        <time>2026-03-29T06:13:23Z</time>
      </trkpt>
      <trkpt lat="47.89073" lon="6.69059">
        <ele>764.3</ele>
        <time>2026-03-29T06:13:28Z</time>
      </trkpt>
      <trkpt lat="47.89075" lon="6.6905">
        <ele>764.1</ele>
        <time>2026-03-29T06:13:33Z</time>
      </trkpt>
      <trkpt lat="47.89078" lon="6.69044">
        <ele>764</ele>
        <time>2026-03-29T06:13:38Z</time>
      </trkpt>
      <trkpt lat="47.89084" lon="6.69038">
        <ele>763.9</ele>
        <time>2026-03-29T06:13:43Z</time>
      </trkpt>
      <trkpt lat="47.8909" lon="6.69032">
        <ele>763.9</ele>
        <time>2026-03-29T06:13:48Z</time>
      </trkpt>
      <trkpt lat="47.89094" lon="6.69028">
        <ele>763.9</ele>
        <time>2026-03-29T06:13:53Z</time>
      </trkpt>
      <trkpt lat="47.89099" lon="6.69023">
        <ele>763.9</ele>
        <time>2026-03-29T06:13:58Z</time>
      </trkpt>
      <trkpt lat="47.89104" lon="6.69015">
        <ele>763.8</ele>
        <time>2026-03-29T06:14:03Z</time>
      </trkpt>
      <trkpt lat="47.8911" lon="6.69009">
        <ele>763.8</ele>
        <time>2026-03-29T06:14:08Z</time>
      </trkpt>
      <trkpt lat="47.89115" lon="6.69009">
        <ele>763.9</ele>
        <time>2026-03-29T06:14:13Z</time>
      </trkpt>
      <trkpt lat="47.89118" lon="6.6901">
        <ele>764</ele>
        <time>2026-03-29T06:14:18Z</time>
      </trkpt>
      <trkpt lat="47.89119" lon="6.6901">
        <ele>764</ele>
        <time>2026-03-29T06:14:23Z</time>
      </trkpt>
      <trkpt lat="47.89125" lon="6.6901">
        <ele>764.2</ele>
        <time>2026-03-29T06:14:28Z</time>
      </trkpt>
      <trkpt lat="47.89131" lon="6.69011">
        <ele>764.3</ele>
        <time>2026-03-29T06:14:33Z</time>
      </trkpt>
      <trkpt lat="47.89138" lon="6.69008">
        <ele>764.4</ele>
        <time>2026-03-29T06:14:38Z</time>
      </trkpt>
      <trkpt lat="47.89144" lon="6.69008">
        <ele>764.6</ele>
        <time>2026-03-29T06:14:43Z</time>
      </trkpt>
      <trkpt lat="47.8915" lon="6.6901">
        <ele>764.7</ele>
        <time>2026-03-29T06:14:48Z</time>
      </trkpt>
      <trkpt lat="47.89152" lon="6.69011">
        <ele>764.8</ele>
        <time>2026-03-29T06:14:53Z</time>
      </trkpt>
      <trkpt lat="47.89152" lon="6.69012">
        <ele>764.8</ele>
        <time>2026-03-29T06:14:58Z</time>
      </trkpt>
      <trkpt lat="47.89152" lon="6.69012">
        <ele>764.8</ele>
        <time>2026-03-29T06:15:03Z</time>
      </trkpt>
      <trkpt lat="47.89152" lon="6.69012">
        <ele>764.8</ele>
        <time>2026-03-29T06:15:08Z</time>
      </trkpt>
      <trkpt lat="47.89152" lon="6.69012">
        <ele>764.8</ele>
        <time>2026-03-29T06:15:13Z</time>
      </trkpt>
      <trkpt lat="47.89152" lon="6.69012">
        <ele>764.8</ele>
        <time>2026-03-29T06:15:18Z</time>
      </trkpt>
      <trkpt lat="47.89152" lon="6.69012">
        <ele>764.8</ele>
        <time>2026-03-29T06:15:23Z</time>
      </trkpt>
      <trkpt lat="47.89152" lon="6.69012">
        <ele>764.8</ele>
        <time>2026-03-29T06:15:28Z</time>
      </trkpt>
      <trkpt lat="47.89152" lon="6.69012">
        <ele>764.8</ele>
        <time>2026-03-29T06:15:33Z</time>
      </trkpt>
      <trkpt lat="47.89152" lon="6.69012">
        <ele>764.8</ele>
        <time>2026-03-29T06:15:38Z</time>
      </trkpt>
      <trkpt lat="47.89152" lon="6.69012">
        <ele>764.8</ele>
        <time>2026-03-29T06:15:43Z</time>
      </trkpt>
      <trkpt lat="47.89152" lon="6.69012">
        <ele>764.8</ele>
        <time>2026-03-29T06:15:48Z</time>
      </trkpt>
      <trkpt lat="47.89149" lon="6.68997">
        <ele>764.4</ele>
        <time>2026-03-29T06:15:53Z</time>
      </trkpt>
      <trkpt lat="47.89145" lon="6.68994">
        <ele>764.1</ele>
        <time>2026-03-29T06:15:58Z</time>
      </trkpt>
      <trkpt lat="47.89141" lon="6.68991">
        <ele>763.8</ele>
        <time>2026-03-29T06:16:03Z</time>
      </trkpt>
      <trkpt lat="47.89136" lon="6.68986">
        <ele>763.4</ele>
        <time>2026-03-29T06:16:08Z</time>
      </trkpt>
      <trkpt lat="47.89134" lon="6.68982">
        <ele>763.2</ele>
        <time>2026-03-29T06:16:13Z</time>
      </trkpt>
      <trkpt lat="47.89133" lon="6.68973">
        <ele>762.6</ele>
        <time>2026-03-29T06:16:18Z</time>
      </trkpt>
      <trkpt lat="47.89135" lon="6.68967">
        <ele>762.3</ele>
        <time>2026-03-29T06:16:23Z</time>
      </trkpt>
      <trkpt lat="47.89137" lon="6.68961">
        <ele>762</ele>
        <time>2026-03-29T06:16:28Z</time>
      </trkpt>
      <trkpt lat="47.89136" lon="6.68956">
        <ele>761.7</ele>
        <time>2026-03-29T06:16:33Z</time>
      </trkpt>
      <trkpt lat="47.89132" lon="6.6895">
        <ele>761.3</ele>
        <time>2026-03-29T06:16:38Z</time>
      </trkpt>
      <trkpt lat="47.89129" lon="6.68945">
        <ele>761</ele>
        <time>2026-03-29T06:16:43Z</time>
      </trkpt>
      <trkpt lat="47.89128" lon="6.68938">
        <ele>760.6</ele>
        <time>2026-03-29T06:16:48Z</time>
      </trkpt>
      <trkpt lat="47.89128" lon="6.6893">
        <ele>760.2</ele>
        <time>2026-03-29T06:16:53Z</time>
      </trkpt>
      <trkpt lat="47.89128" lon="6.68923">
        <ele>759.8</ele>
        <time>2026-03-29T06:16:58Z</time>
      </trkpt>
      <trkpt lat="47.89127" lon="6.68916">
        <ele>759.5</ele>
        <time>2026-03-29T06:17:03Z</time>
      </trkpt>
      <trkpt lat="47.89125" lon="6.68909">
        <ele>759.4</ele>
        <time>2026-03-29T06:17:08Z</time>
      </trkpt>
      <trkpt lat="47.89125" lon="6.68903">
        <ele>759.3</ele>
        <time>2026-03-29T06:17:13Z</time>
      </trkpt>
      <trkpt lat="47.89125" lon="6.68898">
        <ele>759.3</ele>
        <time>2026-03-29T06:17:18Z</time>
      </trkpt>
      <trkpt lat="47.89128" lon="6.68893">
        <ele>759.1</ele>
        <time>2026-03-29T06:17:23Z</time>
      </trkpt>
      <trkpt lat="47.89125" lon="6.68883">
        <ele>759.1</ele>
        <time>2026-03-29T06:17:28Z</time>
      </trkpt>
      <trkpt lat="47.89123" lon="6.68875">
        <ele>759.1</ele>
        <time>2026-03-29T06:17:33Z</time>
      </trkpt>
      <trkpt lat="47.89122" lon="6.68867">
        <ele>759.1</ele>
        <time>2026-03-29T06:17:38Z</time>
      </trkpt>
      <trkpt lat="47.89121" lon="6.68857">
        <ele>759</ele>
        <time>2026-03-29T06:17:43Z</time>
      </trkpt>
      <trkpt lat="47.8912" lon="6.68849">
        <ele>759</ele>
        <time>2026-03-29T06:17:48Z</time>
      </trkpt>
      <trkpt lat="47.89118" lon="6.68839">
        <ele>759.1</ele>
        <time>2026-03-29T06:17:53Z</time>
      </trkpt>
      <trkpt lat="47.89117" lon="6.68832">
        <ele>759.1</ele>
        <time>2026-03-29T06:17:58Z</time>
      </trkpt>
      <trkpt lat="47.89116" lon="6.68826">
        <ele>758.9</ele>
        <time>2026-03-29T06:18:03Z</time>
      </trkpt>
      <trkpt lat="47.89115" lon="6.6882">
        <ele>758.6</ele>
        <time>2026-03-29T06:18:08Z</time>
      </trkpt>
      <trkpt lat="47.89113" lon="6.68815">
        <ele>758.5</ele>
        <time>2026-03-29T06:18:13Z</time>
      </trkpt>
      <trkpt lat="47.89113" lon="6.68809">
        <ele>758.2</ele>
        <time>2026-03-29T06:18:18Z</time>
      </trkpt>
      <trkpt lat="47.89113" lon="6.68806">
        <ele>758.1</ele>
        <time>2026-03-29T06:18:23Z</time>
      </trkpt>
      <trkpt lat="47.89114" lon="6.68801">
        <ele>757.7</ele>
        <time>2026-03-29T06:18:28Z</time>
      </trkpt>
      <trkpt lat="47.89113" lon="6.68793">
        <ele>757.4</ele>
        <time>2026-03-29T06:18:33Z</time>
      </trkpt>
      <trkpt lat="47.89114" lon="6.68784">
        <ele>756.8</ele>
        <time>2026-03-29T06:18:38Z</time>
      </trkpt>
      <trkpt lat="47.89115" lon="6.68776">
        <ele>756.2</ele>
        <time>2026-03-29T06:18:43Z</time>
      </trkpt>
      <trkpt lat="47.89117" lon="6.6877">
        <ele>755.7</ele>
        <time>2026-03-29T06:18:48Z</time>
      </trkpt>
      <trkpt lat="47.89118" lon="6.68763">
        <ele>755.2</ele>
        <time>2026-03-29T06:18:53Z</time>
      </trkpt>
      <trkpt lat="47.89121" lon="6.68758">
        <ele>754.5</ele>
        <time>2026-03-29T06:18:58Z</time>
      </trkpt>
      <trkpt lat="47.89125" lon="6.68755">
        <ele>753.8</ele>
        <time>2026-03-29T06:19:03Z</time>
      </trkpt>
      <trkpt lat="47.89126" lon="6.68749">
        <ele>753.3</ele>
        <time>2026-03-29T06:19:08Z</time>
      </trkpt>
      <trkpt lat="47.89124" lon="6.68744">
        <ele>753.2</ele>
        <time>2026-03-29T06:19:13Z</time>
      </trkpt>
      <trkpt lat="47.89122" lon="6.68739">
        <ele>753.2</ele>
        <time>2026-03-29T06:19:18Z</time>
      </trkpt>
      <trkpt lat="47.8912" lon="6.68734">
        <ele>753.2</ele>
        <time>2026-03-29T06:19:23Z</time>
      </trkpt>
      <trkpt lat="47.89121" lon="6.6873">
        <ele>752.8</ele>
        <time>2026-03-29T06:19:28Z</time>
      </trkpt>
      <trkpt lat="47.8912" lon="6.68724">
        <ele>752.6</ele>
        <time>2026-03-29T06:19:33Z</time>
      </trkpt>
      <trkpt lat="47.89121" lon="6.68719">
        <ele>752.1</ele>
        <time>2026-03-29T06:19:38Z</time>
      </trkpt>
      <trkpt lat="47.89123" lon="6.68715">
        <ele>751.5</ele>
        <time>2026-03-29T06:19:43Z</time>
      </trkpt>
      <trkpt lat="47.89123" lon="6.68709">
        <ele>751.2</ele>
        <time>2026-03-29T06:19:48Z</time>
      </trkpt>
      <trkpt lat="47.89123" lon="6.68701">
        <ele>750.7</ele>
        <time>2026-03-29T06:19:53Z</time>
      </trkpt>
      <trkpt lat="47.89124" lon="6.68694">
        <ele>750</ele>
        <time>2026-03-29T06:19:58Z</time>
      </trkpt>
      <trkpt lat="47.89126" lon="6.68687">
        <ele>749.1</ele>
        <time>2026-03-29T06:20:03Z</time>
      </trkpt>
      <trkpt lat="47.89127" lon="6.68681">
        <ele>748.5</ele>
        <time>2026-03-29T06:20:08Z</time>
      </trkpt>
      <trkpt lat="47.89126" lon="6.68676">
        <ele>748.4</ele>
        <time>2026-03-29T06:20:13Z</time>
      </trkpt>
      <trkpt lat="47.89124" lon="6.68671">
        <ele>748.5</ele>
        <time>2026-03-29T06:20:18Z</time>
      </trkpt>
      <trkpt lat="47.8912" lon="6.68669">
        <ele>749.3</ele>
        <time>2026-03-29T06:20:23Z</time>
      </trkpt>
      <trkpt lat="47.89114" lon="6.68667">
        <ele>750.7</ele>
        <time>2026-03-29T06:20:28Z</time>
      </trkpt>
      <trkpt lat="47.89111" lon="6.68664">
        <ele>751.3</ele>
        <time>2026-03-29T06:20:33Z</time>
      </trkpt>
      <trkpt lat="47.89108" lon="6.68665">
        <ele>752</ele>
        <time>2026-03-29T06:20:38Z</time>
      </trkpt>
      <trkpt lat="47.89103" lon="6.68663">
        <ele>753.1</ele>
        <time>2026-03-29T06:20:43Z</time>
      </trkpt>
      <trkpt lat="47.89099" lon="6.68656">
        <ele>753.7</ele>
        <time>2026-03-29T06:20:48Z</time>
      </trkpt>
      <trkpt lat="47.89097" lon="6.68652">
        <ele>754</ele>
        <time>2026-03-29T06:20:53Z</time>
      </trkpt>
      <trkpt lat="47.89097" lon="6.68652">
        <ele>754</ele>
        <time>2026-03-29T06:20:58Z</time>
      </trkpt>
      <trkpt lat="47.89098" lon="6.68653">
        <ele>753.8</ele>
        <time>2026-03-29T06:21:03Z</time>
      </trkpt>
      <trkpt lat="47.891" lon="6.68655">
        <ele>753.4</ele>
        <time>2026-03-29T06:21:08Z</time>
      </trkpt>
      <trkpt lat="47.891" lon="6.68655">
        <ele>753.4</ele>
        <time>2026-03-29T06:21:13Z</time>
      </trkpt>
      <trkpt lat="47.891" lon="6.68655">
        <ele>753.4</ele>
        <time>2026-03-29T06:21:18Z</time>
      </trkpt>
      <trkpt lat="47.891" lon="6.68655">
        <ele>753.4</ele>
        <time>2026-03-29T06:21:23Z</time>
      </trkpt>
      <trkpt lat="47.891" lon="6.68655">
        <ele>753.4</ele>
        <time>2026-03-29T06:21:28Z</time>
      </trkpt>
      <trkpt lat="47.891" lon="6.68655">
        <ele>753.4</ele>
        <time>2026-03-29T06:21:33Z</time>
      </trkpt>
      <trkpt lat="47.891" lon="6.68655">
        <ele>753.4</ele>
        <time>2026-03-29T06:21:38Z</time>
      </trkpt>
      <trkpt lat="47.891" lon="6.68655">
        <ele>753.4</ele>
        <time>2026-03-29T06:21:43Z</time>
      </trkpt>
      <trkpt lat="47.891" lon="6.68655">
        <ele>753.4</ele>
        <time>2026-03-29T06:21:48Z</time>
      </trkpt>
      <trkpt lat="47.89097" lon="6.68649">
        <ele>753.8</ele>
        <time>2026-03-29T06:21:53Z</time>
      </trkpt>
      <trkpt lat="47.89095" lon="6.68645">
        <ele>754.1</ele>
        <time>2026-03-29T06:21:58Z</time>
      </trkpt>
      <trkpt lat="47.89093" lon="6.68639">
        <ele>754.2</ele>
        <time>2026-03-29T06:22:03Z</time>
      </trkpt>
      <trkpt lat="47.89092" lon="6.6863">
        <ele>753.9</ele>
        <time>2026-03-29T06:22:08Z</time>
      </trkpt>
      <trkpt lat="47.8909" lon="6.68625">
        <ele>754.1</ele>
        <time>2026-03-29T06:22:13Z</time>
      </trkpt>
      <trkpt lat="47.89088" lon="6.6862">
        <ele>754.2</ele>
        <time>2026-03-29T06:22:18Z</time>
      </trkpt>
      <trkpt lat="47.89087" lon="6.68616">
        <ele>754.2</ele>
        <time>2026-03-29T06:22:23Z</time>
      </trkpt>
      <trkpt lat="47.89086" lon="6.68611">
        <ele>754.1</ele>
        <time>2026-03-29T06:22:28Z</time>
      </trkpt>
      <trkpt lat="47.89085" lon="6.68606">
        <ele>754</ele>
        <time>2026-03-29T06:22:33Z</time>
      </trkpt>
      <trkpt lat="47.89085" lon="6.686">
        <ele>753.7</ele>
        <time>2026-03-29T06:22:38Z</time>
      </trkpt>
      <trkpt lat="47.89085" lon="6.68594">
        <ele>753.3</ele>
        <time>2026-03-29T06:22:43Z</time>
      </trkpt>
      <trkpt lat="47.89086" lon="6.68586">
        <ele>752.7</ele>
        <time>2026-03-29T06:22:48Z</time>
      </trkpt>
      <trkpt lat="47.89087" lon="6.68579">
        <ele>752.2</ele>
        <time>2026-03-29T06:22:53Z</time>
      </trkpt>
      <trkpt lat="47.89089" lon="6.68571">
        <ele>751.5</ele>
        <time>2026-03-29T06:22:58Z</time>
      </trkpt>
      <trkpt lat="47.89091" lon="6.68562">
        <ele>750.9</ele>
        <time>2026-03-29T06:23:03Z</time>
      </trkpt>
      <trkpt lat="47.89092" lon="6.68554">
        <ele>750.4</ele>
        <time>2026-03-29T06:23:08Z</time>
      </trkpt>
      <trkpt lat="47.89093" lon="6.68552">
        <ele>750.2</ele>
        <time>2026-03-29T06:23:13Z</time>
      </trkpt>
      <trkpt lat="47.89094" lon="6.68552">
        <ele>750</ele>
        <time>2026-03-29T06:23:18Z</time>
      </trkpt>
      <trkpt lat="47.89098" lon="6.68542">
        <ele>749</ele>
        <time>2026-03-29T06:23:23Z</time>
      </trkpt>
      <trkpt lat="47.891" lon="6.68534">
        <ele>748.3</ele>
        <time>2026-03-29T06:23:28Z</time>
      </trkpt>
      <trkpt lat="47.89101" lon="6.68526">
        <ele>747.9</ele>
        <time>2026-03-29T06:23:33Z</time>
      </trkpt>
      <trkpt lat="47.89104" lon="6.68517">
        <ele>747.1</ele>
        <time>2026-03-29T06:23:38Z</time>
      </trkpt>
      <trkpt lat="47.89107" lon="6.68507">
        <ele>746.3</ele>
        <time>2026-03-29T06:23:43Z</time>
      </trkpt>
      <trkpt lat="47.89109" lon="6.68499">
        <ele>745.7</ele>
        <time>2026-03-29T06:23:48Z</time>
      </trkpt>
      <trkpt lat="47.89109" lon="6.68489">
        <ele>745.5</ele>
        <time>2026-03-29T06:23:53Z</time>
      </trkpt>
      <trkpt lat="47.89112" lon="6.6848">
        <ele>744.9</ele>
        <time>2026-03-29T06:23:58Z</time>
      </trkpt>
      <trkpt lat="47.89114" lon="6.6847">
        <ele>744.4</ele>
        <time>2026-03-29T06:24:03Z</time>
      </trkpt>
      <trkpt lat="47.89117" lon="6.6846">
        <ele>743.8</ele>
        <time>2026-03-29T06:24:08Z</time>
      </trkpt>
      <trkpt lat="47.89119" lon="6.68453">
        <ele>743.4</ele>
        <time>2026-03-29T06:24:13Z</time>
      </trkpt>
      <trkpt lat="47.89125" lon="6.68444">
        <ele>742.3</ele>
        <time>2026-03-29T06:24:18Z</time>
      </trkpt>
      <trkpt lat="47.89131" lon="6.68439">
        <ele>741.4</ele>
        <time>2026-03-29T06:24:23Z</time>
      </trkpt>
      <trkpt lat="47.89137" lon="6.68434">
        <ele>740.4</ele>
        <time>2026-03-29T06:24:28Z</time>
      </trkpt>
      <trkpt lat="47.89143" lon="6.68429">
        <ele>739.5</ele>
        <time>2026-03-29T06:24:33Z</time>
      </trkpt>
      <trkpt lat="47.89148" lon="6.68424">
        <ele>738.7</ele>
        <time>2026-03-29T06:24:38Z</time>
      </trkpt>
      <trkpt lat="47.89154" lon="6.6842">
        <ele>737.8</ele>
        <time>2026-03-29T06:24:43Z</time>
      </trkpt>
      <trkpt lat="47.8916" lon="6.68414">
        <ele>737.1</ele>
        <time>2026-03-29T06:24:48Z</time>
      </trkpt>
      <trkpt lat="47.89166" lon="6.6841">
        <ele>736.4</ele>
        <time>2026-03-29T06:24:53Z</time>
      </trkpt>
      <trkpt lat="47.89171" lon="6.68406">
        <ele>736.1</ele>
        <time>2026-03-29T06:24:58Z</time>
      </trkpt>
      <trkpt lat="47.89177" lon="6.68404">
        <ele>735.7</ele>
        <time>2026-03-29T06:25:03Z</time>
      </trkpt>
      <trkpt lat="47.8918" lon="6.684">
        <ele>735.6</ele>
        <time>2026-03-29T06:25:08Z</time>
      </trkpt>
      <trkpt lat="47.89184" lon="6.68397">
        <ele>735.5</ele>
        <time>2026-03-29T06:25:13Z</time>
      </trkpt>
      <trkpt lat="47.89186" lon="6.68394">
        <ele>735.5</ele>
        <time>2026-03-29T06:25:18Z</time>
      </trkpt>
      <trkpt lat="47.89188" lon="6.68391">
        <ele>735.5</ele>
        <time>2026-03-29T06:25:23Z</time>
      </trkpt>
      <trkpt lat="47.89192" lon="6.68387">
        <ele>735.4</ele>
        <time>2026-03-29T06:25:28Z</time>
      </trkpt>
      <trkpt lat="47.89193" lon="6.68383">
        <ele>735.6</ele>
        <time>2026-03-29T06:25:33Z</time>
      </trkpt>
      <trkpt lat="47.89194" lon="6.68379">
        <ele>735.8</ele>
        <time>2026-03-29T06:25:38Z</time>
      </trkpt>
      <trkpt lat="47.89196" lon="6.68375">
        <ele>735.9</ele>
        <time>2026-03-29T06:25:43Z</time>
      </trkpt>
      <trkpt lat="47.89199" lon="6.6837">
        <ele>736</ele>
        <time>2026-03-29T06:25:48Z</time>
      </trkpt>
      <trkpt lat="47.89201" lon="6.68364">
        <ele>736.3</ele>
        <time>2026-03-29T06:25:53Z</time>
      </trkpt>
      <trkpt lat="47.89203" lon="6.68359">
        <ele>736.5</ele>
        <time>2026-03-29T06:25:58Z</time>
      </trkpt>
      <trkpt lat="47.89206" lon="6.68354">
        <ele>736.7</ele>
        <time>2026-03-29T06:26:03Z</time>
      </trkpt>
      <trkpt lat="47.89208" lon="6.68351">
        <ele>736.7</ele>
        <time>2026-03-29T06:26:08Z</time>
      </trkpt>
      <trkpt lat="47.89207" lon="6.6835">
        <ele>736.9</ele>
        <time>2026-03-29T06:26:13Z</time>
      </trkpt>
      <trkpt lat="47.89207" lon="6.6835">
        <ele>736.9</ele>
        <time>2026-03-29T06:26:18Z</time>
      </trkpt>
      <trkpt lat="47.89207" lon="6.6835">
        <ele>736.9</ele>
        <time>2026-03-29T06:26:23Z</time>
      </trkpt>
      <trkpt lat="47.89206" lon="6.68343">
        <ele>737.4</ele>
        <time>2026-03-29T06:26:28Z</time>
      </trkpt>
      <trkpt lat="47.89208" lon="6.68336">
        <ele>737.8</ele>
        <time>2026-03-29T06:26:33Z</time>
      </trkpt>
      <trkpt lat="47.89212" lon="6.68327">
        <ele>737.6</ele>
        <time>2026-03-29T06:26:38Z</time>
      </trkpt>
      <trkpt lat="47.89217" lon="6.68318">
        <ele>737</ele>
        <time>2026-03-29T06:26:43Z</time>
      </trkpt>
      <trkpt lat="47.89221" lon="6.68309">
        <ele>736.5</ele>
        <time>2026-03-29T06:26:48Z</time>
      </trkpt>
      <trkpt lat="47.89225" lon="6.68299">
        <ele>736</ele>
        <time>2026-03-29T06:26:53Z</time>
      </trkpt>
      <trkpt lat="47.89225" lon="6.68292">
        <ele>735.7</ele>
        <time>2026-03-29T06:26:58Z</time>
      </trkpt>
      <trkpt lat="47.89226" lon="6.68284">
        <ele>735.4</ele>
        <time>2026-03-29T06:27:03Z</time>
      </trkpt>
      <trkpt lat="47.89228" lon="6.68276">
        <ele>735</ele>
        <time>2026-03-29T06:27:08Z</time>
      </trkpt>
      <trkpt lat="47.89229" lon="6.68269">
        <ele>734.7</ele>
        <time>2026-03-29T06:27:13Z</time>
      </trkpt>
      <trkpt lat="47.89233" lon="6.68269">
        <ele>734.5</ele>
        <time>2026-03-29T06:27:18Z</time>
      </trkpt>
      <trkpt lat="47.89233" lon="6.68261">
        <ele>734.2</ele>
        <time>2026-03-29T06:27:23Z</time>
      </trkpt>
      <trkpt lat="47.89236" lon="6.68253">
        <ele>733.8</ele>
        <time>2026-03-29T06:27:28Z</time>
      </trkpt>
      <trkpt lat="47.89239" lon="6.68243">
        <ele>732.6</ele>
        <time>2026-03-29T06:27:33Z</time>
      </trkpt>
      <trkpt lat="47.8924" lon="6.68235">
        <ele>731.6</ele>
        <time>2026-03-29T06:27:38Z</time>
      </trkpt>
      <trkpt lat="47.89241" lon="6.68226">
        <ele>730.4</ele>
        <time>2026-03-29T06:27:43Z</time>
      </trkpt>
      <trkpt lat="47.89242" lon="6.68217">
        <ele>729.1</ele>
        <time>2026-03-29T06:27:48Z</time>
      </trkpt>
      <trkpt lat="47.89241" lon="6.68209">
        <ele>728.2</ele>
        <time>2026-03-29T06:27:53Z</time>
      </trkpt>
      <trkpt lat="47.89241" lon="6.682">
        <ele>727</ele>
        <time>2026-03-29T06:27:58Z</time>
      </trkpt>
      <trkpt lat="47.89241" lon="6.68191">
        <ele>725.9</ele>
        <time>2026-03-29T06:28:03Z</time>
      </trkpt>
      <trkpt lat="47.89241" lon="6.68182">
        <ele>724.7</ele>
        <time>2026-03-29T06:28:08Z</time>
      </trkpt>
      <trkpt lat="47.89239" lon="6.68174">
        <ele>723.9</ele>
        <time>2026-03-29T06:28:13Z</time>
      </trkpt>
      <trkpt lat="47.89237" lon="6.68167">
        <ele>723.1</ele>
        <time>2026-03-29T06:28:18Z</time>
      </trkpt>
      <trkpt lat="47.89235" lon="6.68158">
        <ele>722.2</ele>
        <time>2026-03-29T06:28:23Z</time>
      </trkpt>
      <trkpt lat="47.89233" lon="6.68151">
        <ele>721.5</ele>
        <time>2026-03-29T06:28:28Z</time>
      </trkpt>
      <trkpt lat="47.8923" lon="6.68141">
        <ele>720.6</ele>
        <time>2026-03-29T06:28:33Z</time>
      </trkpt>
      <trkpt lat="47.89227" lon="6.68133">
        <ele>720</ele>
        <time>2026-03-29T06:28:38Z</time>
      </trkpt>
      <trkpt lat="47.89224" lon="6.68127">
        <ele>719.7</ele>
        <time>2026-03-29T06:28:43Z</time>
      </trkpt>
      <trkpt lat="47.89222" lon="6.68119">
        <ele>719</ele>
        <time>2026-03-29T06:28:48Z</time>
      </trkpt>
      <trkpt lat="47.89218" lon="6.68111">
        <ele>718.7</ele>
        <time>2026-03-29T06:28:53Z</time>
      </trkpt>
      <trkpt lat="47.89214" lon="6.68105">
        <ele>718.7</ele>
        <time>2026-03-29T06:28:58Z</time>
      </trkpt>
      <trkpt lat="47.89211" lon="6.68098">
        <ele>718.5</ele>
        <time>2026-03-29T06:29:03Z</time>
      </trkpt>
      <trkpt lat="47.89208" lon="6.6809">
        <ele>718.2</ele>
        <time>2026-03-29T06:29:08Z</time>
      </trkpt>
      <trkpt lat="47.89205" lon="6.68081">
        <ele>717.8</ele>
        <time>2026-03-29T06:29:13Z</time>
      </trkpt>
      <trkpt lat="47.89202" lon="6.6807">
        <ele>717</ele>
        <time>2026-03-29T06:29:18Z</time>
      </trkpt>
      <trkpt lat="47.89198" lon="6.68063">
        <ele>716.9</ele>
        <time>2026-03-29T06:29:23Z</time>
      </trkpt>
      <trkpt lat="47.89196" lon="6.68056">
        <ele>716.5</ele>
        <time>2026-03-29T06:29:28Z</time>
      </trkpt>
      <trkpt lat="47.89196" lon="6.68049">
        <ele>715.7</ele>
        <time>2026-03-29T06:29:33Z</time>
      </trkpt>
      <trkpt lat="47.89196" lon="6.6804">
        <ele>714.6</ele>
        <time>2026-03-29T06:29:38Z</time>
      </trkpt>
      <trkpt lat="47.89193" lon="6.68029">
        <ele>714</ele>
        <time>2026-03-29T06:29:43Z</time>
      </trkpt>
      <trkpt lat="47.89192" lon="6.68022">
        <ele>713.4</ele>
        <time>2026-03-29T06:29:48Z</time>
      </trkpt>
      <trkpt lat="47.8919" lon="6.68015">
        <ele>713.1</ele>
        <time>2026-03-29T06:29:53Z</time>
      </trkpt>
      <trkpt lat="47.89187" lon="6.68006">
        <ele>712.8</ele>
        <time>2026-03-29T06:29:58Z</time>
      </trkpt>
      <trkpt lat="47.89185" lon="6.67999">
        <ele>712.5</ele>
        <time>2026-03-29T06:30:03Z</time>
      </trkpt>
      <trkpt lat="47.89181" lon="6.6799">
        <ele>712.3</ele>
        <time>2026-03-29T06:30:08Z</time>
      </trkpt>
      <trkpt lat="47.89176" lon="6.67982">
        <ele>712.4</ele>
        <time>2026-03-29T06:30:13Z</time>
      </trkpt>
      <trkpt lat="47.89172" lon="6.67975">
        <ele>712.5</ele>
        <time>2026-03-29T06:30:18Z</time>
      </trkpt>
      <trkpt lat="47.8917" lon="6.67967">
        <ele>711.9</ele>
        <time>2026-03-29T06:30:23Z</time>
      </trkpt>
      <trkpt lat="47.89169" lon="6.67954">
        <ele>710.4</ele>
        <time>2026-03-29T06:30:28Z</time>
      </trkpt>
      <trkpt lat="47.89167" lon="6.67944">
        <ele>709.5</ele>
        <time>2026-03-29T06:30:33Z</time>
      </trkpt>
      <trkpt lat="47.89168" lon="6.67933">
        <ele>707.9</ele>
        <time>2026-03-29T06:30:38Z</time>
      </trkpt>
      <trkpt lat="47.8917" lon="6.67924">
        <ele>706.2</ele>
        <time>2026-03-29T06:30:43Z</time>
      </trkpt>
      <trkpt lat="47.89171" lon="6.67916">
        <ele>705</ele>
        <time>2026-03-29T06:30:48Z</time>
      </trkpt>
      <trkpt lat="47.8917" lon="6.67911">
        <ele>705</ele>
        <time>2026-03-29T06:30:53Z</time>
      </trkpt>
      <trkpt lat="47.89168" lon="6.67904">
        <ele>705.1</ele>
        <time>2026-03-29T06:30:58Z</time>
      </trkpt>
      <trkpt lat="47.89167" lon="6.67892">
        <ele>704.7</ele>
        <time>2026-03-29T06:31:03Z</time>
      </trkpt>
      <trkpt lat="47.89165" lon="6.67881">
        <ele>704.7</ele>
        <time>2026-03-29T06:31:08Z</time>
      </trkpt>
      <trkpt lat="47.89165" lon="6.6787">
        <ele>704.2</ele>
        <time>2026-03-29T06:31:13Z</time>
      </trkpt>
      <trkpt lat="47.89163" lon="6.67862">
        <ele>704.4</ele>
        <time>2026-03-29T06:31:18Z</time>
      </trkpt>
      <trkpt lat="47.89161" lon="6.67855">
        <ele>704.6</ele>
        <time>2026-03-29T06:31:23Z</time>
      </trkpt>
      <trkpt lat="47.8916" lon="6.67848">
        <ele>704.5</ele>
        <time>2026-03-29T06:31:28Z</time>
      </trkpt>
      <trkpt lat="47.89159" lon="6.6784">
        <ele>704.4</ele>
        <time>2026-03-29T06:31:33Z</time>
      </trkpt>
      <trkpt lat="47.89158" lon="6.67832">
        <ele>704.4</ele>
        <time>2026-03-29T06:31:38Z</time>
      </trkpt>
      <trkpt lat="47.89158" lon="6.67824">
        <ele>704.7</ele>
        <time>2026-03-29T06:31:43Z</time>
      </trkpt>
      <trkpt lat="47.89157" lon="6.67816">
        <ele>705.2</ele>
        <time>2026-03-29T06:31:48Z</time>
      </trkpt>
      <trkpt lat="47.89156" lon="6.67809">
        <ele>705.7</ele>
        <time>2026-03-29T06:31:53Z</time>
      </trkpt>
      <trkpt lat="47.89154" lon="6.67801">
        <ele>706.4</ele>
        <time>2026-03-29T06:31:58Z</time>
      </trkpt>
      <trkpt lat="47.89152" lon="6.67793">
        <ele>707.2</ele>
        <time>2026-03-29T06:32:03Z</time>
      </trkpt>
      <trkpt lat="47.89152" lon="6.67785">
        <ele>707.4</ele>
        <time>2026-03-29T06:32:08Z</time>
      </trkpt>
      <trkpt lat="47.89152" lon="6.67777">
        <ele>707.6</ele>
        <time>2026-03-29T06:32:13Z</time>
      </trkpt>
      <trkpt lat="47.89153" lon="6.67769">
        <ele>707.6</ele>
        <time>2026-03-29T06:32:18Z</time>
      </trkpt>
      <trkpt lat="47.89153" lon="6.67762">
        <ele>707.8</ele>
        <time>2026-03-29T06:32:23Z</time>
      </trkpt>
      <trkpt lat="47.89154" lon="6.67757">
        <ele>707.7</ele>
        <time>2026-03-29T06:32:28Z</time>
      </trkpt>
      <trkpt lat="47.89152" lon="6.67752">
        <ele>708.3</ele>
        <time>2026-03-29T06:32:33Z</time>
      </trkpt>
      <trkpt lat="47.89153" lon="6.67743">
        <ele>707.8</ele>
        <time>2026-03-29T06:32:38Z</time>
      </trkpt>
      <trkpt lat="47.89155" lon="6.67735">
        <ele>706.9</ele>
        <time>2026-03-29T06:32:43Z</time>
      </trkpt>
      <trkpt lat="47.89156" lon="6.67726">
        <ele>706.2</ele>
        <time>2026-03-29T06:32:48Z</time>
      </trkpt>
      <trkpt lat="47.89159" lon="6.67716">
        <ele>705</ele>
        <time>2026-03-29T06:32:53Z</time>
      </trkpt>
      <trkpt lat="47.89159" lon="6.67706">
        <ele>704.5</ele>
        <time>2026-03-29T06:32:58Z</time>
      </trkpt>
      <trkpt lat="47.89156" lon="6.67698">
        <ele>704.8</ele>
        <time>2026-03-29T06:33:03Z</time>
      </trkpt>
      <trkpt lat="47.89152" lon="6.67691">
        <ele>705.3</ele>
        <time>2026-03-29T06:33:08Z</time>
      </trkpt>
      <trkpt lat="47.8915" lon="6.67683">
        <ele>705.3</ele>
        <time>2026-03-29T06:33:13Z</time>
      </trkpt>
      <trkpt lat="47.8915" lon="6.67671">
        <ele>704.6</ele>
        <time>2026-03-29T06:33:18Z</time>
      </trkpt>
      <trkpt lat="47.8915" lon="6.67661">
        <ele>704</ele>
        <time>2026-03-29T06:33:23Z</time>
      </trkpt>
      <trkpt lat="47.8915" lon="6.67645">
        <ele>702.7</ele>
        <time>2026-03-29T06:33:28Z</time>
      </trkpt>
      <trkpt lat="47.89151" lon="6.67634">
        <ele>701.7</ele>
        <time>2026-03-29T06:33:33Z</time>
      </trkpt>
      <trkpt lat="47.89152" lon="6.67623">
        <ele>700.7</ele>
        <time>2026-03-29T06:33:38Z</time>
      </trkpt>
      <trkpt lat="47.8915" lon="6.67613">
        <ele>700.3</ele>
        <time>2026-03-29T06:33:43Z</time>
      </trkpt>
      <trkpt lat="47.89149" lon="6.67601">
        <ele>699.5</ele>
        <time>2026-03-29T06:33:48Z</time>
      </trkpt>
      <trkpt lat="47.89148" lon="6.6759">
        <ele>698.9</ele>
        <time>2026-03-29T06:33:53Z</time>
      </trkpt>
      <trkpt lat="47.89149" lon="6.67579">
        <ele>698.1</ele>
        <time>2026-03-29T06:33:58Z</time>
      </trkpt>
      <trkpt lat="47.89151" lon="6.67567">
        <ele>697.4</ele>
        <time>2026-03-29T06:34:03Z</time>
      </trkpt>
      <trkpt lat="47.89152" lon="6.67552">
        <ele>696.8</ele>
        <time>2026-03-29T06:34:08Z</time>
      </trkpt>
      <trkpt lat="47.89154" lon="6.67539">
        <ele>696.1</ele>
        <time>2026-03-29T06:34:13Z</time>
      </trkpt>
      <trkpt lat="47.89156" lon="6.6753">
        <ele>695.5</ele>
        <time>2026-03-29T06:34:18Z</time>
      </trkpt>
      <trkpt lat="47.89157" lon="6.6752">
        <ele>695</ele>
        <time>2026-03-29T06:34:23Z</time>
      </trkpt>
      <trkpt lat="47.89158" lon="6.67509">
        <ele>694.6</ele>
        <time>2026-03-29T06:34:28Z</time>
      </trkpt>
      <trkpt lat="47.89159" lon="6.67499">
        <ele>694.2</ele>
        <time>2026-03-29T06:34:33Z</time>
      </trkpt>
      <trkpt lat="47.89162" lon="6.67488">
        <ele>693.9</ele>
        <time>2026-03-29T06:34:38Z</time>
      </trkpt>
      <trkpt lat="47.89164" lon="6.67478">
        <ele>693.7</ele>
        <time>2026-03-29T06:34:43Z</time>
      </trkpt>
      <trkpt lat="47.89166" lon="6.67469">
        <ele>693.5</ele>
        <time>2026-03-29T06:34:48Z</time>
      </trkpt>
      <trkpt lat="47.89169" lon="6.67461">
        <ele>692.7</ele>
        <time>2026-03-29T06:34:53Z</time>
      </trkpt>
      <trkpt lat="47.89171" lon="6.67451">
        <ele>692.2</ele>
        <time>2026-03-29T06:34:58Z</time>
      </trkpt>
      <trkpt lat="47.89173" lon="6.67444">
        <ele>691.7</ele>
        <time>2026-03-29T06:35:03Z</time>
      </trkpt>
      <trkpt lat="47.89177" lon="6.67438">
        <ele>690.5</ele>
        <time>2026-03-29T06:35:08Z</time>
      </trkpt>
      <trkpt lat="47.89179" lon="6.67428">
        <ele>690.1</ele>
        <time>2026-03-29T06:35:13Z</time>
      </trkpt>
      <trkpt lat="47.89181" lon="6.67418">
        <ele>689.7</ele>
        <time>2026-03-29T06:35:18Z</time>
      </trkpt>
      <trkpt lat="47.89184" lon="6.6741">
        <ele>689.4</ele>
        <time>2026-03-29T06:35:23Z</time>
      </trkpt>
      <trkpt lat="47.89188" lon="6.67403">
        <ele>688.9</ele>
        <time>2026-03-29T06:35:28Z</time>
      </trkpt>
      <trkpt lat="47.89192" lon="6.67393">
        <ele>688.6</ele>
        <time>2026-03-29T06:35:33Z</time>
      </trkpt>
      <trkpt lat="47.89196" lon="6.67383">
        <ele>688.5</ele>
        <time>2026-03-29T06:35:38Z</time>
      </trkpt>
      <trkpt lat="47.89199" lon="6.67375">
        <ele>688.4</ele>
        <time>2026-03-29T06:35:43Z</time>
      </trkpt>
      <trkpt lat="47.89204" lon="6.67367">
        <ele>687.8</ele>
        <time>2026-03-29T06:35:48Z</time>
      </trkpt>
      <trkpt lat="47.89209" lon="6.67358">
        <ele>687.3</ele>
        <time>2026-03-29T06:35:53Z</time>
      </trkpt>
      <trkpt lat="47.89212" lon="6.67348">
        <ele>687.5</ele>
        <time>2026-03-29T06:35:58Z</time>
      </trkpt>
      <trkpt lat="47.89216" lon="6.67339">
        <ele>687.4</ele>
        <time>2026-03-29T06:36:03Z</time>
      </trkpt>
      <trkpt lat="47.89218" lon="6.6733">
        <ele>687.6</ele>
        <time>2026-03-29T06:36:08Z</time>
      </trkpt>
      <trkpt lat="47.89222" lon="6.67321">
        <ele>687</ele>
        <time>2026-03-29T06:36:13Z</time>
      </trkpt>
      <trkpt lat="47.89224" lon="6.67313">
        <ele>686.9</ele>
        <time>2026-03-29T06:36:18Z</time>
      </trkpt>
      <trkpt lat="47.89226" lon="6.67306">
        <ele>686.7</ele>
        <time>2026-03-29T06:36:23Z</time>
      </trkpt>
      <trkpt lat="47.89228" lon="6.67296">
        <ele>686.7</ele>
        <time>2026-03-29T06:36:28Z</time>
      </trkpt>
      <trkpt lat="47.89231" lon="6.67286">
        <ele>686.5</ele>
        <time>2026-03-29T06:36:33Z</time>
      </trkpt>
      <trkpt lat="47.89236" lon="6.67276">
        <ele>685.8</ele>
        <time>2026-03-29T06:36:38Z</time>
      </trkpt>
      <trkpt lat="47.89241" lon="6.67265">
        <ele>685.2</ele>
        <time>2026-03-29T06:36:43Z</time>
      </trkpt>
      <trkpt lat="47.89246" lon="6.67255">
        <ele>684.6</ele>
        <time>2026-03-29T06:36:48Z</time>
      </trkpt>
      <trkpt lat="47.8925" lon="6.67247">
        <ele>683.7</ele>
        <time>2026-03-29T06:36:53Z</time>
      </trkpt>
      <trkpt lat="47.89254" lon="6.67238">
        <ele>681.8</ele>
        <time>2026-03-29T06:36:58Z</time>
      </trkpt>
      <trkpt lat="47.8926" lon="6.6723">
        <ele>679.4</ele>
        <time>2026-03-29T06:37:03Z</time>
      </trkpt>
      <trkpt lat="47.89265" lon="6.67221">
        <ele>677.3</ele>
        <time>2026-03-29T06:37:08Z</time>
      </trkpt>
      <trkpt lat="47.8927" lon="6.67215">
        <ele>675.5</ele>
        <time>2026-03-29T06:37:13Z</time>
      </trkpt>
      <trkpt lat="47.89276" lon="6.6721">
        <ele>673.6</ele>
        <time>2026-03-29T06:37:18Z</time>
      </trkpt>
      <trkpt lat="47.8928" lon="6.672">
        <ele>672</ele>
        <time>2026-03-29T06:37:23Z</time>
      </trkpt>
      <trkpt lat="47.89283" lon="6.67191">
        <ele>670.7</ele>
        <time>2026-03-29T06:37:28Z</time>
      </trkpt>
      <trkpt lat="47.89286" lon="6.67183">
        <ele>669.6</ele>
        <time>2026-03-29T06:37:33Z</time>
      </trkpt>
      <trkpt lat="47.89289" lon="6.67176">
        <ele>668.5</ele>
        <time>2026-03-29T06:37:38Z</time>
      </trkpt>
      <trkpt lat="47.8929" lon="6.67169">
        <ele>668</ele>
        <time>2026-03-29T06:37:43Z</time>
      </trkpt>
      <trkpt lat="47.89294" lon="6.67158">
        <ele>666.3</ele>
        <time>2026-03-29T06:37:48Z</time>
      </trkpt>
      <trkpt lat="47.89297" lon="6.67148">
        <ele>665</ele>
        <time>2026-03-29T06:37:53Z</time>
      </trkpt>
      <trkpt lat="47.893" lon="6.67136">
        <ele>663.5</ele>
        <time>2026-03-29T06:37:58Z</time>
      </trkpt>
      <trkpt lat="47.89303" lon="6.67125">
        <ele>662.3</ele>
        <time>2026-03-29T06:38:03Z</time>
      </trkpt>
      <trkpt lat="47.89307" lon="6.67115">
        <ele>661</ele>
        <time>2026-03-29T06:38:08Z</time>
      </trkpt>
      <trkpt lat="47.89307" lon="6.67105">
        <ele>660.4</ele>
        <time>2026-03-29T06:38:13Z</time>
      </trkpt>
      <trkpt lat="47.89309" lon="6.67093">
        <ele>659.5</ele>
        <time>2026-03-29T06:38:18Z</time>
      </trkpt>
      <trkpt lat="47.8931" lon="6.67081">
        <ele>658.8</ele>
        <time>2026-03-29T06:38:23Z</time>
      </trkpt>
      <trkpt lat="47.89311" lon="6.6707">
        <ele>658.6</ele>
        <time>2026-03-29T06:38:28Z</time>
      </trkpt>
      <trkpt lat="47.89312" lon="6.67061">
        <ele>658.4</ele>
        <time>2026-03-29T06:38:33Z</time>
      </trkpt>
      <trkpt lat="47.89314" lon="6.67051">
        <ele>658</ele>
        <time>2026-03-29T06:38:38Z</time>
      </trkpt>
      <trkpt lat="47.89317" lon="6.67039">
        <ele>657.6</ele>
        <time>2026-03-29T06:38:43Z</time>
      </trkpt>
      <trkpt lat="47.89318" lon="6.67026">
        <ele>657.5</ele>
        <time>2026-03-29T06:38:48Z</time>
      </trkpt>
      <trkpt lat="47.89321" lon="6.67017">
        <ele>657.1</ele>
        <time>2026-03-29T06:38:53Z</time>
      </trkpt>
      <trkpt lat="47.89325" lon="6.67006">
        <ele>656.7</ele>
        <time>2026-03-29T06:38:58Z</time>
      </trkpt>
      <trkpt lat="47.89328" lon="6.66994">
        <ele>656.8</ele>
        <time>2026-03-29T06:39:03Z</time>
      </trkpt>
      <trkpt lat="47.89333" lon="6.66984">
        <ele>657</ele>
        <time>2026-03-29T06:39:08Z</time>
      </trkpt>
      <trkpt lat="47.89336" lon="6.66975">
        <ele>657.8</ele>
        <time>2026-03-29T06:39:13Z</time>
      </trkpt>
      <trkpt lat="47.8934" lon="6.66965">
        <ele>658.8</ele>
        <time>2026-03-29T06:39:18Z</time>
      </trkpt>
      <trkpt lat="47.89344" lon="6.66956">
        <ele>659.7</ele>
        <time>2026-03-29T06:39:23Z</time>
      </trkpt>
      <trkpt lat="47.89349" lon="6.66947">
        <ele>660.7</ele>
        <time>2026-03-29T06:39:28Z</time>
      </trkpt>
      <trkpt lat="47.89354" lon="6.66937">
        <ele>661.7</ele>
        <time>2026-03-29T06:39:33Z</time>
      </trkpt>
      <trkpt lat="47.89357" lon="6.66928">
        <ele>662.4</ele>
        <time>2026-03-29T06:39:38Z</time>
      </trkpt>
      <trkpt lat="47.89359" lon="6.66918">
        <ele>663.1</ele>
        <time>2026-03-29T06:39:43Z</time>
      </trkpt>
      <trkpt lat="47.89363" lon="6.66908">
        <ele>664</ele>
        <time>2026-03-29T06:39:48Z</time>
      </trkpt>
      <trkpt lat="47.89366" lon="6.66899">
        <ele>664.7</ele>
        <time>2026-03-29T06:39:53Z</time>
      </trkpt>
      <trkpt lat="47.8937" lon="6.66891">
        <ele>665.4</ele>
        <time>2026-03-29T06:39:58Z</time>
      </trkpt>
      <trkpt lat="47.89374" lon="6.66882">
        <ele>665.9</ele>
        <time>2026-03-29T06:40:03Z</time>
      </trkpt>
      <trkpt lat="47.89376" lon="6.66874">
        <ele>666.3</ele>
        <time>2026-03-29T06:40:08Z</time>
      </trkpt>
      <trkpt lat="47.8938" lon="6.66866">
        <ele>666.6</ele>
        <time>2026-03-29T06:40:13Z</time>
      </trkpt>
      <trkpt lat="47.89382" lon="6.66856">
        <ele>667</ele>
        <time>2026-03-29T06:40:18Z</time>
      </trkpt>
      <trkpt lat="47.89384" lon="6.66848">
        <ele>667.2</ele>
        <time>2026-03-29T06:40:23Z</time>
      </trkpt>
      <trkpt lat="47.89386" lon="6.66839">
        <ele>667.3</ele>
        <time>2026-03-29T06:40:28Z</time>
      </trkpt>
      <trkpt lat="47.89388" lon="6.6683">
        <ele>667.5</ele>
        <time>2026-03-29T06:40:33Z</time>
      </trkpt>
      <trkpt lat="47.89392" lon="6.66821">
        <ele>667.6</ele>
        <time>2026-03-29T06:40:38Z</time>
      </trkpt>
      <trkpt lat="47.89399" lon="6.6681">
        <ele>667.7</ele>
        <time>2026-03-29T06:40:43Z</time>
      </trkpt>
      <trkpt lat="47.89404" lon="6.66803">
        <ele>667.8</ele>
        <time>2026-03-29T06:40:48Z</time>
      </trkpt>
      <trkpt lat="47.89406" lon="6.66799">
        <ele>667.9</ele>
        <time>2026-03-29T06:40:53Z</time>
      </trkpt>
      <trkpt lat="47.89406" lon="6.66797">
        <ele>668</ele>
        <time>2026-03-29T06:40:58Z</time>
      </trkpt>
      <trkpt lat="47.89406" lon="6.66797">
        <ele>668</ele>
        <time>2026-03-29T06:41:03Z</time>
      </trkpt>
      <trkpt lat="47.89406" lon="6.66797">
        <ele>668</ele>
        <time>2026-03-29T06:41:08Z</time>
      </trkpt>
      <trkpt lat="47.89407" lon="6.66788">
        <ele>668.3</ele>
        <time>2026-03-29T06:41:13Z</time>
      </trkpt>
      <trkpt lat="47.89409" lon="6.66782">
        <ele>668.5</ele>
        <time>2026-03-29T06:41:18Z</time>
      </trkpt>
      <trkpt lat="47.89414" lon="6.66775">
        <ele>668.8</ele>
        <time>2026-03-29T06:41:23Z</time>
      </trkpt>
      <trkpt lat="47.89415" lon="6.66771">
        <ele>669</ele>
        <time>2026-03-29T06:41:28Z</time>
      </trkpt>
      <trkpt lat="47.89416" lon="6.66766">
        <ele>669.2</ele>
        <time>2026-03-29T06:41:33Z</time>
      </trkpt>
      <trkpt lat="47.8942" lon="6.66759">
        <ele>669.2</ele>
        <time>2026-03-29T06:41:38Z</time>
      </trkpt>
      <trkpt lat="47.89426" lon="6.66753">
        <ele>668.8</ele>
        <time>2026-03-29T06:41:43Z</time>
      </trkpt>
      <trkpt lat="47.89434" lon="6.66748">
        <ele>668.3</ele>
        <time>2026-03-29T06:41:48Z</time>
      </trkpt>
      <trkpt lat="47.8944" lon="6.66742">
        <ele>668.2</ele>
        <time>2026-03-29T06:41:53Z</time>
      </trkpt>
      <trkpt lat="47.89446" lon="6.66739">
        <ele>667.9</ele>
        <time>2026-03-29T06:41:58Z</time>
      </trkpt>
      <trkpt lat="47.89454" lon="6.66736">
        <ele>667.5</ele>
        <time>2026-03-29T06:42:03Z</time>
      </trkpt>
      <trkpt lat="47.89457" lon="6.66731">
        <ele>667.8</ele>
        <time>2026-03-29T06:42:08Z</time>
      </trkpt>
      <trkpt lat="47.89457" lon="6.66731">
        <ele>667.8</ele>
        <time>2026-03-29T06:42:13Z</time>
      </trkpt>
      <trkpt lat="47.89457" lon="6.66731">
        <ele>667.8</ele>
        <time>2026-03-29T06:42:18Z</time>
      </trkpt>
      <trkpt lat="47.89461" lon="6.66724">
        <ele>668.3</ele>
        <time>2026-03-29T06:42:23Z</time>
      </trkpt>
      <trkpt lat="47.89468" lon="6.66723">
        <ele>667.9</ele>
        <time>2026-03-29T06:42:28Z</time>
      </trkpt>
      <trkpt lat="47.89474" lon="6.66723">
        <ele>667.4</ele>
        <time>2026-03-29T06:42:33Z</time>
      </trkpt>
      <trkpt lat="47.89481" lon="6.66723">
        <ele>666.9</ele>
        <time>2026-03-29T06:42:38Z</time>
      </trkpt>
      <trkpt lat="47.89488" lon="6.66721">
        <ele>666.7</ele>
        <time>2026-03-29T06:42:43Z</time>
      </trkpt>
      <trkpt lat="47.89496" lon="6.66721">
        <ele>666.2</ele>
        <time>2026-03-29T06:42:48Z</time>
      </trkpt>
      <trkpt lat="47.89503" lon="6.66719">
        <ele>666</ele>
        <time>2026-03-29T06:42:53Z</time>
      </trkpt>
      <trkpt lat="47.89509" lon="6.66716">
        <ele>666.2</ele>
        <time>2026-03-29T06:42:58Z</time>
      </trkpt>
      <trkpt lat="47.89517" lon="6.66713">
        <ele>666.3</ele>
        <time>2026-03-29T06:43:03Z</time>
      </trkpt>
      <trkpt lat="47.89523" lon="6.66711">
        <ele>666.3</ele>
        <time>2026-03-29T06:43:08Z</time>
      </trkpt>
      <trkpt lat="47.89528" lon="6.66707">
        <ele>666.7</ele>
        <time>2026-03-29T06:43:13Z</time>
      </trkpt>
      <trkpt lat="47.89536" lon="6.66705">
        <ele>666.7</ele>
        <time>2026-03-29T06:43:18Z</time>
      </trkpt>
      <trkpt lat="47.89543" lon="6.66702">
        <ele>666.9</ele>
        <time>2026-03-29T06:43:23Z</time>
      </trkpt>
      <trkpt lat="47.89553" lon="6.66695">
        <ele>667.7</ele>
        <time>2026-03-29T06:43:28Z</time>
      </trkpt>
      <trkpt lat="47.89562" lon="6.6669">
        <ele>668.2</ele>
        <time>2026-03-29T06:43:33Z</time>
      </trkpt>
      <trkpt lat="47.89569" lon="6.66686">
        <ele>668.7</ele>
        <time>2026-03-29T06:43:38Z</time>
      </trkpt>
      <trkpt lat="47.89577" lon="6.66681">
        <ele>669.3</ele>
        <time>2026-03-29T06:43:43Z</time>
      </trkpt>
      <trkpt lat="47.89583" lon="6.66676">
        <ele>670.1</ele>
        <time>2026-03-29T06:43:48Z</time>
      </trkpt>
      <trkpt lat="47.89584" lon="6.66676">
        <ele>670.1</ele>
        <time>2026-03-29T06:43:53Z</time>
      </trkpt>
      <trkpt lat="47.89585" lon="6.66677">
        <ele>670</ele>
        <time>2026-03-29T06:43:58Z</time>
      </trkpt>
      <trkpt lat="47.89585" lon="6.66677">
        <ele>670</ele>
        <time>2026-03-29T06:44:03Z</time>
      </trkpt>
      <trkpt lat="47.89585" lon="6.66677">
        <ele>670</ele>
        <time>2026-03-29T06:44:08Z</time>
      </trkpt>
      <trkpt lat="47.89586" lon="6.66677">
        <ele>670.1</ele>
        <time>2026-03-29T06:44:13Z</time>
      </trkpt>
      <trkpt lat="47.89587" lon="6.66677">
        <ele>670.1</ele>
        <time>2026-03-29T06:44:18Z</time>
      </trkpt>
      <trkpt lat="47.89593" lon="6.66671">
        <ele>671.7</ele>
        <time>2026-03-29T06:44:23Z</time>
      </trkpt>
      <trkpt lat="47.89601" lon="6.66665">
        <ele>673.4</ele>
        <time>2026-03-29T06:44:28Z</time>
      </trkpt>
      <trkpt lat="47.89607" lon="6.6666">
        <ele>674.7</ele>
        <time>2026-03-29T06:44:33Z</time>
      </trkpt>
      <trkpt lat="47.89612" lon="6.66654">
        <ele>676.1</ele>
        <time>2026-03-29T06:44:38Z</time>
      </trkpt>
      <trkpt lat="47.89617" lon="6.66647">
        <ele>677.6</ele>
        <time>2026-03-29T06:44:43Z</time>
      </trkpt>
      <trkpt lat="47.89623" lon="6.66645">
        <ele>678.1</ele>
        <time>2026-03-29T06:44:48Z</time>
      </trkpt>
      <trkpt lat="47.89632" lon="6.66641">
        <ele>679</ele>
        <time>2026-03-29T06:44:53Z</time>
      </trkpt>
      <trkpt lat="47.8964" lon="6.66636">
        <ele>679.9</ele>
        <time>2026-03-29T06:44:58Z</time>
      </trkpt>
      <trkpt lat="47.89646" lon="6.66632">
        <ele>680.5</ele>
        <time>2026-03-29T06:45:03Z</time>
      </trkpt>
      <trkpt lat="47.89654" lon="6.66628">
        <ele>681.1</ele>
        <time>2026-03-29T06:45:08Z</time>
      </trkpt>
      <trkpt lat="47.8966" lon="6.66626">
        <ele>681.4</ele>
        <time>2026-03-29T06:45:13Z</time>
      </trkpt>
      <trkpt lat="47.89667" lon="6.66623">
        <ele>681.7</ele>
        <time>2026-03-29T06:45:18Z</time>
      </trkpt>
      <trkpt lat="47.89674" lon="6.66622">
        <ele>681.4</ele>
        <time>2026-03-29T06:45:23Z</time>
      </trkpt>
      <trkpt lat="47.89682" lon="6.6662">
        <ele>681.1</ele>
        <time>2026-03-29T06:45:28Z</time>
      </trkpt>
      <trkpt lat="47.89691" lon="6.66619">
        <ele>680.6</ele>
        <time>2026-03-29T06:45:33Z</time>
      </trkpt>
      <trkpt lat="47.897" lon="6.66619">
        <ele>680</ele>
        <time>2026-03-29T06:45:38Z</time>
      </trkpt>
      <trkpt lat="47.89707" lon="6.66619">
        <ele>679.5</ele>
        <time>2026-03-29T06:45:43Z</time>
      </trkpt>
      <trkpt lat="47.89715" lon="6.6662">
        <ele>678.9</ele>
        <time>2026-03-29T06:45:48Z</time>
      </trkpt>
      <trkpt lat="47.89723" lon="6.66619">
        <ele>678.5</ele>
        <time>2026-03-29T06:45:53Z</time>
      </trkpt>
      <trkpt lat="47.8973" lon="6.66621">
        <ele>677.9</ele>
        <time>2026-03-29T06:45:58Z</time>
      </trkpt>
      <trkpt lat="47.89737" lon="6.66623">
        <ele>677.4</ele>
        <time>2026-03-29T06:46:03Z</time>
      </trkpt>
      <trkpt lat="47.89744" lon="6.66624">
        <ele>676.9</ele>
        <time>2026-03-29T06:46:08Z</time>
      </trkpt>
      <trkpt lat="47.89751" lon="6.66624">
        <ele>676.4</ele>
        <time>2026-03-29T06:46:13Z</time>
      </trkpt>
      <trkpt lat="47.89757" lon="6.66626">
        <ele>675.7</ele>
        <time>2026-03-29T06:46:18Z</time>
      </trkpt>
      <trkpt lat="47.89765" lon="6.66627">
        <ele>674.8</ele>
        <time>2026-03-29T06:46:23Z</time>
      </trkpt>
      <trkpt lat="47.89773" lon="6.66627">
        <ele>674</ele>
        <time>2026-03-29T06:46:28Z</time>
      </trkpt>
      <trkpt lat="47.8978" lon="6.66627">
        <ele>673.2</ele>
        <time>2026-03-29T06:46:33Z</time>
      </trkpt>
      <trkpt lat="47.89789" lon="6.66625">
        <ele>672.3</ele>
        <time>2026-03-29T06:46:38Z</time>
      </trkpt>
      <trkpt lat="47.89795" lon="6.66624">
        <ele>671.7</ele>
        <time>2026-03-29T06:46:43Z</time>
      </trkpt>
      <trkpt lat="47.89799" lon="6.66621">
        <ele>671.2</ele>
        <time>2026-03-29T06:46:48Z</time>
      </trkpt>
      <trkpt lat="47.898" lon="6.66621">
        <ele>671.1</ele>
        <time>2026-03-29T06:46:53Z</time>
      </trkpt>
      <trkpt lat="47.89801" lon="6.66622">
        <ele>671</ele>
        <time>2026-03-29T06:46:58Z</time>
      </trkpt>
      <trkpt lat="47.89803" lon="6.66628">
        <ele>670.8</ele>
        <time>2026-03-29T06:47:03Z</time>
      </trkpt>
      <trkpt lat="47.89805" lon="6.66633">
        <ele>670.5</ele>
        <time>2026-03-29T06:47:08Z</time>
      </trkpt>
      <trkpt lat="47.89806" lon="6.66637">
        <ele>670.4</ele>
        <time>2026-03-29T06:47:13Z</time>
      </trkpt>
      <trkpt lat="47.89807" lon="6.66638">
        <ele>670.3</ele>
        <time>2026-03-29T06:47:18Z</time>
      </trkpt>
      <trkpt lat="47.89807" lon="6.66637">
        <ele>670.3</ele>
        <time>2026-03-29T06:47:23Z</time>
      </trkpt>
      <trkpt lat="47.89807" lon="6.66637">
        <ele>670.3</ele>
        <time>2026-03-29T06:47:28Z</time>
      </trkpt>
      <trkpt lat="47.89805" lon="6.66627">
        <ele>670.6</ele>
        <time>2026-03-29T06:47:33Z</time>
      </trkpt>
      <trkpt lat="47.89804" lon="6.66619">
        <ele>670.7</ele>
        <time>2026-03-29T06:47:38Z</time>
      </trkpt>
      <trkpt lat="47.89806" lon="6.66614">
        <ele>670.5</ele>
        <time>2026-03-29T06:47:43Z</time>
      </trkpt>
      <trkpt lat="47.8981" lon="6.66607">
        <ele>670</ele>
        <time>2026-03-29T06:47:48Z</time>
      </trkpt>
      <trkpt lat="47.89813" lon="6.66602">
        <ele>669.7</ele>
        <time>2026-03-29T06:47:53Z</time>
      </trkpt>
      <trkpt lat="47.89818" lon="6.66595">
        <ele>669.1</ele>
        <time>2026-03-29T06:47:58Z</time>
      </trkpt>
      <trkpt lat="47.89823" lon="6.66589">
        <ele>668.4</ele>
        <time>2026-03-29T06:48:03Z</time>
      </trkpt>
      <trkpt lat="47.89826" lon="6.66582">
        <ele>668</ele>
        <time>2026-03-29T06:48:08Z</time>
      </trkpt>
      <trkpt lat="47.8983" lon="6.66575">
        <ele>667.9</ele>
        <time>2026-03-29T06:48:13Z</time>
      </trkpt>
      <trkpt lat="47.89833" lon="6.66573">
        <ele>667.7</ele>
        <time>2026-03-29T06:48:18Z</time>
      </trkpt>
      <trkpt lat="47.89834" lon="6.66572">
        <ele>667.6</ele>
        <time>2026-03-29T06:48:23Z</time>
      </trkpt>
      <trkpt lat="47.89836" lon="6.66564">
        <ele>667.9</ele>
        <time>2026-03-29T06:48:28Z</time>
      </trkpt>
      <trkpt lat="47.89836" lon="6.66562">
        <ele>668.1</ele>
        <time>2026-03-29T06:48:33Z</time>
      </trkpt>
      <trkpt lat="47.89838" lon="6.66556">
        <ele>668.2</ele>
        <time>2026-03-29T06:48:38Z</time>
      </trkpt>
      <trkpt lat="47.89839" lon="6.66554">
        <ele>668.3</ele>
        <time>2026-03-29T06:48:43Z</time>
      </trkpt>
      <trkpt lat="47.89839" lon="6.66553">
        <ele>668.3</ele>
        <time>2026-03-29T06:48:48Z</time>
      </trkpt>
      <trkpt lat="47.89838" lon="6.66546">
        <ele>668.8</ele>
        <time>2026-03-29T06:48:53Z</time>
      </trkpt>
      <trkpt lat="47.89837" lon="6.66544">
        <ele>669</ele>
        <time>2026-03-29T06:48:58Z</time>
      </trkpt>
      <trkpt lat="47.89837" lon="6.66544">
        <ele>669</ele>
        <time>2026-03-29T06:49:03Z</time>
      </trkpt>
      <trkpt lat="47.89837" lon="6.66544">
        <ele>669</ele>
        <time>2026-03-29T06:49:08Z</time>
      </trkpt>
      <trkpt lat="47.89837" lon="6.66544">
        <ele>669</ele>
        <time>2026-03-29T06:49:13Z</time>
      </trkpt>
      <trkpt lat="47.89837" lon="6.66544">
        <ele>669</ele>
        <time>2026-03-29T06:49:18Z</time>
      </trkpt>
      <trkpt lat="47.89837" lon="6.66544">
        <ele>669</ele>
        <time>2026-03-29T06:49:23Z</time>
      </trkpt>
      <trkpt lat="47.89842" lon="6.66531">
        <ele>669.3</ele>
        <time>2026-03-29T06:49:28Z</time>
      </trkpt>
      <trkpt lat="47.89843" lon="6.66522">
        <ele>669.7</ele>
        <time>2026-03-29T06:49:33Z</time>
      </trkpt>
      <trkpt lat="47.89843" lon="6.66515">
        <ele>670.1</ele>
        <time>2026-03-29T06:49:38Z</time>
      </trkpt>
      <trkpt lat="47.89843" lon="6.66512">
        <ele>670.3</ele>
        <time>2026-03-29T06:49:43Z</time>
      </trkpt>
      <trkpt lat="47.89843" lon="6.66512">
        <ele>670.3</ele>
        <time>2026-03-29T06:49:48Z</time>
      </trkpt>
      <trkpt lat="47.89843" lon="6.66512">
        <ele>670.3</ele>
        <time>2026-03-29T06:49:53Z</time>
      </trkpt>
      <trkpt lat="47.89843" lon="6.66512">
        <ele>670.3</ele>
        <time>2026-03-29T06:49:58Z</time>
      </trkpt>
      <trkpt lat="47.89841" lon="6.66506">
        <ele>670.8</ele>
        <time>2026-03-29T06:50:03Z</time>
      </trkpt>
      <trkpt lat="47.89846" lon="6.66497">
        <ele>670.9</ele>
        <time>2026-03-29T06:50:08Z</time>
      </trkpt>
      <trkpt lat="47.89847" lon="6.66483">
        <ele>672</ele>
        <time>2026-03-29T06:50:13Z</time>
      </trkpt>
      <trkpt lat="47.89849" lon="6.66473">
        <ele>672.5</ele>
        <time>2026-03-29T06:50:18Z</time>
      </trkpt>
      <trkpt lat="47.89851" lon="6.66463">
        <ele>673.1</ele>
        <time>2026-03-29T06:50:23Z</time>
      </trkpt>
      <trkpt lat="47.89852" lon="6.66454">
        <ele>673.7</ele>
        <time>2026-03-29T06:50:28Z</time>
      </trkpt>
      <trkpt lat="47.89853" lon="6.66444">
        <ele>674.3</ele>
        <time>2026-03-29T06:50:33Z</time>
      </trkpt>
      <trkpt lat="47.89853" lon="6.66436">
        <ele>674.9</ele>
        <time>2026-03-29T06:50:38Z</time>
      </trkpt>
      <trkpt lat="47.89853" lon="6.66425">
        <ele>675.8</ele>
        <time>2026-03-29T06:50:43Z</time>
      </trkpt>
      <trkpt lat="47.89854" lon="6.66414">
        <ele>676.5</ele>
        <time>2026-03-29T06:50:48Z</time>
      </trkpt>
      <trkpt lat="47.89854" lon="6.66403">
        <ele>677.2</ele>
        <time>2026-03-29T06:50:53Z</time>
      </trkpt>
      <trkpt lat="47.89855" lon="6.66391">
        <ele>677.9</ele>
        <time>2026-03-29T06:50:58Z</time>
      </trkpt>
      <trkpt lat="47.89855" lon="6.66383">
        <ele>678.4</ele>
        <time>2026-03-29T06:51:03Z</time>
      </trkpt>
      <trkpt lat="47.89855" lon="6.66374">
        <ele>679</ele>
        <time>2026-03-29T06:51:08Z</time>
      </trkpt>
      <trkpt lat="47.89855" lon="6.66365">
        <ele>679.6</ele>
        <time>2026-03-29T06:51:13Z</time>
      </trkpt>
      <trkpt lat="47.89855" lon="6.66355">
        <ele>680.3</ele>
        <time>2026-03-29T06:51:18Z</time>
      </trkpt>
      <trkpt lat="47.89856" lon="6.66345">
        <ele>680.8</ele>
        <time>2026-03-29T06:51:23Z</time>
      </trkpt>
      <trkpt lat="47.89856" lon="6.66334">
        <ele>681.5</ele>
        <time>2026-03-29T06:51:28Z</time>
      </trkpt>
      <trkpt lat="47.89856" lon="6.66322">
        <ele>682.2</ele>
        <time>2026-03-29T06:51:33Z</time>
      </trkpt>
      <trkpt lat="47.89856" lon="6.6631">
        <ele>682.9</ele>
        <time>2026-03-29T06:51:38Z</time>
      </trkpt>
      <trkpt lat="47.89855" lon="6.66299">
        <ele>683.8</ele>
        <time>2026-03-29T06:51:43Z</time>
      </trkpt>
      <trkpt lat="47.89855" lon="6.66287">
        <ele>684.4</ele>
        <time>2026-03-29T06:51:48Z</time>
      </trkpt>
      <trkpt lat="47.89856" lon="6.66275">
        <ele>684.9</ele>
        <time>2026-03-29T06:51:53Z</time>
      </trkpt>
      <trkpt lat="47.89859" lon="6.66262">
        <ele>684.9</ele>
        <time>2026-03-29T06:51:58Z</time>
      </trkpt>
      <trkpt lat="47.8986" lon="6.66251">
        <ele>685.2</ele>
        <time>2026-03-29T06:52:03Z</time>
      </trkpt>
      <trkpt lat="47.89861" lon="6.66242">
        <ele>685</ele>
        <time>2026-03-29T06:52:08Z</time>
      </trkpt>
      <trkpt lat="47.89864" lon="6.6623">
        <ele>684.2</ele>
        <time>2026-03-29T06:52:13Z</time>
      </trkpt>
      <trkpt lat="47.89866" lon="6.6622">
        <ele>683.7</ele>
        <time>2026-03-29T06:52:18Z</time>
      </trkpt>
      <trkpt lat="47.89869" lon="6.66209">
        <ele>683</ele>
        <time>2026-03-29T06:52:23Z</time>
      </trkpt>
      <trkpt lat="47.89874" lon="6.66199">
        <ele>682</ele>
        <time>2026-03-29T06:52:28Z</time>
      </trkpt>
      <trkpt lat="47.89881" lon="6.66189">
        <ele>680.7</ele>
        <time>2026-03-29T06:52:33Z</time>
      </trkpt>
      <trkpt lat="47.89888" lon="6.66181">
        <ele>679.5</ele>
        <time>2026-03-29T06:52:38Z</time>
      </trkpt>
      <trkpt lat="47.89895" lon="6.66175">
        <ele>678.4</ele>
        <time>2026-03-29T06:52:43Z</time>
      </trkpt>
      <trkpt lat="47.89903" lon="6.66168">
        <ele>677.3</ele>
        <time>2026-03-29T06:52:48Z</time>
      </trkpt>
      <trkpt lat="47.89908" lon="6.66163">
        <ele>676.7</ele>
        <time>2026-03-29T06:52:53Z</time>
      </trkpt>
      <trkpt lat="47.89912" lon="6.66158">
        <ele>676.4</ele>
        <time>2026-03-29T06:52:58Z</time>
      </trkpt>
      <trkpt lat="47.89919" lon="6.66152">
        <ele>675.6</ele>
        <time>2026-03-29T06:53:03Z</time>
      </trkpt>
      <trkpt lat="47.89926" lon="6.66146">
        <ele>674.8</ele>
        <time>2026-03-29T06:53:08Z</time>
      </trkpt>
      <trkpt lat="47.89933" lon="6.66143">
        <ele>673.7</ele>
        <time>2026-03-29T06:53:13Z</time>
      </trkpt>
      <trkpt lat="47.8994" lon="6.66139">
        <ele>672.7</ele>
        <time>2026-03-29T06:53:18Z</time>
      </trkpt>
      <trkpt lat="47.89946" lon="6.66132">
        <ele>672.1</ele>
        <time>2026-03-29T06:53:23Z</time>
      </trkpt>
      <trkpt lat="47.89953" lon="6.66126">
        <ele>671.2</ele>
        <time>2026-03-29T06:53:28Z</time>
      </trkpt>
      <trkpt lat="47.89959" lon="6.6612">
        <ele>670.5</ele>
        <time>2026-03-29T06:53:33Z</time>
      </trkpt>
      <trkpt lat="47.89966" lon="6.66113">
        <ele>669.6</ele>
        <time>2026-03-29T06:53:38Z</time>
      </trkpt>
      <trkpt lat="47.8997" lon="6.66107">
        <ele>669.2</ele>
        <time>2026-03-29T06:53:43Z</time>
      </trkpt>
      <trkpt lat="47.89977" lon="6.66099">
        <ele>668.4</ele>
        <time>2026-03-29T06:53:48Z</time>
      </trkpt>
      <trkpt lat="47.89983" lon="6.66092">
        <ele>667.7</ele>
        <time>2026-03-29T06:53:53Z</time>
      </trkpt>
      <trkpt lat="47.89988" lon="6.66085">
        <ele>667.2</ele>
        <time>2026-03-29T06:53:58Z</time>
      </trkpt>
      <trkpt lat="47.89994" lon="6.66077">
        <ele>666.7</ele>
        <time>2026-03-29T06:54:03Z</time>
      </trkpt>
      <trkpt lat="47.9" lon="6.6607">
        <ele>666.3</ele>
        <time>2026-03-29T06:54:08Z</time>
      </trkpt>
      <trkpt lat="47.90007" lon="6.66063">
        <ele>666.8</ele>
        <time>2026-03-29T06:54:13Z</time>
      </trkpt>
      <trkpt lat="47.90013" lon="6.66055">
        <ele>667.4</ele>
        <time>2026-03-29T06:54:18Z</time>
      </trkpt>
      <trkpt lat="47.90022" lon="6.66048">
        <ele>667.8</ele>
        <time>2026-03-29T06:54:23Z</time>
      </trkpt>
      <trkpt lat="47.90028" lon="6.66043">
        <ele>668</ele>
        <time>2026-03-29T06:54:28Z</time>
      </trkpt>
      <trkpt lat="47.90037" lon="6.6604">
        <ele>668</ele>
        <time>2026-03-29T06:54:33Z</time>
      </trkpt>
      <trkpt lat="47.90044" lon="6.66036">
        <ele>668.2</ele>
        <time>2026-03-29T06:54:38Z</time>
      </trkpt>
      <trkpt lat="47.90051" lon="6.66032">
        <ele>668.3</ele>
        <time>2026-03-29T06:54:43Z</time>
      </trkpt>
      <trkpt lat="47.90057" lon="6.66024">
        <ele>668.8</ele>
        <time>2026-03-29T06:54:48Z</time>
      </trkpt>
      <trkpt lat="47.90064" lon="6.66017">
        <ele>669.2</ele>
        <time>2026-03-29T06:54:53Z</time>
      </trkpt>
      <trkpt lat="47.90069" lon="6.66009">
        <ele>669.7</ele>
        <time>2026-03-29T06:54:58Z</time>
      </trkpt>
      <trkpt lat="47.90071" lon="6.66001">
        <ele>670.4</ele>
        <time>2026-03-29T06:55:03Z</time>
      </trkpt>
      <trkpt lat="47.90074" lon="6.65994">
        <ele>670.8</ele>
        <time>2026-03-29T06:55:08Z</time>
      </trkpt>
      <trkpt lat="47.90075" lon="6.65983">
        <ele>671.6</ele>
        <time>2026-03-29T06:55:13Z</time>
      </trkpt>
      <trkpt lat="47.90077" lon="6.65971">
        <ele>672.4</ele>
        <time>2026-03-29T06:55:18Z</time>
      </trkpt>
      <trkpt lat="47.90077" lon="6.65957">
        <ele>673.4</ele>
        <time>2026-03-29T06:55:23Z</time>
      </trkpt>
      <trkpt lat="47.90078" lon="6.65945">
        <ele>674.3</ele>
        <time>2026-03-29T06:55:28Z</time>
      </trkpt>
      <trkpt lat="47.90077" lon="6.65936">
        <ele>675</ele>
        <time>2026-03-29T06:55:33Z</time>
      </trkpt>
      <trkpt lat="47.90077" lon="6.65924">
        <ele>675.9</ele>
        <time>2026-03-29T06:55:38Z</time>
      </trkpt>
      <trkpt lat="47.90077" lon="6.65912">
        <ele>676.9</ele>
        <time>2026-03-29T06:55:43Z</time>
      </trkpt>
      <trkpt lat="47.9008" lon="6.65903">
        <ele>677.7</ele>
        <time>2026-03-29T06:55:48Z</time>
      </trkpt>
      <trkpt lat="47.90084" lon="6.65891">
        <ele>678.6</ele>
        <time>2026-03-29T06:55:53Z</time>
      </trkpt>
      <trkpt lat="47.90086" lon="6.65881">
        <ele>679.3</ele>
        <time>2026-03-29T06:55:58Z</time>
      </trkpt>
      <trkpt lat="47.9009" lon="6.65872">
        <ele>679.3</ele>
        <time>2026-03-29T06:56:03Z</time>
      </trkpt>
      <trkpt lat="47.90094" lon="6.65862">
        <ele>679.4</ele>
        <time>2026-03-29T06:56:08Z</time>
      </trkpt>
      <trkpt lat="47.90099" lon="6.65853">
        <ele>679.1</ele>
        <time>2026-03-29T06:56:13Z</time>
      </trkpt>
      <trkpt lat="47.90105" lon="6.65847">
        <ele>678.2</ele>
        <time>2026-03-29T06:56:18Z</time>
      </trkpt>
      <trkpt lat="47.9011" lon="6.65842">
        <ele>677.5</ele>
        <time>2026-03-29T06:56:23Z</time>
      </trkpt>
      <trkpt lat="47.90115" lon="6.65839">
        <ele>676.5</ele>
        <time>2026-03-29T06:56:28Z</time>
      </trkpt>
      <trkpt lat="47.90122" lon="6.65836">
        <ele>675</ele>
        <time>2026-03-29T06:56:33Z</time>
      </trkpt>
      <trkpt lat="47.9013" lon="6.65832">
        <ele>673.3</ele>
        <time>2026-03-29T06:56:38Z</time>
      </trkpt>
      <trkpt lat="47.90137" lon="6.65826">
        <ele>671.8</ele>
        <time>2026-03-29T06:56:43Z</time>
      </trkpt>
      <trkpt lat="47.90144" lon="6.65819">
        <ele>670.3</ele>
        <time>2026-03-29T06:56:48Z</time>
      </trkpt>
      <trkpt lat="47.9015" lon="6.65813">
        <ele>669.2</ele>
        <time>2026-03-29T06:56:53Z</time>
      </trkpt>
      <trkpt lat="47.90156" lon="6.65806">
        <ele>668.1</ele>
        <time>2026-03-29T06:56:58Z</time>
      </trkpt>
      <trkpt lat="47.90159" lon="6.65798">
        <ele>667.9</ele>
        <time>2026-03-29T06:57:03Z</time>
      </trkpt>
      <trkpt lat="47.90163" lon="6.65791">
        <ele>667.4</ele>
        <time>2026-03-29T06:57:08Z</time>
      </trkpt>
      <trkpt lat="47.90167" lon="6.65783">
        <ele>666.9</ele>
        <time>2026-03-29T06:57:13Z</time>
      </trkpt>
      <trkpt lat="47.90171" lon="6.65775">
        <ele>666.5</ele>
        <time>2026-03-29T06:57:18Z</time>
      </trkpt>
      <trkpt lat="47.90176" lon="6.65765">
        <ele>666.1</ele>
        <time>2026-03-29T06:57:23Z</time>
      </trkpt>
      <trkpt lat="47.90181" lon="6.65756">
        <ele>665.7</ele>
        <time>2026-03-29T06:57:28Z</time>
      </trkpt>
      <trkpt lat="47.90185" lon="6.65747">
        <ele>665.3</ele>
        <time>2026-03-29T06:57:33Z</time>
      </trkpt>
      <trkpt lat="47.9019" lon="6.65737">
        <ele>664.3</ele>
        <time>2026-03-29T06:57:38Z</time>
      </trkpt>
      <trkpt lat="47.90194" lon="6.65728">
        <ele>663.6</ele>
        <time>2026-03-29T06:57:43Z</time>
      </trkpt>
      <trkpt lat="47.90198" lon="6.65721">
        <ele>662.9</ele>
        <time>2026-03-29T06:57:48Z</time>
      </trkpt>
      <trkpt lat="47.90203" lon="6.65711">
        <ele>662.1</ele>
        <time>2026-03-29T06:57:53Z</time>
      </trkpt>
      <trkpt lat="47.90206" lon="6.65701">
        <ele>661.8</ele>
        <time>2026-03-29T06:57:58Z</time>
      </trkpt>
      <trkpt lat="47.90209" lon="6.65692">
        <ele>661.4</ele>
        <time>2026-03-29T06:58:03Z</time>
      </trkpt>
      <trkpt lat="47.90211" lon="6.65682">
        <ele>661.3</ele>
        <time>2026-03-29T06:58:08Z</time>
      </trkpt>
      <trkpt lat="47.90214" lon="6.65672">
        <ele>661.1</ele>
        <time>2026-03-29T06:58:13Z</time>
      </trkpt>
      <trkpt lat="47.90216" lon="6.65662">
        <ele>661.5</ele>
        <time>2026-03-29T06:58:18Z</time>
      </trkpt>
      <trkpt lat="47.90219" lon="6.65653">
        <ele>662.3</ele>
        <time>2026-03-29T06:58:23Z</time>
      </trkpt>
      <trkpt lat="47.90221" lon="6.65642">
        <ele>663.5</ele>
        <time>2026-03-29T06:58:28Z</time>
      </trkpt>
      <trkpt lat="47.90223" lon="6.65638">
        <ele>663.8</ele>
        <time>2026-03-29T06:58:33Z</time>
      </trkpt>
      <trkpt lat="47.90224" lon="6.65637">
        <ele>663.8</ele>
        <time>2026-03-29T06:58:38Z</time>
      </trkpt>
      <trkpt lat="47.90224" lon="6.65637">
        <ele>663.8</ele>
        <time>2026-03-29T06:58:43Z</time>
      </trkpt>
      <trkpt lat="47.90224" lon="6.65637">
        <ele>663.8</ele>
        <time>2026-03-29T06:58:48Z</time>
      </trkpt>
      <trkpt lat="47.90228" lon="6.6563">
        <ele>664.2</ele>
        <time>2026-03-29T06:58:53Z</time>
      </trkpt>
      <trkpt lat="47.9023" lon="6.65621">
        <ele>665.2</ele>
        <time>2026-03-29T06:58:58Z</time>
      </trkpt>
      <trkpt lat="47.9023" lon="6.65612">
        <ele>666.4</ele>
        <time>2026-03-29T06:59:03Z</time>
      </trkpt>
      <trkpt lat="47.90233" lon="6.65605">
        <ele>667</ele>
        <time>2026-03-29T06:59:08Z</time>
      </trkpt>
      <trkpt lat="47.90235" lon="6.65605">
        <ele>666.8</ele>
        <time>2026-03-29T06:59:13Z</time>
      </trkpt>
      <trkpt lat="47.90235" lon="6.65606">
        <ele>666.6</ele>
        <time>2026-03-29T06:59:18Z</time>
      </trkpt>
      <trkpt lat="47.90235" lon="6.65606">
        <ele>666.6</ele>
        <time>2026-03-29T06:59:23Z</time>
      </trkpt>
      <trkpt lat="47.90235" lon="6.65606">
        <ele>666.6</ele>
        <time>2026-03-29T06:59:28Z</time>
      </trkpt>
      <trkpt lat="47.90235" lon="6.65606">
        <ele>666.6</ele>
        <time>2026-03-29T06:59:33Z</time>
      </trkpt>
      <trkpt lat="47.90235" lon="6.65606">
        <ele>666.6</ele>
        <time>2026-03-29T06:59:38Z</time>
      </trkpt>
      <trkpt lat="47.90233" lon="6.65597">
        <ele>668.1</ele>
        <time>2026-03-29T06:59:43Z</time>
      </trkpt>
      <trkpt lat="47.90234" lon="6.65587">
        <ele>669.4</ele>
        <time>2026-03-29T06:59:48Z</time>
      </trkpt>
      <trkpt lat="47.90235" lon="6.65578">
        <ele>670.5</ele>
        <time>2026-03-29T06:59:53Z</time>
      </trkpt>
      <trkpt lat="47.90236" lon="6.65567">
        <ele>671.8</ele>
        <time>2026-03-29T06:59:58Z</time>
      </trkpt>
      <trkpt lat="47.9024" lon="6.65556">
        <ele>672.7</ele>
        <time>2026-03-29T07:00:03Z</time>
      </trkpt>
      <trkpt lat="47.90244" lon="6.65545">
        <ele>673.7</ele>
        <time>2026-03-29T07:00:08Z</time>
      </trkpt>
      <trkpt lat="47.90247" lon="6.65531">
        <ele>675.2</ele>
        <time>2026-03-29T07:00:13Z</time>
      </trkpt>
      <trkpt lat="47.90249" lon="6.65521">
        <ele>676.3</ele>
        <time>2026-03-29T07:00:18Z</time>
      </trkpt>
      <trkpt lat="47.9025" lon="6.65509">
        <ele>677.8</ele>
        <time>2026-03-29T07:00:23Z</time>
      </trkpt>
      <trkpt lat="47.90251" lon="6.65499">
        <ele>678.6</ele>
        <time>2026-03-29T07:00:28Z</time>
      </trkpt>
      <trkpt lat="47.90252" lon="6.6549">
        <ele>678.1</ele>
        <time>2026-03-29T07:00:33Z</time>
      </trkpt>
      <trkpt lat="47.90254" lon="6.6548">
        <ele>677.3</ele>
        <time>2026-03-29T07:00:38Z</time>
      </trkpt>
      <trkpt lat="47.90256" lon="6.6547">
        <ele>676.4</ele>
        <time>2026-03-29T07:00:43Z</time>
      </trkpt>
      <trkpt lat="47.90255" lon="6.6546">
        <ele>676.9</ele>
        <time>2026-03-29T07:00:48Z</time>
      </trkpt>
      <trkpt lat="47.90256" lon="6.65448">
        <ele>676.5</ele>
        <time>2026-03-29T07:00:53Z</time>
      </trkpt>
      <trkpt lat="47.90258" lon="6.65437">
        <ele>675.7</ele>
        <time>2026-03-29T07:00:58Z</time>
      </trkpt>
      <trkpt lat="47.9026" lon="6.65425">
        <ele>674.9</ele>
        <time>2026-03-29T07:01:03Z</time>
      </trkpt>
      <trkpt lat="47.9026" lon="6.65416">
        <ele>674.9</ele>
        <time>2026-03-29T07:01:08Z</time>
      </trkpt>
      <trkpt lat="47.90261" lon="6.65406">
        <ele>674.5</ele>
        <time>2026-03-29T07:01:13Z</time>
      </trkpt>
      <trkpt lat="47.90263" lon="6.65399">
        <ele>673.6</ele>
        <time>2026-03-29T07:01:18Z</time>
      </trkpt>
      <trkpt lat="47.90263" lon="6.65396">
        <ele>673.6</ele>
        <time>2026-03-29T07:01:23Z</time>
      </trkpt>
      <trkpt lat="47.90263" lon="6.65396">
        <ele>673.6</ele>
        <time>2026-03-29T07:01:28Z</time>
      </trkpt>
      <trkpt lat="47.90263" lon="6.65396">
        <ele>673.6</ele>
        <time>2026-03-29T07:01:33Z</time>
      </trkpt>
      <trkpt lat="47.90263" lon="6.65396">
        <ele>673.6</ele>
        <time>2026-03-29T07:01:38Z</time>
      </trkpt>
      <trkpt lat="47.90263" lon="6.65396">
        <ele>673.6</ele>
        <time>2026-03-29T07:01:43Z</time>
      </trkpt>
      <trkpt lat="47.90263" lon="6.65396">
        <ele>673.6</ele>
        <time>2026-03-29T07:01:48Z</time>
      </trkpt>
      <trkpt lat="47.90261" lon="6.65381">
        <ele>674.4</ele>
        <time>2026-03-29T07:01:53Z</time>
      </trkpt>
      <trkpt lat="47.90262" lon="6.65372">
        <ele>674</ele>
        <time>2026-03-29T07:01:58Z</time>
      </trkpt>
      <trkpt lat="47.90264" lon="6.65363">
        <ele>673.2</ele>
        <time>2026-03-29T07:02:03Z</time>
      </trkpt>
      <trkpt lat="47.90263" lon="6.65353">
        <ele>673.5</ele>
        <time>2026-03-29T07:02:08Z</time>
      </trkpt>
      <trkpt lat="47.90264" lon="6.65344">
        <ele>673.1</ele>
        <time>2026-03-29T07:02:13Z</time>
      </trkpt>
      <trkpt lat="47.90265" lon="6.65334">
        <ele>672.8</ele>
        <time>2026-03-29T07:02:18Z</time>
      </trkpt>
      <trkpt lat="47.90266" lon="6.6532">
        <ele>671.7</ele>
        <time>2026-03-29T07:02:23Z</time>
      </trkpt>
      <trkpt lat="47.9027" lon="6.65311">
        <ele>669.9</ele>
        <time>2026-03-29T07:02:28Z</time>
      </trkpt>
      <trkpt lat="47.90272" lon="6.653">
        <ele>668.8</ele>
        <time>2026-03-29T07:02:33Z</time>
      </trkpt>
      <trkpt lat="47.90274" lon="6.65287">
        <ele>667.7</ele>
        <time>2026-03-29T07:02:38Z</time>
      </trkpt>
      <trkpt lat="47.90275" lon="6.65276">
        <ele>667</ele>
        <time>2026-03-29T07:02:43Z</time>
      </trkpt>
      <trkpt lat="47.9028" lon="6.65265">
        <ele>665.4</ele>
        <time>2026-03-29T07:02:48Z</time>
      </trkpt>
      <trkpt lat="47.90285" lon="6.65254">
        <ele>664</ele>
        <time>2026-03-29T07:02:53Z</time>
      </trkpt>
      <trkpt lat="47.9029" lon="6.65245">
        <ele>663.1</ele>
        <time>2026-03-29T07:02:58Z</time>
      </trkpt>
      <trkpt lat="47.90294" lon="6.65238">
        <ele>662.6</ele>
        <time>2026-03-29T07:03:03Z</time>
      </trkpt>
      <trkpt lat="47.90297" lon="6.6523">
        <ele>662.4</ele>
        <time>2026-03-29T07:03:08Z</time>
      </trkpt>
      <trkpt lat="47.90299" lon="6.6522">
        <ele>662.6</ele>
        <time>2026-03-29T07:03:13Z</time>
      </trkpt>
      <trkpt lat="47.903" lon="6.6521">
        <ele>662.9</ele>
        <time>2026-03-29T07:03:18Z</time>
      </trkpt>
      <trkpt lat="47.903" lon="6.65198">
        <ele>663.5</ele>
        <time>2026-03-29T07:03:23Z</time>
      </trkpt>
      <trkpt lat="47.90302" lon="6.65187">
        <ele>663.8</ele>
        <time>2026-03-29T07:03:28Z</time>
      </trkpt>
      <trkpt lat="47.90301" lon="6.65178">
        <ele>664.4</ele>
        <time>2026-03-29T07:03:33Z</time>
      </trkpt>
      <trkpt lat="47.90301" lon="6.65168">
        <ele>665</ele>
        <time>2026-03-29T07:03:38Z</time>
      </trkpt>
      <trkpt lat="47.90301" lon="6.65155">
        <ele>665.3</ele>
        <time>2026-03-29T07:03:43Z</time>
      </trkpt>
      <trkpt lat="47.903" lon="6.65145">
        <ele>665.8</ele>
        <time>2026-03-29T07:03:48Z</time>
      </trkpt>
      <trkpt lat="47.90297" lon="6.65134">
        <ele>666.6</ele>
        <time>2026-03-29T07:03:53Z</time>
      </trkpt>
      <trkpt lat="47.90295" lon="6.65123">
        <ele>667.2</ele>
        <time>2026-03-29T07:03:58Z</time>
      </trkpt>
      <trkpt lat="47.90293" lon="6.65115">
        <ele>667.8</ele>
        <time>2026-03-29T07:04:03Z</time>
      </trkpt>
      <trkpt lat="47.9029" lon="6.65104">
        <ele>668.7</ele>
        <time>2026-03-29T07:04:08Z</time>
      </trkpt>
      <trkpt lat="47.90286" lon="6.65095">
        <ele>669.7</ele>
        <time>2026-03-29T07:04:13Z</time>
      </trkpt>
      <trkpt lat="47.90284" lon="6.65085">
        <ele>670.4</ele>
        <time>2026-03-29T07:04:18Z</time>
      </trkpt>
      <trkpt lat="47.90281" lon="6.65074">
        <ele>670.8</ele>
        <time>2026-03-29T07:04:23Z</time>
      </trkpt>
      <trkpt lat="47.90279" lon="6.65064">
        <ele>670.9</ele>
        <time>2026-03-29T07:04:28Z</time>
      </trkpt>
      <trkpt lat="47.90277" lon="6.65053">
        <ele>671</ele>
        <time>2026-03-29T07:04:33Z</time>
      </trkpt>
      <trkpt lat="47.90275" lon="6.65042">
        <ele>671.2</ele>
        <time>2026-03-29T07:04:38Z</time>
      </trkpt>
      <trkpt lat="47.90274" lon="6.6503">
        <ele>671.1</ele>
        <time>2026-03-29T07:04:43Z</time>
      </trkpt>
      <trkpt lat="47.90273" lon="6.65019">
        <ele>671.1</ele>
        <time>2026-03-29T07:04:48Z</time>
      </trkpt>
      <trkpt lat="47.90273" lon="6.65008">
        <ele>670.8</ele>
        <time>2026-03-29T07:04:53Z</time>
      </trkpt>
      <trkpt lat="47.90274" lon="6.64995">
        <ele>670.4</ele>
        <time>2026-03-29T07:04:58Z</time>
      </trkpt>
      <trkpt lat="47.90277" lon="6.64983">
        <ele>669.5</ele>
        <time>2026-03-29T07:05:03Z</time>
      </trkpt>
      <trkpt lat="47.90278" lon="6.64973">
        <ele>669.3</ele>
        <time>2026-03-29T07:05:08Z</time>
      </trkpt>
      <trkpt lat="47.9028" lon="6.64963">
        <ele>668.7</ele>
        <time>2026-03-29T07:05:13Z</time>
      </trkpt>
      <trkpt lat="47.90282" lon="6.6495">
        <ele>668.2</ele>
        <time>2026-03-29T07:05:18Z</time>
      </trkpt>
      <trkpt lat="47.90284" lon="6.6494">
        <ele>667.6</ele>
        <time>2026-03-29T07:05:23Z</time>
      </trkpt>
      <trkpt lat="47.90287" lon="6.64929">
        <ele>666.8</ele>
        <time>2026-03-29T07:05:28Z</time>
      </trkpt>
      <trkpt lat="47.9029" lon="6.64919">
        <ele>666</ele>
        <time>2026-03-29T07:05:33Z</time>
      </trkpt>
      <trkpt lat="47.90293" lon="6.64908">
        <ele>664.7</ele>
        <time>2026-03-29T07:05:38Z</time>
      </trkpt>
      <trkpt lat="47.90296" lon="6.64898">
        <ele>663.5</ele>
        <time>2026-03-29T07:05:43Z</time>
      </trkpt>
      <trkpt lat="47.90298" lon="6.64887">
        <ele>662.5</ele>
        <time>2026-03-29T07:05:48Z</time>
      </trkpt>
      <trkpt lat="47.90302" lon="6.64877">
        <ele>661.2</ele>
        <time>2026-03-29T07:05:53Z</time>
      </trkpt>
      <trkpt lat="47.90306" lon="6.64867">
        <ele>660</ele>
        <time>2026-03-29T07:05:58Z</time>
      </trkpt>
      <trkpt lat="47.90309" lon="6.64858">
        <ele>659.1</ele>
        <time>2026-03-29T07:06:03Z</time>
      </trkpt>
      <trkpt lat="47.90312" lon="6.64846">
        <ele>658.2</ele>
        <time>2026-03-29T07:06:08Z</time>
      </trkpt>
      <trkpt lat="47.90315" lon="6.64836">
        <ele>657.4</ele>
        <time>2026-03-29T07:06:13Z</time>
      </trkpt>
      <trkpt lat="47.90318" lon="6.64824">
        <ele>655.8</ele>
        <time>2026-03-29T07:06:18Z</time>
      </trkpt>
      <trkpt lat="47.90319" lon="6.64814">
        <ele>654.6</ele>
        <time>2026-03-29T07:06:23Z</time>
      </trkpt>
      <trkpt lat="47.90322" lon="6.64803">
        <ele>652.9</ele>
        <time>2026-03-29T07:06:28Z</time>
      </trkpt>
      <trkpt lat="47.90325" lon="6.64794">
        <ele>651.5</ele>
        <time>2026-03-29T07:06:33Z</time>
      </trkpt>
      <trkpt lat="47.90328" lon="6.64784">
        <ele>650.1</ele>
        <time>2026-03-29T07:06:38Z</time>
      </trkpt>
      <trkpt lat="47.9033" lon="6.64774">
        <ele>648.8</ele>
        <time>2026-03-29T07:06:43Z</time>
      </trkpt>
      <trkpt lat="47.90333" lon="6.64764">
        <ele>647.4</ele>
        <time>2026-03-29T07:06:48Z</time>
      </trkpt>
      <trkpt lat="47.90339" lon="6.64755">
        <ele>645.5</ele>
        <time>2026-03-29T07:06:53Z</time>
      </trkpt>
      <trkpt lat="47.90343" lon="6.64746">
        <ele>644</ele>
        <time>2026-03-29T07:06:58Z</time>
      </trkpt>
      <trkpt lat="47.90348" lon="6.64741">
        <ele>642.7</ele>
        <time>2026-03-29T07:07:03Z</time>
      </trkpt>
      <trkpt lat="47.90351" lon="6.64741">
        <ele>642.3</ele>
        <time>2026-03-29T07:07:08Z</time>
      </trkpt>
      <trkpt lat="47.90354" lon="6.64743">
        <ele>642</ele>
        <time>2026-03-29T07:07:13Z</time>
      </trkpt>
      <trkpt lat="47.90354" lon="6.64743">
        <ele>642</ele>
        <time>2026-03-29T07:07:18Z</time>
      </trkpt>
      <trkpt lat="47.90354" lon="6.64743">
        <ele>642</ele>
        <time>2026-03-29T07:07:23Z</time>
      </trkpt>
      <trkpt lat="47.90354" lon="6.64743">
        <ele>642</ele>
        <time>2026-03-29T07:07:28Z</time>
      </trkpt>
      <trkpt lat="47.90354" lon="6.64743">
        <ele>642</ele>
        <time>2026-03-29T07:07:33Z</time>
      </trkpt>
      <trkpt lat="47.90354" lon="6.64743">
        <ele>642</ele>
        <time>2026-03-29T07:07:38Z</time>
      </trkpt>
      <trkpt lat="47.90354" lon="6.64743">
        <ele>642</ele>
        <time>2026-03-29T07:07:43Z</time>
      </trkpt>
      <trkpt lat="47.90355" lon="6.64742">
        <ele>641.7</ele>
        <time>2026-03-29T07:07:48Z</time>
      </trkpt>
      <trkpt lat="47.90358" lon="6.64743">
        <ele>641.4</ele>
        <time>2026-03-29T07:07:53Z</time>
      </trkpt>
      <trkpt lat="47.90364" lon="6.64745">
        <ele>640.6</ele>
        <time>2026-03-29T07:07:58Z</time>
      </trkpt>
      <trkpt lat="47.90369" lon="6.64745">
        <ele>639.8</ele>
        <time>2026-03-29T07:08:03Z</time>
      </trkpt>
      <trkpt lat="47.90373" lon="6.64747">
        <ele>639.2</ele>
        <time>2026-03-29T07:08:08Z</time>
      </trkpt>
      <trkpt lat="47.90373" lon="6.64747">
        <ele>639.2</ele>
        <time>2026-03-29T07:08:13Z</time>
      </trkpt>
      <trkpt lat="47.90373" lon="6.64747">
        <ele>639.2</ele>
        <time>2026-03-29T07:08:18Z</time>
      </trkpt>
      <trkpt lat="47.90375" lon="6.64747">
        <ele>638.9</ele>
        <time>2026-03-29T07:08:23Z</time>
      </trkpt>
      <trkpt lat="47.90381" lon="6.64742">
        <ele>637.8</ele>
        <time>2026-03-29T07:08:28Z</time>
      </trkpt>
      <trkpt lat="47.90387" lon="6.64734">
        <ele>636.8</ele>
        <time>2026-03-29T07:08:33Z</time>
      </trkpt>
      <trkpt lat="47.90391" lon="6.64726">
        <ele>636.2</ele>
        <time>2026-03-29T07:08:38Z</time>
      </trkpt>
      <trkpt lat="47.90396" lon="6.64718">
        <ele>635.7</ele>
        <time>2026-03-29T07:08:43Z</time>
      </trkpt>
      <trkpt lat="47.904" lon="6.6471">
        <ele>635.4</ele>
        <time>2026-03-29T07:08:48Z</time>
      </trkpt>
      <trkpt lat="47.90404" lon="6.64701">
        <ele>635.2</ele>
        <time>2026-03-29T07:08:53Z</time>
      </trkpt>
      <trkpt lat="47.90408" lon="6.64693">
        <ele>635.2</ele>
        <time>2026-03-29T07:08:58Z</time>
      </trkpt>
      <trkpt lat="47.90413" lon="6.64686">
        <ele>635.2</ele>
        <time>2026-03-29T07:09:03Z</time>
      </trkpt>
      <trkpt lat="47.90417" lon="6.6468">
        <ele>635.3</ele>
        <time>2026-03-29T07:09:08Z</time>
      </trkpt>
      <trkpt lat="47.90422" lon="6.64676">
        <ele>634.8</ele>
        <time>2026-03-29T07:09:13Z</time>
      </trkpt>
      <trkpt lat="47.90428" lon="6.64671">
        <ele>634.3</ele>
        <time>2026-03-29T07:09:18Z</time>
      </trkpt>
      <trkpt lat="47.90434" lon="6.64664">
        <ele>633.7</ele>
        <time>2026-03-29T07:09:23Z</time>
      </trkpt>
      <trkpt lat="47.90439" lon="6.64656">
        <ele>633</ele>
        <time>2026-03-29T07:09:28Z</time>
      </trkpt>
      <trkpt lat="47.90444" lon="6.64649">
        <ele>632.4</ele>
        <time>2026-03-29T07:09:33Z</time>
      </trkpt>
      <trkpt lat="47.90447" lon="6.64642">
        <ele>632</ele>
        <time>2026-03-29T07:09:38Z</time>
      </trkpt>
      <trkpt lat="47.90445" lon="6.6464">
        <ele>632.3</ele>
        <time>2026-03-29T07:09:43Z</time>
      </trkpt>
      <trkpt lat="47.90446" lon="6.64632">
        <ele>632.2</ele>
        <time>2026-03-29T07:09:48Z</time>
      </trkpt>
      <trkpt lat="47.90445" lon="6.64623">
        <ele>632.3</ele>
        <time>2026-03-29T07:09:53Z</time>
      </trkpt>
      <trkpt lat="47.90444" lon="6.64614">
        <ele>632.4</ele>
        <time>2026-03-29T07:09:58Z</time>
      </trkpt>
      <trkpt lat="47.90441" lon="6.64607">
        <ele>632.7</ele>
        <time>2026-03-29T07:10:03Z</time>
      </trkpt>
      <trkpt lat="47.9044" lon="6.64597">
        <ele>632.8</ele>
        <time>2026-03-29T07:10:08Z</time>
      </trkpt>
      <trkpt lat="47.90436" lon="6.64586">
        <ele>633.2</ele>
        <time>2026-03-29T07:10:13Z</time>
      </trkpt>
      <trkpt lat="47.90433" lon="6.64574">
        <ele>633</ele>
        <time>2026-03-29T07:10:18Z</time>
      </trkpt>
      <trkpt lat="47.9043" lon="6.64563">
        <ele>632.7</ele>
        <time>2026-03-29T07:10:23Z</time>
      </trkpt>
      <trkpt lat="47.90427" lon="6.64554">
        <ele>632.4</ele>
        <time>2026-03-29T07:10:28Z</time>
      </trkpt>
      <trkpt lat="47.90425" lon="6.64544">
        <ele>632</ele>
        <time>2026-03-29T07:10:33Z</time>
      </trkpt>
      <trkpt lat="47.9042" lon="6.64534">
        <ele>631.8</ele>
        <time>2026-03-29T07:10:38Z</time>
      </trkpt>
      <trkpt lat="47.90419" lon="6.64532">
        <ele>631.8</ele>
        <time>2026-03-29T07:10:43Z</time>
      </trkpt>
      <trkpt lat="47.90416" lon="6.64527">
        <ele>631.6</ele>
        <time>2026-03-29T07:10:48Z</time>
      </trkpt>
      <trkpt lat="47.90414" lon="6.64519">
        <ele>630.9</ele>
        <time>2026-03-29T07:10:53Z</time>
      </trkpt>
      <trkpt lat="47.90412" lon="6.64512">
        <ele>630.4</ele>
        <time>2026-03-29T07:10:58Z</time>
      </trkpt>
      <trkpt lat="47.90407" lon="6.64505">
        <ele>629.5</ele>
        <time>2026-03-29T07:11:03Z</time>
      </trkpt>
      <trkpt lat="47.90402" lon="6.64496">
        <ele>628.9</ele>
        <time>2026-03-29T07:11:08Z</time>
      </trkpt>
      <trkpt lat="47.90397" lon="6.6449">
        <ele>628.6</ele>
        <time>2026-03-29T07:11:13Z</time>
      </trkpt>
      <trkpt lat="47.90393" lon="6.64481">
        <ele>628.4</ele>
        <time>2026-03-29T07:11:18Z</time>
      </trkpt>
      <trkpt lat="47.9039" lon="6.64476">
        <ele>628.1</ele>
        <time>2026-03-29T07:11:23Z</time>
      </trkpt>
      <trkpt lat="47.90394" lon="6.6448">
        <ele>628.5</ele>
        <time>2026-03-29T07:11:28Z</time>
      </trkpt>
      <trkpt lat="47.90398" lon="6.64487">
        <ele>628.8</ele>
        <time>2026-03-29T07:11:33Z</time>
      </trkpt>
      <trkpt lat="47.90403" lon="6.64495">
        <ele>629</ele>
        <time>2026-03-29T07:11:38Z</time>
      </trkpt>
      <trkpt lat="47.90409" lon="6.64503">
        <ele>629.5</ele>
        <time>2026-03-29T07:11:43Z</time>
      </trkpt>
      <trkpt lat="47.90414" lon="6.6451">
        <ele>630.4</ele>
        <time>2026-03-29T07:11:48Z</time>
      </trkpt>
      <trkpt lat="47.90419" lon="6.64514">
        <ele>630.7</ele>
        <time>2026-03-29T07:11:53Z</time>
      </trkpt>
      <trkpt lat="47.90424" lon="6.64521">
        <ele>630.8</ele>
        <time>2026-03-29T07:11:58Z</time>
      </trkpt>
      <trkpt lat="47.90431" lon="6.6453">
        <ele>630.9</ele>
        <time>2026-03-29T07:12:03Z</time>
      </trkpt>
      <trkpt lat="47.90435" lon="6.64538">
        <ele>631</ele>
        <time>2026-03-29T07:12:08Z</time>
      </trkpt>
      <trkpt lat="47.90438" lon="6.64545">
        <ele>631.1</ele>
        <time>2026-03-29T07:12:13Z</time>
      </trkpt>
      <trkpt lat="47.90441" lon="6.64553">
        <ele>631.3</ele>
        <time>2026-03-29T07:12:18Z</time>
      </trkpt>
      <trkpt lat="47.90444" lon="6.6456">
        <ele>631.3</ele>
        <time>2026-03-29T07:12:23Z</time>
      </trkpt>
      <trkpt lat="47.90447" lon="6.64566">
        <ele>631.4</ele>
        <time>2026-03-29T07:12:28Z</time>
      </trkpt>
      <trkpt lat="47.90451" lon="6.64574">
        <ele>631.3</ele>
        <time>2026-03-29T07:12:33Z</time>
      </trkpt>
      <trkpt lat="47.90455" lon="6.64581">
        <ele>631.2</ele>
        <time>2026-03-29T07:12:38Z</time>
      </trkpt>
      <trkpt lat="47.90459" lon="6.64586">
        <ele>630.9</ele>
        <time>2026-03-29T07:12:43Z</time>
      </trkpt>
      <trkpt lat="47.90464" lon="6.64588">
        <ele>630.4</ele>
        <time>2026-03-29T07:12:48Z</time>
      </trkpt>
      <trkpt lat="47.9047" lon="6.6459">
        <ele>629.8</ele>
        <time>2026-03-29T07:12:53Z</time>
      </trkpt>
      <trkpt lat="47.90475" lon="6.64593">
        <ele>629.3</ele>
        <time>2026-03-29T07:12:58Z</time>
      </trkpt>
      <trkpt lat="47.90481" lon="6.64596">
        <ele>628.6</ele>
        <time>2026-03-29T07:13:03Z</time>
      </trkpt>
      <trkpt lat="47.90485" lon="6.64598">
        <ele>628.2</ele>
        <time>2026-03-29T07:13:08Z</time>
      </trkpt>
      <trkpt lat="47.90489" lon="6.64599">
        <ele>627.8</ele>
        <time>2026-03-29T07:13:13Z</time>
      </trkpt>
      <trkpt lat="47.90494" lon="6.646">
        <ele>627.2</ele>
        <time>2026-03-29T07:13:18Z</time>
      </trkpt>
      <trkpt lat="47.90499" lon="6.64597">
        <ele>626.8</ele>
        <time>2026-03-29T07:13:23Z</time>
      </trkpt>
      <trkpt lat="47.90504" lon="6.64597">
        <ele>627.2</ele>
        <time>2026-03-29T07:13:28Z</time>
      </trkpt>
      <trkpt lat="47.90505" lon="6.64597">
        <ele>627.3</ele>
        <time>2026-03-29T07:13:33Z</time>
      </trkpt>
      <trkpt lat="47.90505" lon="6.64596">
        <ele>627.4</ele>
        <time>2026-03-29T07:13:38Z</time>
      </trkpt>
      <trkpt lat="47.90509" lon="6.64593">
        <ele>628</ele>
        <time>2026-03-29T07:13:43Z</time>
      </trkpt>
      <trkpt lat="47.90513" lon="6.64592">
        <ele>628.7</ele>
        <time>2026-03-29T07:13:48Z</time>
      </trkpt>
      <trkpt lat="47.90516" lon="6.64591">
        <ele>629.2</ele>
        <time>2026-03-29T07:13:53Z</time>
      </trkpt>
      <trkpt lat="47.90518" lon="6.6459">
        <ele>629.5</ele>
        <time>2026-03-29T07:13:58Z</time>
      </trkpt>
      <trkpt lat="47.90518" lon="6.6459">
        <ele>629.5</ele>
        <time>2026-03-29T07:14:03Z</time>
      </trkpt>
      <trkpt lat="47.90518" lon="6.6459">
        <ele>629.5</ele>
        <time>2026-03-29T07:14:08Z</time>
      </trkpt>
      <trkpt lat="47.90518" lon="6.6459">
        <ele>629.5</ele>
        <time>2026-03-29T07:14:13Z</time>
      </trkpt>
      <trkpt lat="47.90518" lon="6.6459">
        <ele>629.5</ele>
        <time>2026-03-29T07:14:18Z</time>
      </trkpt>
      <trkpt lat="47.90518" lon="6.6459">
        <ele>629.5</ele>
        <time>2026-03-29T07:14:23Z</time>
      </trkpt>
      <trkpt lat="47.90518" lon="6.6459">
        <ele>629.5</ele>
        <time>2026-03-29T07:14:28Z</time>
      </trkpt>
      <trkpt lat="47.90518" lon="6.64587">
        <ele>629.8</ele>
        <time>2026-03-29T07:14:33Z</time>
      </trkpt>
      <trkpt lat="47.90525" lon="6.64583">
        <ele>631.2</ele>
        <time>2026-03-29T07:14:38Z</time>
      </trkpt>
      <trkpt lat="47.9053" lon="6.64577">
        <ele>632.3</ele>
        <time>2026-03-29T07:14:43Z</time>
      </trkpt>
      <trkpt lat="47.90536" lon="6.64571">
        <ele>633.8</ele>
        <time>2026-03-29T07:14:48Z</time>
      </trkpt>
      <trkpt lat="47.90541" lon="6.64563">
        <ele>635.3</ele>
        <time>2026-03-29T07:14:53Z</time>
      </trkpt>
      <trkpt lat="47.90546" lon="6.64555">
        <ele>637</ele>
        <time>2026-03-29T07:14:58Z</time>
      </trkpt>
      <trkpt lat="47.9055" lon="6.64548">
        <ele>638.5</ele>
        <time>2026-03-29T07:15:03Z</time>
      </trkpt>
      <trkpt lat="47.90553" lon="6.6454">
        <ele>640</ele>
        <time>2026-03-29T07:15:08Z</time>
      </trkpt>
      <trkpt lat="47.90558" lon="6.64532">
        <ele>642.1</ele>
        <time>2026-03-29T07:15:13Z</time>
      </trkpt>
      <trkpt lat="47.90561" lon="6.64522">
        <ele>644.1</ele>
        <time>2026-03-29T07:15:18Z</time>
      </trkpt>
      <trkpt lat="47.90564" lon="6.64511">
        <ele>646.2</ele>
        <time>2026-03-29T07:15:23Z</time>
      </trkpt>
      <trkpt lat="47.90567" lon="6.64501">
        <ele>648.4</ele>
        <time>2026-03-29T07:15:28Z</time>
      </trkpt>
      <trkpt lat="47.9057" lon="6.64492">
        <ele>651.1</ele>
        <time>2026-03-29T07:15:33Z</time>
      </trkpt>
      <trkpt lat="47.90572" lon="6.64482">
        <ele>653.6</ele>
        <time>2026-03-29T07:15:38Z</time>
      </trkpt>
      <trkpt lat="47.90574" lon="6.64473">
        <ele>655.9</ele>
        <time>2026-03-29T07:15:43Z</time>
      </trkpt>
      <trkpt lat="47.90579" lon="6.64464">
        <ele>659.2</ele>
        <time>2026-03-29T07:15:48Z</time>
      </trkpt>
      <trkpt lat="47.90583" lon="6.64455">
        <ele>662</ele>
        <time>2026-03-29T07:15:53Z</time>
      </trkpt>
      <trkpt lat="47.90587" lon="6.64448">
        <ele>663.2</ele>
        <time>2026-03-29T07:15:58Z</time>
      </trkpt>
      <trkpt lat="47.90593" lon="6.6444">
        <ele>664.3</ele>
        <time>2026-03-29T07:16:03Z</time>
      </trkpt>
      <trkpt lat="47.90599" lon="6.64432">
        <ele>665.4</ele>
        <time>2026-03-29T07:16:08Z</time>
      </trkpt>
      <trkpt lat="47.90605" lon="6.64427">
        <ele>666</ele>
        <time>2026-03-29T07:16:13Z</time>
      </trkpt>
      <trkpt lat="47.90612" lon="6.64424">
        <ele>666.2</ele>
        <time>2026-03-29T07:16:18Z</time>
      </trkpt>
      <trkpt lat="47.90618" lon="6.64424">
        <ele>665.9</ele>
        <time>2026-03-29T07:16:23Z</time>
      </trkpt>
      <trkpt lat="47.90625" lon="6.64424">
        <ele>665.6</ele>
        <time>2026-03-29T07:16:28Z</time>
      </trkpt>
      <trkpt lat="47.90631" lon="6.64425">
        <ele>665.1</ele>
        <time>2026-03-29T07:16:33Z</time>
      </trkpt>
      <trkpt lat="47.90637" lon="6.64426">
        <ele>664.6</ele>
        <time>2026-03-29T07:16:38Z</time>
      </trkpt>
      <trkpt lat="47.90644" lon="6.64427">
        <ele>664</ele>
        <time>2026-03-29T07:16:43Z</time>
      </trkpt>
      <trkpt lat="47.9065" lon="6.64429">
        <ele>663.3</ele>
        <time>2026-03-29T07:16:48Z</time>
      </trkpt>
      <trkpt lat="47.90657" lon="6.64429">
        <ele>663</ele>
        <time>2026-03-29T07:16:53Z</time>
      </trkpt>
      <trkpt lat="47.90664" lon="6.6443">
        <ele>662.4</ele>
        <time>2026-03-29T07:16:58Z</time>
      </trkpt>
      <trkpt lat="47.9067" lon="6.64432">
        <ele>661.4</ele>
        <time>2026-03-29T07:17:03Z</time>
      </trkpt>
      <trkpt lat="47.90677" lon="6.64433">
        <ele>660.4</ele>
        <time>2026-03-29T07:17:08Z</time>
      </trkpt>
      <trkpt lat="47.90683" lon="6.64434">
        <ele>659.4</ele>
        <time>2026-03-29T07:17:13Z</time>
      </trkpt>
      <trkpt lat="47.9069" lon="6.64432">
        <ele>658.9</ele>
        <time>2026-03-29T07:17:18Z</time>
      </trkpt>
      <trkpt lat="47.90696" lon="6.64431">
        <ele>658.4</ele>
        <time>2026-03-29T07:17:23Z</time>
      </trkpt>
      <trkpt lat="47.90704" lon="6.64428">
        <ele>658</ele>
        <time>2026-03-29T07:17:28Z</time>
      </trkpt>
      <trkpt lat="47.90711" lon="6.64425">
        <ele>657.8</ele>
        <time>2026-03-29T07:17:33Z</time>
      </trkpt>
      <trkpt lat="47.90718" lon="6.64422">
        <ele>657.6</ele>
        <time>2026-03-29T07:17:38Z</time>
      </trkpt>
      <trkpt lat="47.90724" lon="6.64418">
        <ele>657.8</ele>
        <time>2026-03-29T07:17:43Z</time>
      </trkpt>
      <trkpt lat="47.9073" lon="6.64412">
        <ele>657.9</ele>
        <time>2026-03-29T07:17:48Z</time>
      </trkpt>
      <trkpt lat="47.90737" lon="6.64409">
        <ele>657.3</ele>
        <time>2026-03-29T07:17:53Z</time>
      </trkpt>
      <trkpt lat="47.90745" lon="6.64406">
        <ele>656.7</ele>
        <time>2026-03-29T07:17:58Z</time>
      </trkpt>
      <trkpt lat="47.90753" lon="6.64405">
        <ele>656.1</ele>
        <time>2026-03-29T07:18:03Z</time>
      </trkpt>
      <trkpt lat="47.90761" lon="6.64408">
        <ele>655.5</ele>
        <time>2026-03-29T07:18:08Z</time>
      </trkpt>
      <trkpt lat="47.90768" lon="6.64408">
        <ele>655.2</ele>
        <time>2026-03-29T07:18:13Z</time>
      </trkpt>
      <trkpt lat="47.90776" lon="6.64407">
        <ele>655</ele>
        <time>2026-03-29T07:18:18Z</time>
      </trkpt>
      <trkpt lat="47.90784" lon="6.64406">
        <ele>654.8</ele>
        <time>2026-03-29T07:18:23Z</time>
      </trkpt>
      <trkpt lat="47.90786" lon="6.64408">
        <ele>654.6</ele>
        <time>2026-03-29T07:18:28Z</time>
      </trkpt>
      <trkpt lat="47.90792" lon="6.64407">
        <ele>654.4</ele>
        <time>2026-03-29T07:18:33Z</time>
      </trkpt>
      <trkpt lat="47.90799" lon="6.64403">
        <ele>654.5</ele>
        <time>2026-03-29T07:18:38Z</time>
      </trkpt>
      <trkpt lat="47.90806" lon="6.64398">
        <ele>654.7</ele>
        <time>2026-03-29T07:18:43Z</time>
      </trkpt>
      <trkpt lat="47.90812" lon="6.64389">
        <ele>655.3</ele>
        <time>2026-03-29T07:18:48Z</time>
      </trkpt>
      <trkpt lat="47.90816" lon="6.64381">
        <ele>655.8</ele>
        <time>2026-03-29T07:18:53Z</time>
      </trkpt>
      <trkpt lat="47.90822" lon="6.64373">
        <ele>656.2</ele>
        <time>2026-03-29T07:18:58Z</time>
      </trkpt>
      <trkpt lat="47.90826" lon="6.64365">
        <ele>656.7</ele>
        <time>2026-03-29T07:19:03Z</time>
      </trkpt>
      <trkpt lat="47.90826" lon="6.64362">
        <ele>657</ele>
        <time>2026-03-29T07:19:08Z</time>
      </trkpt>
      <trkpt lat="47.90829" lon="6.64353">
        <ele>657.6</ele>
        <time>2026-03-29T07:19:13Z</time>
      </trkpt>
      <trkpt lat="47.90833" lon="6.64344">
        <ele>658.1</ele>
        <time>2026-03-29T07:19:18Z</time>
      </trkpt>
      <trkpt lat="47.90838" lon="6.64336">
        <ele>658.4</ele>
        <time>2026-03-29T07:19:23Z</time>
      </trkpt>
      <trkpt lat="47.90843" lon="6.64325">
        <ele>659.4</ele>
        <time>2026-03-29T07:19:28Z</time>
      </trkpt>
      <trkpt lat="47.90846" lon="6.64316">
        <ele>660.5</ele>
        <time>2026-03-29T07:19:33Z</time>
      </trkpt>
      <trkpt lat="47.90849" lon="6.64305">
        <ele>661.8</ele>
        <time>2026-03-29T07:19:38Z</time>
      </trkpt>
      <trkpt lat="47.90852" lon="6.64297">
        <ele>662.7</ele>
        <time>2026-03-29T07:19:43Z</time>
      </trkpt>
      <trkpt lat="47.90856" lon="6.64288">
        <ele>663.6</ele>
        <time>2026-03-29T07:19:48Z</time>
      </trkpt>
      <trkpt lat="47.90859" lon="6.64278">
        <ele>664.7</ele>
        <time>2026-03-29T07:19:53Z</time>
      </trkpt>
      <trkpt lat="47.90862" lon="6.6427">
        <ele>665.4</ele>
        <time>2026-03-29T07:19:58Z</time>
      </trkpt>
      <trkpt lat="47.90865" lon="6.64261">
        <ele>666.3</ele>
        <time>2026-03-29T07:20:03Z</time>
      </trkpt>
      <trkpt lat="47.90868" lon="6.64251">
        <ele>667.3</ele>
        <time>2026-03-29T07:20:08Z</time>
      </trkpt>
      <trkpt lat="47.90869" lon="6.64242">
        <ele>668.4</ele>
        <time>2026-03-29T07:20:13Z</time>
      </trkpt>
      <trkpt lat="47.90871" lon="6.64233">
        <ele>669.3</ele>
        <time>2026-03-29T07:20:18Z</time>
      </trkpt>
      <trkpt lat="47.90873" lon="6.64221">
        <ele>670.6</ele>
        <time>2026-03-29T07:20:23Z</time>
      </trkpt>
      <trkpt lat="47.90876" lon="6.64211">
        <ele>671.5</ele>
        <time>2026-03-29T07:20:28Z</time>
      </trkpt>
      <trkpt lat="47.90879" lon="6.64202">
        <ele>672.1</ele>
        <time>2026-03-29T07:20:33Z</time>
      </trkpt>
      <trkpt lat="47.90883" lon="6.64192">
        <ele>672.7</ele>
        <time>2026-03-29T07:20:38Z</time>
      </trkpt>
      <trkpt lat="47.90887" lon="6.64181">
        <ele>673.3</ele>
        <time>2026-03-29T07:20:43Z</time>
      </trkpt>
      <trkpt lat="47.90891" lon="6.64172">
        <ele>673.6</ele>
        <time>2026-03-29T07:20:48Z</time>
      </trkpt>
      <trkpt lat="47.90894" lon="6.64162">
        <ele>673.9</ele>
        <time>2026-03-29T07:20:53Z</time>
      </trkpt>
      <trkpt lat="47.90898" lon="6.64152">
        <ele>673.6</ele>
        <time>2026-03-29T07:20:58Z</time>
      </trkpt>
      <trkpt lat="47.90902" lon="6.64143">
        <ele>673.3</ele>
        <time>2026-03-29T07:21:03Z</time>
      </trkpt>
      <trkpt lat="47.90904" lon="6.64136">
        <ele>673.2</ele>
        <time>2026-03-29T07:21:08Z</time>
      </trkpt>
      <trkpt lat="47.90904" lon="6.64136">
        <ele>673.2</ele>
        <time>2026-03-29T07:21:13Z</time>
      </trkpt>
      <trkpt lat="47.90904" lon="6.64136">
        <ele>673.2</ele>
        <time>2026-03-29T07:21:18Z</time>
      </trkpt>
      <trkpt lat="47.9091" lon="6.64129">
        <ele>672.3</ele>
        <time>2026-03-29T07:21:23Z</time>
      </trkpt>
      <trkpt lat="47.90914" lon="6.64121">
        <ele>671.8</ele>
        <time>2026-03-29T07:21:28Z</time>
      </trkpt>
      <trkpt lat="47.90919" lon="6.64113">
        <ele>670.7</ele>
        <time>2026-03-29T07:21:33Z</time>
      </trkpt>
      <trkpt lat="47.90922" lon="6.64106">
        <ele>670</ele>
        <time>2026-03-29T07:21:38Z</time>
      </trkpt>
      <trkpt lat="47.90926" lon="6.64097">
        <ele>669.1</ele>
        <time>2026-03-29T07:21:43Z</time>
      </trkpt>
      <trkpt lat="47.9093" lon="6.64084">
        <ele>668.5</ele>
        <time>2026-03-29T07:21:48Z</time>
      </trkpt>
      <trkpt lat="47.90935" lon="6.64074">
        <ele>667.1</ele>
        <time>2026-03-29T07:21:53Z</time>
      </trkpt>
      <trkpt lat="47.90937" lon="6.64064">
        <ele>666.6</ele>
        <time>2026-03-29T07:21:58Z</time>
      </trkpt>
      <trkpt lat="47.90941" lon="6.64056">
        <ele>665.5</ele>
        <time>2026-03-29T07:22:03Z</time>
      </trkpt>
      <trkpt lat="47.90947" lon="6.64051">
        <ele>663.8</ele>
        <time>2026-03-29T07:22:08Z</time>
      </trkpt>
      <trkpt lat="47.90954" lon="6.64047">
        <ele>661.7</ele>
        <time>2026-03-29T07:22:13Z</time>
      </trkpt>
      <trkpt lat="47.90961" lon="6.64044">
        <ele>659.6</ele>
        <time>2026-03-29T07:22:18Z</time>
      </trkpt>
      <trkpt lat="47.90963" lon="6.64046">
        <ele>658.9</ele>
        <time>2026-03-29T07:22:23Z</time>
      </trkpt>
      <trkpt lat="47.90967" lon="6.64043">
        <ele>657.7</ele>
        <time>2026-03-29T07:22:28Z</time>
      </trkpt>
      <trkpt lat="47.90974" lon="6.64041">
        <ele>655.6</ele>
        <time>2026-03-29T07:22:33Z</time>
      </trkpt>
      <trkpt lat="47.90981" lon="6.64041">
        <ele>653.5</ele>
        <time>2026-03-29T07:22:38Z</time>
      </trkpt>
      <trkpt lat="47.90989" lon="6.64042">
        <ele>650.9</ele>
        <time>2026-03-29T07:22:43Z</time>
      </trkpt>
      <trkpt lat="47.90997" lon="6.64044">
        <ele>648.3</ele>
        <time>2026-03-29T07:22:48Z</time>
      </trkpt>
      <trkpt lat="47.91004" lon="6.64045">
        <ele>646.9</ele>
        <time>2026-03-29T07:22:53Z</time>
      </trkpt>
      <trkpt lat="47.91009" lon="6.64051">
        <ele>646</ele>
        <time>2026-03-29T07:22:58Z</time>
      </trkpt>
      <trkpt lat="47.91016" lon="6.64057">
        <ele>644.8</ele>
        <time>2026-03-29T07:23:03Z</time>
      </trkpt>
      <trkpt lat="47.9102" lon="6.64064">
        <ele>643.9</ele>
        <time>2026-03-29T07:23:08Z</time>
      </trkpt>
      <trkpt lat="47.91024" lon="6.64072">
        <ele>642.9</ele>
        <time>2026-03-29T07:23:13Z</time>
      </trkpt>
      <trkpt lat="47.91026" lon="6.6408">
        <ele>642.1</ele>
        <time>2026-03-29T07:23:18Z</time>
      </trkpt>
      <trkpt lat="47.91028" lon="6.64089">
        <ele>640.8</ele>
        <time>2026-03-29T07:23:23Z</time>
      </trkpt>
      <trkpt lat="47.91031" lon="6.641">
        <ele>638.9</ele>
        <time>2026-03-29T07:23:28Z</time>
      </trkpt>
      <trkpt lat="47.91033" lon="6.64105">
        <ele>638</ele>
        <time>2026-03-29T07:23:33Z</time>
      </trkpt>
      <trkpt lat="47.91034" lon="6.64107">
        <ele>637.6</ele>
        <time>2026-03-29T07:23:38Z</time>
      </trkpt>
      <trkpt lat="47.91035" lon="6.64107">
        <ele>637.4</ele>
        <time>2026-03-29T07:23:43Z</time>
      </trkpt>
      <trkpt lat="47.91038" lon="6.64119">
        <ele>635.3</ele>
        <time>2026-03-29T07:23:48Z</time>
      </trkpt>
      <trkpt lat="47.91045" lon="6.64127">
        <ele>633.3</ele>
        <time>2026-03-29T07:23:53Z</time>
      </trkpt>
      <trkpt lat="47.91051" lon="6.64132">
        <ele>631.7</ele>
        <time>2026-03-29T07:23:58Z</time>
      </trkpt>
      <trkpt lat="47.91055" lon="6.64127">
        <ele>631.9</ele>
        <time>2026-03-29T07:24:03Z</time>
      </trkpt>
      <trkpt lat="47.9106" lon="6.64122">
        <ele>632</ele>
        <time>2026-03-29T07:24:08Z</time>
      </trkpt>
      <trkpt lat="47.91064" lon="6.6412">
        <ele>631.8</ele>
        <time>2026-03-29T07:24:13Z</time>
      </trkpt>
      <trkpt lat="47.9107" lon="6.6412">
        <ele>631</ele>
        <time>2026-03-29T07:24:18Z</time>
      </trkpt>
      <trkpt lat="47.91075" lon="6.64122">
        <ele>630.1</ele>
        <time>2026-03-29T07:24:23Z</time>
      </trkpt>
      <trkpt lat="47.91081" lon="6.64126">
        <ele>628.7</ele>
        <time>2026-03-29T07:24:28Z</time>
      </trkpt>
      <trkpt lat="47.91086" lon="6.64131">
        <ele>627.8</ele>
        <time>2026-03-29T07:24:33Z</time>
      </trkpt>
      <trkpt lat="47.91091" lon="6.64136">
        <ele>627.4</ele>
        <time>2026-03-29T07:24:38Z</time>
      </trkpt>
      <trkpt lat="47.91096" lon="6.64142">
        <ele>627</ele>
        <time>2026-03-29T07:24:43Z</time>
      </trkpt>
      <trkpt lat="47.91101" lon="6.64147">
        <ele>626.7</ele>
        <time>2026-03-29T07:24:48Z</time>
      </trkpt>
      <trkpt lat="47.91106" lon="6.64152">
        <ele>626.5</ele>
        <time>2026-03-29T07:24:53Z</time>
      </trkpt>
      <trkpt lat="47.91112" lon="6.64158">
        <ele>626.3</ele>
        <time>2026-03-29T07:24:58Z</time>
      </trkpt>
      <trkpt lat="47.91117" lon="6.64165">
        <ele>625.9</ele>
        <time>2026-03-29T07:25:03Z</time>
      </trkpt>
      <trkpt lat="47.91123" lon="6.64172">
        <ele>625.8</ele>
        <time>2026-03-29T07:25:08Z</time>
      </trkpt>
      <trkpt lat="47.91129" lon="6.64178">
        <ele>626</ele>
        <time>2026-03-29T07:25:13Z</time>
      </trkpt>
      <trkpt lat="47.91134" lon="6.64182">
        <ele>626.2</ele>
        <time>2026-03-29T07:25:18Z</time>
      </trkpt>
      <trkpt lat="47.91141" lon="6.64186">
        <ele>626.6</ele>
        <time>2026-03-29T07:25:23Z</time>
      </trkpt>
      <trkpt lat="47.91146" lon="6.64191">
        <ele>626.7</ele>
        <time>2026-03-29T07:25:28Z</time>
      </trkpt>
      <trkpt lat="47.91152" lon="6.64191">
        <ele>627.4</ele>
        <time>2026-03-29T07:25:33Z</time>
      </trkpt>
      <trkpt lat="47.91157" lon="6.6419">
        <ele>628</ele>
        <time>2026-03-29T07:25:38Z</time>
      </trkpt>
      <trkpt lat="47.91162" lon="6.64187">
        <ele>628.8</ele>
        <time>2026-03-29T07:25:43Z</time>
      </trkpt>
      <trkpt lat="47.91165" lon="6.64182">
        <ele>629.5</ele>
        <time>2026-03-29T07:25:48Z</time>
      </trkpt>
      <trkpt lat="47.91168" lon="6.64176">
        <ele>630.3</ele>
        <time>2026-03-29T07:25:53Z</time>
      </trkpt>
      <trkpt lat="47.91169" lon="6.64171">
        <ele>630.8</ele>
        <time>2026-03-29T07:25:58Z</time>
      </trkpt>
      <trkpt lat="47.91169" lon="6.64165">
        <ele>631.3</ele>
        <time>2026-03-29T07:26:03Z</time>
      </trkpt>
      <trkpt lat="47.91167" lon="6.64159">
        <ele>631.8</ele>
        <time>2026-03-29T07:26:08Z</time>
      </trkpt>
      <trkpt lat="47.91166" lon="6.64153">
        <ele>632.2</ele>
        <time>2026-03-29T07:26:13Z</time>
      </trkpt>
      <trkpt lat="47.91164" lon="6.64148">
        <ele>632.5</ele>
        <time>2026-03-29T07:26:18Z</time>
      </trkpt>
      <trkpt lat="47.91163" lon="6.64144">
        <ele>632.8</ele>
        <time>2026-03-29T07:26:23Z</time>
      </trkpt>
      <trkpt lat="47.91161" lon="6.64139">
        <ele>633.2</ele>
        <time>2026-03-29T07:26:28Z</time>
      </trkpt>
      <trkpt lat="47.9116" lon="6.64132">
        <ele>633.8</ele>
        <time>2026-03-29T07:26:33Z</time>
      </trkpt>
      <trkpt lat="47.91159" lon="6.64127">
        <ele>634.2</ele>
        <time>2026-03-29T07:26:38Z</time>
      </trkpt>
      <trkpt lat="47.91157" lon="6.64122">
        <ele>634.6</ele>
        <time>2026-03-29T07:26:43Z</time>
      </trkpt>
      <trkpt lat="47.91154" lon="6.64117">
        <ele>634.9</ele>
        <time>2026-03-29T07:26:48Z</time>
      </trkpt>
      <trkpt lat="47.91153" lon="6.64112">
        <ele>635.3</ele>
        <time>2026-03-29T07:26:53Z</time>
      </trkpt>
      <trkpt lat="47.91153" lon="6.64106">
        <ele>635.9</ele>
        <time>2026-03-29T07:26:58Z</time>
      </trkpt>
      <trkpt lat="47.91151" lon="6.64102">
        <ele>636.2</ele>
        <time>2026-03-29T07:27:03Z</time>
      </trkpt>
      <trkpt lat="47.9115" lon="6.641">
        <ele>636.4</ele>
        <time>2026-03-29T07:27:08Z</time>
      </trkpt>
      <trkpt lat="47.9115" lon="6.64094">
        <ele>637</ele>
        <time>2026-03-29T07:27:13Z</time>
      </trkpt>
      <trkpt lat="47.9115" lon="6.64089">
        <ele>637.6</ele>
        <time>2026-03-29T07:27:18Z</time>
      </trkpt>
      <trkpt lat="47.91151" lon="6.64083">
        <ele>638.3</ele>
        <time>2026-03-29T07:27:23Z</time>
      </trkpt>
      <trkpt lat="47.91152" lon="6.64078">
        <ele>638.8</ele>
        <time>2026-03-29T07:27:28Z</time>
      </trkpt>
      <trkpt lat="47.91152" lon="6.64072">
        <ele>639.4</ele>
        <time>2026-03-29T07:27:33Z</time>
      </trkpt>
      <trkpt lat="47.91152" lon="6.64068">
        <ele>639.8</ele>
        <time>2026-03-29T07:27:38Z</time>
      </trkpt>
      <trkpt lat="47.91154" lon="6.64063">
        <ele>640.3</ele>
        <time>2026-03-29T07:27:43Z</time>
      </trkpt>
      <trkpt lat="47.91155" lon="6.64058">
        <ele>640.9</ele>
        <time>2026-03-29T07:27:48Z</time>
      </trkpt>
      <trkpt lat="47.91157" lon="6.64053">
        <ele>641.4</ele>
        <time>2026-03-29T07:27:53Z</time>
      </trkpt>
      <trkpt lat="47.91158" lon="6.64048">
        <ele>642</ele>
        <time>2026-03-29T07:27:58Z</time>
      </trkpt>
      <trkpt lat="47.91158" lon="6.64043">
        <ele>642.5</ele>
        <time>2026-03-29T07:28:03Z</time>
      </trkpt>
      <trkpt lat="47.91159" lon="6.64039">
        <ele>642.9</ele>
        <time>2026-03-29T07:28:08Z</time>
      </trkpt>
      <trkpt lat="47.9116" lon="6.64035">
        <ele>643.3</ele>
        <time>2026-03-29T07:28:13Z</time>
      </trkpt>
      <trkpt lat="47.91159" lon="6.6403">
        <ele>643.8</ele>
        <time>2026-03-29T07:28:18Z</time>
      </trkpt>
      <trkpt lat="47.9116" lon="6.64026">
        <ele>644.2</ele>
        <time>2026-03-29T07:28:23Z</time>
      </trkpt>
      <trkpt lat="47.9116" lon="6.64021">
        <ele>644.7</ele>
        <time>2026-03-29T07:28:28Z</time>
      </trkpt>
      <trkpt lat="47.9116" lon="6.64017">
        <ele>645</ele>
        <time>2026-03-29T07:28:33Z</time>
      </trkpt>
      <trkpt lat="47.91159" lon="6.64012">
        <ele>645.5</ele>
        <time>2026-03-29T07:28:38Z</time>
      </trkpt>
      <trkpt lat="47.91159" lon="6.64008">
        <ele>645.9</ele>
        <time>2026-03-29T07:28:43Z</time>
      </trkpt>
      <trkpt lat="47.91158" lon="6.64003">
        <ele>646.3</ele>
        <time>2026-03-29T07:28:48Z</time>
      </trkpt>
      <trkpt lat="47.91158" lon="6.63997">
        <ele>647</ele>
        <time>2026-03-29T07:28:53Z</time>
      </trkpt>
      <trkpt lat="47.91156" lon="6.63991">
        <ele>647.8</ele>
        <time>2026-03-29T07:28:58Z</time>
      </trkpt>
      <trkpt lat="47.91154" lon="6.63985">
        <ele>648.6</ele>
        <time>2026-03-29T07:29:03Z</time>
      </trkpt>
      <trkpt lat="47.91152" lon="6.6398">
        <ele>649.2</ele>
        <time>2026-03-29T07:29:08Z</time>
      </trkpt>
      <trkpt lat="47.91152" lon="6.63974">
        <ele>650.1</ele>
        <time>2026-03-29T07:29:13Z</time>
      </trkpt>
      <trkpt lat="47.91151" lon="6.6397">
        <ele>650.6</ele>
        <time>2026-03-29T07:29:18Z</time>
      </trkpt>
      <trkpt lat="47.91148" lon="6.63964">
        <ele>651.2</ele>
        <time>2026-03-29T07:29:23Z</time>
      </trkpt>
      <trkpt lat="47.91147" lon="6.63958">
        <ele>652</ele>
        <time>2026-03-29T07:29:28Z</time>
      </trkpt>
      <trkpt lat="47.91144" lon="6.63953">
        <ele>652.5</ele>
        <time>2026-03-29T07:29:33Z</time>
      </trkpt>
      <trkpt lat="47.91141" lon="6.63951">
        <ele>652.5</ele>
        <time>2026-03-29T07:29:38Z</time>
      </trkpt>
      <trkpt lat="47.91138" lon="6.63946">
        <ele>652.9</ele>
        <time>2026-03-29T07:29:43Z</time>
      </trkpt>
      <trkpt lat="47.91137" lon="6.6394">
        <ele>653.7</ele>
        <time>2026-03-29T07:29:48Z</time>
      </trkpt>
      <trkpt lat="47.91135" lon="6.63935">
        <ele>654.1</ele>
        <time>2026-03-29T07:29:53Z</time>
      </trkpt>
      <trkpt lat="47.91133" lon="6.63928">
        <ele>654.9</ele>
        <time>2026-03-29T07:29:58Z</time>
      </trkpt>
      <trkpt lat="47.91131" lon="6.63924">
        <ele>655.2</ele>
        <time>2026-03-29T07:30:03Z</time>
      </trkpt>
      <trkpt lat="47.91129" lon="6.6392">
        <ele>655.5</ele>
        <time>2026-03-29T07:30:08Z</time>
      </trkpt>
      <trkpt lat="47.91128" lon="6.63914">
        <ele>656.2</ele>
        <time>2026-03-29T07:30:13Z</time>
      </trkpt>
      <trkpt lat="47.91127" lon="6.63909">
        <ele>656.9</ele>
        <time>2026-03-29T07:30:18Z</time>
      </trkpt>
      <trkpt lat="47.91126" lon="6.63904">
        <ele>657.6</ele>
        <time>2026-03-29T07:30:23Z</time>
      </trkpt>
      <trkpt lat="47.91124" lon="6.63898">
        <ele>658.3</ele>
        <time>2026-03-29T07:30:28Z</time>
      </trkpt>
      <trkpt lat="47.91124" lon="6.63894">
        <ele>658.9</ele>
        <time>2026-03-29T07:30:33Z</time>
      </trkpt>
      <trkpt lat="47.91123" lon="6.63888">
        <ele>659.7</ele>
        <time>2026-03-29T07:30:38Z</time>
      </trkpt>
      <trkpt lat="47.91123" lon="6.63882">
        <ele>660.7</ele>
        <time>2026-03-29T07:30:43Z</time>
      </trkpt>
      <trkpt lat="47.91123" lon="6.63876">
        <ele>661.6</ele>
        <time>2026-03-29T07:30:48Z</time>
      </trkpt>
      <trkpt lat="47.91123" lon="6.63873">
        <ele>662</ele>
        <time>2026-03-29T07:30:53Z</time>
      </trkpt>
      <trkpt lat="47.91124" lon="6.63868">
        <ele>663</ele>
        <time>2026-03-29T07:30:58Z</time>
      </trkpt>
      <trkpt lat="47.91124" lon="6.63862">
        <ele>663.9</ele>
        <time>2026-03-29T07:31:03Z</time>
      </trkpt>
      <trkpt lat="47.91126" lon="6.63859">
        <ele>664.6</ele>
        <time>2026-03-29T07:31:08Z</time>
      </trkpt>
      <trkpt lat="47.91127" lon="6.63858">
        <ele>664.9</ele>
        <time>2026-03-29T07:31:13Z</time>
      </trkpt>
      <trkpt lat="47.91127" lon="6.63858">
        <ele>664.9</ele>
        <time>2026-03-29T07:31:18Z</time>
      </trkpt>
      <trkpt lat="47.91127" lon="6.63858">
        <ele>664.9</ele>
        <time>2026-03-29T07:31:23Z</time>
      </trkpt>
      <trkpt lat="47.91128" lon="6.63844">
        <ele>667.3</ele>
        <time>2026-03-29T07:31:28Z</time>
      </trkpt>
      <trkpt lat="47.91128" lon="6.63839">
        <ele>668.1</ele>
        <time>2026-03-29T07:31:33Z</time>
      </trkpt>
      <trkpt lat="47.91128" lon="6.63833">
        <ele>669</ele>
        <time>2026-03-29T07:31:38Z</time>
      </trkpt>
      <trkpt lat="47.91128" lon="6.63827">
        <ele>670.2</ele>
        <time>2026-03-29T07:31:43Z</time>
      </trkpt>
      <trkpt lat="47.91129" lon="6.63821">
        <ele>671.5</ele>
        <time>2026-03-29T07:31:48Z</time>
      </trkpt>
      <trkpt lat="47.9113" lon="6.63815">
        <ele>672.8</ele>
        <time>2026-03-29T07:31:53Z</time>
      </trkpt>
      <trkpt lat="47.91131" lon="6.63811">
        <ele>673.8</ele>
        <time>2026-03-29T07:31:58Z</time>
      </trkpt>
      <trkpt lat="47.91132" lon="6.63806">
        <ele>674.9</ele>
        <time>2026-03-29T07:32:03Z</time>
      </trkpt>
      <trkpt lat="47.91133" lon="6.63801">
        <ele>676</ele>
        <time>2026-03-29T07:32:08Z</time>
      </trkpt>
      <trkpt lat="47.91133" lon="6.63796">
        <ele>676.9</ele>
        <time>2026-03-29T07:32:13Z</time>
      </trkpt>
      <trkpt lat="47.91133" lon="6.6379">
        <ele>678.1</ele>
        <time>2026-03-29T07:32:18Z</time>
      </trkpt>
      <trkpt lat="47.91133" lon="6.63784">
        <ele>679.2</ele>
        <time>2026-03-29T07:32:23Z</time>
      </trkpt>
      <trkpt lat="47.91134" lon="6.63778">
        <ele>680.5</ele>
        <time>2026-03-29T07:32:28Z</time>
      </trkpt>
      <trkpt lat="47.91134" lon="6.63773">
        <ele>681.5</ele>
        <time>2026-03-29T07:32:33Z</time>
      </trkpt>
      <trkpt lat="47.91133" lon="6.63767">
        <ele>682.5</ele>
        <time>2026-03-29T07:32:38Z</time>
      </trkpt>
      <trkpt lat="47.91133" lon="6.63761">
        <ele>683.7</ele>
        <time>2026-03-29T07:32:43Z</time>
      </trkpt>
      <trkpt lat="47.91133" lon="6.63754">
        <ele>685</ele>
        <time>2026-03-29T07:32:48Z</time>
      </trkpt>
      <trkpt lat="47.91133" lon="6.63748">
        <ele>686</ele>
        <time>2026-03-29T07:32:53Z</time>
      </trkpt>
      <trkpt lat="47.91133" lon="6.63743">
        <ele>686.7</ele>
        <time>2026-03-29T07:32:58Z</time>
      </trkpt>
      <trkpt lat="47.91133" lon="6.63738">
        <ele>687.4</ele>
        <time>2026-03-29T07:33:03Z</time>
      </trkpt>
      <trkpt lat="47.91134" lon="6.63732">
        <ele>688.4</ele>
        <time>2026-03-29T07:33:08Z</time>
      </trkpt>
      <trkpt lat="47.91134" lon="6.63726">
        <ele>689.2</ele>
        <time>2026-03-29T07:33:13Z</time>
      </trkpt>
      <trkpt lat="47.91135" lon="6.6372">
        <ele>690.1</ele>
        <time>2026-03-29T07:33:18Z</time>
      </trkpt>
      <trkpt lat="47.91136" lon="6.63714">
        <ele>691</ele>
        <time>2026-03-29T07:33:23Z</time>
      </trkpt>
      <trkpt lat="47.91135" lon="6.63708">
        <ele>691.8</ele>
        <time>2026-03-29T07:33:28Z</time>
      </trkpt>
      <trkpt lat="47.91136" lon="6.63702">
        <ele>692.7</ele>
        <time>2026-03-29T07:33:33Z</time>
      </trkpt>
      <trkpt lat="47.91136" lon="6.63696">
        <ele>693.5</ele>
        <time>2026-03-29T07:33:38Z</time>
      </trkpt>
      <trkpt lat="47.91136" lon="6.6369">
        <ele>694.3</ele>
        <time>2026-03-29T07:33:43Z</time>
      </trkpt>
      <trkpt lat="47.91136" lon="6.63683">
        <ele>695.3</ele>
        <time>2026-03-29T07:33:48Z</time>
      </trkpt>
      <trkpt lat="47.91136" lon="6.63676">
        <ele>696.2</ele>
        <time>2026-03-29T07:33:53Z</time>
      </trkpt>
      <trkpt lat="47.91138" lon="6.63669">
        <ele>697.3</ele>
        <time>2026-03-29T07:33:58Z</time>
      </trkpt>
      <trkpt lat="47.91139" lon="6.63662">
        <ele>697.9</ele>
        <time>2026-03-29T07:34:03Z</time>
      </trkpt>
      <trkpt lat="47.9114" lon="6.63656">
        <ele>698.3</ele>
        <time>2026-03-29T07:34:08Z</time>
      </trkpt>
      <trkpt lat="47.91141" lon="6.63648">
        <ele>698.8</ele>
        <time>2026-03-29T07:34:13Z</time>
      </trkpt>
      <trkpt lat="47.91143" lon="6.63641">
        <ele>699.2</ele>
        <time>2026-03-29T07:34:18Z</time>
      </trkpt>
      <trkpt lat="47.91144" lon="6.63634">
        <ele>699.7</ele>
        <time>2026-03-29T07:34:23Z</time>
      </trkpt>
      <trkpt lat="47.91147" lon="6.63627">
        <ele>700.2</ele>
        <time>2026-03-29T07:34:28Z</time>
      </trkpt>
      <trkpt lat="47.9115" lon="6.63622">
        <ele>700.7</ele>
        <time>2026-03-29T07:34:33Z</time>
      </trkpt>
      <trkpt lat="47.91153" lon="6.63618">
        <ele>701.1</ele>
        <time>2026-03-29T07:34:38Z</time>
      </trkpt>
      <trkpt lat="47.91158" lon="6.63614">
        <ele>701.6</ele>
        <time>2026-03-29T07:34:43Z</time>
      </trkpt>
      <trkpt lat="47.91161" lon="6.63611">
        <ele>702</ele>
        <time>2026-03-29T07:34:48Z</time>
      </trkpt>
      <trkpt lat="47.91165" lon="6.63608">
        <ele>702.4</ele>
        <time>2026-03-29T07:34:53Z</time>
      </trkpt>
      <trkpt lat="47.91169" lon="6.63605">
        <ele>703</ele>
        <time>2026-03-29T07:34:58Z</time>
      </trkpt>
      <trkpt lat="47.91173" lon="6.63604">
        <ele>703.5</ele>
        <time>2026-03-29T07:35:03Z</time>
      </trkpt>
      <trkpt lat="47.91177" lon="6.63601">
        <ele>704.1</ele>
        <time>2026-03-29T07:35:08Z</time>
      </trkpt>
      <trkpt lat="47.91181" lon="6.63597">
        <ele>704.8</ele>
        <time>2026-03-29T07:35:13Z</time>
      </trkpt>
      <trkpt lat="47.91184" lon="6.63595">
        <ele>705.2</ele>
        <time>2026-03-29T07:35:18Z</time>
      </trkpt>
      <trkpt lat="47.91188" lon="6.63592">
        <ele>705.8</ele>
        <time>2026-03-29T07:35:23Z</time>
      </trkpt>
      <trkpt lat="47.91193" lon="6.63588">
        <ele>706.6</ele>
        <time>2026-03-29T07:35:28Z</time>
      </trkpt>
      <trkpt lat="47.91196" lon="6.63585">
        <ele>707.1</ele>
        <time>2026-03-29T07:35:33Z</time>
      </trkpt>
      <trkpt lat="47.91198" lon="6.63582">
        <ele>707.4</ele>
        <time>2026-03-29T07:35:38Z</time>
      </trkpt>
      <trkpt lat="47.91202" lon="6.63578">
        <ele>707.8</ele>
        <time>2026-03-29T07:35:43Z</time>
      </trkpt>
      <trkpt lat="47.91206" lon="6.63576">
        <ele>708.3</ele>
        <time>2026-03-29T07:35:48Z</time>
      </trkpt>
      <trkpt lat="47.91209" lon="6.63572">
        <ele>708.6</ele>
        <time>2026-03-29T07:35:53Z</time>
      </trkpt>
      <trkpt lat="47.91212" lon="6.63567">
        <ele>708.9</ele>
        <time>2026-03-29T07:35:58Z</time>
      </trkpt>
      <trkpt lat="47.91216" lon="6.63563">
        <ele>709.2</ele>
        <time>2026-03-29T07:36:03Z</time>
      </trkpt>
      <trkpt lat="47.91218" lon="6.63556">
        <ele>709.4</ele>
        <time>2026-03-29T07:36:08Z</time>
      </trkpt>
      <trkpt lat="47.91219" lon="6.6355">
        <ele>709.4</ele>
        <time>2026-03-29T07:36:13Z</time>
      </trkpt>
      <trkpt lat="47.91221" lon="6.63554">
        <ele>709.7</ele>
        <time>2026-03-29T07:36:18Z</time>
      </trkpt>
      <trkpt lat="47.91224" lon="6.6356">
        <ele>710</ele>
        <time>2026-03-29T07:36:23Z</time>
      </trkpt>
      <trkpt lat="47.91227" lon="6.63565">
        <ele>710.3</ele>
        <time>2026-03-29T07:36:28Z</time>
      </trkpt>
      <trkpt lat="47.9123" lon="6.63571">
        <ele>710.7</ele>
        <time>2026-03-29T07:36:33Z</time>
      </trkpt>
      <trkpt lat="47.91233" lon="6.63577">
        <ele>711.1</ele>
        <time>2026-03-29T07:36:38Z</time>
      </trkpt>
      <trkpt lat="47.91237" lon="6.63584">
        <ele>711.6</ele>
        <time>2026-03-29T07:36:43Z</time>
      </trkpt>
      <trkpt lat="47.9124" lon="6.6359">
        <ele>711.7</ele>
        <time>2026-03-29T07:36:48Z</time>
      </trkpt>
      <trkpt lat="47.91244" lon="6.63597">
        <ele>711.8</ele>
        <time>2026-03-29T07:36:53Z</time>
      </trkpt>
      <trkpt lat="47.91249" lon="6.63604">
        <ele>712.1</ele>
        <time>2026-03-29T07:36:58Z</time>
      </trkpt>
      <trkpt lat="47.91253" lon="6.6361">
        <ele>712.2</ele>
        <time>2026-03-29T07:37:03Z</time>
      </trkpt>
      <trkpt lat="47.91256" lon="6.63618">
        <ele>712</ele>
        <time>2026-03-29T07:37:08Z</time>
      </trkpt>
      <trkpt lat="47.91262" lon="6.63625">
        <ele>712.1</ele>
        <time>2026-03-29T07:37:13Z</time>
      </trkpt>
      <trkpt lat="47.91266" lon="6.63632">
        <ele>712.2</ele>
        <time>2026-03-29T07:37:18Z</time>
      </trkpt>
      <trkpt lat="47.9127" lon="6.6364">
        <ele>712.3</ele>
        <time>2026-03-29T07:37:23Z</time>
      </trkpt>
      <trkpt lat="47.91275" lon="6.63647">
        <ele>712.6</ele>
        <time>2026-03-29T07:37:28Z</time>
      </trkpt>
      <trkpt lat="47.9128" lon="6.63655">
        <ele>712.9</ele>
        <time>2026-03-29T07:37:33Z</time>
      </trkpt>
      <trkpt lat="47.91283" lon="6.63663">
        <ele>713.2</ele>
        <time>2026-03-29T07:37:38Z</time>
      </trkpt>
      <trkpt lat="47.91289" lon="6.63671">
        <ele>713.6</ele>
        <time>2026-03-29T07:37:43Z</time>
      </trkpt>
      <trkpt lat="47.91294" lon="6.63679">
        <ele>713.7</ele>
        <time>2026-03-29T07:37:48Z</time>
      </trkpt>
      <trkpt lat="47.91299" lon="6.63686">
        <ele>714</ele>
        <time>2026-03-29T07:37:53Z</time>
      </trkpt>
      <trkpt lat="47.91303" lon="6.63693">
        <ele>714.3</ele>
        <time>2026-03-29T07:37:58Z</time>
      </trkpt>
      <trkpt lat="47.91308" lon="6.63699">
        <ele>714.7</ele>
        <time>2026-03-29T07:38:03Z</time>
      </trkpt>
      <trkpt lat="47.91313" lon="6.63705">
        <ele>715.3</ele>
        <time>2026-03-29T07:38:08Z</time>
      </trkpt>
      <trkpt lat="47.91318" lon="6.63713">
        <ele>715.8</ele>
        <time>2026-03-29T07:38:13Z</time>
      </trkpt>
      <trkpt lat="47.91322" lon="6.6372">
        <ele>716.3</ele>
        <time>2026-03-29T07:38:18Z</time>
      </trkpt>
      <trkpt lat="47.91328" lon="6.63727">
        <ele>717.2</ele>
        <time>2026-03-29T07:38:23Z</time>
      </trkpt>
      <trkpt lat="47.91333" lon="6.63735">
        <ele>717.9</ele>
        <time>2026-03-29T07:38:28Z</time>
      </trkpt>
      <trkpt lat="47.91337" lon="6.6374">
        <ele>718</ele>
        <time>2026-03-29T07:38:33Z</time>
      </trkpt>
      <trkpt lat="47.91341" lon="6.63744">
        <ele>718</ele>
        <time>2026-03-29T07:38:38Z</time>
      </trkpt>
      <trkpt lat="47.91344" lon="6.63749">
        <ele>718</ele>
        <time>2026-03-29T07:38:43Z</time>
      </trkpt>
      <trkpt lat="47.91346" lon="6.63752">
        <ele>717.8</ele>
        <time>2026-03-29T07:38:48Z</time>
      </trkpt>
      <trkpt lat="47.91347" lon="6.63754">
        <ele>717.7</ele>
        <time>2026-03-29T07:38:53Z</time>
      </trkpt>
      <trkpt lat="47.91347" lon="6.63754">
        <ele>717.7</ele>
        <time>2026-03-29T07:38:58Z</time>
      </trkpt>
      <trkpt lat="47.91347" lon="6.63754">
        <ele>717.7</ele>
        <time>2026-03-29T07:39:03Z</time>
      </trkpt>
      <trkpt lat="47.91347" lon="6.63754">
        <ele>717.7</ele>
        <time>2026-03-29T07:39:08Z</time>
      </trkpt>
      <trkpt lat="47.91347" lon="6.63754">
        <ele>717.7</ele>
        <time>2026-03-29T07:39:13Z</time>
      </trkpt>
      <trkpt lat="47.91347" lon="6.63754">
        <ele>717.7</ele>
        <time>2026-03-29T07:39:18Z</time>
      </trkpt>
      <trkpt lat="47.91347" lon="6.63754">
        <ele>717.7</ele>
        <time>2026-03-29T07:39:23Z</time>
      </trkpt>
      <trkpt lat="47.91347" lon="6.63754">
        <ele>717.7</ele>
        <time>2026-03-29T07:39:28Z</time>
      </trkpt>
      <trkpt lat="47.91347" lon="6.63754">
        <ele>717.7</ele>
        <time>2026-03-29T07:39:33Z</time>
      </trkpt>
      <trkpt lat="47.91347" lon="6.63754">
        <ele>717.7</ele>
        <time>2026-03-29T07:39:38Z</time>
      </trkpt>
      <trkpt lat="47.91347" lon="6.63754">
        <ele>717.7</ele>
        <time>2026-03-29T07:39:43Z</time>
      </trkpt>
      <trkpt lat="47.91347" lon="6.63754">
        <ele>717.7</ele>
        <time>2026-03-29T07:39:48Z</time>
      </trkpt>
      <trkpt lat="47.91347" lon="6.63754">
        <ele>717.7</ele>
        <time>2026-03-29T07:39:53Z</time>
      </trkpt>
      <trkpt lat="47.91347" lon="6.63754">
        <ele>717.7</ele>
        <time>2026-03-29T07:39:58Z</time>
      </trkpt>
      <trkpt lat="47.91347" lon="6.63754">
        <ele>717.7</ele>
        <time>2026-03-29T07:40:03Z</time>
      </trkpt>
      <trkpt lat="47.91347" lon="6.63754">
        <ele>717.7</ele>
        <time>2026-03-29T07:40:08Z</time>
      </trkpt>
      <trkpt lat="47.91347" lon="6.63754">
        <ele>717.7</ele>
        <time>2026-03-29T07:40:13Z</time>
      </trkpt>
      <trkpt lat="47.91347" lon="6.63754">
        <ele>717.7</ele>
        <time>2026-03-29T07:40:18Z</time>
      </trkpt>
      <trkpt lat="47.91347" lon="6.63754">
        <ele>717.7</ele>
        <time>2026-03-29T07:40:23Z</time>
      </trkpt>
      <trkpt lat="47.91347" lon="6.63754">
        <ele>717.7</ele>
        <time>2026-03-29T07:40:28Z</time>
      </trkpt>
      <trkpt lat="47.91347" lon="6.63754">
        <ele>717.7</ele>
        <time>2026-03-29T07:40:33Z</time>
      </trkpt>
      <trkpt lat="47.91347" lon="6.63754">
        <ele>717.7</ele>
        <time>2026-03-29T07:40:38Z</time>
      </trkpt>
      <trkpt lat="47.91347" lon="6.63754">
        <ele>717.7</ele>
        <time>2026-03-29T07:40:43Z</time>
      </trkpt>
      <trkpt lat="47.91347" lon="6.63754">
        <ele>717.7</ele>
        <time>2026-03-29T07:40:48Z</time>
      </trkpt>
      <trkpt lat="47.91347" lon="6.63754">
        <ele>717.7</ele>
        <time>2026-03-29T07:40:53Z</time>
      </trkpt>
      <trkpt lat="47.91347" lon="6.63754">
        <ele>717.7</ele>
        <time>2026-03-29T07:40:58Z</time>
      </trkpt>
      <trkpt lat="47.91347" lon="6.63754">
        <ele>717.7</ele>
        <time>2026-03-29T07:41:03Z</time>
      </trkpt>
      <trkpt lat="47.91347" lon="6.63754">
        <ele>717.7</ele>
        <time>2026-03-29T07:41:08Z</time>
      </trkpt>
      <trkpt lat="47.91347" lon="6.63754">
        <ele>717.7</ele>
        <time>2026-03-29T07:41:13Z</time>
      </trkpt>
      <trkpt lat="47.91347" lon="6.63754">
        <ele>717.7</ele>
        <time>2026-03-29T07:41:18Z</time>
      </trkpt>
      <trkpt lat="47.91347" lon="6.63754">
        <ele>717.7</ele>
        <time>2026-03-29T07:41:23Z</time>
      </trkpt>
      <trkpt lat="47.91347" lon="6.63754">
        <ele>717.7</ele>
        <time>2026-03-29T07:41:28Z</time>
      </trkpt>
      <trkpt lat="47.91347" lon="6.63754">
        <ele>717.7</ele>
        <time>2026-03-29T07:41:33Z</time>
      </trkpt>
      <trkpt lat="47.91347" lon="6.63754">
        <ele>717.7</ele>
        <time>2026-03-29T07:41:38Z</time>
      </trkpt>
      <trkpt lat="47.91347" lon="6.63754">
        <ele>717.7</ele>
        <time>2026-03-29T07:41:43Z</time>
      </trkpt>
      <trkpt lat="47.91347" lon="6.63754">
        <ele>717.7</ele>
        <time>2026-03-29T07:41:48Z</time>
      </trkpt>
      <trkpt lat="47.91347" lon="6.63754">
        <ele>717.7</ele>
        <time>2026-03-29T07:41:53Z</time>
      </trkpt>
      <trkpt lat="47.91347" lon="6.63754">
        <ele>717.7</ele>
        <time>2026-03-29T07:41:58Z</time>
      </trkpt>
      <trkpt lat="47.91347" lon="6.63754">
        <ele>717.7</ele>
        <time>2026-03-29T07:42:03Z</time>
      </trkpt>
      <trkpt lat="47.91347" lon="6.63754">
        <ele>717.7</ele>
        <time>2026-03-29T07:42:08Z</time>
      </trkpt>
      <trkpt lat="47.91347" lon="6.63754">
        <ele>717.7</ele>
        <time>2026-03-29T07:42:13Z</time>
      </trkpt>
      <trkpt lat="47.91347" lon="6.63754">
        <ele>717.7</ele>
        <time>2026-03-29T07:42:18Z</time>
      </trkpt>
      <trkpt lat="47.91347" lon="6.63754">
        <ele>717.7</ele>
        <time>2026-03-29T07:42:23Z</time>
      </trkpt>
      <trkpt lat="47.91347" lon="6.63754">
        <ele>717.7</ele>
        <time>2026-03-29T07:42:28Z</time>
      </trkpt>
      <trkpt lat="47.91347" lon="6.63754">
        <ele>717.7</ele>
        <time>2026-03-29T07:42:33Z</time>
      </trkpt>
      <trkpt lat="47.91347" lon="6.63754">
        <ele>717.7</ele>
        <time>2026-03-29T07:42:38Z</time>
      </trkpt>
      <trkpt lat="47.91347" lon="6.63754">
        <ele>717.7</ele>
        <time>2026-03-29T07:42:43Z</time>
      </trkpt>
      <trkpt lat="47.91347" lon="6.63754">
        <ele>717.7</ele>
        <time>2026-03-29T07:42:48Z</time>
      </trkpt>
      <trkpt lat="47.91347" lon="6.63754">
        <ele>717.7</ele>
        <time>2026-03-29T07:42:53Z</time>
      </trkpt>
      <trkpt lat="47.91347" lon="6.63754">
        <ele>717.7</ele>
        <time>2026-03-29T07:42:58Z</time>
      </trkpt>
      <trkpt lat="47.91347" lon="6.63754">
        <ele>717.7</ele>
        <time>2026-03-29T07:43:03Z</time>
      </trkpt>
      <trkpt lat="47.91347" lon="6.63754">
        <ele>717.7</ele>
        <time>2026-03-29T07:43:08Z</time>
      </trkpt>
      <trkpt lat="47.91347" lon="6.63754">
        <ele>717.7</ele>
        <time>2026-03-29T07:43:13Z</time>
      </trkpt>
      <trkpt lat="47.91347" lon="6.63754">
        <ele>717.7</ele>
        <time>2026-03-29T07:43:18Z</time>
      </trkpt>
      <trkpt lat="47.91347" lon="6.63754">
        <ele>717.7</ele>
        <time>2026-03-29T07:43:23Z</time>
      </trkpt>
      <trkpt lat="47.91347" lon="6.63754">
        <ele>717.7</ele>
        <time>2026-03-29T07:43:28Z</time>
      </trkpt>
      <trkpt lat="47.91347" lon="6.63754">
        <ele>717.7</ele>
        <time>2026-03-29T07:43:33Z</time>
      </trkpt>
      <trkpt lat="47.91351" lon="6.63761">
        <ele>717.1</ele>
        <time>2026-03-29T07:43:38Z</time>
      </trkpt>
      <trkpt lat="47.91354" lon="6.63765">
        <ele>716.8</ele>
        <time>2026-03-29T07:43:43Z</time>
      </trkpt>
      <trkpt lat="47.91356" lon="6.63769">
        <ele>716.5</ele>
        <time>2026-03-29T07:43:48Z</time>
      </trkpt>
      <trkpt lat="47.91359" lon="6.63773">
        <ele>716.3</ele>
        <time>2026-03-29T07:43:53Z</time>
      </trkpt>
      <trkpt lat="47.91361" lon="6.63777">
        <ele>716.1</ele>
        <time>2026-03-29T07:43:58Z</time>
      </trkpt>
      <trkpt lat="47.91364" lon="6.63782">
        <ele>715.8</ele>
        <time>2026-03-29T07:44:03Z</time>
      </trkpt>
      <trkpt lat="47.91367" lon="6.63788">
        <ele>715.5</ele>
        <time>2026-03-29T07:44:08Z</time>
      </trkpt>
      <trkpt lat="47.9137" lon="6.63795">
        <ele>715.1</ele>
        <time>2026-03-29T07:44:13Z</time>
      </trkpt>
      <trkpt lat="47.91373" lon="6.638">
        <ele>714.9</ele>
        <time>2026-03-29T07:44:18Z</time>
      </trkpt>
      <trkpt lat="47.91376" lon="6.63806">
        <ele>714.7</ele>
        <time>2026-03-29T07:44:23Z</time>
      </trkpt>
      <trkpt lat="47.91378" lon="6.63813">
        <ele>714.4</ele>
        <time>2026-03-29T07:44:28Z</time>
      </trkpt>
      <trkpt lat="47.91382" lon="6.63819">
        <ele>714.3</ele>
        <time>2026-03-29T07:44:33Z</time>
      </trkpt>
      <trkpt lat="47.91385" lon="6.63827">
        <ele>714</ele>
        <time>2026-03-29T07:44:38Z</time>
      </trkpt>
      <trkpt lat="47.91388" lon="6.63836">
        <ele>713.6</ele>
        <time>2026-03-29T07:44:43Z</time>
      </trkpt>
      <trkpt lat="47.91391" lon="6.63843">
        <ele>713</ele>
        <time>2026-03-29T07:44:48Z</time>
      </trkpt>
      <trkpt lat="47.91395" lon="6.63851">
        <ele>712.4</ele>
        <time>2026-03-29T07:44:53Z</time>
      </trkpt>
      <trkpt lat="47.91398" lon="6.63858">
        <ele>711.8</ele>
        <time>2026-03-29T07:44:58Z</time>
      </trkpt>
      <trkpt lat="47.91402" lon="6.63864">
        <ele>711.5</ele>
        <time>2026-03-29T07:45:03Z</time>
      </trkpt>
      <trkpt lat="47.91405" lon="6.63871">
        <ele>711.1</ele>
        <time>2026-03-29T07:45:08Z</time>
      </trkpt>
      <trkpt lat="47.91409" lon="6.63879">
        <ele>710.7</ele>
        <time>2026-03-29T07:45:13Z</time>
      </trkpt>
      <trkpt lat="47.91413" lon="6.63885">
        <ele>710.6</ele>
        <time>2026-03-29T07:45:18Z</time>
      </trkpt>
      <trkpt lat="47.91417" lon="6.63893">
        <ele>710.3</ele>
        <time>2026-03-29T07:45:23Z</time>
      </trkpt>
      <trkpt lat="47.91421" lon="6.639">
        <ele>710</ele>
        <time>2026-03-29T07:45:28Z</time>
      </trkpt>
      <trkpt lat="47.91424" lon="6.63906">
        <ele>709.7</ele>
        <time>2026-03-29T07:45:33Z</time>
      </trkpt>
      <trkpt lat="47.91428" lon="6.63913">
        <ele>709.4</ele>
        <time>2026-03-29T07:45:38Z</time>
      </trkpt>
      <trkpt lat="47.91433" lon="6.63918">
        <ele>709.2</ele>
        <time>2026-03-29T07:45:43Z</time>
      </trkpt>
      <trkpt lat="47.91437" lon="6.63923">
        <ele>708.4</ele>
        <time>2026-03-29T07:45:48Z</time>
      </trkpt>
      <trkpt lat="47.9144" lon="6.63926">
        <ele>707.9</ele>
        <time>2026-03-29T07:45:53Z</time>
      </trkpt>
      <trkpt lat="47.91441" lon="6.63927">
        <ele>707.8</ele>
        <time>2026-03-29T07:45:58Z</time>
      </trkpt>
      <trkpt lat="47.91443" lon="6.6393">
        <ele>707.3</ele>
        <time>2026-03-29T07:46:03Z</time>
      </trkpt>
      <trkpt lat="47.91446" lon="6.63935">
        <ele>706.5</ele>
        <time>2026-03-29T07:46:08Z</time>
      </trkpt>
      <trkpt lat="47.91451" lon="6.63938">
        <ele>706.4</ele>
        <time>2026-03-29T07:46:13Z</time>
      </trkpt>
      <trkpt lat="47.91454" lon="6.63942">
        <ele>705.8</ele>
        <time>2026-03-29T07:46:18Z</time>
      </trkpt>
      <trkpt lat="47.91459" lon="6.63945">
        <ele>705.8</ele>
        <time>2026-03-29T07:46:23Z</time>
      </trkpt>
      <trkpt lat="47.91463" lon="6.63947">
        <ele>705.9</ele>
        <time>2026-03-29T07:46:28Z</time>
      </trkpt>
      <trkpt lat="47.91466" lon="6.63949">
        <ele>705.9</ele>
        <time>2026-03-29T07:46:33Z</time>
      </trkpt>
      <trkpt lat="47.91467" lon="6.6395">
        <ele>705.8</ele>
        <time>2026-03-29T07:46:38Z</time>
      </trkpt>
      <trkpt lat="47.91468" lon="6.63951">
        <ele>705.7</ele>
        <time>2026-03-29T07:46:43Z</time>
      </trkpt>
      <trkpt lat="47.91471" lon="6.63953">
        <ele>705.7</ele>
        <time>2026-03-29T07:46:48Z</time>
      </trkpt>
      <trkpt lat="47.91474" lon="6.63955">
        <ele>705.8</ele>
        <time>2026-03-29T07:46:53Z</time>
      </trkpt>
      <trkpt lat="47.91478" lon="6.63957">
        <ele>706</ele>
        <time>2026-03-29T07:46:58Z</time>
      </trkpt>
      <trkpt lat="47.9148" lon="6.6396">
        <ele>705.7</ele>
        <time>2026-03-29T07:47:03Z</time>
      </trkpt>
      <trkpt lat="47.91483" lon="6.63962">
        <ele>705.8</ele>
        <time>2026-03-29T07:47:08Z</time>
      </trkpt>
      <trkpt lat="47.91485" lon="6.63964">
        <ele>705.7</ele>
        <time>2026-03-29T07:47:13Z</time>
      </trkpt>
      <trkpt lat="47.91487" lon="6.63968">
        <ele>705.3</ele>
        <time>2026-03-29T07:47:18Z</time>
      </trkpt>
      <trkpt lat="47.91489" lon="6.6397">
        <ele>705.2</ele>
        <time>2026-03-29T07:47:23Z</time>
      </trkpt>
      <trkpt lat="47.91492" lon="6.63971">
        <ele>705.5</ele>
        <time>2026-03-29T07:47:28Z</time>
      </trkpt>
      <trkpt lat="47.91495" lon="6.63974">
        <ele>705.5</ele>
        <time>2026-03-29T07:47:33Z</time>
      </trkpt>
      <trkpt lat="47.91497" lon="6.63977">
        <ele>705.3</ele>
        <time>2026-03-29T07:47:38Z</time>
      </trkpt>
      <trkpt lat="47.915" lon="6.6398">
        <ele>705.4</ele>
        <time>2026-03-29T07:47:43Z</time>
      </trkpt>
      <trkpt lat="47.91503" lon="6.63982">
        <ele>705.8</ele>
        <time>2026-03-29T07:47:48Z</time>
      </trkpt>
      <trkpt lat="47.91505" lon="6.63985">
        <ele>705.9</ele>
        <time>2026-03-29T07:47:53Z</time>
      </trkpt>
      <trkpt lat="47.91508" lon="6.63986">
        <ele>706.6</ele>
        <time>2026-03-29T07:47:58Z</time>
      </trkpt>
      <trkpt lat="47.91509" lon="6.63988">
        <ele>706.5</ele>
        <time>2026-03-29T07:48:03Z</time>
      </trkpt>
      <trkpt lat="47.91509" lon="6.63988">
        <ele>706.5</ele>
        <time>2026-03-29T07:48:08Z</time>
      </trkpt>
      <trkpt lat="47.91509" lon="6.63988">
        <ele>706.5</ele>
        <time>2026-03-29T07:48:13Z</time>
      </trkpt>
      <trkpt lat="47.91509" lon="6.63988">
        <ele>706.5</ele>
        <time>2026-03-29T07:48:18Z</time>
      </trkpt>
      <trkpt lat="47.91509" lon="6.63988">
        <ele>706.5</ele>
        <time>2026-03-29T07:48:23Z</time>
      </trkpt>
      <trkpt lat="47.91512" lon="6.6399">
        <ele>707</ele>
        <time>2026-03-29T07:48:28Z</time>
      </trkpt>
      <trkpt lat="47.91517" lon="6.63992">
        <ele>708.1</ele>
        <time>2026-03-29T07:48:33Z</time>
      </trkpt>
      <trkpt lat="47.9152" lon="6.63997">
        <ele>708.2</ele>
        <time>2026-03-29T07:48:38Z</time>
      </trkpt>
      <trkpt lat="47.91522" lon="6.64001">
        <ele>708.2</ele>
        <time>2026-03-29T07:48:43Z</time>
      </trkpt>
      <trkpt lat="47.91525" lon="6.64006">
        <ele>708.4</ele>
        <time>2026-03-29T07:48:48Z</time>
      </trkpt>
      <trkpt lat="47.9153" lon="6.64008">
        <ele>709.6</ele>
        <time>2026-03-29T07:48:53Z</time>
      </trkpt>
      <trkpt lat="47.91534" lon="6.64011">
        <ele>710.3</ele>
        <time>2026-03-29T07:48:58Z</time>
      </trkpt>
      <trkpt lat="47.91538" lon="6.64015">
        <ele>711</ele>
        <time>2026-03-29T07:49:03Z</time>
      </trkpt>
      <trkpt lat="47.91541" lon="6.64018">
        <ele>711.4</ele>
        <time>2026-03-29T07:49:08Z</time>
      </trkpt>
      <trkpt lat="47.91545" lon="6.64019">
        <ele>712.5</ele>
        <time>2026-03-29T07:49:13Z</time>
      </trkpt>
      <trkpt lat="47.91548" lon="6.64021">
        <ele>713.1</ele>
        <time>2026-03-29T07:49:18Z</time>
      </trkpt>
      <trkpt lat="47.91551" lon="6.64023">
        <ele>713.7</ele>
        <time>2026-03-29T07:49:23Z</time>
      </trkpt>
      <trkpt lat="47.91554" lon="6.64025">
        <ele>714.3</ele>
        <time>2026-03-29T07:49:28Z</time>
      </trkpt>
      <trkpt lat="47.91557" lon="6.64028">
        <ele>714.7</ele>
        <time>2026-03-29T07:49:33Z</time>
      </trkpt>
      <trkpt lat="47.91559" lon="6.64033">
        <ele>714.6</ele>
        <time>2026-03-29T07:49:38Z</time>
      </trkpt>
      <trkpt lat="47.91561" lon="6.64036">
        <ele>714.8</ele>
        <time>2026-03-29T07:49:43Z</time>
      </trkpt>
      <trkpt lat="47.91564" lon="6.64037">
        <ele>715.5</ele>
        <time>2026-03-29T07:49:48Z</time>
      </trkpt>
      <trkpt lat="47.91566" lon="6.64039">
        <ele>715.9</ele>
        <time>2026-03-29T07:49:53Z</time>
      </trkpt>
      <trkpt lat="47.91569" lon="6.64041">
        <ele>716.5</ele>
        <time>2026-03-29T07:49:58Z</time>
      </trkpt>
      <trkpt lat="47.91571" lon="6.64043">
        <ele>716.8</ele>
        <time>2026-03-29T07:50:03Z</time>
      </trkpt>
      <trkpt lat="47.91574" lon="6.64047">
        <ele>717.1</ele>
        <time>2026-03-29T07:50:08Z</time>
      </trkpt>
      <trkpt lat="47.91577" lon="6.64051">
        <ele>717.4</ele>
        <time>2026-03-29T07:50:13Z</time>
      </trkpt>
      <trkpt lat="47.91579" lon="6.64053">
        <ele>717.8</ele>
        <time>2026-03-29T07:50:18Z</time>
      </trkpt>
      <trkpt lat="47.91582" lon="6.64057">
        <ele>718.1</ele>
        <time>2026-03-29T07:50:23Z</time>
      </trkpt>
      <trkpt lat="47.91584" lon="6.64061">
        <ele>718.2</ele>
        <time>2026-03-29T07:50:28Z</time>
      </trkpt>
      <trkpt lat="47.91587" lon="6.64066">
        <ele>718.7</ele>
        <time>2026-03-29T07:50:33Z</time>
      </trkpt>
      <trkpt lat="47.9159" lon="6.6407">
        <ele>719.3</ele>
        <time>2026-03-29T07:50:38Z</time>
      </trkpt>
      <trkpt lat="47.91593" lon="6.64073">
        <ele>720.1</ele>
        <time>2026-03-29T07:50:43Z</time>
      </trkpt>
      <trkpt lat="47.91596" lon="6.64077">
        <ele>720.8</ele>
        <time>2026-03-29T07:50:48Z</time>
      </trkpt>
      <trkpt lat="47.91598" lon="6.64083">
        <ele>720.8</ele>
        <time>2026-03-29T07:50:53Z</time>
      </trkpt>
      <trkpt lat="47.916" lon="6.64087">
        <ele>721.4</ele>
        <time>2026-03-29T07:50:58Z</time>
      </trkpt>
      <trkpt lat="47.91602" lon="6.64092">
        <ele>721.9</ele>
        <time>2026-03-29T07:51:03Z</time>
      </trkpt>
      <trkpt lat="47.91604" lon="6.64096">
        <ele>722.4</ele>
        <time>2026-03-29T07:51:08Z</time>
      </trkpt>
      <trkpt lat="47.91606" lon="6.64099">
        <ele>723</ele>
        <time>2026-03-29T07:51:13Z</time>
      </trkpt>
      <trkpt lat="47.9161" lon="6.64101">
        <ele>724.5</ele>
        <time>2026-03-29T07:51:18Z</time>
      </trkpt>
      <trkpt lat="47.91613" lon="6.64104">
        <ele>725.5</ele>
        <time>2026-03-29T07:51:23Z</time>
      </trkpt>
      <trkpt lat="47.91616" lon="6.64108">
        <ele>726.5</ele>
        <time>2026-03-29T07:51:28Z</time>
      </trkpt>
      <trkpt lat="47.91619" lon="6.64111">
        <ele>727.5</ele>
        <time>2026-03-29T07:51:33Z</time>
      </trkpt>
      <trkpt lat="47.91621" lon="6.64113">
        <ele>728.1</ele>
        <time>2026-03-29T07:51:38Z</time>
      </trkpt>
      <trkpt lat="47.91623" lon="6.64114">
        <ele>728.9</ele>
        <time>2026-03-29T07:51:43Z</time>
      </trkpt>
      <trkpt lat="47.91626" lon="6.64116">
        <ele>729.9</ele>
        <time>2026-03-29T07:51:48Z</time>
      </trkpt>
      <trkpt lat="47.91629" lon="6.64118">
        <ele>731</ele>
        <time>2026-03-29T07:51:53Z</time>
      </trkpt>
      <trkpt lat="47.91631" lon="6.64118">
        <ele>731.8</ele>
        <time>2026-03-29T07:51:58Z</time>
      </trkpt>
      <trkpt lat="47.91635" lon="6.64117">
        <ele>733.4</ele>
        <time>2026-03-29T07:52:03Z</time>
      </trkpt>
      <trkpt lat="47.91638" lon="6.64116">
        <ele>734.7</ele>
        <time>2026-03-29T07:52:08Z</time>
      </trkpt>
      <trkpt lat="47.91641" lon="6.64118">
        <ele>735.8</ele>
        <time>2026-03-29T07:52:13Z</time>
      </trkpt>
      <trkpt lat="47.91643" lon="6.64126">
        <ele>736.1</ele>
        <time>2026-03-29T07:52:18Z</time>
      </trkpt>
      <trkpt lat="47.91644" lon="6.64135">
        <ele>735.9</ele>
        <time>2026-03-29T07:52:23Z</time>
      </trkpt>
      <trkpt lat="47.91646" lon="6.64143">
        <ele>736.2</ele>
        <time>2026-03-29T07:52:28Z</time>
      </trkpt>
      <trkpt lat="47.91648" lon="6.64149">
        <ele>736.7</ele>
        <time>2026-03-29T07:52:33Z</time>
      </trkpt>
      <trkpt lat="47.9165" lon="6.64159">
        <ele>736.9</ele>
        <time>2026-03-29T07:52:38Z</time>
      </trkpt>
      <trkpt lat="47.91653" lon="6.64168">
        <ele>737.5</ele>
        <time>2026-03-29T07:52:43Z</time>
      </trkpt>
      <trkpt lat="47.91657" lon="6.64175">
        <ele>738.4</ele>
        <time>2026-03-29T07:52:48Z</time>
      </trkpt>
      <trkpt lat="47.91661" lon="6.64185">
        <ele>739</ele>
        <time>2026-03-29T07:52:53Z</time>
      </trkpt>
      <trkpt lat="47.91664" lon="6.64193">
        <ele>739.4</ele>
        <time>2026-03-29T07:52:58Z</time>
      </trkpt>
      <trkpt lat="47.91668" lon="6.64204">
        <ele>739.8</ele>
        <time>2026-03-29T07:53:03Z</time>
      </trkpt>
      <trkpt lat="47.91673" lon="6.64211">
        <ele>740.5</ele>
        <time>2026-03-29T07:53:08Z</time>
      </trkpt>
      <trkpt lat="47.91675" lon="6.64217">
        <ele>740.5</ele>
        <time>2026-03-29T07:53:13Z</time>
      </trkpt>
      <trkpt lat="47.91677" lon="6.64227">
        <ele>740</ele>
        <time>2026-03-29T07:53:18Z</time>
      </trkpt>
      <trkpt lat="47.91681" lon="6.64234">
        <ele>740.4</ele>
        <time>2026-03-29T07:53:23Z</time>
      </trkpt>
      <trkpt lat="47.91684" lon="6.64241">
        <ele>740.5</ele>
        <time>2026-03-29T07:53:28Z</time>
      </trkpt>
      <trkpt lat="47.91688" lon="6.64248">
        <ele>740.8</ele>
        <time>2026-03-29T07:53:33Z</time>
      </trkpt>
      <trkpt lat="47.91693" lon="6.64254">
        <ele>741.2</ele>
        <time>2026-03-29T07:53:38Z</time>
      </trkpt>
      <trkpt lat="47.91698" lon="6.64258">
        <ele>741.8</ele>
        <time>2026-03-29T07:53:43Z</time>
      </trkpt>
      <trkpt lat="47.91703" lon="6.64264">
        <ele>742.1</ele>
        <time>2026-03-29T07:53:48Z</time>
      </trkpt>
      <trkpt lat="47.91708" lon="6.64268">
        <ele>742.7</ele>
        <time>2026-03-29T07:53:53Z</time>
      </trkpt>
      <trkpt lat="47.91714" lon="6.64275">
        <ele>743</ele>
        <time>2026-03-29T07:53:58Z</time>
      </trkpt>
      <trkpt lat="47.91719" lon="6.6428">
        <ele>743.4</ele>
        <time>2026-03-29T07:54:03Z</time>
      </trkpt>
      <trkpt lat="47.91725" lon="6.64285">
        <ele>744.1</ele>
        <time>2026-03-29T07:54:08Z</time>
      </trkpt>
      <trkpt lat="47.91731" lon="6.64289">
        <ele>745</ele>
        <time>2026-03-29T07:54:13Z</time>
      </trkpt>
      <trkpt lat="47.91737" lon="6.64292">
        <ele>746</ele>
        <time>2026-03-29T07:54:18Z</time>
      </trkpt>
      <trkpt lat="47.91743" lon="6.64296">
        <ele>746.9</ele>
        <time>2026-03-29T07:54:23Z</time>
      </trkpt>
      <trkpt lat="47.91749" lon="6.643">
        <ele>747.7</ele>
        <time>2026-03-29T07:54:28Z</time>
      </trkpt>
      <trkpt lat="47.91755" lon="6.64306">
        <ele>747.2</ele>
        <time>2026-03-29T07:54:33Z</time>
      </trkpt>
      <trkpt lat="47.91763" lon="6.6431">
        <ele>746.9</ele>
        <time>2026-03-29T07:54:38Z</time>
      </trkpt>
      <trkpt lat="47.91769" lon="6.64316">
        <ele>746.1</ele>
        <time>2026-03-29T07:54:43Z</time>
      </trkpt>
      <trkpt lat="47.91775" lon="6.64321">
        <ele>745.5</ele>
        <time>2026-03-29T07:54:48Z</time>
      </trkpt>
      <trkpt lat="47.9178" lon="6.64326">
        <ele>744.8</ele>
        <time>2026-03-29T07:54:53Z</time>
      </trkpt>
      <trkpt lat="47.91786" lon="6.64329">
        <ele>744.5</ele>
        <time>2026-03-29T07:54:58Z</time>
      </trkpt>
      <trkpt lat="47.91791" lon="6.64335">
        <ele>743.5</ele>
        <time>2026-03-29T07:55:03Z</time>
      </trkpt>
      <trkpt lat="47.91796" lon="6.64338">
        <ele>742.8</ele>
        <time>2026-03-29T07:55:08Z</time>
      </trkpt>
      <trkpt lat="47.91802" lon="6.6434">
        <ele>742.4</ele>
        <time>2026-03-29T07:55:13Z</time>
      </trkpt>
      <trkpt lat="47.91803" lon="6.64339">
        <ele>742.8</ele>
        <time>2026-03-29T07:55:18Z</time>
      </trkpt>
      <trkpt lat="47.91803" lon="6.64338">
        <ele>743.1</ele>
        <time>2026-03-29T07:55:23Z</time>
      </trkpt>
      <trkpt lat="47.91803" lon="6.64338">
        <ele>743.1</ele>
        <time>2026-03-29T07:55:28Z</time>
      </trkpt>
      <trkpt lat="47.91803" lon="6.64338">
        <ele>743.1</ele>
        <time>2026-03-29T07:55:33Z</time>
      </trkpt>
      <trkpt lat="47.91804" lon="6.64332">
        <ele>744.8</ele>
        <time>2026-03-29T07:55:38Z</time>
      </trkpt>
      <trkpt lat="47.91802" lon="6.64334">
        <ele>744.3</ele>
        <time>2026-03-29T07:55:43Z</time>
      </trkpt>
      <trkpt lat="47.91802" lon="6.64336">
        <ele>743.7</ele>
        <time>2026-03-29T07:55:48Z</time>
      </trkpt>
      <trkpt lat="47.91802" lon="6.64336">
        <ele>743.7</ele>
        <time>2026-03-29T07:55:53Z</time>
      </trkpt>
      <trkpt lat="47.91806" lon="6.64342">
        <ele>742</ele>
        <time>2026-03-29T07:55:58Z</time>
      </trkpt>
      <trkpt lat="47.91811" lon="6.64345">
        <ele>741.3</ele>
        <time>2026-03-29T07:56:03Z</time>
      </trkpt>
      <trkpt lat="47.91815" lon="6.64346">
        <ele>741.2</ele>
        <time>2026-03-29T07:56:08Z</time>
      </trkpt>
      <trkpt lat="47.9182" lon="6.64347">
        <ele>741.1</ele>
        <time>2026-03-29T07:56:13Z</time>
      </trkpt>
      <trkpt lat="47.91825" lon="6.64346">
        <ele>741.7</ele>
        <time>2026-03-29T07:56:18Z</time>
      </trkpt>
      <trkpt lat="47.91832" lon="6.64345">
        <ele>742.3</ele>
        <time>2026-03-29T07:56:23Z</time>
      </trkpt>
      <trkpt lat="47.91837" lon="6.64343">
        <ele>742.5</ele>
        <time>2026-03-29T07:56:28Z</time>
      </trkpt>
      <trkpt lat="47.91837" lon="6.64343">
        <ele>742.5</ele>
        <time>2026-03-29T07:56:33Z</time>
      </trkpt>
      <trkpt lat="47.91837" lon="6.64342">
        <ele>742.8</ele>
        <time>2026-03-29T07:56:38Z</time>
      </trkpt>
      <trkpt lat="47.91837" lon="6.64342">
        <ele>742.8</ele>
        <time>2026-03-29T07:56:43Z</time>
      </trkpt>
      <trkpt lat="47.91837" lon="6.64342">
        <ele>742.8</ele>
        <time>2026-03-29T07:56:48Z</time>
      </trkpt>
      <trkpt lat="47.91837" lon="6.64342">
        <ele>742.8</ele>
        <time>2026-03-29T07:56:53Z</time>
      </trkpt>
      <trkpt lat="47.91837" lon="6.64342">
        <ele>742.8</ele>
        <time>2026-03-29T07:56:58Z</time>
      </trkpt>
      <trkpt lat="47.91837" lon="6.64342">
        <ele>742.8</ele>
        <time>2026-03-29T07:57:03Z</time>
      </trkpt>
      <trkpt lat="47.91837" lon="6.64342">
        <ele>742.8</ele>
        <time>2026-03-29T07:57:08Z</time>
      </trkpt>
      <trkpt lat="47.91837" lon="6.64342">
        <ele>742.8</ele>
        <time>2026-03-29T07:57:13Z</time>
      </trkpt>
      <trkpt lat="47.91837" lon="6.64342">
        <ele>742.8</ele>
        <time>2026-03-29T07:57:18Z</time>
      </trkpt>
      <trkpt lat="47.91837" lon="6.64342">
        <ele>742.8</ele>
        <time>2026-03-29T07:57:23Z</time>
      </trkpt>
      <trkpt lat="47.91837" lon="6.64342">
        <ele>742.8</ele>
        <time>2026-03-29T07:57:28Z</time>
      </trkpt>
      <trkpt lat="47.91837" lon="6.64342">
        <ele>742.8</ele>
        <time>2026-03-29T07:57:33Z</time>
      </trkpt>
      <trkpt lat="47.91837" lon="6.64342">
        <ele>742.8</ele>
        <time>2026-03-29T07:57:38Z</time>
      </trkpt>
      <trkpt lat="47.91837" lon="6.64342">
        <ele>742.8</ele>
        <time>2026-03-29T07:57:43Z</time>
      </trkpt>
      <trkpt lat="47.91837" lon="6.64342">
        <ele>742.8</ele>
        <time>2026-03-29T07:57:48Z</time>
      </trkpt>
      <trkpt lat="47.91837" lon="6.64342">
        <ele>742.8</ele>
        <time>2026-03-29T07:57:53Z</time>
      </trkpt>
      <trkpt lat="47.91837" lon="6.64342">
        <ele>742.8</ele>
        <time>2026-03-29T07:57:58Z</time>
      </trkpt>
      <trkpt lat="47.91837" lon="6.64342">
        <ele>742.8</ele>
        <time>2026-03-29T07:58:03Z</time>
      </trkpt>
      <trkpt lat="47.91837" lon="6.64342">
        <ele>742.8</ele>
        <time>2026-03-29T07:58:08Z</time>
      </trkpt>
      <trkpt lat="47.91839" lon="6.64341">
        <ele>742.9</ele>
        <time>2026-03-29T07:58:13Z</time>
      </trkpt>
      <trkpt lat="47.91839" lon="6.64341">
        <ele>742.9</ele>
        <time>2026-03-29T07:58:18Z</time>
      </trkpt>
      <trkpt lat="47.91843" lon="6.64344">
        <ele>741.5</ele>
        <time>2026-03-29T07:58:23Z</time>
      </trkpt>
      <trkpt lat="47.91851" lon="6.64346">
        <ele>739.9</ele>
        <time>2026-03-29T07:58:28Z</time>
      </trkpt>
      <trkpt lat="47.91859" lon="6.6435">
        <ele>737.8</ele>
        <time>2026-03-29T07:58:33Z</time>
      </trkpt>
      <trkpt lat="47.91864" lon="6.6435">
        <ele>737.3</ele>
        <time>2026-03-29T07:58:38Z</time>
      </trkpt>
      <trkpt lat="47.9187" lon="6.64353">
        <ele>735.8</ele>
        <time>2026-03-29T07:58:43Z</time>
      </trkpt>
      <trkpt lat="47.91878" lon="6.64348">
        <ele>736.2</ele>
        <time>2026-03-29T07:58:48Z</time>
      </trkpt>
      <trkpt lat="47.91882" lon="6.64344">
        <ele>736.8</ele>
        <time>2026-03-29T07:58:53Z</time>
      </trkpt>
      <trkpt lat="47.91886" lon="6.6434">
        <ele>737.3</ele>
        <time>2026-03-29T07:58:58Z</time>
      </trkpt>
      <trkpt lat="47.91891" lon="6.64331">
        <ele>739</ele>
        <time>2026-03-29T07:59:03Z</time>
      </trkpt>
      <trkpt lat="47.91896" lon="6.64319">
        <ele>741.4</ele>
        <time>2026-03-29T07:59:08Z</time>
      </trkpt>
      <trkpt lat="47.91904" lon="6.64313">
        <ele>742</ele>
        <time>2026-03-29T07:59:13Z</time>
      </trkpt>
      <trkpt lat="47.91912" lon="6.6431">
        <ele>741.9</ele>
        <time>2026-03-29T07:59:18Z</time>
      </trkpt>
      <trkpt lat="47.91919" lon="6.64311">
        <ele>740.9</ele>
        <time>2026-03-29T07:59:23Z</time>
      </trkpt>
      <trkpt lat="47.91926" lon="6.6431">
        <ele>740.2</ele>
        <time>2026-03-29T07:59:28Z</time>
      </trkpt>
      <trkpt lat="47.91933" lon="6.64309">
        <ele>739.6</ele>
        <time>2026-03-29T07:59:33Z</time>
      </trkpt>
      <trkpt lat="47.91939" lon="6.64308">
        <ele>739</ele>
        <time>2026-03-29T07:59:38Z</time>
      </trkpt>
      <trkpt lat="47.91945" lon="6.64306">
        <ele>738.8</ele>
        <time>2026-03-29T07:59:43Z</time>
      </trkpt>
      <trkpt lat="47.91952" lon="6.64305">
        <ele>738.2</ele>
        <time>2026-03-29T07:59:48Z</time>
      </trkpt>
      <trkpt lat="47.91961" lon="6.64305">
        <ele>737</ele>
        <time>2026-03-29T07:59:53Z</time>
      </trkpt>
      <trkpt lat="47.91969" lon="6.64306">
        <ele>735.6</ele>
        <time>2026-03-29T07:59:58Z</time>
      </trkpt>
      <trkpt lat="47.91975" lon="6.64308">
        <ele>734.3</ele>
        <time>2026-03-29T08:00:03Z</time>
      </trkpt>
      <trkpt lat="47.91976" lon="6.64306">
        <ele>734.7</ele>
        <time>2026-03-29T08:00:08Z</time>
      </trkpt>
      <trkpt lat="47.91975" lon="6.64302">
        <ele>735.9</ele>
        <time>2026-03-29T08:00:13Z</time>
      </trkpt>
      <trkpt lat="47.91974" lon="6.64301">
        <ele>736.4</ele>
        <time>2026-03-29T08:00:18Z</time>
      </trkpt>
      <trkpt lat="47.91974" lon="6.64301">
        <ele>736.4</ele>
        <time>2026-03-29T08:00:23Z</time>
      </trkpt>
      <trkpt lat="47.91977" lon="6.64304">
        <ele>735.1</ele>
        <time>2026-03-29T08:00:28Z</time>
      </trkpt>
      <trkpt lat="47.91981" lon="6.64305">
        <ele>734.3</ele>
        <time>2026-03-29T08:00:33Z</time>
      </trkpt>
      <trkpt lat="47.91987" lon="6.64305">
        <ele>733.5</ele>
        <time>2026-03-29T08:00:38Z</time>
      </trkpt>
      <trkpt lat="47.91991" lon="6.64306">
        <ele>732.7</ele>
        <time>2026-03-29T08:00:43Z</time>
      </trkpt>
      <trkpt lat="47.91995" lon="6.64308">
        <ele>731.7</ele>
        <time>2026-03-29T08:00:48Z</time>
      </trkpt>
      <trkpt lat="47.91995" lon="6.64314">
        <ele>730</ele>
        <time>2026-03-29T08:00:53Z</time>
      </trkpt>
      <trkpt lat="47.92002" lon="6.64324">
        <ele>726.3</ele>
        <time>2026-03-29T08:00:58Z</time>
      </trkpt>
      <trkpt lat="47.92009" lon="6.64326">
        <ele>725</ele>
        <time>2026-03-29T08:01:03Z</time>
      </trkpt>
      <trkpt lat="47.92018" lon="6.64326">
        <ele>723.9</ele>
        <time>2026-03-29T08:01:08Z</time>
      </trkpt>
      <trkpt lat="47.92021" lon="6.64328">
        <ele>723</ele>
        <time>2026-03-29T08:01:13Z</time>
      </trkpt>
      <trkpt lat="47.92026" lon="6.64328">
        <ele>722.4</ele>
        <time>2026-03-29T08:01:18Z</time>
      </trkpt>
      <trkpt lat="47.92028" lon="6.64329">
        <ele>721.9</ele>
        <time>2026-03-29T08:01:23Z</time>
      </trkpt>
      <trkpt lat="47.92032" lon="6.64329">
        <ele>721.4</ele>
        <time>2026-03-29T08:01:28Z</time>
      </trkpt>
      <trkpt lat="47.92037" lon="6.64329">
        <ele>720.8</ele>
        <time>2026-03-29T08:01:33Z</time>
      </trkpt>
      <trkpt lat="47.9204" lon="6.6433">
        <ele>720.2</ele>
        <time>2026-03-29T08:01:38Z</time>
      </trkpt>
      <trkpt lat="47.92043" lon="6.64332">
        <ele>719.2</ele>
        <time>2026-03-29T08:01:43Z</time>
      </trkpt>
      <trkpt lat="47.92044" lon="6.64337">
        <ele>717.7</ele>
        <time>2026-03-29T08:01:48Z</time>
      </trkpt>
      <trkpt lat="47.92044" lon="6.64338">
        <ele>717.4</ele>
        <time>2026-03-29T08:01:53Z</time>
      </trkpt>
      <trkpt lat="47.92044" lon="6.64338">
        <ele>717.4</ele>
        <time>2026-03-29T08:01:58Z</time>
      </trkpt>
      <trkpt lat="47.92044" lon="6.64338">
        <ele>717.4</ele>
        <time>2026-03-29T08:02:03Z</time>
      </trkpt>
      <trkpt lat="47.92044" lon="6.64338">
        <ele>717.4</ele>
        <time>2026-03-29T08:02:08Z</time>
      </trkpt>
      <trkpt lat="47.92044" lon="6.64338">
        <ele>717.4</ele>
        <time>2026-03-29T08:02:13Z</time>
      </trkpt>
      <trkpt lat="47.92044" lon="6.64338">
        <ele>717.4</ele>
        <time>2026-03-29T08:02:18Z</time>
      </trkpt>
      <trkpt lat="47.92044" lon="6.64338">
        <ele>717.4</ele>
        <time>2026-03-29T08:02:23Z</time>
      </trkpt>
      <trkpt lat="47.92044" lon="6.64338">
        <ele>717.4</ele>
        <time>2026-03-29T08:02:28Z</time>
      </trkpt>
      <trkpt lat="47.92047" lon="6.6434">
        <ele>716.4</ele>
        <time>2026-03-29T08:02:33Z</time>
      </trkpt>
      <trkpt lat="47.92047" lon="6.6434">
        <ele>716.4</ele>
        <time>2026-03-29T08:02:38Z</time>
      </trkpt>
      <trkpt lat="47.92047" lon="6.6434">
        <ele>716.4</ele>
        <time>2026-03-29T08:02:43Z</time>
      </trkpt>
      <trkpt lat="47.92047" lon="6.6434">
        <ele>716.4</ele>
        <time>2026-03-29T08:02:48Z</time>
      </trkpt>
      <trkpt lat="47.92047" lon="6.6434">
        <ele>716.4</ele>
        <time>2026-03-29T08:02:53Z</time>
      </trkpt>
      <trkpt lat="47.92055" lon="6.6435">
        <ele>712.3</ele>
        <time>2026-03-29T08:02:58Z</time>
      </trkpt>
      <trkpt lat="47.92058" lon="6.64354">
        <ele>710.7</ele>
        <time>2026-03-29T08:03:03Z</time>
      </trkpt>
      <trkpt lat="47.92061" lon="6.6436">
        <ele>708.4</ele>
        <time>2026-03-29T08:03:08Z</time>
      </trkpt>
      <trkpt lat="47.92065" lon="6.64365">
        <ele>706.2</ele>
        <time>2026-03-29T08:03:13Z</time>
      </trkpt>
      <trkpt lat="47.92069" lon="6.64367">
        <ele>705</ele>
        <time>2026-03-29T08:03:18Z</time>
      </trkpt>
      <trkpt lat="47.92074" lon="6.64373">
        <ele>702.2</ele>
        <time>2026-03-29T08:03:23Z</time>
      </trkpt>
      <trkpt lat="47.92079" lon="6.6438">
        <ele>699.1</ele>
        <time>2026-03-29T08:03:28Z</time>
      </trkpt>
      <trkpt lat="47.92082" lon="6.64387">
        <ele>696.2</ele>
        <time>2026-03-29T08:03:33Z</time>
      </trkpt>
      <trkpt lat="47.92087" lon="6.64394">
        <ele>693.8</ele>
        <time>2026-03-29T08:03:38Z</time>
      </trkpt>
      <trkpt lat="47.92093" lon="6.64397">
        <ele>692.9</ele>
        <time>2026-03-29T08:03:43Z</time>
      </trkpt>
      <trkpt lat="47.92097" lon="6.64401">
        <ele>691.7</ele>
        <time>2026-03-29T08:03:48Z</time>
      </trkpt>
      <trkpt lat="47.921" lon="6.64405">
        <ele>690.4</ele>
        <time>2026-03-29T08:03:53Z</time>
      </trkpt>
      <trkpt lat="47.92104" lon="6.64408">
        <ele>689.5</ele>
        <time>2026-03-29T08:03:58Z</time>
      </trkpt>
      <trkpt lat="47.92108" lon="6.64413">
        <ele>687.9</ele>
        <time>2026-03-29T08:04:03Z</time>
      </trkpt>
      <trkpt lat="47.92112" lon="6.6442">
        <ele>685.4</ele>
        <time>2026-03-29T08:04:08Z</time>
      </trkpt>
      <trkpt lat="47.92117" lon="6.64428">
        <ele>682.3</ele>
        <time>2026-03-29T08:04:13Z</time>
      </trkpt>
      <trkpt lat="47.92122" lon="6.64434">
        <ele>680</ele>
        <time>2026-03-29T08:04:18Z</time>
      </trkpt>
      <trkpt lat="47.92126" lon="6.6444">
        <ele>677.6</ele>
        <time>2026-03-29T08:04:23Z</time>
      </trkpt>
      <trkpt lat="47.92131" lon="6.64445">
        <ele>675.7</ele>
        <time>2026-03-29T08:04:28Z</time>
      </trkpt>
      <trkpt lat="47.92138" lon="6.64449">
        <ele>674.3</ele>
        <time>2026-03-29T08:04:33Z</time>
      </trkpt>
      <trkpt lat="47.92144" lon="6.64456">
        <ele>671.5</ele>
        <time>2026-03-29T08:04:38Z</time>
      </trkpt>
      <trkpt lat="47.92148" lon="6.64463">
        <ele>668.8</ele>
        <time>2026-03-29T08:04:43Z</time>
      </trkpt>
      <trkpt lat="47.92151" lon="6.64465">
        <ele>668</ele>
        <time>2026-03-29T08:04:48Z</time>
      </trkpt>
      <trkpt lat="47.92155" lon="6.64466">
        <ele>667.7</ele>
        <time>2026-03-29T08:04:53Z</time>
      </trkpt>
      <trkpt lat="47.92162" lon="6.64468">
        <ele>667</ele>
        <time>2026-03-29T08:04:58Z</time>
      </trkpt>
      <trkpt lat="47.92169" lon="6.64469">
        <ele>667.1</ele>
        <time>2026-03-29T08:05:03Z</time>
      </trkpt>
      <trkpt lat="47.92177" lon="6.64469">
        <ele>668.7</ele>
        <time>2026-03-29T08:05:08Z</time>
      </trkpt>
      <trkpt lat="47.92183" lon="6.6447">
        <ele>669.4</ele>
        <time>2026-03-29T08:05:13Z</time>
      </trkpt>
      <trkpt lat="47.92189" lon="6.64468">
        <ele>671.4</ele>
        <time>2026-03-29T08:05:18Z</time>
      </trkpt>
      <trkpt lat="47.92197" lon="6.64469">
        <ele>672.6</ele>
        <time>2026-03-29T08:05:23Z</time>
      </trkpt>
      <trkpt lat="47.92203" lon="6.64469">
        <ele>673.7</ele>
        <time>2026-03-29T08:05:28Z</time>
      </trkpt>
      <trkpt lat="47.92209" lon="6.64469">
        <ele>674.9</ele>
        <time>2026-03-29T08:05:33Z</time>
      </trkpt>
      <trkpt lat="47.92216" lon="6.64469">
        <ele>676.3</ele>
        <time>2026-03-29T08:05:38Z</time>
      </trkpt>
      <trkpt lat="47.92222" lon="6.64466">
        <ele>678.6</ele>
        <time>2026-03-29T08:05:43Z</time>
      </trkpt>
      <trkpt lat="47.92229" lon="6.64464">
        <ele>680.8</ele>
        <time>2026-03-29T08:05:48Z</time>
      </trkpt>
      <trkpt lat="47.92235" lon="6.64462">
        <ele>682.7</ele>
        <time>2026-03-29T08:05:53Z</time>
      </trkpt>
      <trkpt lat="47.92242" lon="6.64462">
        <ele>684</ele>
        <time>2026-03-29T08:05:58Z</time>
      </trkpt>
      <trkpt lat="47.92251" lon="6.64462">
        <ele>685.6</ele>
        <time>2026-03-29T08:06:03Z</time>
      </trkpt>
      <trkpt lat="47.92259" lon="6.64467">
        <ele>683.5</ele>
        <time>2026-03-29T08:06:08Z</time>
      </trkpt>
      <trkpt lat="47.92265" lon="6.64472">
        <ele>681.4</ele>
        <time>2026-03-29T08:06:13Z</time>
      </trkpt>
      <trkpt lat="47.9227" lon="6.64474">
        <ele>680.6</ele>
        <time>2026-03-29T08:06:18Z</time>
      </trkpt>
      <trkpt lat="47.92276" lon="6.64477">
        <ele>679.4</ele>
        <time>2026-03-29T08:06:23Z</time>
      </trkpt>
      <trkpt lat="47.92282" lon="6.64481">
        <ele>677.9</ele>
        <time>2026-03-29T08:06:28Z</time>
      </trkpt>
      <trkpt lat="47.92288" lon="6.64485">
        <ele>676.3</ele>
        <time>2026-03-29T08:06:33Z</time>
      </trkpt>
      <trkpt lat="47.92295" lon="6.64486">
        <ele>675.9</ele>
        <time>2026-03-29T08:06:38Z</time>
      </trkpt>
      <trkpt lat="47.92302" lon="6.6449">
        <ele>674.5</ele>
        <time>2026-03-29T08:06:43Z</time>
      </trkpt>
      <trkpt lat="47.9231" lon="6.64496">
        <ele>672.4</ele>
        <time>2026-03-29T08:06:48Z</time>
      </trkpt>
      <trkpt lat="47.92316" lon="6.64502">
        <ele>670.3</ele>
        <time>2026-03-29T08:06:53Z</time>
      </trkpt>
      <trkpt lat="47.92323" lon="6.64506">
        <ele>669</ele>
        <time>2026-03-29T08:06:58Z</time>
      </trkpt>
      <trkpt lat="47.9233" lon="6.64506">
        <ele>669</ele>
        <time>2026-03-29T08:07:03Z</time>
      </trkpt>
      <trkpt lat="47.92338" lon="6.64509">
        <ele>668.1</ele>
        <time>2026-03-29T08:07:08Z</time>
      </trkpt>
      <trkpt lat="47.92345" lon="6.64511">
        <ele>667.4</ele>
        <time>2026-03-29T08:07:13Z</time>
      </trkpt>
      <trkpt lat="47.9235" lon="6.64514">
        <ele>666.5</ele>
        <time>2026-03-29T08:07:18Z</time>
      </trkpt>
      <trkpt lat="47.92359" lon="6.64516">
        <ele>666</ele>
        <time>2026-03-29T08:07:23Z</time>
      </trkpt>
      <trkpt lat="47.92367" lon="6.64515">
        <ele>666.3</ele>
        <time>2026-03-29T08:07:28Z</time>
      </trkpt>
      <trkpt lat="47.92374" lon="6.64515">
        <ele>666.4</ele>
        <time>2026-03-29T08:07:33Z</time>
      </trkpt>
      <trkpt lat="47.9238" lon="6.64517">
        <ele>665.8</ele>
        <time>2026-03-29T08:07:38Z</time>
      </trkpt>
      <trkpt lat="47.92386" lon="6.64518">
        <ele>665.6</ele>
        <time>2026-03-29T08:07:43Z</time>
      </trkpt>
      <trkpt lat="47.92391" lon="6.6452">
        <ele>665.2</ele>
        <time>2026-03-29T08:07:48Z</time>
      </trkpt>
      <trkpt lat="47.92396" lon="6.64519">
        <ele>665.5</ele>
        <time>2026-03-29T08:07:53Z</time>
      </trkpt>
      <trkpt lat="47.92403" lon="6.64518">
        <ele>665.8</ele>
        <time>2026-03-29T08:07:58Z</time>
      </trkpt>
      <trkpt lat="47.9241" lon="6.64516">
        <ele>666.3</ele>
        <time>2026-03-29T08:08:03Z</time>
      </trkpt>
      <trkpt lat="47.92417" lon="6.64513">
        <ele>667</ele>
        <time>2026-03-29T08:08:08Z</time>
      </trkpt>
      <trkpt lat="47.92424" lon="6.64514">
        <ele>665.7</ele>
        <time>2026-03-29T08:08:13Z</time>
      </trkpt>
      <trkpt lat="47.92431" lon="6.64513">
        <ele>664.8</ele>
        <time>2026-03-29T08:08:18Z</time>
      </trkpt>
      <trkpt lat="47.92437" lon="6.64511">
        <ele>664.4</ele>
        <time>2026-03-29T08:08:23Z</time>
      </trkpt>
      <trkpt lat="47.92442" lon="6.64511">
        <ele>663.6</ele>
        <time>2026-03-29T08:08:28Z</time>
      </trkpt>
      <trkpt lat="47.92448" lon="6.64512">
        <ele>662.4</ele>
        <time>2026-03-29T08:08:33Z</time>
      </trkpt>
      <trkpt lat="47.92454" lon="6.64509">
        <ele>662.2</ele>
        <time>2026-03-29T08:08:38Z</time>
      </trkpt>
      <trkpt lat="47.92459" lon="6.64505">
        <ele>662.3</ele>
        <time>2026-03-29T08:08:43Z</time>
      </trkpt>
      <trkpt lat="47.92465" lon="6.64502">
        <ele>662</ele>
        <time>2026-03-29T08:08:48Z</time>
      </trkpt>
      <trkpt lat="47.92469" lon="6.645">
        <ele>661.8</ele>
        <time>2026-03-29T08:08:53Z</time>
      </trkpt>
      <trkpt lat="47.92474" lon="6.64501">
        <ele>660.8</ele>
        <time>2026-03-29T08:08:58Z</time>
      </trkpt>
      <trkpt lat="47.92474" lon="6.64502">
        <ele>660.6</ele>
        <time>2026-03-29T08:09:03Z</time>
      </trkpt>
      <trkpt lat="47.92475" lon="6.64501">
        <ele>660.7</ele>
        <time>2026-03-29T08:09:08Z</time>
      </trkpt>
      <trkpt lat="47.92475" lon="6.64501">
        <ele>660.7</ele>
        <time>2026-03-29T08:09:13Z</time>
      </trkpt>
      <trkpt lat="47.92475" lon="6.64501">
        <ele>660.7</ele>
        <time>2026-03-29T08:09:18Z</time>
      </trkpt>
      <trkpt lat="47.92475" lon="6.64501">
        <ele>660.7</ele>
        <time>2026-03-29T08:09:23Z</time>
      </trkpt>
      <trkpt lat="47.92477" lon="6.64499">
        <ele>660.8</ele>
        <time>2026-03-29T08:09:28Z</time>
      </trkpt>
      <trkpt lat="47.92488" lon="6.64503">
        <ele>658.2</ele>
        <time>2026-03-29T08:09:33Z</time>
      </trkpt>
      <trkpt lat="47.92493" lon="6.64504">
        <ele>657.2</ele>
        <time>2026-03-29T08:09:38Z</time>
      </trkpt>
      <trkpt lat="47.92496" lon="6.64501">
        <ele>657.4</ele>
        <time>2026-03-29T08:09:43Z</time>
      </trkpt>
      <trkpt lat="47.925" lon="6.64499">
        <ele>657.2</ele>
        <time>2026-03-29T08:09:48Z</time>
      </trkpt>
      <trkpt lat="47.92503" lon="6.64502">
        <ele>656</ele>
        <time>2026-03-29T08:09:53Z</time>
      </trkpt>
      <trkpt lat="47.92508" lon="6.64504">
        <ele>654.6</ele>
        <time>2026-03-29T08:09:58Z</time>
      </trkpt>
      <trkpt lat="47.92515" lon="6.64505">
        <ele>653</ele>
        <time>2026-03-29T08:10:03Z</time>
      </trkpt>
      <trkpt lat="47.92521" lon="6.64507">
        <ele>651.4</ele>
        <time>2026-03-29T08:10:08Z</time>
      </trkpt>
      <trkpt lat="47.92524" lon="6.6451">
        <ele>650.2</ele>
        <time>2026-03-29T08:10:13Z</time>
      </trkpt>
      <trkpt lat="47.92525" lon="6.64511">
        <ele>649.8</ele>
        <time>2026-03-29T08:10:18Z</time>
      </trkpt>
      <trkpt lat="47.92526" lon="6.64507">
        <ele>650.5</ele>
        <time>2026-03-29T08:10:23Z</time>
      </trkpt>
      <trkpt lat="47.9253" lon="6.64506">
        <ele>649.9</ele>
        <time>2026-03-29T08:10:28Z</time>
      </trkpt>
      <trkpt lat="47.92532" lon="6.64504">
        <ele>650</ele>
        <time>2026-03-29T08:10:33Z</time>
      </trkpt>
      <trkpt lat="47.92535" lon="6.64505">
        <ele>649.2</ele>
        <time>2026-03-29T08:10:38Z</time>
      </trkpt>
      <trkpt lat="47.92539" lon="6.64502">
        <ele>649.1</ele>
        <time>2026-03-29T08:10:43Z</time>
      </trkpt>
      <trkpt lat="47.92542" lon="6.64499">
        <ele>649.1</ele>
        <time>2026-03-29T08:10:48Z</time>
      </trkpt>
      <trkpt lat="47.92544" lon="6.64495">
        <ele>649.2</ele>
        <time>2026-03-29T08:10:53Z</time>
      </trkpt>
      <trkpt lat="47.92546" lon="6.6449">
        <ele>649.4</ele>
        <time>2026-03-29T08:10:58Z</time>
      </trkpt>
      <trkpt lat="47.92548" lon="6.64482">
        <ele>650</ele>
        <time>2026-03-29T08:11:03Z</time>
      </trkpt>
      <trkpt lat="47.92548" lon="6.64474">
        <ele>650.9</ele>
        <time>2026-03-29T08:11:08Z</time>
      </trkpt>
      <trkpt lat="47.92548" lon="6.64467">
        <ele>651.8</ele>
        <time>2026-03-29T08:11:13Z</time>
      </trkpt>
      <trkpt lat="47.92546" lon="6.64457">
        <ele>653.5</ele>
        <time>2026-03-29T08:11:18Z</time>
      </trkpt>
      <trkpt lat="47.92545" lon="6.6445">
        <ele>654.7</ele>
        <time>2026-03-29T08:11:23Z</time>
      </trkpt>
      <trkpt lat="47.92543" lon="6.64442">
        <ele>656.3</ele>
        <time>2026-03-29T08:11:28Z</time>
      </trkpt>
      <trkpt lat="47.92539" lon="6.64433">
        <ele>658.7</ele>
        <time>2026-03-29T08:11:33Z</time>
      </trkpt>
      <trkpt lat="47.92537" lon="6.64426">
        <ele>660.3</ele>
        <time>2026-03-29T08:11:38Z</time>
      </trkpt>
      <trkpt lat="47.92533" lon="6.64418">
        <ele>662.7</ele>
        <time>2026-03-29T08:11:43Z</time>
      </trkpt>
      <trkpt lat="47.9253" lon="6.6441">
        <ele>664.6</ele>
        <time>2026-03-29T08:11:48Z</time>
      </trkpt>
      <trkpt lat="47.92529" lon="6.64401">
        <ele>665.8</ele>
        <time>2026-03-29T08:11:53Z</time>
      </trkpt>
      <trkpt lat="47.92527" lon="6.64392">
        <ele>667.5</ele>
        <time>2026-03-29T08:11:58Z</time>
      </trkpt>
      <trkpt lat="47.92529" lon="6.64385">
        <ele>667.5</ele>
        <time>2026-03-29T08:12:03Z</time>
      </trkpt>
      <trkpt lat="47.9253" lon="6.6438">
        <ele>667.6</ele>
        <time>2026-03-29T08:12:08Z</time>
      </trkpt>
      <trkpt lat="47.92531" lon="6.64375">
        <ele>667.7</ele>
        <time>2026-03-29T08:12:13Z</time>
      </trkpt>
      <trkpt lat="47.92533" lon="6.64367">
        <ele>667.6</ele>
        <time>2026-03-29T08:12:18Z</time>
      </trkpt>
      <trkpt lat="47.92535" lon="6.64361">
        <ele>667.3</ele>
        <time>2026-03-29T08:12:23Z</time>
      </trkpt>
      <trkpt lat="47.92536" lon="6.64353">
        <ele>667.5</ele>
        <time>2026-03-29T08:12:28Z</time>
      </trkpt>
      <trkpt lat="47.92535" lon="6.64345">
        <ele>668.7</ele>
        <time>2026-03-29T08:12:33Z</time>
      </trkpt>
      <trkpt lat="47.92534" lon="6.64337">
        <ele>669.9</ele>
        <time>2026-03-29T08:12:38Z</time>
      </trkpt>
      <trkpt lat="47.92534" lon="6.6433">
        <ele>670.4</ele>
        <time>2026-03-29T08:12:43Z</time>
      </trkpt>
      <trkpt lat="47.92534" lon="6.64322">
        <ele>670.8</ele>
        <time>2026-03-29T08:12:48Z</time>
      </trkpt>
      <trkpt lat="47.92535" lon="6.64313">
        <ele>670.7</ele>
        <time>2026-03-29T08:12:53Z</time>
      </trkpt>
      <trkpt lat="47.92536" lon="6.64305">
        <ele>670.5</ele>
        <time>2026-03-29T08:12:58Z</time>
      </trkpt>
      <trkpt lat="47.92536" lon="6.64297">
        <ele>670.9</ele>
        <time>2026-03-29T08:13:03Z</time>
      </trkpt>
      <trkpt lat="47.92539" lon="6.6429">
        <ele>669.7</ele>
        <time>2026-03-29T08:13:08Z</time>
      </trkpt>
      <trkpt lat="47.92543" lon="6.64281">
        <ele>668</ele>
        <time>2026-03-29T08:13:13Z</time>
      </trkpt>
      <trkpt lat="47.92545" lon="6.64274">
        <ele>667.3</ele>
        <time>2026-03-29T08:13:18Z</time>
      </trkpt>
      <trkpt lat="47.92547" lon="6.64266">
        <ele>666.5</ele>
        <time>2026-03-29T08:13:23Z</time>
      </trkpt>
      <trkpt lat="47.9255" lon="6.64257">
        <ele>665.3</ele>
        <time>2026-03-29T08:13:28Z</time>
      </trkpt>
      <trkpt lat="47.92551" lon="6.64251">
        <ele>665</ele>
        <time>2026-03-29T08:13:33Z</time>
      </trkpt>
      <trkpt lat="47.9255" lon="6.64243">
        <ele>665.4</ele>
        <time>2026-03-29T08:13:38Z</time>
      </trkpt>
      <trkpt lat="47.9255" lon="6.64233">
        <ele>665</ele>
        <time>2026-03-29T08:13:43Z</time>
      </trkpt>
      <trkpt lat="47.9255" lon="6.64222">
        <ele>664.7</ele>
        <time>2026-03-29T08:13:48Z</time>
      </trkpt>
      <trkpt lat="47.92551" lon="6.64212">
        <ele>663.8</ele>
        <time>2026-03-29T08:13:53Z</time>
      </trkpt>
      <trkpt lat="47.92552" lon="6.64202">
        <ele>663</ele>
        <time>2026-03-29T08:13:58Z</time>
      </trkpt>
      <trkpt lat="47.92553" lon="6.64191">
        <ele>662.1</ele>
        <time>2026-03-29T08:14:03Z</time>
      </trkpt>
      <trkpt lat="47.92555" lon="6.64179">
        <ele>660.7</ele>
        <time>2026-03-29T08:14:08Z</time>
      </trkpt>
      <trkpt lat="47.92558" lon="6.64168">
        <ele>658.8</ele>
        <time>2026-03-29T08:14:13Z</time>
      </trkpt>
      <trkpt lat="47.92559" lon="6.64159">
        <ele>657.7</ele>
        <time>2026-03-29T08:14:18Z</time>
      </trkpt>
      <trkpt lat="47.92558" lon="6.6415">
        <ele>657.6</ele>
        <time>2026-03-29T08:14:23Z</time>
      </trkpt>
      <trkpt lat="47.92559" lon="6.64139">
        <ele>656.4</ele>
        <time>2026-03-29T08:14:28Z</time>
      </trkpt>
      <trkpt lat="47.92558" lon="6.64129">
        <ele>656.1</ele>
        <time>2026-03-29T08:14:33Z</time>
      </trkpt>
      <trkpt lat="47.9256" lon="6.6412">
        <ele>654.6</ele>
        <time>2026-03-29T08:14:38Z</time>
      </trkpt>
      <trkpt lat="47.92564" lon="6.64112">
        <ele>652.2</ele>
        <time>2026-03-29T08:14:43Z</time>
      </trkpt>
      <trkpt lat="47.92567" lon="6.64104">
        <ele>650.3</ele>
        <time>2026-03-29T08:14:48Z</time>
      </trkpt>
      <trkpt lat="47.9257" lon="6.64096">
        <ele>648.5</ele>
        <time>2026-03-29T08:14:53Z</time>
      </trkpt>
      <trkpt lat="47.92574" lon="6.64089">
        <ele>646.3</ele>
        <time>2026-03-29T08:14:58Z</time>
      </trkpt>
      <trkpt lat="47.92575" lon="6.64083">
        <ele>645.6</ele>
        <time>2026-03-29T08:15:03Z</time>
      </trkpt>
      <trkpt lat="47.92577" lon="6.64078">
        <ele>644.4</ele>
        <time>2026-03-29T08:15:08Z</time>
      </trkpt>
      <trkpt lat="47.92579" lon="6.64073">
        <ele>643.2</ele>
        <time>2026-03-29T08:15:13Z</time>
      </trkpt>
      <trkpt lat="47.92582" lon="6.64069">
        <ele>641.7</ele>
        <time>2026-03-29T08:15:18Z</time>
      </trkpt>
      <trkpt lat="47.92585" lon="6.64062">
        <ele>640.1</ele>
        <time>2026-03-29T08:15:23Z</time>
      </trkpt>
      <trkpt lat="47.92587" lon="6.64057">
        <ele>639.1</ele>
        <time>2026-03-29T08:15:28Z</time>
      </trkpt>
      <trkpt lat="47.92591" lon="6.64052">
        <ele>637.5</ele>
        <time>2026-03-29T08:15:33Z</time>
      </trkpt>
      <trkpt lat="47.92592" lon="6.64049">
        <ele>637</ele>
        <time>2026-03-29T08:15:38Z</time>
      </trkpt>
      <trkpt lat="47.92593" lon="6.64045">
        <ele>636.4</ele>
        <time>2026-03-29T08:15:43Z</time>
      </trkpt>
      <trkpt lat="47.92594" lon="6.64045">
        <ele>636.1</ele>
        <time>2026-03-29T08:15:48Z</time>
      </trkpt>
      <trkpt lat="47.92594" lon="6.64045">
        <ele>636.1</ele>
        <time>2026-03-29T08:15:53Z</time>
      </trkpt>
      <trkpt lat="47.92594" lon="6.64045">
        <ele>636.1</ele>
        <time>2026-03-29T08:15:58Z</time>
      </trkpt>
      <trkpt lat="47.92599" lon="6.64044">
        <ele>634.3</ele>
        <time>2026-03-29T08:16:03Z</time>
      </trkpt>
      <trkpt lat="47.92602" lon="6.64045">
        <ele>633.4</ele>
        <time>2026-03-29T08:16:08Z</time>
      </trkpt>
      <trkpt lat="47.92603" lon="6.64044">
        <ele>633</ele>
        <time>2026-03-29T08:16:13Z</time>
      </trkpt>
      <trkpt lat="47.92602" lon="6.64047">
        <ele>633.5</ele>
        <time>2026-03-29T08:16:18Z</time>
      </trkpt>
      <trkpt lat="47.92604" lon="6.64053">
        <ele>633</ele>
        <time>2026-03-29T08:16:23Z</time>
      </trkpt>
      <trkpt lat="47.92604" lon="6.64057">
        <ele>633.2</ele>
        <time>2026-03-29T08:16:28Z</time>
      </trkpt>
      <trkpt lat="47.92605" lon="6.64059">
        <ele>632.9</ele>
        <time>2026-03-29T08:16:33Z</time>
      </trkpt>
      <trkpt lat="47.92606" lon="6.64062">
        <ele>632.7</ele>
        <time>2026-03-29T08:16:38Z</time>
      </trkpt>
      <trkpt lat="47.92609" lon="6.64065">
        <ele>631.8</ele>
        <time>2026-03-29T08:16:43Z</time>
      </trkpt>
      <trkpt lat="47.92613" lon="6.64065">
        <ele>630.3</ele>
        <time>2026-03-29T08:16:48Z</time>
      </trkpt>
      <trkpt lat="47.92616" lon="6.64067">
        <ele>629.3</ele>
        <time>2026-03-29T08:16:53Z</time>
      </trkpt>
      <trkpt lat="47.92618" lon="6.64068">
        <ele>628.6</ele>
        <time>2026-03-29T08:16:58Z</time>
      </trkpt>
      <trkpt lat="47.92622" lon="6.64067">
        <ele>627.2</ele>
        <time>2026-03-29T08:17:03Z</time>
      </trkpt>
      <trkpt lat="47.92622" lon="6.64067">
        <ele>627.2</ele>
        <time>2026-03-29T08:17:08Z</time>
      </trkpt>
      <trkpt lat="47.92622" lon="6.64067">
        <ele>627.2</ele>
        <time>2026-03-29T08:17:13Z</time>
      </trkpt>
      <trkpt lat="47.92624" lon="6.64062">
        <ele>626.3</ele>
        <time>2026-03-29T08:17:18Z</time>
      </trkpt>
      <trkpt lat="47.92625" lon="6.64056">
        <ele>625.8</ele>
        <time>2026-03-29T08:17:23Z</time>
      </trkpt>
      <trkpt lat="47.92627" lon="6.64051">
        <ele>625</ele>
        <time>2026-03-29T08:17:28Z</time>
      </trkpt>
      <trkpt lat="47.92631" lon="6.64049">
        <ele>623.6</ele>
        <time>2026-03-29T08:17:33Z</time>
      </trkpt>
      <trkpt lat="47.92631" lon="6.6404">
        <ele>623.5</ele>
        <time>2026-03-29T08:17:38Z</time>
      </trkpt>
      <trkpt lat="47.92631" lon="6.64031">
        <ele>623.3</ele>
        <time>2026-03-29T08:17:43Z</time>
      </trkpt>
      <trkpt lat="47.9263" lon="6.6402">
        <ele>623.4</ele>
        <time>2026-03-29T08:17:48Z</time>
      </trkpt>
      <trkpt lat="47.92631" lon="6.64011">
        <ele>622.9</ele>
        <time>2026-03-29T08:17:53Z</time>
      </trkpt>
      <trkpt lat="47.92632" lon="6.63999">
        <ele>622.4</ele>
        <time>2026-03-29T08:17:58Z</time>
      </trkpt>
      <trkpt lat="47.92634" lon="6.63991">
        <ele>621.8</ele>
        <time>2026-03-29T08:18:03Z</time>
      </trkpt>
      <trkpt lat="47.92637" lon="6.63982">
        <ele>620.9</ele>
        <time>2026-03-29T08:18:08Z</time>
      </trkpt>
      <trkpt lat="47.92638" lon="6.63975">
        <ele>620.6</ele>
        <time>2026-03-29T08:18:13Z</time>
      </trkpt>
      <trkpt lat="47.9264" lon="6.63967">
        <ele>620</ele>
        <time>2026-03-29T08:18:18Z</time>
      </trkpt>
      <trkpt lat="47.92642" lon="6.6396">
        <ele>619.5</ele>
        <time>2026-03-29T08:18:23Z</time>
      </trkpt>
      <trkpt lat="47.92645" lon="6.63953">
        <ele>618.7</ele>
        <time>2026-03-29T08:18:28Z</time>
      </trkpt>
      <trkpt lat="47.92646" lon="6.63946">
        <ele>618.5</ele>
        <time>2026-03-29T08:18:33Z</time>
      </trkpt>
      <trkpt lat="47.9265" lon="6.63937">
        <ele>617.6</ele>
        <time>2026-03-29T08:18:38Z</time>
      </trkpt>
      <trkpt lat="47.92653" lon="6.63928">
        <ele>617</ele>
        <time>2026-03-29T08:18:43Z</time>
      </trkpt>
      <trkpt lat="47.92658" lon="6.6392">
        <ele>615.9</ele>
        <time>2026-03-29T08:18:48Z</time>
      </trkpt>
      <trkpt lat="47.92665" lon="6.63914">
        <ele>614.4</ele>
        <time>2026-03-29T08:18:53Z</time>
      </trkpt>
      <trkpt lat="47.92672" lon="6.6391">
        <ele>613.2</ele>
        <time>2026-03-29T08:18:58Z</time>
      </trkpt>
      <trkpt lat="47.92678" lon="6.63908">
        <ele>612.3</ele>
        <time>2026-03-29T08:19:03Z</time>
      </trkpt>
      <trkpt lat="47.92685" lon="6.63903">
        <ele>611.2</ele>
        <time>2026-03-29T08:19:08Z</time>
      </trkpt>
      <trkpt lat="47.92693" lon="6.63897">
        <ele>610.1</ele>
        <time>2026-03-29T08:19:13Z</time>
      </trkpt>
      <trkpt lat="47.92695" lon="6.63889">
        <ele>610</ele>
        <time>2026-03-29T08:19:18Z</time>
      </trkpt>
      <trkpt lat="47.92696" lon="6.63881">
        <ele>610.1</ele>
        <time>2026-03-29T08:19:23Z</time>
      </trkpt>
      <trkpt lat="47.92693" lon="6.63873">
        <ele>610.8</ele>
        <time>2026-03-29T08:19:28Z</time>
      </trkpt>
      <trkpt lat="47.9269" lon="6.63865">
        <ele>611.4</ele>
        <time>2026-03-29T08:19:33Z</time>
      </trkpt>
      <trkpt lat="47.92688" lon="6.63859">
        <ele>611.8</ele>
        <time>2026-03-29T08:19:38Z</time>
      </trkpt>
      <trkpt lat="47.92687" lon="6.63852">
        <ele>612.1</ele>
        <time>2026-03-29T08:19:43Z</time>
      </trkpt>
      <trkpt lat="47.92686" lon="6.63845">
        <ele>612.4</ele>
        <time>2026-03-29T08:19:48Z</time>
      </trkpt>
      <trkpt lat="47.92686" lon="6.63839">
        <ele>612.5</ele>
        <time>2026-03-29T08:19:53Z</time>
      </trkpt>
      <trkpt lat="47.92687" lon="6.63831">
        <ele>612.5</ele>
        <time>2026-03-29T08:19:58Z</time>
      </trkpt>
      <trkpt lat="47.92688" lon="6.63823">
        <ele>612.1</ele>
        <time>2026-03-29T08:20:03Z</time>
      </trkpt>
      <trkpt lat="47.9269" lon="6.63814">
        <ele>611.6</ele>
        <time>2026-03-29T08:20:08Z</time>
      </trkpt>
      <trkpt lat="47.92695" lon="6.63806">
        <ele>610.8</ele>
        <time>2026-03-29T08:20:13Z</time>
      </trkpt>
      <trkpt lat="47.927" lon="6.63799">
        <ele>610.2</ele>
        <time>2026-03-29T08:20:18Z</time>
      </trkpt>
      <trkpt lat="47.92702" lon="6.63798">
        <ele>610</ele>
        <time>2026-03-29T08:20:23Z</time>
      </trkpt>
      <trkpt lat="47.92704" lon="6.63796">
        <ele>609.7</ele>
        <time>2026-03-29T08:20:28Z</time>
      </trkpt>
      <trkpt lat="47.92707" lon="6.63796">
        <ele>609.5</ele>
        <time>2026-03-29T08:20:33Z</time>
      </trkpt>
      <trkpt lat="47.92712" lon="6.63791">
        <ele>608.9</ele>
        <time>2026-03-29T08:20:38Z</time>
      </trkpt>
      <trkpt lat="47.92717" lon="6.63783">
        <ele>608.4</ele>
        <time>2026-03-29T08:20:43Z</time>
      </trkpt>
      <trkpt lat="47.92721" lon="6.63776">
        <ele>608</ele>
        <time>2026-03-29T08:20:48Z</time>
      </trkpt>
      <trkpt lat="47.92724" lon="6.6377">
        <ele>607.7</ele>
        <time>2026-03-29T08:20:53Z</time>
      </trkpt>
      <trkpt lat="47.92727" lon="6.63762">
        <ele>607.4</ele>
        <time>2026-03-29T08:20:58Z</time>
      </trkpt>
      <trkpt lat="47.9273" lon="6.63756">
        <ele>607.2</ele>
        <time>2026-03-29T08:21:03Z</time>
      </trkpt>
      <trkpt lat="47.92737" lon="6.63749">
        <ele>606.8</ele>
        <time>2026-03-29T08:21:08Z</time>
      </trkpt>
      <trkpt lat="47.92742" lon="6.63746">
        <ele>606.8</ele>
        <time>2026-03-29T08:21:13Z</time>
      </trkpt>
      <trkpt lat="47.92742" lon="6.63746">
        <ele>606.8</ele>
        <time>2026-03-29T08:21:18Z</time>
      </trkpt>
      <trkpt lat="47.92742" lon="6.63746">
        <ele>606.8</ele>
        <time>2026-03-29T08:21:23Z</time>
      </trkpt>
      <trkpt lat="47.92742" lon="6.63746">
        <ele>606.8</ele>
        <time>2026-03-29T08:21:28Z</time>
      </trkpt>
      <trkpt lat="47.92742" lon="6.63746">
        <ele>606.8</ele>
        <time>2026-03-29T08:21:33Z</time>
      </trkpt>
      <trkpt lat="47.92744" lon="6.63752">
        <ele>606.3</ele>
        <time>2026-03-29T08:21:38Z</time>
      </trkpt>
      <trkpt lat="47.9275" lon="6.6376">
        <ele>605.9</ele>
        <time>2026-03-29T08:21:43Z</time>
      </trkpt>
      <trkpt lat="47.92757" lon="6.63765">
        <ele>606.2</ele>
        <time>2026-03-29T08:21:48Z</time>
      </trkpt>
      <trkpt lat="47.92765" lon="6.63765">
        <ele>606.7</ele>
        <time>2026-03-29T08:21:53Z</time>
      </trkpt>
      <trkpt lat="47.92769" lon="6.63761">
        <ele>607.1</ele>
        <time>2026-03-29T08:21:58Z</time>
      </trkpt>
      <trkpt lat="47.92773" lon="6.63754">
        <ele>607.7</ele>
        <time>2026-03-29T08:22:03Z</time>
      </trkpt>
      <trkpt lat="47.92775" lon="6.63752">
        <ele>608</ele>
        <time>2026-03-29T08:22:08Z</time>
      </trkpt>
      <trkpt lat="47.92775" lon="6.63752">
        <ele>608</ele>
        <time>2026-03-29T08:22:13Z</time>
      </trkpt>
      <trkpt lat="47.92779" lon="6.63748">
        <ele>608.7</ele>
        <time>2026-03-29T08:22:18Z</time>
      </trkpt>
      <trkpt lat="47.92782" lon="6.63743">
        <ele>609.5</ele>
        <time>2026-03-29T08:22:23Z</time>
      </trkpt>
      <trkpt lat="47.92786" lon="6.63738">
        <ele>610.4</ele>
        <time>2026-03-29T08:22:28Z</time>
      </trkpt>
      <trkpt lat="47.92791" lon="6.63734">
        <ele>611.4</ele>
        <time>2026-03-29T08:22:33Z</time>
      </trkpt>
      <trkpt lat="47.92794" lon="6.6373">
        <ele>612.1</ele>
        <time>2026-03-29T08:22:38Z</time>
      </trkpt>
      <trkpt lat="47.92798" lon="6.63727">
        <ele>612.9</ele>
        <time>2026-03-29T08:22:43Z</time>
      </trkpt>
      <trkpt lat="47.92804" lon="6.63726">
        <ele>613.7</ele>
        <time>2026-03-29T08:22:48Z</time>
      </trkpt>
      <trkpt lat="47.9281" lon="6.63731">
        <ele>613.6</ele>
        <time>2026-03-29T08:22:53Z</time>
      </trkpt>
      <trkpt lat="47.92814" lon="6.63739">
        <ele>612.9</ele>
        <time>2026-03-29T08:22:58Z</time>
      </trkpt>
      <trkpt lat="47.92817" lon="6.63743">
        <ele>612.6</ele>
        <time>2026-03-29T08:23:03Z</time>
      </trkpt>
      <trkpt lat="47.92821" lon="6.63745">
        <ele>612.7</ele>
        <time>2026-03-29T08:23:08Z</time>
      </trkpt>
      <trkpt lat="47.92826" lon="6.63745">
        <ele>613.1</ele>
        <time>2026-03-29T08:23:13Z</time>
      </trkpt>
      <trkpt lat="47.92832" lon="6.63748">
        <ele>613.2</ele>
        <time>2026-03-29T08:23:18Z</time>
      </trkpt>
      <trkpt lat="47.92839" lon="6.6375">
        <ele>613.1</ele>
        <time>2026-03-29T08:23:23Z</time>
      </trkpt>
      <trkpt lat="47.92843" lon="6.63757">
        <ele>611.8</ele>
        <time>2026-03-29T08:23:28Z</time>
      </trkpt>
      <trkpt lat="47.92844" lon="6.63767">
        <ele>610</ele>
        <time>2026-03-29T08:23:33Z</time>
      </trkpt>
      <trkpt lat="47.92847" lon="6.63777">
        <ele>608</ele>
        <time>2026-03-29T08:23:38Z</time>
      </trkpt>
      <trkpt lat="47.92852" lon="6.63782">
        <ele>606.8</ele>
        <time>2026-03-29T08:23:43Z</time>
      </trkpt>
      <trkpt lat="47.92858" lon="6.63786">
        <ele>605.7</ele>
        <time>2026-03-29T08:23:48Z</time>
      </trkpt>
      <trkpt lat="47.92866" lon="6.6379">
        <ele>604.4</ele>
        <time>2026-03-29T08:23:53Z</time>
      </trkpt>
      <trkpt lat="47.92873" lon="6.63792">
        <ele>603.5</ele>
        <time>2026-03-29T08:23:58Z</time>
      </trkpt>
      <trkpt lat="47.92878" lon="6.63794">
        <ele>602.7</ele>
        <time>2026-03-29T08:24:03Z</time>
      </trkpt>
      <trkpt lat="47.92884" lon="6.63795">
        <ele>602.1</ele>
        <time>2026-03-29T08:24:08Z</time>
      </trkpt>
      <trkpt lat="47.92891" lon="6.63795">
        <ele>601.6</ele>
        <time>2026-03-29T08:24:13Z</time>
      </trkpt>
      <trkpt lat="47.92897" lon="6.63797">
        <ele>600.7</ele>
        <time>2026-03-29T08:24:18Z</time>
      </trkpt>
      <trkpt lat="47.92904" lon="6.63798">
        <ele>599.9</ele>
        <time>2026-03-29T08:24:23Z</time>
      </trkpt>
      <trkpt lat="47.92911" lon="6.63803">
        <ele>597.9</ele>
        <time>2026-03-29T08:24:28Z</time>
      </trkpt>
      <trkpt lat="47.92916" lon="6.63808">
        <ele>596</ele>
        <time>2026-03-29T08:24:33Z</time>
      </trkpt>
      <trkpt lat="47.92922" lon="6.63813">
        <ele>594.9</ele>
        <time>2026-03-29T08:24:38Z</time>
      </trkpt>
      <trkpt lat="47.92929" lon="6.63816">
        <ele>594.7</ele>
        <time>2026-03-29T08:24:43Z</time>
      </trkpt>
      <trkpt lat="47.92935" lon="6.63818">
        <ele>594.7</ele>
        <time>2026-03-29T08:24:48Z</time>
      </trkpt>
      <trkpt lat="47.92941" lon="6.63822">
        <ele>594</ele>
        <time>2026-03-29T08:24:53Z</time>
      </trkpt>
      <trkpt lat="47.92947" lon="6.63823">
        <ele>594.3</ele>
        <time>2026-03-29T08:24:58Z</time>
      </trkpt>
      <trkpt lat="47.92953" lon="6.63826">
        <ele>593.9</ele>
        <time>2026-03-29T08:25:03Z</time>
      </trkpt>
      <trkpt lat="47.9296" lon="6.63827">
        <ele>594.3</ele>
        <time>2026-03-29T08:25:08Z</time>
      </trkpt>
      <trkpt lat="47.92966" lon="6.63828">
        <ele>594.5</ele>
        <time>2026-03-29T08:25:13Z</time>
      </trkpt>
      <trkpt lat="47.92971" lon="6.63828">
        <ele>595</ele>
        <time>2026-03-29T08:25:18Z</time>
      </trkpt>
      <trkpt lat="47.92977" lon="6.63828">
        <ele>595.6</ele>
        <time>2026-03-29T08:25:23Z</time>
      </trkpt>
      <trkpt lat="47.92983" lon="6.63832">
        <ele>594.8</ele>
        <time>2026-03-29T08:25:28Z</time>
      </trkpt>
      <trkpt lat="47.92988" lon="6.63837">
        <ele>594.1</ele>
        <time>2026-03-29T08:25:33Z</time>
      </trkpt>
      <trkpt lat="47.92994" lon="6.63843">
        <ele>593.4</ele>
        <time>2026-03-29T08:25:38Z</time>
      </trkpt>
      <trkpt lat="47.92999" lon="6.6385">
        <ele>592.3</ele>
        <time>2026-03-29T08:25:43Z</time>
      </trkpt>
      <trkpt lat="47.93005" lon="6.63855">
        <ele>592.2</ele>
        <time>2026-03-29T08:25:48Z</time>
      </trkpt>
      <trkpt lat="47.9301" lon="6.6386">
        <ele>592</ele>
        <time>2026-03-29T08:25:53Z</time>
      </trkpt>
      <trkpt lat="47.93015" lon="6.63864">
        <ele>591.9</ele>
        <time>2026-03-29T08:25:58Z</time>
      </trkpt>
      <trkpt lat="47.93018" lon="6.63865">
        <ele>592.2</ele>
        <time>2026-03-29T08:26:03Z</time>
      </trkpt>
      <trkpt lat="47.93021" lon="6.63865">
        <ele>592.7</ele>
        <time>2026-03-29T08:26:08Z</time>
      </trkpt>
      <trkpt lat="47.93026" lon="6.63865">
        <ele>593.6</ele>
        <time>2026-03-29T08:26:13Z</time>
      </trkpt>
      <trkpt lat="47.9303" lon="6.63864">
        <ele>594.5</ele>
        <time>2026-03-29T08:26:18Z</time>
      </trkpt>
      <trkpt lat="47.93035" lon="6.63861">
        <ele>596</ele>
        <time>2026-03-29T08:26:23Z</time>
      </trkpt>
      <trkpt lat="47.93038" lon="6.63862">
        <ele>596.3</ele>
        <time>2026-03-29T08:26:28Z</time>
      </trkpt>
      <trkpt lat="47.93041" lon="6.63862">
        <ele>596.8</ele>
        <time>2026-03-29T08:26:33Z</time>
      </trkpt>
      <trkpt lat="47.93043" lon="6.63861">
        <ele>597.4</ele>
        <time>2026-03-29T08:26:38Z</time>
      </trkpt>
      <trkpt lat="47.93047" lon="6.6386">
        <ele>598.3</ele>
        <time>2026-03-29T08:26:43Z</time>
      </trkpt>
      <trkpt lat="47.93051" lon="6.63858">
        <ele>599.5</ele>
        <time>2026-03-29T08:26:48Z</time>
      </trkpt>
      <trkpt lat="47.93054" lon="6.63858">
        <ele>600</ele>
        <time>2026-03-29T08:26:53Z</time>
      </trkpt>
      <trkpt lat="47.93056" lon="6.63856">
        <ele>600.8</ele>
        <time>2026-03-29T08:26:58Z</time>
      </trkpt>
      <trkpt lat="47.93059" lon="6.63851">
        <ele>602.5</ele>
        <time>2026-03-29T08:27:03Z</time>
      </trkpt>
      <trkpt lat="47.93063" lon="6.63847">
        <ele>604.1</ele>
        <time>2026-03-29T08:27:08Z</time>
      </trkpt>
      <trkpt lat="47.93067" lon="6.63843">
        <ele>605.8</ele>
        <time>2026-03-29T08:27:13Z</time>
      </trkpt>
      <trkpt lat="47.9307" lon="6.6384">
        <ele>607</ele>
        <time>2026-03-29T08:27:18Z</time>
      </trkpt>
      <trkpt lat="47.93073" lon="6.63838">
        <ele>608</ele>
        <time>2026-03-29T08:27:23Z</time>
      </trkpt>
      <trkpt lat="47.93075" lon="6.63835">
        <ele>609.1</ele>
        <time>2026-03-29T08:27:28Z</time>
      </trkpt>
      <trkpt lat="47.93077" lon="6.63833">
        <ele>610</ele>
        <time>2026-03-29T08:27:33Z</time>
      </trkpt>
      <trkpt lat="47.93079" lon="6.63828">
        <ele>611.8</ele>
        <time>2026-03-29T08:27:38Z</time>
      </trkpt>
      <trkpt lat="47.93083" lon="6.63824">
        <ele>613.7</ele>
        <time>2026-03-29T08:27:43Z</time>
      </trkpt>
      <trkpt lat="47.93084" lon="6.63818">
        <ele>615.7</ele>
        <time>2026-03-29T08:27:48Z</time>
      </trkpt>
      <trkpt lat="47.93085" lon="6.63814">
        <ele>617</ele>
        <time>2026-03-29T08:27:53Z</time>
      </trkpt>
      <trkpt lat="47.93085" lon="6.63809">
        <ele>618.5</ele>
        <time>2026-03-29T08:27:58Z</time>
      </trkpt>
      <trkpt lat="47.93086" lon="6.63803">
        <ele>620.3</ele>
        <time>2026-03-29T08:28:03Z</time>
      </trkpt>
      <trkpt lat="47.93088" lon="6.63796">
        <ele>622.5</ele>
        <time>2026-03-29T08:28:08Z</time>
      </trkpt>
      <trkpt lat="47.9309" lon="6.6379">
        <ele>624.3</ele>
        <time>2026-03-29T08:28:13Z</time>
      </trkpt>
      <trkpt lat="47.93091" lon="6.63785">
        <ele>625.8</ele>
        <time>2026-03-29T08:28:18Z</time>
      </trkpt>
      <trkpt lat="47.93091" lon="6.63785">
        <ele>625.8</ele>
        <time>2026-03-29T08:28:23Z</time>
      </trkpt>
      <trkpt lat="47.93091" lon="6.63785">
        <ele>625.8</ele>
        <time>2026-03-29T08:28:28Z</time>
      </trkpt>
      <trkpt lat="47.93091" lon="6.63785">
        <ele>625.8</ele>
        <time>2026-03-29T08:28:33Z</time>
      </trkpt>
      <trkpt lat="47.93091" lon="6.63785">
        <ele>625.8</ele>
        <time>2026-03-29T08:28:38Z</time>
      </trkpt>
      <trkpt lat="47.93091" lon="6.63785">
        <ele>625.8</ele>
        <time>2026-03-29T08:28:43Z</time>
      </trkpt>
      <trkpt lat="47.93091" lon="6.63785">
        <ele>625.8</ele>
        <time>2026-03-29T08:28:48Z</time>
      </trkpt>
      <trkpt lat="47.93086" lon="6.63784">
        <ele>625.9</ele>
        <time>2026-03-29T08:28:53Z</time>
      </trkpt>
      <trkpt lat="47.93083" lon="6.63779">
        <ele>627.3</ele>
        <time>2026-03-29T08:28:58Z</time>
      </trkpt>
      <trkpt lat="47.93086" lon="6.63771">
        <ele>629.7</ele>
        <time>2026-03-29T08:29:03Z</time>
      </trkpt>
      <trkpt lat="47.93092" lon="6.63761">
        <ele>632.5</ele>
        <time>2026-03-29T08:29:08Z</time>
      </trkpt>
      <trkpt lat="47.93097" lon="6.63755">
        <ele>634</ele>
        <time>2026-03-29T08:29:13Z</time>
      </trkpt>
      <trkpt lat="47.93097" lon="6.63748">
        <ele>635.9</ele>
        <time>2026-03-29T08:29:18Z</time>
      </trkpt>
      <trkpt lat="47.93094" lon="6.63738">
        <ele>638.8</ele>
        <time>2026-03-29T08:29:23Z</time>
      </trkpt>
      <trkpt lat="47.93092" lon="6.63728">
        <ele>641.8</ele>
        <time>2026-03-29T08:29:28Z</time>
      </trkpt>
      <trkpt lat="47.93091" lon="6.6372">
        <ele>644.2</ele>
        <time>2026-03-29T08:29:33Z</time>
      </trkpt>
      <trkpt lat="47.93091" lon="6.63709">
        <ele>647.4</ele>
        <time>2026-03-29T08:29:38Z</time>
      </trkpt>
      <trkpt lat="47.93091" lon="6.637">
        <ele>650</ele>
        <time>2026-03-29T08:29:43Z</time>
      </trkpt>
      <trkpt lat="47.93091" lon="6.63688">
        <ele>653.4</ele>
        <time>2026-03-29T08:29:48Z</time>
      </trkpt>
      <trkpt lat="47.9309" lon="6.63676">
        <ele>657.1</ele>
        <time>2026-03-29T08:29:53Z</time>
      </trkpt>
      <trkpt lat="47.93092" lon="6.63665">
        <ele>659.5</ele>
        <time>2026-03-29T08:29:58Z</time>
      </trkpt>
      <trkpt lat="47.93093" lon="6.63657">
        <ele>660.7</ele>
        <time>2026-03-29T08:30:03Z</time>
      </trkpt>
      <trkpt lat="47.93094" lon="6.63646">
        <ele>662.5</ele>
        <time>2026-03-29T08:30:08Z</time>
      </trkpt>
      <trkpt lat="47.93094" lon="6.63634">
        <ele>664.7</ele>
        <time>2026-03-29T08:30:13Z</time>
      </trkpt>
      <trkpt lat="47.93096" lon="6.63623">
        <ele>666</ele>
        <time>2026-03-29T08:30:18Z</time>
      </trkpt>
      <trkpt lat="47.93098" lon="6.63613">
        <ele>666.9</ele>
        <time>2026-03-29T08:30:23Z</time>
      </trkpt>
      <trkpt lat="47.93099" lon="6.63606">
        <ele>667.7</ele>
        <time>2026-03-29T08:30:28Z</time>
      </trkpt>
      <trkpt lat="47.931" lon="6.63599">
        <ele>668.5</ele>
        <time>2026-03-29T08:30:33Z</time>
      </trkpt>
      <trkpt lat="47.93101" lon="6.6359">
        <ele>669.5</ele>
        <time>2026-03-29T08:30:38Z</time>
      </trkpt>
      <trkpt lat="47.93104" lon="6.63581">
        <ele>669.5</ele>
        <time>2026-03-29T08:30:43Z</time>
      </trkpt>
      <trkpt lat="47.93105" lon="6.63572">
        <ele>670.3</ele>
        <time>2026-03-29T08:30:48Z</time>
      </trkpt>
      <trkpt lat="47.93106" lon="6.6356">
        <ele>671.7</ele>
        <time>2026-03-29T08:30:53Z</time>
      </trkpt>
      <trkpt lat="47.93105" lon="6.63547">
        <ele>674.3</ele>
        <time>2026-03-29T08:30:58Z</time>
      </trkpt>
      <trkpt lat="47.93106" lon="6.63535">
        <ele>675.6</ele>
        <time>2026-03-29T08:31:03Z</time>
      </trkpt>
      <trkpt lat="47.93107" lon="6.63526">
        <ele>676.4</ele>
        <time>2026-03-29T08:31:08Z</time>
      </trkpt>
      <trkpt lat="47.9311" lon="6.63515">
        <ele>676.2</ele>
        <time>2026-03-29T08:31:13Z</time>
      </trkpt>
      <trkpt lat="47.93113" lon="6.63506">
        <ele>675.5</ele>
        <time>2026-03-29T08:31:18Z</time>
      </trkpt>
      <trkpt lat="47.93116" lon="6.63496">
        <ele>674.8</ele>
        <time>2026-03-29T08:31:23Z</time>
      </trkpt>
      <trkpt lat="47.93118" lon="6.63488">
        <ele>674.3</ele>
        <time>2026-03-29T08:31:28Z</time>
      </trkpt>
      <trkpt lat="47.93122" lon="6.63481">
        <ele>672.4</ele>
        <time>2026-03-29T08:31:33Z</time>
      </trkpt>
      <trkpt lat="47.93124" lon="6.63472">
        <ele>672</ele>
        <time>2026-03-29T08:31:38Z</time>
      </trkpt>
      <trkpt lat="47.93127" lon="6.63462">
        <ele>671.1</ele>
        <time>2026-03-29T08:31:43Z</time>
      </trkpt>
      <trkpt lat="47.9313" lon="6.63455">
        <ele>670</ele>
        <time>2026-03-29T08:31:48Z</time>
      </trkpt>
      <trkpt lat="47.93131" lon="6.63448">
        <ele>670.1</ele>
        <time>2026-03-29T08:31:53Z</time>
      </trkpt>
      <trkpt lat="47.93133" lon="6.63441">
        <ele>669.6</ele>
        <time>2026-03-29T08:31:58Z</time>
      </trkpt>
      <trkpt lat="47.93133" lon="6.63434">
        <ele>670.3</ele>
        <time>2026-03-29T08:32:03Z</time>
      </trkpt>
      <trkpt lat="47.93134" lon="6.63424">
        <ele>670.8</ele>
        <time>2026-03-29T08:32:08Z</time>
      </trkpt>
      <trkpt lat="47.93136" lon="6.63418">
        <ele>670.3</ele>
        <time>2026-03-29T08:32:13Z</time>
      </trkpt>
      <trkpt lat="47.93137" lon="6.63415">
        <ele>670</ele>
        <time>2026-03-29T08:32:18Z</time>
      </trkpt>
      <trkpt lat="47.93144" lon="6.63404">
        <ele>667.4</ele>
        <time>2026-03-29T08:32:23Z</time>
      </trkpt>
      <trkpt lat="47.93153" lon="6.63392">
        <ele>664</ele>
        <time>2026-03-29T08:32:28Z</time>
      </trkpt>
      <trkpt lat="47.93156" lon="6.63386">
        <ele>663.2</ele>
        <time>2026-03-29T08:32:33Z</time>
      </trkpt>
      <trkpt lat="47.93157" lon="6.6338">
        <ele>663.6</ele>
        <time>2026-03-29T08:32:38Z</time>
      </trkpt>
      <trkpt lat="47.9316" lon="6.63373">
        <ele>663</ele>
        <time>2026-03-29T08:32:43Z</time>
      </trkpt>
      <trkpt lat="47.93161" lon="6.63365">
        <ele>663.8</ele>
        <time>2026-03-29T08:32:48Z</time>
      </trkpt>
      <trkpt lat="47.93165" lon="6.63359">
        <ele>662.6</ele>
        <time>2026-03-29T08:32:53Z</time>
      </trkpt>
      <trkpt lat="47.93171" lon="6.63354">
        <ele>660.7</ele>
        <time>2026-03-29T08:32:58Z</time>
      </trkpt>
      <trkpt lat="47.93173" lon="6.63348">
        <ele>660.9</ele>
        <time>2026-03-29T08:33:03Z</time>
      </trkpt>
      <trkpt lat="47.93174" lon="6.63342">
        <ele>661.5</ele>
        <time>2026-03-29T08:33:08Z</time>
      </trkpt>
      <trkpt lat="47.93177" lon="6.63334">
        <ele>661.7</ele>
        <time>2026-03-29T08:33:13Z</time>
      </trkpt>
      <trkpt lat="47.93182" lon="6.63327">
        <ele>661.2</ele>
        <time>2026-03-29T08:33:18Z</time>
      </trkpt>
      <trkpt lat="47.93183" lon="6.63322">
        <ele>662</ele>
        <time>2026-03-29T08:33:23Z</time>
      </trkpt>
      <trkpt lat="47.93183" lon="6.63315">
        <ele>663.6</ele>
        <time>2026-03-29T08:33:28Z</time>
      </trkpt>
      <trkpt lat="47.93184" lon="6.63307">
        <ele>665.1</ele>
        <time>2026-03-29T08:33:33Z</time>
      </trkpt>
      <trkpt lat="47.93186" lon="6.633">
        <ele>665.9</ele>
        <time>2026-03-29T08:33:38Z</time>
      </trkpt>
      <trkpt lat="47.93188" lon="6.63292">
        <ele>667</ele>
        <time>2026-03-29T08:33:43Z</time>
      </trkpt>
      <trkpt lat="47.9319" lon="6.63284">
        <ele>668</ele>
        <time>2026-03-29T08:33:48Z</time>
      </trkpt>
      <trkpt lat="47.9319" lon="6.63275">
        <ele>670.1</ele>
        <time>2026-03-29T08:33:53Z</time>
      </trkpt>
      <trkpt lat="47.93192" lon="6.63268">
        <ele>670.9</ele>
        <time>2026-03-29T08:33:58Z</time>
      </trkpt>
      <trkpt lat="47.93195" lon="6.63264">
        <ele>670.5</ele>
        <time>2026-03-29T08:34:03Z</time>
      </trkpt>
      <trkpt lat="47.93196" lon="6.63258">
        <ele>671.5</ele>
        <time>2026-03-29T08:34:08Z</time>
      </trkpt>
      <trkpt lat="47.93199" lon="6.63251">
        <ele>671.8</ele>
        <time>2026-03-29T08:34:13Z</time>
      </trkpt>
      <trkpt lat="47.93201" lon="6.63244">
        <ele>672.9</ele>
        <time>2026-03-29T08:34:18Z</time>
      </trkpt>
      <trkpt lat="47.93203" lon="6.63238">
        <ele>673.8</ele>
        <time>2026-03-29T08:34:23Z</time>
      </trkpt>
      <trkpt lat="47.93205" lon="6.63233">
        <ele>674.4</ele>
        <time>2026-03-29T08:34:28Z</time>
      </trkpt>
      <trkpt lat="47.93209" lon="6.63226">
        <ele>674.6</ele>
        <time>2026-03-29T08:34:33Z</time>
      </trkpt>
      <trkpt lat="47.93215" lon="6.63221">
        <ele>673.4</ele>
        <time>2026-03-29T08:34:38Z</time>
      </trkpt>
      <trkpt lat="47.9322" lon="6.63215">
        <ele>672.8</ele>
        <time>2026-03-29T08:34:43Z</time>
      </trkpt>
      <trkpt lat="47.93225" lon="6.63212">
        <ele>671.4</ele>
        <time>2026-03-29T08:34:48Z</time>
      </trkpt>
      <trkpt lat="47.93228" lon="6.63207">
        <ele>671.4</ele>
        <time>2026-03-29T08:34:53Z</time>
      </trkpt>
      <trkpt lat="47.93232" lon="6.63203">
        <ele>670.7</ele>
        <time>2026-03-29T08:34:58Z</time>
      </trkpt>
      <trkpt lat="47.93238" lon="6.63199">
        <ele>669</ele>
        <time>2026-03-29T08:35:03Z</time>
      </trkpt>
      <trkpt lat="47.93243" lon="6.63194">
        <ele>668</ele>
        <time>2026-03-29T08:35:08Z</time>
      </trkpt>
      <trkpt lat="47.93247" lon="6.63188">
        <ele>667.8</ele>
        <time>2026-03-29T08:35:13Z</time>
      </trkpt>
      <trkpt lat="47.9325" lon="6.6318">
        <ele>668.5</ele>
        <time>2026-03-29T08:35:18Z</time>
      </trkpt>
      <trkpt lat="47.93254" lon="6.63174">
        <ele>668.3</ele>
        <time>2026-03-29T08:35:23Z</time>
      </trkpt>
      <trkpt lat="47.9326" lon="6.63167">
        <ele>667.5</ele>
        <time>2026-03-29T08:35:28Z</time>
      </trkpt>
      <trkpt lat="47.93265" lon="6.63157">
        <ele>668.3</ele>
        <time>2026-03-29T08:35:33Z</time>
      </trkpt>
      <trkpt lat="47.93268" lon="6.63149">
        <ele>669.5</ele>
        <time>2026-03-29T08:35:38Z</time>
      </trkpt>
      <trkpt lat="47.93271" lon="6.63144">
        <ele>669.6</ele>
        <time>2026-03-29T08:35:43Z</time>
      </trkpt>
      <trkpt lat="47.93276" lon="6.63138">
        <ele>669.1</ele>
        <time>2026-03-29T08:35:48Z</time>
      </trkpt>
      <trkpt lat="47.93282" lon="6.63132">
        <ele>668.1</ele>
        <time>2026-03-29T08:35:53Z</time>
      </trkpt>
      <trkpt lat="47.93288" lon="6.63125">
        <ele>667.3</ele>
        <time>2026-03-29T08:35:58Z</time>
      </trkpt>
      <trkpt lat="47.93294" lon="6.63122">
        <ele>665.2</ele>
        <time>2026-03-29T08:36:03Z</time>
      </trkpt>
      <trkpt lat="47.93301" lon="6.63119">
        <ele>662.7</ele>
        <time>2026-03-29T08:36:08Z</time>
      </trkpt>
      <trkpt lat="47.93308" lon="6.63117">
        <ele>659.9</ele>
        <time>2026-03-29T08:36:13Z</time>
      </trkpt>
      <trkpt lat="47.93315" lon="6.63117">
        <ele>656.4</ele>
        <time>2026-03-29T08:36:18Z</time>
      </trkpt>
      <trkpt lat="47.93323" lon="6.63117">
        <ele>652.5</ele>
        <time>2026-03-29T08:36:23Z</time>
      </trkpt>
      <trkpt lat="47.9333" lon="6.63116">
        <ele>649.4</ele>
        <time>2026-03-29T08:36:28Z</time>
      </trkpt>
      <trkpt lat="47.93336" lon="6.63117">
        <ele>646.8</ele>
        <time>2026-03-29T08:36:33Z</time>
      </trkpt>
      <trkpt lat="47.93343" lon="6.63116">
        <ele>645.1</ele>
        <time>2026-03-29T08:36:38Z</time>
      </trkpt>
      <trkpt lat="47.9335" lon="6.63114">
        <ele>643.7</ele>
        <time>2026-03-29T08:36:43Z</time>
      </trkpt>
      <trkpt lat="47.93359" lon="6.63114">
        <ele>641.2</ele>
        <time>2026-03-29T08:36:48Z</time>
      </trkpt>
      <trkpt lat="47.93368" lon="6.63115">
        <ele>638.5</ele>
        <time>2026-03-29T08:36:53Z</time>
      </trkpt>
      <trkpt lat="47.93375" lon="6.63116">
        <ele>636.4</ele>
        <time>2026-03-29T08:36:58Z</time>
      </trkpt>
      <trkpt lat="47.93383" lon="6.63118">
        <ele>633.7</ele>
        <time>2026-03-29T08:37:03Z</time>
      </trkpt>
      <trkpt lat="47.93391" lon="6.63117">
        <ele>631.7</ele>
        <time>2026-03-29T08:37:08Z</time>
      </trkpt>
      <trkpt lat="47.93396" lon="6.63118">
        <ele>630.2</ele>
        <time>2026-03-29T08:37:13Z</time>
      </trkpt>
      <trkpt lat="47.93401" lon="6.63122">
        <ele>627.9</ele>
        <time>2026-03-29T08:37:18Z</time>
      </trkpt>
      <trkpt lat="47.93408" lon="6.63127">
        <ele>624.9</ele>
        <time>2026-03-29T08:37:23Z</time>
      </trkpt>
      <trkpt lat="47.93415" lon="6.63135">
        <ele>621.3</ele>
        <time>2026-03-29T08:37:28Z</time>
      </trkpt>
      <trkpt lat="47.93421" lon="6.63141">
        <ele>619.6</ele>
        <time>2026-03-29T08:37:33Z</time>
      </trkpt>
      <trkpt lat="47.93425" lon="6.63147">
        <ele>618.5</ele>
        <time>2026-03-29T08:37:38Z</time>
      </trkpt>
      <trkpt lat="47.93431" lon="6.63153">
        <ele>617.4</ele>
        <time>2026-03-29T08:37:43Z</time>
      </trkpt>
      <trkpt lat="47.93436" lon="6.63161">
        <ele>616</ele>
        <time>2026-03-29T08:37:48Z</time>
      </trkpt>
      <trkpt lat="47.93441" lon="6.63169">
        <ele>614.7</ele>
        <time>2026-03-29T08:37:53Z</time>
      </trkpt>
      <trkpt lat="47.93445" lon="6.63177">
        <ele>613.1</ele>
        <time>2026-03-29T08:37:58Z</time>
      </trkpt>
      <trkpt lat="47.93449" lon="6.63187">
        <ele>611.2</ele>
        <time>2026-03-29T08:38:03Z</time>
      </trkpt>
      <trkpt lat="47.93454" lon="6.63193">
        <ele>610.1</ele>
        <time>2026-03-29T08:38:08Z</time>
      </trkpt>
      <trkpt lat="47.93459" lon="6.632">
        <ele>608.8</ele>
        <time>2026-03-29T08:38:13Z</time>
      </trkpt>
      <trkpt lat="47.93464" lon="6.63206">
        <ele>607.8</ele>
        <time>2026-03-29T08:38:18Z</time>
      </trkpt>
      <trkpt lat="47.9347" lon="6.63212">
        <ele>606.8</ele>
        <time>2026-03-29T08:38:23Z</time>
      </trkpt>
      <trkpt lat="47.93474" lon="6.63215">
        <ele>606.3</ele>
        <time>2026-03-29T08:38:28Z</time>
      </trkpt>
      <trkpt lat="47.9348" lon="6.6322">
        <ele>605.5</ele>
        <time>2026-03-29T08:38:33Z</time>
      </trkpt>
      <trkpt lat="47.93487" lon="6.63227">
        <ele>604.3</ele>
        <time>2026-03-29T08:38:38Z</time>
      </trkpt>
      <trkpt lat="47.93491" lon="6.63232">
        <ele>603.5</ele>
        <time>2026-03-29T08:38:43Z</time>
      </trkpt>
      <trkpt lat="47.93497" lon="6.63236">
        <ele>602.9</ele>
        <time>2026-03-29T08:38:48Z</time>
      </trkpt>
      <trkpt lat="47.93502" lon="6.63241">
        <ele>602.1</ele>
        <time>2026-03-29T08:38:53Z</time>
      </trkpt>
      <trkpt lat="47.93509" lon="6.63244">
        <ele>602</ele>
        <time>2026-03-29T08:38:58Z</time>
      </trkpt>
      <trkpt lat="47.93515" lon="6.63247">
        <ele>601.9</ele>
        <time>2026-03-29T08:39:03Z</time>
      </trkpt>
      <trkpt lat="47.93523" lon="6.63246">
        <ele>602.8</ele>
        <time>2026-03-29T08:39:08Z</time>
      </trkpt>
      <trkpt lat="47.93527" lon="6.63241">
        <ele>604.1</ele>
        <time>2026-03-29T08:39:13Z</time>
      </trkpt>
      <trkpt lat="47.93532" lon="6.63234">
        <ele>606</ele>
        <time>2026-03-29T08:39:18Z</time>
      </trkpt>
      <trkpt lat="47.93539" lon="6.63227">
        <ele>608</ele>
        <time>2026-03-29T08:39:23Z</time>
      </trkpt>
      <trkpt lat="47.93542" lon="6.63217">
        <ele>610.3</ele>
        <time>2026-03-29T08:39:28Z</time>
      </trkpt>
      <trkpt lat="47.93544" lon="6.63207">
        <ele>612.4</ele>
        <time>2026-03-29T08:39:33Z</time>
      </trkpt>
      <trkpt lat="47.93543" lon="6.63196">
        <ele>614.6</ele>
        <time>2026-03-29T08:39:38Z</time>
      </trkpt>
      <trkpt lat="47.93541" lon="6.63189">
        <ele>615.9</ele>
        <time>2026-03-29T08:39:43Z</time>
      </trkpt>
      <trkpt lat="47.93538" lon="6.6318">
        <ele>617.5</ele>
        <time>2026-03-29T08:39:48Z</time>
      </trkpt>
      <trkpt lat="47.93536" lon="6.63169">
        <ele>619.7</ele>
        <time>2026-03-29T08:39:53Z</time>
      </trkpt>
      <trkpt lat="47.93537" lon="6.63159">
        <ele>620.7</ele>
        <time>2026-03-29T08:39:58Z</time>
      </trkpt>
      <trkpt lat="47.93539" lon="6.63148">
        <ele>621.4</ele>
        <time>2026-03-29T08:40:03Z</time>
      </trkpt>
      <trkpt lat="47.93542" lon="6.63139">
        <ele>622</ele>
        <time>2026-03-29T08:40:08Z</time>
      </trkpt>
      <trkpt lat="47.93545" lon="6.6313">
        <ele>622.5</ele>
        <time>2026-03-29T08:40:13Z</time>
      </trkpt>
      <trkpt lat="47.93547" lon="6.63121">
        <ele>622.9</ele>
        <time>2026-03-29T08:40:18Z</time>
      </trkpt>
      <trkpt lat="47.93549" lon="6.63111">
        <ele>623.3</ele>
        <time>2026-03-29T08:40:23Z</time>
      </trkpt>
      <trkpt lat="47.9355" lon="6.631">
        <ele>623.7</ele>
        <time>2026-03-29T08:40:28Z</time>
      </trkpt>
      <trkpt lat="47.93551" lon="6.63089">
        <ele>624.1</ele>
        <time>2026-03-29T08:40:33Z</time>
      </trkpt>
      <trkpt lat="47.93551" lon="6.63079">
        <ele>624.5</ele>
        <time>2026-03-29T08:40:38Z</time>
      </trkpt>
      <trkpt lat="47.9355" lon="6.63069">
        <ele>625</ele>
        <time>2026-03-29T08:40:43Z</time>
      </trkpt>
      <trkpt lat="47.9355" lon="6.6306">
        <ele>625.4</ele>
        <time>2026-03-29T08:40:48Z</time>
      </trkpt>
      <trkpt lat="47.93549" lon="6.63049">
        <ele>625.9</ele>
        <time>2026-03-29T08:40:53Z</time>
      </trkpt>
      <trkpt lat="47.9355" lon="6.63039">
        <ele>626.2</ele>
        <time>2026-03-29T08:40:58Z</time>
      </trkpt>
      <trkpt lat="47.93551" lon="6.6303">
        <ele>626.4</ele>
        <time>2026-03-29T08:41:03Z</time>
      </trkpt>
      <trkpt lat="47.93553" lon="6.63018">
        <ele>626.5</ele>
        <time>2026-03-29T08:41:08Z</time>
      </trkpt>
      <trkpt lat="47.93555" lon="6.63008">
        <ele>626.5</ele>
        <time>2026-03-29T08:41:13Z</time>
      </trkpt>
      <trkpt lat="47.93558" lon="6.62996">
        <ele>626.3</ele>
        <time>2026-03-29T08:41:18Z</time>
      </trkpt>
      <trkpt lat="47.93561" lon="6.62985">
        <ele>626.2</ele>
        <time>2026-03-29T08:41:23Z</time>
      </trkpt>
      <trkpt lat="47.93563" lon="6.62975">
        <ele>626.2</ele>
        <time>2026-03-29T08:41:28Z</time>
      </trkpt>
      <trkpt lat="47.93565" lon="6.62966">
        <ele>626.2</ele>
        <time>2026-03-29T08:41:33Z</time>
      </trkpt>
      <trkpt lat="47.93569" lon="6.62955">
        <ele>625.9</ele>
        <time>2026-03-29T08:41:38Z</time>
      </trkpt>
      <trkpt lat="47.93574" lon="6.62945">
        <ele>625.4</ele>
        <time>2026-03-29T08:41:43Z</time>
      </trkpt>
      <trkpt lat="47.93579" lon="6.62934">
        <ele>625</ele>
        <time>2026-03-29T08:41:48Z</time>
      </trkpt>
      <trkpt lat="47.93583" lon="6.62925">
        <ele>624.7</ele>
        <time>2026-03-29T08:41:53Z</time>
      </trkpt>
      <trkpt lat="47.93588" lon="6.62916">
        <ele>623.2</ele>
        <time>2026-03-29T08:41:58Z</time>
      </trkpt>
      <trkpt lat="47.93595" lon="6.62908">
        <ele>620.3</ele>
        <time>2026-03-29T08:42:03Z</time>
      </trkpt>
      <trkpt lat="47.93599" lon="6.62899">
        <ele>618.5</ele>
        <time>2026-03-29T08:42:08Z</time>
      </trkpt>
      <trkpt lat="47.93601" lon="6.62891">
        <ele>617.5</ele>
        <time>2026-03-29T08:42:13Z</time>
      </trkpt>
      <trkpt lat="47.93601" lon="6.6288">
        <ele>617</ele>
        <time>2026-03-29T08:42:18Z</time>
      </trkpt>
      <trkpt lat="47.93601" lon="6.6287">
        <ele>616.7</ele>
        <time>2026-03-29T08:42:23Z</time>
      </trkpt>
      <trkpt lat="47.93597" lon="6.62856">
        <ele>617.5</ele>
        <time>2026-03-29T08:42:28Z</time>
      </trkpt>
      <trkpt lat="47.93594" lon="6.62845">
        <ele>618</ele>
        <time>2026-03-29T08:42:33Z</time>
      </trkpt>
      <trkpt lat="47.93592" lon="6.62836">
        <ele>618.3</ele>
        <time>2026-03-29T08:42:38Z</time>
      </trkpt>
      <trkpt lat="47.93592" lon="6.62826">
        <ele>617.6</ele>
        <time>2026-03-29T08:42:43Z</time>
      </trkpt>
      <trkpt lat="47.93593" lon="6.62817">
        <ele>616.6</ele>
        <time>2026-03-29T08:42:48Z</time>
      </trkpt>
      <trkpt lat="47.93593" lon="6.62806">
        <ele>615.8</ele>
        <time>2026-03-29T08:42:53Z</time>
      </trkpt>
      <trkpt lat="47.93591" lon="6.62796">
        <ele>615.7</ele>
        <time>2026-03-29T08:42:58Z</time>
      </trkpt>
      <trkpt lat="47.93591" lon="6.62783">
        <ele>614.8</ele>
        <time>2026-03-29T08:43:03Z</time>
      </trkpt>
      <trkpt lat="47.93588" lon="6.62773">
        <ele>615.1</ele>
        <time>2026-03-29T08:43:08Z</time>
      </trkpt>
      <trkpt lat="47.93583" lon="6.62764">
        <ele>616.1</ele>
        <time>2026-03-29T08:43:13Z</time>
      </trkpt>
      <trkpt lat="47.93582" lon="6.62755">
        <ele>615.7</ele>
        <time>2026-03-29T08:43:18Z</time>
      </trkpt>
      <trkpt lat="47.93582" lon="6.6274">
        <ele>614.3</ele>
        <time>2026-03-29T08:43:23Z</time>
      </trkpt>
      <trkpt lat="47.93578" lon="6.62729">
        <ele>614.2</ele>
        <time>2026-03-29T08:43:28Z</time>
      </trkpt>
      <trkpt lat="47.93573" lon="6.6272">
        <ele>614.6</ele>
        <time>2026-03-29T08:43:33Z</time>
      </trkpt>
      <trkpt lat="47.93567" lon="6.62714">
        <ele>615.6</ele>
        <time>2026-03-29T08:43:38Z</time>
      </trkpt>
      <trkpt lat="47.93562" lon="6.62707">
        <ele>616.2</ele>
        <time>2026-03-29T08:43:43Z</time>
      </trkpt>
      <trkpt lat="47.93558" lon="6.62699">
        <ele>616.5</ele>
        <time>2026-03-29T08:43:48Z</time>
      </trkpt>
      <trkpt lat="47.93556" lon="6.62686">
        <ele>615.6</ele>
        <time>2026-03-29T08:43:53Z</time>
      </trkpt>
      <trkpt lat="47.93555" lon="6.62676">
        <ele>614.8</ele>
        <time>2026-03-29T08:43:58Z</time>
      </trkpt>
      <trkpt lat="47.93552" lon="6.62665">
        <ele>614.4</ele>
        <time>2026-03-29T08:44:03Z</time>
      </trkpt>
      <trkpt lat="47.9355" lon="6.62655">
        <ele>613.6</ele>
        <time>2026-03-29T08:44:08Z</time>
      </trkpt>
      <trkpt lat="47.93551" lon="6.62648">
        <ele>612.4</ele>
        <time>2026-03-29T08:44:13Z</time>
      </trkpt>
      <trkpt lat="47.93549" lon="6.62641">
        <ele>612</ele>
        <time>2026-03-29T08:44:18Z</time>
      </trkpt>
      <trkpt lat="47.93551" lon="6.62632">
        <ele>610.3</ele>
        <time>2026-03-29T08:44:23Z</time>
      </trkpt>
      <trkpt lat="47.93551" lon="6.62624">
        <ele>609.2</ele>
        <time>2026-03-29T08:44:28Z</time>
      </trkpt>
      <trkpt lat="47.93549" lon="6.62615">
        <ele>608.5</ele>
        <time>2026-03-29T08:44:33Z</time>
      </trkpt>
      <trkpt lat="47.93548" lon="6.62604">
        <ele>607.2</ele>
        <time>2026-03-29T08:44:38Z</time>
      </trkpt>
      <trkpt lat="47.93545" lon="6.62593">
        <ele>606.3</ele>
        <time>2026-03-29T08:44:43Z</time>
      </trkpt>
      <trkpt lat="47.93543" lon="6.62582">
        <ele>605.2</ele>
        <time>2026-03-29T08:44:48Z</time>
      </trkpt>
      <trkpt lat="47.93541" lon="6.62572">
        <ele>604.9</ele>
        <time>2026-03-29T08:44:53Z</time>
      </trkpt>
      <trkpt lat="47.93539" lon="6.62563">
        <ele>604.7</ele>
        <time>2026-03-29T08:44:58Z</time>
      </trkpt>
      <trkpt lat="47.93538" lon="6.62554">
        <ele>604.3</ele>
        <time>2026-03-29T08:45:03Z</time>
      </trkpt>
      <trkpt lat="47.93537" lon="6.62546">
        <ele>603.9</ele>
        <time>2026-03-29T08:45:08Z</time>
      </trkpt>
      <trkpt lat="47.93533" lon="6.62538">
        <ele>604</ele>
        <time>2026-03-29T08:45:13Z</time>
      </trkpt>
      <trkpt lat="47.93528" lon="6.62529">
        <ele>604.1</ele>
        <time>2026-03-29T08:45:18Z</time>
      </trkpt>
      <trkpt lat="47.93525" lon="6.62522">
        <ele>603.9</ele>
        <time>2026-03-29T08:45:23Z</time>
      </trkpt>
      <trkpt lat="47.93522" lon="6.62513">
        <ele>603.6</ele>
        <time>2026-03-29T08:45:28Z</time>
      </trkpt>
      <trkpt lat="47.9352" lon="6.62501">
        <ele>602.9</ele>
        <time>2026-03-29T08:45:33Z</time>
      </trkpt>
      <trkpt lat="47.93519" lon="6.62491">
        <ele>602.2</ele>
        <time>2026-03-29T08:45:38Z</time>
      </trkpt>
      <trkpt lat="47.93518" lon="6.6248">
        <ele>601.3</ele>
        <time>2026-03-29T08:45:43Z</time>
      </trkpt>
      <trkpt lat="47.93518" lon="6.6247">
        <ele>600.4</ele>
        <time>2026-03-29T08:45:48Z</time>
      </trkpt>
      <trkpt lat="47.9352" lon="6.62459">
        <ele>599.3</ele>
        <time>2026-03-29T08:45:53Z</time>
      </trkpt>
      <trkpt lat="47.93521" lon="6.62448">
        <ele>598.2</ele>
        <time>2026-03-29T08:45:58Z</time>
      </trkpt>
      <trkpt lat="47.93522" lon="6.62441">
        <ele>597.5</ele>
        <time>2026-03-29T08:46:03Z</time>
      </trkpt>
      <trkpt lat="47.93523" lon="6.62435">
        <ele>596.9</ele>
        <time>2026-03-29T08:46:08Z</time>
      </trkpt>
      <trkpt lat="47.93528" lon="6.62429">
        <ele>596</ele>
        <time>2026-03-29T08:46:13Z</time>
      </trkpt>
      <trkpt lat="47.93532" lon="6.62421">
        <ele>595.1</ele>
        <time>2026-03-29T08:46:18Z</time>
      </trkpt>
      <trkpt lat="47.93538" lon="6.62411">
        <ele>593.8</ele>
        <time>2026-03-29T08:46:23Z</time>
      </trkpt>
      <trkpt lat="47.93544" lon="6.62404">
        <ele>592.8</ele>
        <time>2026-03-29T08:46:28Z</time>
      </trkpt>
      <trkpt lat="47.9355" lon="6.62393">
        <ele>591.5</ele>
        <time>2026-03-29T08:46:33Z</time>
      </trkpt>
      <trkpt lat="47.93553" lon="6.62384">
        <ele>590.6</ele>
        <time>2026-03-29T08:46:38Z</time>
      </trkpt>
      <trkpt lat="47.93557" lon="6.62375">
        <ele>589.6</ele>
        <time>2026-03-29T08:46:43Z</time>
      </trkpt>
      <trkpt lat="47.93561" lon="6.62366">
        <ele>588.5</ele>
        <time>2026-03-29T08:46:48Z</time>
      </trkpt>
      <trkpt lat="47.93568" lon="6.62359">
        <ele>587.4</ele>
        <time>2026-03-29T08:46:53Z</time>
      </trkpt>
      <trkpt lat="47.93571" lon="6.62351">
        <ele>586.5</ele>
        <time>2026-03-29T08:46:58Z</time>
      </trkpt>
      <trkpt lat="47.93575" lon="6.62343">
        <ele>585.5</ele>
        <time>2026-03-29T08:47:03Z</time>
      </trkpt>
      <trkpt lat="47.9358" lon="6.62335">
        <ele>584.4</ele>
        <time>2026-03-29T08:47:08Z</time>
      </trkpt>
      <trkpt lat="47.93585" lon="6.62329">
        <ele>583.8</ele>
        <time>2026-03-29T08:47:13Z</time>
      </trkpt>
      <trkpt lat="47.93588" lon="6.62315">
        <ele>582.8</ele>
        <time>2026-03-29T08:47:18Z</time>
      </trkpt>
      <trkpt lat="47.93591" lon="6.62301">
        <ele>581.8</ele>
        <time>2026-03-29T08:47:23Z</time>
      </trkpt>
      <trkpt lat="47.93594" lon="6.62293">
        <ele>581.4</ele>
        <time>2026-03-29T08:47:28Z</time>
      </trkpt>
      <trkpt lat="47.93597" lon="6.62285">
        <ele>580.9</ele>
        <time>2026-03-29T08:47:33Z</time>
      </trkpt>
      <trkpt lat="47.93595" lon="6.62268">
        <ele>579.4</ele>
        <time>2026-03-29T08:47:38Z</time>
      </trkpt>
      <trkpt lat="47.93596" lon="6.62255">
        <ele>578.3</ele>
        <time>2026-03-29T08:47:43Z</time>
      </trkpt>
      <trkpt lat="47.93596" lon="6.62244">
        <ele>578</ele>
        <time>2026-03-29T08:47:48Z</time>
      </trkpt>
      <trkpt lat="47.93601" lon="6.62236">
        <ele>578.5</ele>
        <time>2026-03-29T08:47:53Z</time>
      </trkpt>
      <trkpt lat="47.93608" lon="6.62231">
        <ele>579.1</ele>
        <time>2026-03-29T08:47:58Z</time>
      </trkpt>
      <trkpt lat="47.93615" lon="6.62232">
        <ele>579.6</ele>
        <time>2026-03-29T08:48:03Z</time>
      </trkpt>
      <trkpt lat="47.93619" lon="6.62234">
        <ele>579.8</ele>
        <time>2026-03-29T08:48:08Z</time>
      </trkpt>
      <trkpt lat="47.93626" lon="6.62236">
        <ele>580.3</ele>
        <time>2026-03-29T08:48:13Z</time>
      </trkpt>
      <trkpt lat="47.93633" lon="6.62238">
        <ele>580.8</ele>
        <time>2026-03-29T08:48:18Z</time>
      </trkpt>
      <trkpt lat="47.93637" lon="6.62242">
        <ele>581</ele>
        <time>2026-03-29T08:48:23Z</time>
      </trkpt>
      <trkpt lat="47.93642" lon="6.62246">
        <ele>581.3</ele>
        <time>2026-03-29T08:48:28Z</time>
      </trkpt>
      <trkpt lat="47.93647" lon="6.62248">
        <ele>581.6</ele>
        <time>2026-03-29T08:48:33Z</time>
      </trkpt>
      <trkpt lat="47.93652" lon="6.62247">
        <ele>582</ele>
        <time>2026-03-29T08:48:38Z</time>
      </trkpt>
      <trkpt lat="47.93656" lon="6.62241">
        <ele>582.4</ele>
        <time>2026-03-29T08:48:43Z</time>
      </trkpt>
      <trkpt lat="47.9366" lon="6.62234">
        <ele>582.9</ele>
        <time>2026-03-29T08:48:48Z</time>
      </trkpt>
      <trkpt lat="47.93664" lon="6.62226">
        <ele>583.4</ele>
        <time>2026-03-29T08:48:53Z</time>
      </trkpt>
      <trkpt lat="47.93666" lon="6.62221">
        <ele>583.6</ele>
        <time>2026-03-29T08:48:58Z</time>
      </trkpt>
      <trkpt lat="47.9367" lon="6.6222">
        <ele>584.2</ele>
        <time>2026-03-29T08:49:03Z</time>
      </trkpt>
      <trkpt lat="47.93675" lon="6.62218">
        <ele>584.9</ele>
        <time>2026-03-29T08:49:08Z</time>
      </trkpt>
      <trkpt lat="47.93681" lon="6.62214">
        <ele>585.8</ele>
        <time>2026-03-29T08:49:13Z</time>
      </trkpt>
      <trkpt lat="47.93686" lon="6.62208">
        <ele>586.7</ele>
        <time>2026-03-29T08:49:18Z</time>
      </trkpt>
      <trkpt lat="47.93688" lon="6.62202">
        <ele>587.2</ele>
        <time>2026-03-29T08:49:23Z</time>
      </trkpt>
      <trkpt lat="47.93693" lon="6.62196">
        <ele>588.1</ele>
        <time>2026-03-29T08:49:28Z</time>
      </trkpt>
      <trkpt lat="47.93697" lon="6.62191">
        <ele>588.8</ele>
        <time>2026-03-29T08:49:33Z</time>
      </trkpt>
      <trkpt lat="47.93699" lon="6.62187">
        <ele>589.3</ele>
        <time>2026-03-29T08:49:38Z</time>
      </trkpt>
      <trkpt lat="47.93702" lon="6.62182">
        <ele>589.9</ele>
        <time>2026-03-29T08:49:43Z</time>
      </trkpt>
      <trkpt lat="47.93706" lon="6.62174">
        <ele>590.8</ele>
        <time>2026-03-29T08:49:48Z</time>
      </trkpt>
      <trkpt lat="47.93712" lon="6.6217">
        <ele>591.9</ele>
        <time>2026-03-29T08:49:53Z</time>
      </trkpt>
      <trkpt lat="47.93718" lon="6.62166">
        <ele>593.1</ele>
        <time>2026-03-29T08:49:58Z</time>
      </trkpt>
      <trkpt lat="47.93724" lon="6.62162">
        <ele>594.3</ele>
        <time>2026-03-29T08:50:03Z</time>
      </trkpt>
      <trkpt lat="47.93728" lon="6.62163">
        <ele>594.9</ele>
        <time>2026-03-29T08:50:08Z</time>
      </trkpt>
      <trkpt lat="47.93735" lon="6.62163">
        <ele>596</ele>
        <time>2026-03-29T08:50:13Z</time>
      </trkpt>
      <trkpt lat="47.9374" lon="6.62163">
        <ele>596.7</ele>
        <time>2026-03-29T08:50:18Z</time>
      </trkpt>
      <trkpt lat="47.93744" lon="6.62166">
        <ele>597.1</ele>
        <time>2026-03-29T08:50:23Z</time>
      </trkpt>
      <trkpt lat="47.93749" lon="6.6217">
        <ele>597.6</ele>
        <time>2026-03-29T08:50:28Z</time>
      </trkpt>
      <trkpt lat="47.93756" lon="6.6217">
        <ele>598.2</ele>
        <time>2026-03-29T08:50:33Z</time>
      </trkpt>
      <trkpt lat="47.93762" lon="6.62173">
        <ele>598.3</ele>
        <time>2026-03-29T08:50:38Z</time>
      </trkpt>
      <trkpt lat="47.93768" lon="6.62175">
        <ele>598.6</ele>
        <time>2026-03-29T08:50:43Z</time>
      </trkpt>
      <trkpt lat="47.93773" lon="6.62172">
        <ele>599</ele>
        <time>2026-03-29T08:50:48Z</time>
      </trkpt>
      <trkpt lat="47.93781" lon="6.62169">
        <ele>599.7</ele>
        <time>2026-03-29T08:50:53Z</time>
      </trkpt>
      <trkpt lat="47.93785" lon="6.62165">
        <ele>600.3</ele>
        <time>2026-03-29T08:50:58Z</time>
      </trkpt>
      <trkpt lat="47.93791" lon="6.62164">
        <ele>600.7</ele>
        <time>2026-03-29T08:51:03Z</time>
      </trkpt>
      <trkpt lat="47.93797" lon="6.62166">
        <ele>600.9</ele>
        <time>2026-03-29T08:51:08Z</time>
      </trkpt>
      <trkpt lat="47.93804" lon="6.62169">
        <ele>601.1</ele>
        <time>2026-03-29T08:51:13Z</time>
      </trkpt>
      <trkpt lat="47.93809" lon="6.62169">
        <ele>601.4</ele>
        <time>2026-03-29T08:51:18Z</time>
      </trkpt>
      <trkpt lat="47.93815" lon="6.6217">
        <ele>601.7</ele>
        <time>2026-03-29T08:51:23Z</time>
      </trkpt>
      <trkpt lat="47.93821" lon="6.62172">
        <ele>601.9</ele>
        <time>2026-03-29T08:51:28Z</time>
      </trkpt>
      <trkpt lat="47.93826" lon="6.62173">
        <ele>602.1</ele>
        <time>2026-03-29T08:51:33Z</time>
      </trkpt>
      <trkpt lat="47.93832" lon="6.62175">
        <ele>602.3</ele>
        <time>2026-03-29T08:51:38Z</time>
      </trkpt>
      <trkpt lat="47.93838" lon="6.62176">
        <ele>602.7</ele>
        <time>2026-03-29T08:51:43Z</time>
      </trkpt>
      <trkpt lat="47.93845" lon="6.62178">
        <ele>603.1</ele>
        <time>2026-03-29T08:51:48Z</time>
      </trkpt>
      <trkpt lat="47.93851" lon="6.6218">
        <ele>603.4</ele>
        <time>2026-03-29T08:51:53Z</time>
      </trkpt>
      <trkpt lat="47.93857" lon="6.62182">
        <ele>603.6</ele>
        <time>2026-03-29T08:51:58Z</time>
      </trkpt>
      <trkpt lat="47.93863" lon="6.62185">
        <ele>603.8</ele>
        <time>2026-03-29T08:52:03Z</time>
      </trkpt>
      <trkpt lat="47.93869" lon="6.62188">
        <ele>603.9</ele>
        <time>2026-03-29T08:52:08Z</time>
      </trkpt>
      <trkpt lat="47.93874" lon="6.6219">
        <ele>604.1</ele>
        <time>2026-03-29T08:52:13Z</time>
      </trkpt>
      <trkpt lat="47.93879" lon="6.62193">
        <ele>604.1</ele>
        <time>2026-03-29T08:52:18Z</time>
      </trkpt>
      <trkpt lat="47.93884" lon="6.62196">
        <ele>604.1</ele>
        <time>2026-03-29T08:52:23Z</time>
      </trkpt>
      <trkpt lat="47.9389" lon="6.62198">
        <ele>604.2</ele>
        <time>2026-03-29T08:52:28Z</time>
      </trkpt>
      <trkpt lat="47.93895" lon="6.62201">
        <ele>604.2</ele>
        <time>2026-03-29T08:52:33Z</time>
      </trkpt>
      <trkpt lat="47.939" lon="6.62201">
        <ele>604.5</ele>
        <time>2026-03-29T08:52:38Z</time>
      </trkpt>
      <trkpt lat="47.93905" lon="6.62203">
        <ele>604.5</ele>
        <time>2026-03-29T08:52:43Z</time>
      </trkpt>
      <trkpt lat="47.93912" lon="6.62207">
        <ele>604.4</ele>
        <time>2026-03-29T08:52:48Z</time>
      </trkpt>
      <trkpt lat="47.93917" lon="6.62211">
        <ele>604.2</ele>
        <time>2026-03-29T08:52:53Z</time>
      </trkpt>
      <trkpt lat="47.93924" lon="6.62214">
        <ele>604.4</ele>
        <time>2026-03-29T08:52:58Z</time>
      </trkpt>
      <trkpt lat="47.93929" lon="6.62217">
        <ele>604.4</ele>
        <time>2026-03-29T08:53:03Z</time>
      </trkpt>
      <trkpt lat="47.93935" lon="6.62221">
        <ele>604.3</ele>
        <time>2026-03-29T08:53:08Z</time>
      </trkpt>
      <trkpt lat="47.93942" lon="6.62227">
        <ele>604</ele>
        <time>2026-03-29T08:53:13Z</time>
      </trkpt>
      <trkpt lat="47.93947" lon="6.62232">
        <ele>603.7</ele>
        <time>2026-03-29T08:53:18Z</time>
      </trkpt>
      <trkpt lat="47.93952" lon="6.62237">
        <ele>603.4</ele>
        <time>2026-03-29T08:53:23Z</time>
      </trkpt>
      <trkpt lat="47.93957" lon="6.62242">
        <ele>603.1</ele>
        <time>2026-03-29T08:53:28Z</time>
      </trkpt>
      <trkpt lat="47.93962" lon="6.62247">
        <ele>602.7</ele>
        <time>2026-03-29T08:53:33Z</time>
      </trkpt>
      <trkpt lat="47.93967" lon="6.62254">
        <ele>602.2</ele>
        <time>2026-03-29T08:53:38Z</time>
      </trkpt>
      <trkpt lat="47.93972" lon="6.62261">
        <ele>601.8</ele>
        <time>2026-03-29T08:53:43Z</time>
      </trkpt>
      <trkpt lat="47.93979" lon="6.62263">
        <ele>602.2</ele>
        <time>2026-03-29T08:53:48Z</time>
      </trkpt>
      <trkpt lat="47.93984" lon="6.62267">
        <ele>602.1</ele>
        <time>2026-03-29T08:53:53Z</time>
      </trkpt>
      <trkpt lat="47.93988" lon="6.62271">
        <ele>602</ele>
        <time>2026-03-29T08:53:58Z</time>
      </trkpt>
      <trkpt lat="47.93993" lon="6.62273">
        <ele>602.2</ele>
        <time>2026-03-29T08:54:03Z</time>
      </trkpt>
      <trkpt lat="47.93998" lon="6.62277">
        <ele>602.2</ele>
        <time>2026-03-29T08:54:08Z</time>
      </trkpt>
      <trkpt lat="47.94002" lon="6.62283">
        <ele>602.4</ele>
        <time>2026-03-29T08:54:13Z</time>
      </trkpt>
      <trkpt lat="47.94004" lon="6.62289">
        <ele>602.4</ele>
        <time>2026-03-29T08:54:18Z</time>
      </trkpt>
      <trkpt lat="47.94007" lon="6.62294">
        <ele>602.8</ele>
        <time>2026-03-29T08:54:23Z</time>
      </trkpt>
      <trkpt lat="47.94009" lon="6.623">
        <ele>602.8</ele>
        <time>2026-03-29T08:54:28Z</time>
      </trkpt>
      <trkpt lat="47.94012" lon="6.62308">
        <ele>602.9</ele>
        <time>2026-03-29T08:54:33Z</time>
      </trkpt>
      <trkpt lat="47.94015" lon="6.62316">
        <ele>603</ele>
        <time>2026-03-29T08:54:38Z</time>
      </trkpt>
      <trkpt lat="47.94018" lon="6.62323">
        <ele>603.2</ele>
        <time>2026-03-29T08:54:43Z</time>
      </trkpt>
      <trkpt lat="47.94022" lon="6.6233">
        <ele>603.7</ele>
        <time>2026-03-29T08:54:48Z</time>
      </trkpt>
      <trkpt lat="47.94026" lon="6.62337">
        <ele>603.8</ele>
        <time>2026-03-29T08:54:53Z</time>
      </trkpt>
      <trkpt lat="47.9403" lon="6.62341">
        <ele>604.1</ele>
        <time>2026-03-29T08:54:58Z</time>
      </trkpt>
      <trkpt lat="47.94034" lon="6.62347">
        <ele>604.1</ele>
        <time>2026-03-29T08:55:03Z</time>
      </trkpt>
      <trkpt lat="47.94038" lon="6.6235">
        <ele>604.6</ele>
        <time>2026-03-29T08:55:08Z</time>
      </trkpt>
      <trkpt lat="47.94043" lon="6.62355">
        <ele>604.9</ele>
        <time>2026-03-29T08:55:13Z</time>
      </trkpt>
      <trkpt lat="47.94048" lon="6.62356">
        <ele>606.1</ele>
        <time>2026-03-29T08:55:18Z</time>
      </trkpt>
      <trkpt lat="47.94053" lon="6.62359">
        <ele>606.9</ele>
        <time>2026-03-29T08:55:23Z</time>
      </trkpt>
      <trkpt lat="47.94058" lon="6.62359">
        <ele>608.2</ele>
        <time>2026-03-29T08:55:28Z</time>
      </trkpt>
      <trkpt lat="47.94063" lon="6.62359">
        <ele>609.6</ele>
        <time>2026-03-29T08:55:33Z</time>
      </trkpt>
      <trkpt lat="47.94067" lon="6.62361">
        <ele>610.2</ele>
        <time>2026-03-29T08:55:38Z</time>
      </trkpt>
      <trkpt lat="47.94072" lon="6.6236">
        <ele>611.8</ele>
        <time>2026-03-29T08:55:43Z</time>
      </trkpt>
      <trkpt lat="47.94077" lon="6.62359">
        <ele>613.4</ele>
        <time>2026-03-29T08:55:48Z</time>
      </trkpt>
      <trkpt lat="47.94082" lon="6.62356">
        <ele>615.5</ele>
        <time>2026-03-29T08:55:53Z</time>
      </trkpt>
      <trkpt lat="47.94088" lon="6.6235">
        <ele>618.3</ele>
        <time>2026-03-29T08:55:58Z</time>
      </trkpt>
      <trkpt lat="47.94093" lon="6.62346">
        <ele>620.4</ele>
        <time>2026-03-29T08:56:03Z</time>
      </trkpt>
      <trkpt lat="47.94099" lon="6.62342">
        <ele>622.8</ele>
        <time>2026-03-29T08:56:08Z</time>
      </trkpt>
      <trkpt lat="47.94104" lon="6.62337">
        <ele>625.1</ele>
        <time>2026-03-29T08:56:13Z</time>
      </trkpt>
      <trkpt lat="47.94107" lon="6.62332">
        <ele>626.9</ele>
        <time>2026-03-29T08:56:18Z</time>
      </trkpt>
      <trkpt lat="47.94106" lon="6.62329">
        <ele>627</ele>
        <time>2026-03-29T08:56:23Z</time>
      </trkpt>
      <trkpt lat="47.94106" lon="6.62326">
        <ele>627.4</ele>
        <time>2026-03-29T08:56:28Z</time>
      </trkpt>
      <trkpt lat="47.94106" lon="6.62326">
        <ele>627.4</ele>
        <time>2026-03-29T08:56:33Z</time>
      </trkpt>
      <trkpt lat="47.94108" lon="6.62324">
        <ele>628.1</ele>
        <time>2026-03-29T08:56:38Z</time>
      </trkpt>
      <trkpt lat="47.94109" lon="6.62317">
        <ele>629.3</ele>
        <time>2026-03-29T08:56:43Z</time>
      </trkpt>
      <trkpt lat="47.94107" lon="6.62312">
        <ele>629.5</ele>
        <time>2026-03-29T08:56:48Z</time>
      </trkpt>
      <trkpt lat="47.94103" lon="6.62309">
        <ele>628.7</ele>
        <time>2026-03-29T08:56:53Z</time>
      </trkpt>
      <trkpt lat="47.941" lon="6.62307">
        <ele>628.2</ele>
        <time>2026-03-29T08:56:58Z</time>
      </trkpt>
      <trkpt lat="47.94096" lon="6.62307">
        <ele>627</ele>
        <time>2026-03-29T08:57:03Z</time>
      </trkpt>
      <trkpt lat="47.9409" lon="6.62307">
        <ele>625.4</ele>
        <time>2026-03-29T08:57:08Z</time>
      </trkpt>
      <trkpt lat="47.94086" lon="6.62306">
        <ele>624.4</ele>
        <time>2026-03-29T08:57:13Z</time>
      </trkpt>
      <trkpt lat="47.94081" lon="6.62302">
        <ele>623.3</ele>
        <time>2026-03-29T08:57:18Z</time>
      </trkpt>
      <trkpt lat="47.94078" lon="6.62301">
        <ele>622.6</ele>
        <time>2026-03-29T08:57:23Z</time>
      </trkpt>
      <trkpt lat="47.94073" lon="6.62299">
        <ele>621.3</ele>
        <time>2026-03-29T08:57:28Z</time>
      </trkpt>
      <trkpt lat="47.9407" lon="6.62296">
        <ele>620.7</ele>
        <time>2026-03-29T08:57:33Z</time>
      </trkpt>
      <trkpt lat="47.94068" lon="6.62289">
        <ele>620.8</ele>
        <time>2026-03-29T08:57:38Z</time>
      </trkpt>
      <trkpt lat="47.94067" lon="6.62282">
        <ele>621.2</ele>
        <time>2026-03-29T08:57:43Z</time>
      </trkpt>
      <trkpt lat="47.94065" lon="6.62277">
        <ele>621.1</ele>
        <time>2026-03-29T08:57:48Z</time>
      </trkpt>
      <trkpt lat="47.94065" lon="6.62277">
        <ele>621.1</ele>
        <time>2026-03-29T08:57:53Z</time>
      </trkpt>
      <trkpt lat="47.94066" lon="6.6227">
        <ele>622.1</ele>
        <time>2026-03-29T08:57:58Z</time>
      </trkpt>
      <trkpt lat="47.94064" lon="6.62263">
        <ele>622.2</ele>
        <time>2026-03-29T08:58:03Z</time>
      </trkpt>
      <trkpt lat="47.9406" lon="6.62251">
        <ele>622.2</ele>
        <time>2026-03-29T08:58:08Z</time>
      </trkpt>
      <trkpt lat="47.94055" lon="6.62245">
        <ele>621.4</ele>
        <time>2026-03-29T08:58:13Z</time>
      </trkpt>
      <trkpt lat="47.94052" lon="6.62239">
        <ele>621.2</ele>
        <time>2026-03-29T08:58:18Z</time>
      </trkpt>
      <trkpt lat="47.94048" lon="6.6223">
        <ele>621.1</ele>
        <time>2026-03-29T08:58:23Z</time>
      </trkpt>
      <trkpt lat="47.94047" lon="6.62224">
        <ele>621.5</ele>
        <time>2026-03-29T08:58:28Z</time>
      </trkpt>
      <trkpt lat="47.94047" lon="6.62216">
        <ele>622.5</ele>
        <time>2026-03-29T08:58:33Z</time>
      </trkpt>
      <trkpt lat="47.94045" lon="6.62206">
        <ele>623.1</ele>
        <time>2026-03-29T08:58:38Z</time>
      </trkpt>
      <trkpt lat="47.94046" lon="6.62198">
        <ele>624.3</ele>
        <time>2026-03-29T08:58:43Z</time>
      </trkpt>
      <trkpt lat="47.94044" lon="6.6219">
        <ele>624.8</ele>
        <time>2026-03-29T08:58:48Z</time>
      </trkpt>
      <trkpt lat="47.9404" lon="6.62183">
        <ele>624.7</ele>
        <time>2026-03-29T08:58:53Z</time>
      </trkpt>
      <trkpt lat="47.94037" lon="6.62174">
        <ele>625.1</ele>
        <time>2026-03-29T08:58:58Z</time>
      </trkpt>
      <trkpt lat="47.94036" lon="6.62166">
        <ele>625.9</ele>
        <time>2026-03-29T08:59:03Z</time>
      </trkpt>
      <trkpt lat="47.94034" lon="6.62158">
        <ele>626.6</ele>
        <time>2026-03-29T08:59:08Z</time>
      </trkpt>
      <trkpt lat="47.94032" lon="6.62149">
        <ele>627.5</ele>
        <time>2026-03-29T08:59:13Z</time>
      </trkpt>
      <trkpt lat="47.94031" lon="6.6214">
        <ele>628.5</ele>
        <time>2026-03-29T08:59:18Z</time>
      </trkpt>
      <trkpt lat="47.94031" lon="6.62133">
        <ele>629.5</ele>
        <time>2026-03-29T08:59:23Z</time>
      </trkpt>
      <trkpt lat="47.9403" lon="6.62125">
        <ele>630.5</ele>
        <time>2026-03-29T08:59:28Z</time>
      </trkpt>
      <trkpt lat="47.9403" lon="6.62118">
        <ele>631.5</ele>
        <time>2026-03-29T08:59:33Z</time>
      </trkpt>
      <trkpt lat="47.94031" lon="6.6211">
        <ele>632.9</ele>
        <time>2026-03-29T08:59:38Z</time>
      </trkpt>
      <trkpt lat="47.94032" lon="6.62101">
        <ele>634.4</ele>
        <time>2026-03-29T08:59:43Z</time>
      </trkpt>
      <trkpt lat="47.94033" lon="6.62094">
        <ele>635.6</ele>
        <time>2026-03-29T08:59:48Z</time>
      </trkpt>
      <trkpt lat="47.94032" lon="6.62088">
        <ele>636.2</ele>
        <time>2026-03-29T08:59:53Z</time>
      </trkpt>
      <trkpt lat="47.94031" lon="6.6208">
        <ele>637.2</ele>
        <time>2026-03-29T08:59:58Z</time>
      </trkpt>
      <trkpt lat="47.9403" lon="6.62072">
        <ele>638.1</ele>
        <time>2026-03-29T09:00:03Z</time>
      </trkpt>
      <trkpt lat="47.9403" lon="6.62066">
        <ele>639</ele>
        <time>2026-03-29T09:00:08Z</time>
      </trkpt>
      <trkpt lat="47.94029" lon="6.62059">
        <ele>639.8</ele>
        <time>2026-03-29T09:00:13Z</time>
      </trkpt>
      <trkpt lat="47.94027" lon="6.62052">
        <ele>640.3</ele>
        <time>2026-03-29T09:00:18Z</time>
      </trkpt>
      <trkpt lat="47.94025" lon="6.62045">
        <ele>640.9</ele>
        <time>2026-03-29T09:00:23Z</time>
      </trkpt>
      <trkpt lat="47.94023" lon="6.62037">
        <ele>641.6</ele>
        <time>2026-03-29T09:00:28Z</time>
      </trkpt>
      <trkpt lat="47.94021" lon="6.62028">
        <ele>642.5</ele>
        <time>2026-03-29T09:00:33Z</time>
      </trkpt>
      <trkpt lat="47.9402" lon="6.62022">
        <ele>643.2</ele>
        <time>2026-03-29T09:00:38Z</time>
      </trkpt>
      <trkpt lat="47.94023" lon="6.62017">
        <ele>644.5</ele>
        <time>2026-03-29T09:00:43Z</time>
      </trkpt>
      <trkpt lat="47.94026" lon="6.62009">
        <ele>646.3</ele>
        <time>2026-03-29T09:00:48Z</time>
      </trkpt>
      <trkpt lat="47.94025" lon="6.62002">
        <ele>647.1</ele>
        <time>2026-03-29T09:00:53Z</time>
      </trkpt>
      <trkpt lat="47.94026" lon="6.61994">
        <ele>648.6</ele>
        <time>2026-03-29T09:00:58Z</time>
      </trkpt>
      <trkpt lat="47.94026" lon="6.61988">
        <ele>649.7</ele>
        <time>2026-03-29T09:01:03Z</time>
      </trkpt>
      <trkpt lat="47.94025" lon="6.61981">
        <ele>650.7</ele>
        <time>2026-03-29T09:01:08Z</time>
      </trkpt>
      <trkpt lat="47.94024" lon="6.61973">
        <ele>651.8</ele>
        <time>2026-03-29T09:01:13Z</time>
      </trkpt>
      <trkpt lat="47.94022" lon="6.61966">
        <ele>652.6</ele>
        <time>2026-03-29T09:01:18Z</time>
      </trkpt>
      <trkpt lat="47.9402" lon="6.61959">
        <ele>653.3</ele>
        <time>2026-03-29T09:01:23Z</time>
      </trkpt>
      <trkpt lat="47.94019" lon="6.61954">
        <ele>654</ele>
        <time>2026-03-29T09:01:28Z</time>
      </trkpt>
      <trkpt lat="47.94017" lon="6.61946">
        <ele>654.9</ele>
        <time>2026-03-29T09:01:33Z</time>
      </trkpt>
      <trkpt lat="47.94017" lon="6.6194">
        <ele>655.9</ele>
        <time>2026-03-29T09:01:38Z</time>
      </trkpt>
      <trkpt lat="47.9402" lon="6.61938">
        <ele>656.9</ele>
        <time>2026-03-29T09:01:43Z</time>
      </trkpt>
      <trkpt lat="47.94024" lon="6.61936">
        <ele>658.2</ele>
        <time>2026-03-29T09:01:48Z</time>
      </trkpt>
      <trkpt lat="47.94028" lon="6.61936">
        <ele>659.1</ele>
        <time>2026-03-29T09:01:53Z</time>
      </trkpt>
      <trkpt lat="47.9403" lon="6.61937">
        <ele>659.3</ele>
        <time>2026-03-29T09:01:58Z</time>
      </trkpt>
      <trkpt lat="47.94033" lon="6.6194">
        <ele>659.5</ele>
        <time>2026-03-29T09:02:03Z</time>
      </trkpt>
      <trkpt lat="47.94036" lon="6.61942">
        <ele>659.8</ele>
        <time>2026-03-29T09:02:08Z</time>
      </trkpt>
      <trkpt lat="47.94037" lon="6.61944">
        <ele>659.7</ele>
        <time>2026-03-29T09:02:13Z</time>
      </trkpt>
      <trkpt lat="47.9404" lon="6.61945">
        <ele>660.2</ele>
        <time>2026-03-29T09:02:18Z</time>
      </trkpt>
      <trkpt lat="47.94045" lon="6.61943">
        <ele>661.7</ele>
        <time>2026-03-29T09:02:23Z</time>
      </trkpt>
      <trkpt lat="47.94048" lon="6.61944">
        <ele>662.2</ele>
        <time>2026-03-29T09:02:28Z</time>
      </trkpt>
      <trkpt lat="47.94051" lon="6.61942">
        <ele>663.2</ele>
        <time>2026-03-29T09:02:33Z</time>
      </trkpt>
      <trkpt lat="47.94055" lon="6.61938">
        <ele>664.8</ele>
        <time>2026-03-29T09:02:38Z</time>
      </trkpt>
      <trkpt lat="47.94056" lon="6.61933">
        <ele>665.9</ele>
        <time>2026-03-29T09:02:43Z</time>
      </trkpt>
      <trkpt lat="47.94057" lon="6.61929">
        <ele>666.8</ele>
        <time>2026-03-29T09:02:48Z</time>
      </trkpt>
      <trkpt lat="47.94057" lon="6.61923">
        <ele>667.9</ele>
        <time>2026-03-29T09:02:53Z</time>
      </trkpt>
      <trkpt lat="47.9406" lon="6.61919">
        <ele>669.3</ele>
        <time>2026-03-29T09:02:58Z</time>
      </trkpt>
      <trkpt lat="47.94062" lon="6.61915">
        <ele>670.5</ele>
        <time>2026-03-29T09:03:03Z</time>
      </trkpt>
      <trkpt lat="47.94063" lon="6.61911">
        <ele>671.6</ele>
        <time>2026-03-29T09:03:08Z</time>
      </trkpt>
      <trkpt lat="47.94066" lon="6.6191">
        <ele>672.5</ele>
        <time>2026-03-29T09:03:13Z</time>
      </trkpt>
      <trkpt lat="47.9407" lon="6.6191">
        <ele>673.4</ele>
        <time>2026-03-29T09:03:18Z</time>
      </trkpt>
      <trkpt lat="47.94075" lon="6.61908">
        <ele>675</ele>
        <time>2026-03-29T09:03:23Z</time>
      </trkpt>
      <trkpt lat="47.94079" lon="6.61909">
        <ele>675.7</ele>
        <time>2026-03-29T09:03:28Z</time>
      </trkpt>
      <trkpt lat="47.94083" lon="6.61906">
        <ele>677.2</ele>
        <time>2026-03-29T09:03:33Z</time>
      </trkpt>
      <trkpt lat="47.94086" lon="6.61906">
        <ele>677.5</ele>
        <time>2026-03-29T09:03:38Z</time>
      </trkpt>
      <trkpt lat="47.94088" lon="6.61905">
        <ele>677.9</ele>
        <time>2026-03-29T09:03:43Z</time>
      </trkpt>
      <trkpt lat="47.94091" lon="6.61903">
        <ele>678.6</ele>
        <time>2026-03-29T09:03:48Z</time>
      </trkpt>
      <trkpt lat="47.94094" lon="6.619">
        <ele>679.4</ele>
        <time>2026-03-29T09:03:53Z</time>
      </trkpt>
      <trkpt lat="47.94099" lon="6.61897">
        <ele>680.4</ele>
        <time>2026-03-29T09:03:58Z</time>
      </trkpt>
      <trkpt lat="47.94105" lon="6.61896">
        <ele>681.1</ele>
        <time>2026-03-29T09:04:03Z</time>
      </trkpt>
      <trkpt lat="47.94111" lon="6.61892">
        <ele>682.3</ele>
        <time>2026-03-29T09:04:08Z</time>
      </trkpt>
      <trkpt lat="47.9412" lon="6.61888">
        <ele>683.7</ele>
        <time>2026-03-29T09:04:13Z</time>
      </trkpt>
      <trkpt lat="47.94124" lon="6.61884">
        <ele>684.6</ele>
        <time>2026-03-29T09:04:18Z</time>
      </trkpt>
      <trkpt lat="47.94129" lon="6.61877">
        <ele>686.1</ele>
        <time>2026-03-29T09:04:23Z</time>
      </trkpt>
      <trkpt lat="47.94135" lon="6.6187">
        <ele>687.6</ele>
        <time>2026-03-29T09:04:28Z</time>
      </trkpt>
      <trkpt lat="47.94141" lon="6.61865">
        <ele>688.7</ele>
        <time>2026-03-29T09:04:33Z</time>
      </trkpt>
      <trkpt lat="47.94146" lon="6.61861">
        <ele>689.5</ele>
        <time>2026-03-29T09:04:38Z</time>
      </trkpt>
      <trkpt lat="47.94153" lon="6.61859">
        <ele>690.1</ele>
        <time>2026-03-29T09:04:43Z</time>
      </trkpt>
      <trkpt lat="47.94159" lon="6.61857">
        <ele>690.6</ele>
        <time>2026-03-29T09:04:48Z</time>
      </trkpt>
      <trkpt lat="47.94165" lon="6.61855">
        <ele>691.1</ele>
        <time>2026-03-29T09:04:53Z</time>
      </trkpt>
      <trkpt lat="47.94172" lon="6.61851">
        <ele>691.2</ele>
        <time>2026-03-29T09:04:58Z</time>
      </trkpt>
      <trkpt lat="47.94178" lon="6.61848">
        <ele>690.9</ele>
        <time>2026-03-29T09:05:03Z</time>
      </trkpt>
      <trkpt lat="47.94184" lon="6.61845">
        <ele>690.6</ele>
        <time>2026-03-29T09:05:08Z</time>
      </trkpt>
      <trkpt lat="47.94189" lon="6.61847">
        <ele>689.9</ele>
        <time>2026-03-29T09:05:13Z</time>
      </trkpt>
      <trkpt lat="47.94189" lon="6.61848">
        <ele>689.8</ele>
        <time>2026-03-29T09:05:18Z</time>
      </trkpt>
      <trkpt lat="47.9419" lon="6.61848">
        <ele>689.7</ele>
        <time>2026-03-29T09:05:23Z</time>
      </trkpt>
      <trkpt lat="47.94197" lon="6.61843">
        <ele>689.5</ele>
        <time>2026-03-29T09:05:28Z</time>
      </trkpt>
      <trkpt lat="47.94203" lon="6.61838">
        <ele>689.2</ele>
        <time>2026-03-29T09:05:33Z</time>
      </trkpt>
      <trkpt lat="47.94208" lon="6.61834">
        <ele>689</ele>
        <time>2026-03-29T09:05:38Z</time>
      </trkpt>
      <trkpt lat="47.94211" lon="6.61829">
        <ele>689.5</ele>
        <time>2026-03-29T09:05:43Z</time>
      </trkpt>
      <trkpt lat="47.94215" lon="6.61824">
        <ele>690</ele>
        <time>2026-03-29T09:05:48Z</time>
      </trkpt>
      <trkpt lat="47.94222" lon="6.61821">
        <ele>689.6</ele>
        <time>2026-03-29T09:05:53Z</time>
      </trkpt>
      <trkpt lat="47.94229" lon="6.61819">
        <ele>689.1</ele>
        <time>2026-03-29T09:05:58Z</time>
      </trkpt>
      <trkpt lat="47.94235" lon="6.61818">
        <ele>688.5</ele>
        <time>2026-03-29T09:06:03Z</time>
      </trkpt>
      <trkpt lat="47.94244" lon="6.61816">
        <ele>687.7</ele>
        <time>2026-03-29T09:06:08Z</time>
      </trkpt>
      <trkpt lat="47.94251" lon="6.61814">
        <ele>687.1</ele>
        <time>2026-03-29T09:06:13Z</time>
      </trkpt>
      <trkpt lat="47.94258" lon="6.61811">
        <ele>686.5</ele>
        <time>2026-03-29T09:06:18Z</time>
      </trkpt>
      <trkpt lat="47.94265" lon="6.61809">
        <ele>685.8</ele>
        <time>2026-03-29T09:06:23Z</time>
      </trkpt>
      <trkpt lat="47.94272" lon="6.61807">
        <ele>684.9</ele>
        <time>2026-03-29T09:06:28Z</time>
      </trkpt>
      <trkpt lat="47.94278" lon="6.61804">
        <ele>684.4</ele>
        <time>2026-03-29T09:06:33Z</time>
      </trkpt>
      <trkpt lat="47.94284" lon="6.61802">
        <ele>683.6</ele>
        <time>2026-03-29T09:06:38Z</time>
      </trkpt>
      <trkpt lat="47.94289" lon="6.61801">
        <ele>682.9</ele>
        <time>2026-03-29T09:06:43Z</time>
      </trkpt>
      <trkpt lat="47.94294" lon="6.61799">
        <ele>682.3</ele>
        <time>2026-03-29T09:06:48Z</time>
      </trkpt>
      <trkpt lat="47.94299" lon="6.61798">
        <ele>681.6</ele>
        <time>2026-03-29T09:06:53Z</time>
      </trkpt>
      <trkpt lat="47.94304" lon="6.61796">
        <ele>680.9</ele>
        <time>2026-03-29T09:06:58Z</time>
      </trkpt>
      <trkpt lat="47.94309" lon="6.61794">
        <ele>680.2</ele>
        <time>2026-03-29T09:07:03Z</time>
      </trkpt>
      <trkpt lat="47.94315" lon="6.61792">
        <ele>679.3</ele>
        <time>2026-03-29T09:07:08Z</time>
      </trkpt>
      <trkpt lat="47.9432" lon="6.61793">
        <ele>678.3</ele>
        <time>2026-03-29T09:07:13Z</time>
      </trkpt>
      <trkpt lat="47.94326" lon="6.61792">
        <ele>677.3</ele>
        <time>2026-03-29T09:07:18Z</time>
      </trkpt>
      <trkpt lat="47.94333" lon="6.61792">
        <ele>676</ele>
        <time>2026-03-29T09:07:23Z</time>
      </trkpt>
      <trkpt lat="47.94339" lon="6.61791">
        <ele>675</ele>
        <time>2026-03-29T09:07:28Z</time>
      </trkpt>
      <trkpt lat="47.94345" lon="6.61792">
        <ele>673.9</ele>
        <time>2026-03-29T09:07:33Z</time>
      </trkpt>
      <trkpt lat="47.94351" lon="6.61793">
        <ele>672.8</ele>
        <time>2026-03-29T09:07:38Z</time>
      </trkpt>
      <trkpt lat="47.94356" lon="6.61796">
        <ele>671.7</ele>
        <time>2026-03-29T09:07:43Z</time>
      </trkpt>
      <trkpt lat="47.94361" lon="6.61799">
        <ele>670.7</ele>
        <time>2026-03-29T09:07:48Z</time>
      </trkpt>
      <trkpt lat="47.94365" lon="6.61802">
        <ele>669.8</ele>
        <time>2026-03-29T09:07:53Z</time>
      </trkpt>
      <trkpt lat="47.94369" lon="6.61806">
        <ele>668.9</ele>
        <time>2026-03-29T09:07:58Z</time>
      </trkpt>
      <trkpt lat="47.94375" lon="6.61811">
        <ele>667.6</ele>
        <time>2026-03-29T09:08:03Z</time>
      </trkpt>
      <trkpt lat="47.94381" lon="6.61812">
        <ele>666.4</ele>
        <time>2026-03-29T09:08:08Z</time>
      </trkpt>
      <trkpt lat="47.94386" lon="6.61817">
        <ele>665.3</ele>
        <time>2026-03-29T09:08:13Z</time>
      </trkpt>
      <trkpt lat="47.94392" lon="6.6182">
        <ele>664.1</ele>
        <time>2026-03-29T09:08:18Z</time>
      </trkpt>
      <trkpt lat="47.94398" lon="6.61822">
        <ele>662.9</ele>
        <time>2026-03-29T09:08:23Z</time>
      </trkpt>
      <trkpt lat="47.94404" lon="6.61823">
        <ele>661.8</ele>
        <time>2026-03-29T09:08:28Z</time>
      </trkpt>
      <trkpt lat="47.94409" lon="6.61825">
        <ele>660.8</ele>
        <time>2026-03-29T09:08:33Z</time>
      </trkpt>
      <trkpt lat="47.94414" lon="6.61826">
        <ele>659.8</ele>
        <time>2026-03-29T09:08:38Z</time>
      </trkpt>
      <trkpt lat="47.94421" lon="6.61829">
        <ele>658.1</ele>
        <time>2026-03-29T09:08:43Z</time>
      </trkpt>
      <trkpt lat="47.94428" lon="6.61831">
        <ele>656.2</ele>
        <time>2026-03-29T09:08:48Z</time>
      </trkpt>
      <trkpt lat="47.94435" lon="6.6183">
        <ele>654.4</ele>
        <time>2026-03-29T09:08:53Z</time>
      </trkpt>
      <trkpt lat="47.94443" lon="6.61827">
        <ele>652.6</ele>
        <time>2026-03-29T09:08:58Z</time>
      </trkpt>
      <trkpt lat="47.94447" lon="6.61825">
        <ele>651.7</ele>
        <time>2026-03-29T09:09:03Z</time>
      </trkpt>
      <trkpt lat="47.94453" lon="6.61821">
        <ele>650.6</ele>
        <time>2026-03-29T09:09:08Z</time>
      </trkpt>
      <trkpt lat="47.94459" lon="6.61819">
        <ele>649.3</ele>
        <time>2026-03-29T09:09:13Z</time>
      </trkpt>
      <trkpt lat="47.94468" lon="6.61817">
        <ele>647.3</ele>
        <time>2026-03-29T09:09:18Z</time>
      </trkpt>
      <trkpt lat="47.94473" lon="6.61817">
        <ele>646.1</ele>
        <time>2026-03-29T09:09:23Z</time>
      </trkpt>
      <trkpt lat="47.9448" lon="6.61814">
        <ele>644.8</ele>
        <time>2026-03-29T09:09:28Z</time>
      </trkpt>
      <trkpt lat="47.94488" lon="6.6181">
        <ele>643.4</ele>
        <time>2026-03-29T09:09:33Z</time>
      </trkpt>
      <trkpt lat="47.94494" lon="6.61805">
        <ele>642.8</ele>
        <time>2026-03-29T09:09:38Z</time>
      </trkpt>
      <trkpt lat="47.94501" lon="6.61802">
        <ele>641.7</ele>
        <time>2026-03-29T09:09:43Z</time>
      </trkpt>
      <trkpt lat="47.94509" lon="6.61799">
        <ele>641</ele>
        <time>2026-03-29T09:09:48Z</time>
      </trkpt>
      <trkpt lat="47.94516" lon="6.61797">
        <ele>640.4</ele>
        <time>2026-03-29T09:09:53Z</time>
      </trkpt>
      <trkpt lat="47.94524" lon="6.61795">
        <ele>639.6</ele>
        <time>2026-03-29T09:09:58Z</time>
      </trkpt>
      <trkpt lat="47.94532" lon="6.61792">
        <ele>639</ele>
        <time>2026-03-29T09:10:03Z</time>
      </trkpt>
      <trkpt lat="47.94539" lon="6.61788">
        <ele>638.8</ele>
        <time>2026-03-29T09:10:08Z</time>
      </trkpt>
      <trkpt lat="47.94546" lon="6.61784">
        <ele>638.7</ele>
        <time>2026-03-29T09:10:13Z</time>
      </trkpt>
      <trkpt lat="47.94551" lon="6.6178">
        <ele>638.9</ele>
        <time>2026-03-29T09:10:18Z</time>
      </trkpt>
      <trkpt lat="47.94557" lon="6.61773">
        <ele>639.6</ele>
        <time>2026-03-29T09:10:23Z</time>
      </trkpt>
      <trkpt lat="47.94561" lon="6.61768">
        <ele>640.2</ele>
        <time>2026-03-29T09:10:28Z</time>
      </trkpt>
      <trkpt lat="47.94566" lon="6.61762">
        <ele>641</ele>
        <time>2026-03-29T09:10:33Z</time>
      </trkpt>
      <trkpt lat="47.9457" lon="6.61753">
        <ele>642.6</ele>
        <time>2026-03-29T09:10:38Z</time>
      </trkpt>
      <trkpt lat="47.94578" lon="6.61748">
        <ele>642.9</ele>
        <time>2026-03-29T09:10:43Z</time>
      </trkpt>
      <trkpt lat="47.94586" lon="6.61751">
        <ele>641.3</ele>
        <time>2026-03-29T09:10:48Z</time>
      </trkpt>
      <trkpt lat="47.94588" lon="6.61758">
        <ele>639.4</ele>
        <time>2026-03-29T09:10:53Z</time>
      </trkpt>
      <trkpt lat="47.94584" lon="6.61765">
        <ele>638.3</ele>
        <time>2026-03-29T09:10:58Z</time>
      </trkpt>
      <trkpt lat="47.94586" lon="6.61772">
        <ele>636.3</ele>
        <time>2026-03-29T09:11:03Z</time>
      </trkpt>
      <trkpt lat="47.94585" lon="6.6178">
        <ele>634.6</ele>
        <time>2026-03-29T09:11:08Z</time>
      </trkpt>
      <trkpt lat="47.94577" lon="6.61783">
        <ele>634.9</ele>
        <time>2026-03-29T09:11:13Z</time>
      </trkpt>
      <trkpt lat="47.94576" lon="6.61783">
        <ele>635</ele>
        <time>2026-03-29T09:11:18Z</time>
      </trkpt>
      <trkpt lat="47.94577" lon="6.61778">
        <ele>636.1</ele>
        <time>2026-03-29T09:11:23Z</time>
      </trkpt>
      <trkpt lat="47.94583" lon="6.61772">
        <ele>636.8</ele>
        <time>2026-03-29T09:11:28Z</time>
      </trkpt>
      <trkpt lat="47.94586" lon="6.61763">
        <ele>638.5</ele>
        <time>2026-03-29T09:11:33Z</time>
      </trkpt>
      <trkpt lat="47.9459" lon="6.61754">
        <ele>640</ele>
        <time>2026-03-29T09:11:38Z</time>
      </trkpt>
      <trkpt lat="47.94594" lon="6.61746">
        <ele>641</ele>
        <time>2026-03-29T09:11:43Z</time>
      </trkpt>
      <trkpt lat="47.94598" lon="6.61741">
        <ele>641.3</ele>
        <time>2026-03-29T09:11:48Z</time>
      </trkpt>
      <trkpt lat="47.94602" lon="6.6173">
        <ele>642.4</ele>
        <time>2026-03-29T09:11:53Z</time>
      </trkpt>
      <trkpt lat="47.94611" lon="6.61725">
        <ele>641.6</ele>
        <time>2026-03-29T09:11:58Z</time>
      </trkpt>
      <trkpt lat="47.94616" lon="6.61717">
        <ele>641.8</ele>
        <time>2026-03-29T09:12:03Z</time>
      </trkpt>
      <trkpt lat="47.94622" lon="6.6171">
        <ele>641.6</ele>
        <time>2026-03-29T09:12:08Z</time>
      </trkpt>
      <trkpt lat="47.94627" lon="6.61702">
        <ele>641.7</ele>
        <time>2026-03-29T09:12:13Z</time>
      </trkpt>
      <trkpt lat="47.9463" lon="6.61693">
        <ele>642.2</ele>
        <time>2026-03-29T09:12:18Z</time>
      </trkpt>
      <trkpt lat="47.94634" lon="6.61685">
        <ele>642.3</ele>
        <time>2026-03-29T09:12:23Z</time>
      </trkpt>
      <trkpt lat="47.94637" lon="6.61673">
        <ele>643.1</ele>
        <time>2026-03-29T09:12:28Z</time>
      </trkpt>
      <trkpt lat="47.94639" lon="6.61664">
        <ele>643.8</ele>
        <time>2026-03-29T09:12:33Z</time>
      </trkpt>
      <trkpt lat="47.94643" lon="6.61656">
        <ele>644.1</ele>
        <time>2026-03-29T09:12:38Z</time>
      </trkpt>
      <trkpt lat="47.94646" lon="6.61647">
        <ele>644.7</ele>
        <time>2026-03-29T09:12:43Z</time>
      </trkpt>
      <trkpt lat="47.9465" lon="6.61637">
        <ele>645.1</ele>
        <time>2026-03-29T09:12:48Z</time>
      </trkpt>
      <trkpt lat="47.94651" lon="6.61629">
        <ele>646</ele>
        <time>2026-03-29T09:12:53Z</time>
      </trkpt>
      <trkpt lat="47.94656" lon="6.61619">
        <ele>645.9</ele>
        <time>2026-03-29T09:12:58Z</time>
      </trkpt>
      <trkpt lat="47.94658" lon="6.61608">
        <ele>646.8</ele>
        <time>2026-03-29T09:13:03Z</time>
      </trkpt>
      <trkpt lat="47.9466" lon="6.61598">
        <ele>647.5</ele>
        <time>2026-03-29T09:13:08Z</time>
      </trkpt>
      <trkpt lat="47.94664" lon="6.61588">
        <ele>647.4</ele>
        <time>2026-03-29T09:13:13Z</time>
      </trkpt>
      <trkpt lat="47.94669" lon="6.61579">
        <ele>647</ele>
        <time>2026-03-29T09:13:18Z</time>
      </trkpt>
      <trkpt lat="47.94674" lon="6.6157">
        <ele>646.8</ele>
        <time>2026-03-29T09:13:23Z</time>
      </trkpt>
      <trkpt lat="47.94678" lon="6.61559">
        <ele>647.4</ele>
        <time>2026-03-29T09:13:28Z</time>
      </trkpt>
      <trkpt lat="47.9468" lon="6.61551">
        <ele>648.2</ele>
        <time>2026-03-29T09:13:33Z</time>
      </trkpt>
      <trkpt lat="47.94686" lon="6.61543">
        <ele>647</ele>
        <time>2026-03-29T09:13:38Z</time>
      </trkpt>
      <trkpt lat="47.94689" lon="6.61534">
        <ele>647.3</ele>
        <time>2026-03-29T09:13:43Z</time>
      </trkpt>
      <trkpt lat="47.94692" lon="6.61524">
        <ele>647.7</ele>
        <time>2026-03-29T09:13:48Z</time>
      </trkpt>
      <trkpt lat="47.94695" lon="6.61515">
        <ele>647.9</ele>
        <time>2026-03-29T09:13:53Z</time>
      </trkpt>
      <trkpt lat="47.94697" lon="6.61506">
        <ele>648.5</ele>
        <time>2026-03-29T09:13:58Z</time>
      </trkpt>
      <trkpt lat="47.94699" lon="6.61495">
        <ele>649.4</ele>
        <time>2026-03-29T09:14:03Z</time>
      </trkpt>
      <trkpt lat="47.94702" lon="6.61486">
        <ele>649.4</ele>
        <time>2026-03-29T09:14:08Z</time>
      </trkpt>
      <trkpt lat="47.94706" lon="6.61477">
        <ele>648.7</ele>
        <time>2026-03-29T09:14:13Z</time>
      </trkpt>
      <trkpt lat="47.94707" lon="6.61467">
        <ele>649.8</ele>
        <time>2026-03-29T09:14:18Z</time>
      </trkpt>
      <trkpt lat="47.94709" lon="6.61458">
        <ele>650.2</ele>
        <time>2026-03-29T09:14:23Z</time>
      </trkpt>
      <trkpt lat="47.94711" lon="6.61448">
        <ele>650.6</ele>
        <time>2026-03-29T09:14:28Z</time>
      </trkpt>
      <trkpt lat="47.94712" lon="6.61436">
        <ele>652</ele>
        <time>2026-03-29T09:14:33Z</time>
      </trkpt>
      <trkpt lat="47.94713" lon="6.61424">
        <ele>653.3</ele>
        <time>2026-03-29T09:14:38Z</time>
      </trkpt>
      <trkpt lat="47.94714" lon="6.61415">
        <ele>654</ele>
        <time>2026-03-29T09:14:43Z</time>
      </trkpt>
      <trkpt lat="47.94714" lon="6.61403">
        <ele>655.1</ele>
        <time>2026-03-29T09:14:48Z</time>
      </trkpt>
      <trkpt lat="47.94716" lon="6.61392">
        <ele>654.8</ele>
        <time>2026-03-29T09:14:53Z</time>
      </trkpt>
      <trkpt lat="47.94717" lon="6.61381">
        <ele>655.1</ele>
        <time>2026-03-29T09:14:58Z</time>
      </trkpt>
      <trkpt lat="47.94717" lon="6.61369">
        <ele>656.1</ele>
        <time>2026-03-29T09:15:03Z</time>
      </trkpt>
      <trkpt lat="47.94718" lon="6.61355">
        <ele>656.6</ele>
        <time>2026-03-29T09:15:08Z</time>
      </trkpt>
      <trkpt lat="47.9472" lon="6.61344">
        <ele>656.1</ele>
        <time>2026-03-29T09:15:13Z</time>
      </trkpt>
      <trkpt lat="47.94725" lon="6.61334">
        <ele>653.2</ele>
        <time>2026-03-29T09:15:18Z</time>
      </trkpt>
      <trkpt lat="47.94729" lon="6.61326">
        <ele>651.8</ele>
        <time>2026-03-29T09:15:23Z</time>
      </trkpt>
      <trkpt lat="47.94731" lon="6.61318">
        <ele>651.9</ele>
        <time>2026-03-29T09:15:28Z</time>
      </trkpt>
      <trkpt lat="47.94736" lon="6.61313">
        <ele>649.2</ele>
        <time>2026-03-29T09:15:33Z</time>
      </trkpt>
      <trkpt lat="47.94741" lon="6.61308">
        <ele>646.5</ele>
        <time>2026-03-29T09:15:38Z</time>
      </trkpt>
      <trkpt lat="47.94747" lon="6.61302">
        <ele>643.2</ele>
        <time>2026-03-29T09:15:43Z</time>
      </trkpt>
      <trkpt lat="47.94753" lon="6.61298">
        <ele>640.4</ele>
        <time>2026-03-29T09:15:48Z</time>
      </trkpt>
      <trkpt lat="47.9476" lon="6.61293">
        <ele>638</ele>
        <time>2026-03-29T09:15:53Z</time>
      </trkpt>
      <trkpt lat="47.94762" lon="6.61289">
        <ele>637.7</ele>
        <time>2026-03-29T09:15:58Z</time>
      </trkpt>
      <trkpt lat="47.94771" lon="6.61285">
        <ele>634.1</ele>
        <time>2026-03-29T09:16:03Z</time>
      </trkpt>
      <trkpt lat="47.94777" lon="6.61281">
        <ele>631.8</ele>
        <time>2026-03-29T09:16:08Z</time>
      </trkpt>
      <trkpt lat="47.94782" lon="6.61277">
        <ele>630.1</ele>
        <time>2026-03-29T09:16:13Z</time>
      </trkpt>
      <trkpt lat="47.94789" lon="6.61272">
        <ele>627.4</ele>
        <time>2026-03-29T09:16:18Z</time>
      </trkpt>
      <trkpt lat="47.94795" lon="6.61267">
        <ele>625.2</ele>
        <time>2026-03-29T09:16:23Z</time>
      </trkpt>
      <trkpt lat="47.94801" lon="6.61262">
        <ele>622.9</ele>
        <time>2026-03-29T09:16:28Z</time>
      </trkpt>
      <trkpt lat="47.94808" lon="6.61258">
        <ele>619.9</ele>
        <time>2026-03-29T09:16:33Z</time>
      </trkpt>
      <trkpt lat="47.94816" lon="6.61254">
        <ele>616.4</ele>
        <time>2026-03-29T09:16:38Z</time>
      </trkpt>
      <trkpt lat="47.94822" lon="6.61248">
        <ele>614.3</ele>
        <time>2026-03-29T09:16:43Z</time>
      </trkpt>
      <trkpt lat="47.94828" lon="6.61242">
        <ele>612.5</ele>
        <time>2026-03-29T09:16:48Z</time>
      </trkpt>
      <trkpt lat="47.94834" lon="6.61239">
        <ele>610.3</ele>
        <time>2026-03-29T09:16:53Z</time>
      </trkpt>
      <trkpt lat="47.94837" lon="6.61244">
        <ele>609.1</ele>
        <time>2026-03-29T09:16:58Z</time>
      </trkpt>
      <trkpt lat="47.94839" lon="6.61246">
        <ele>608.5</ele>
        <time>2026-03-29T09:17:03Z</time>
      </trkpt>
      <trkpt lat="47.9484" lon="6.61244">
        <ele>608.9</ele>
        <time>2026-03-29T09:17:08Z</time>
      </trkpt>
      <trkpt lat="47.9484" lon="6.61244">
        <ele>608.9</ele>
        <time>2026-03-29T09:17:13Z</time>
      </trkpt>
      <trkpt lat="47.94838" lon="6.61248">
        <ele>608.1</ele>
        <time>2026-03-29T09:17:18Z</time>
      </trkpt>
      <trkpt lat="47.94841" lon="6.61255">
        <ele>606.9</ele>
        <time>2026-03-29T09:17:23Z</time>
      </trkpt>
      <trkpt lat="47.9484" lon="6.61263">
        <ele>606.1</ele>
        <time>2026-03-29T09:17:28Z</time>
      </trkpt>
      <trkpt lat="47.9484" lon="6.61265">
        <ele>605.8</ele>
        <time>2026-03-29T09:17:33Z</time>
      </trkpt>
      <trkpt lat="47.9484" lon="6.61267">
        <ele>605.6</ele>
        <time>2026-03-29T09:17:38Z</time>
      </trkpt>
      <trkpt lat="47.94842" lon="6.61267">
        <ele>605.5</ele>
        <time>2026-03-29T09:17:43Z</time>
      </trkpt>
      <trkpt lat="47.94848" lon="6.61271">
        <ele>604.6</ele>
        <time>2026-03-29T09:17:48Z</time>
      </trkpt>
      <trkpt lat="47.94855" lon="6.61279">
        <ele>603.3</ele>
        <time>2026-03-29T09:17:53Z</time>
      </trkpt>
      <trkpt lat="47.9486" lon="6.61286">
        <ele>602.2</ele>
        <time>2026-03-29T09:17:58Z</time>
      </trkpt>
      <trkpt lat="47.94865" lon="6.61293">
        <ele>601.1</ele>
        <time>2026-03-29T09:18:03Z</time>
      </trkpt>
      <trkpt lat="47.94872" lon="6.61298">
        <ele>600.2</ele>
        <time>2026-03-29T09:18:08Z</time>
      </trkpt>
      <trkpt lat="47.94879" lon="6.61303">
        <ele>599.2</ele>
        <time>2026-03-29T09:18:13Z</time>
      </trkpt>
      <trkpt lat="47.94885" lon="6.61311">
        <ele>598</ele>
        <time>2026-03-29T09:18:18Z</time>
      </trkpt>
      <trkpt lat="47.94885" lon="6.61311">
        <ele>598</ele>
        <time>2026-03-29T09:18:23Z</time>
      </trkpt>
      <trkpt lat="47.94885" lon="6.61311">
        <ele>598</ele>
        <time>2026-03-29T09:18:28Z</time>
      </trkpt>
      <trkpt lat="47.94885" lon="6.61311">
        <ele>598</ele>
        <time>2026-03-29T09:18:33Z</time>
      </trkpt>
      <trkpt lat="47.94889" lon="6.61306">
        <ele>598.4</ele>
        <time>2026-03-29T09:18:38Z</time>
      </trkpt>
      <trkpt lat="47.94892" lon="6.61309">
        <ele>597.9</ele>
        <time>2026-03-29T09:18:43Z</time>
      </trkpt>
      <trkpt lat="47.94896" lon="6.61312">
        <ele>597.4</ele>
        <time>2026-03-29T09:18:48Z</time>
      </trkpt>
      <trkpt lat="47.94904" lon="6.61314">
        <ele>596.7</ele>
        <time>2026-03-29T09:18:53Z</time>
      </trkpt>
      <trkpt lat="47.94911" lon="6.6132">
        <ele>595.7</ele>
        <time>2026-03-29T09:18:58Z</time>
      </trkpt>
      <trkpt lat="47.94917" lon="6.61324">
        <ele>595</ele>
        <time>2026-03-29T09:19:03Z</time>
      </trkpt>
      <trkpt lat="47.94924" lon="6.61326">
        <ele>594.5</ele>
        <time>2026-03-29T09:19:08Z</time>
      </trkpt>
      <trkpt lat="47.94931" lon="6.61329">
        <ele>594</ele>
        <time>2026-03-29T09:19:13Z</time>
      </trkpt>
      <trkpt lat="47.9494" lon="6.61328">
        <ele>593.8</ele>
        <time>2026-03-29T09:19:18Z</time>
      </trkpt>
      <trkpt lat="47.94946" lon="6.61326">
        <ele>593.8</ele>
        <time>2026-03-29T09:19:23Z</time>
      </trkpt>
      <trkpt lat="47.94952" lon="6.61327">
        <ele>593.5</ele>
        <time>2026-03-29T09:19:28Z</time>
      </trkpt>
      <trkpt lat="47.9496" lon="6.61326">
        <ele>593.3</ele>
        <time>2026-03-29T09:19:33Z</time>
      </trkpt>
      <trkpt lat="47.94968" lon="6.61326">
        <ele>593.1</ele>
        <time>2026-03-29T09:19:38Z</time>
      </trkpt>
      <trkpt lat="47.94976" lon="6.61325">
        <ele>592.9</ele>
        <time>2026-03-29T09:19:43Z</time>
      </trkpt>
      <trkpt lat="47.94984" lon="6.61324">
        <ele>592.8</ele>
        <time>2026-03-29T09:19:48Z</time>
      </trkpt>
      <trkpt lat="47.9499" lon="6.61323">
        <ele>592.7</ele>
        <time>2026-03-29T09:19:53Z</time>
      </trkpt>
      <trkpt lat="47.94997" lon="6.61324">
        <ele>592.3</ele>
        <time>2026-03-29T09:19:58Z</time>
      </trkpt>
      <trkpt lat="47.95004" lon="6.61323">
        <ele>591.9</ele>
        <time>2026-03-29T09:20:03Z</time>
      </trkpt>
      <trkpt lat="47.95012" lon="6.61322">
        <ele>591.2</ele>
        <time>2026-03-29T09:20:08Z</time>
      </trkpt>
      <trkpt lat="47.95018" lon="6.6132">
        <ele>590.8</ele>
        <time>2026-03-29T09:20:13Z</time>
      </trkpt>
      <trkpt lat="47.95026" lon="6.61313">
        <ele>590.9</ele>
        <time>2026-03-29T09:20:18Z</time>
      </trkpt>
      <trkpt lat="47.95031" lon="6.61309">
        <ele>591</ele>
        <time>2026-03-29T09:20:23Z</time>
      </trkpt>
      <trkpt lat="47.95036" lon="6.61301">
        <ele>591.8</ele>
        <time>2026-03-29T09:20:28Z</time>
      </trkpt>
      <trkpt lat="47.95043" lon="6.61302">
        <ele>590.9</ele>
        <time>2026-03-29T09:20:33Z</time>
      </trkpt>
      <trkpt lat="47.95053" lon="6.61304">
        <ele>589.6</ele>
        <time>2026-03-29T09:20:38Z</time>
      </trkpt>
      <trkpt lat="47.95063" lon="6.61301">
        <ele>589.2</ele>
        <time>2026-03-29T09:20:43Z</time>
      </trkpt>
      <trkpt lat="47.9507" lon="6.61304">
        <ele>588</ele>
        <time>2026-03-29T09:20:48Z</time>
      </trkpt>
      <trkpt lat="47.95075" lon="6.61311">
        <ele>586.2</ele>
        <time>2026-03-29T09:20:53Z</time>
      </trkpt>
      <trkpt lat="47.95077" lon="6.6132">
        <ele>584.3</ele>
        <time>2026-03-29T09:20:58Z</time>
      </trkpt>
      <trkpt lat="47.95078" lon="6.61329">
        <ele>582.5</ele>
        <time>2026-03-29T09:21:03Z</time>
      </trkpt>
      <trkpt lat="47.95076" lon="6.61341">
        <ele>580.8</ele>
        <time>2026-03-29T09:21:08Z</time>
      </trkpt>
      <trkpt lat="47.95072" lon="6.61348">
        <ele>580.3</ele>
        <time>2026-03-29T09:21:13Z</time>
      </trkpt>
      <trkpt lat="47.95068" lon="6.61357">
        <ele>579.6</ele>
        <time>2026-03-29T09:21:18Z</time>
      </trkpt>
      <trkpt lat="47.95065" lon="6.61364">
        <ele>579.1</ele>
        <time>2026-03-29T09:21:23Z</time>
      </trkpt>
      <trkpt lat="47.9506" lon="6.61371">
        <ele>578.9</ele>
        <time>2026-03-29T09:21:28Z</time>
      </trkpt>
      <trkpt lat="47.95055" lon="6.61378">
        <ele>578.7</ele>
        <time>2026-03-29T09:21:33Z</time>
      </trkpt>
      <trkpt lat="47.9505" lon="6.61388">
        <ele>578.2</ele>
        <time>2026-03-29T09:21:38Z</time>
      </trkpt>
      <trkpt lat="47.95046" lon="6.61398">
        <ele>577.6</ele>
        <time>2026-03-29T09:21:43Z</time>
      </trkpt>
      <trkpt lat="47.95044" lon="6.61409">
        <ele>576.5</ele>
        <time>2026-03-29T09:21:48Z</time>
      </trkpt>
      <trkpt lat="47.95044" lon="6.61421">
        <ele>575.4</ele>
        <time>2026-03-29T09:21:53Z</time>
      </trkpt>
      <trkpt lat="47.95045" lon="6.61434">
        <ele>574.7</ele>
        <time>2026-03-29T09:21:58Z</time>
      </trkpt>
      <trkpt lat="47.95049" lon="6.61441">
        <ele>573.8</ele>
        <time>2026-03-29T09:22:03Z</time>
      </trkpt>
      <trkpt lat="47.95056" lon="6.61447">
        <ele>572.5</ele>
        <time>2026-03-29T09:22:08Z</time>
      </trkpt>
      <trkpt lat="47.95064" lon="6.61452">
        <ele>571.2</ele>
        <time>2026-03-29T09:22:13Z</time>
      </trkpt>
      <trkpt lat="47.95072" lon="6.61453">
        <ele>570.1</ele>
        <time>2026-03-29T09:22:18Z</time>
      </trkpt>
      <trkpt lat="47.95078" lon="6.61454">
        <ele>569.3</ele>
        <time>2026-03-29T09:22:23Z</time>
      </trkpt>
      <trkpt lat="47.95087" lon="6.61454">
        <ele>568.2</ele>
        <time>2026-03-29T09:22:28Z</time>
      </trkpt>
      <trkpt lat="47.95093" lon="6.61453">
        <ele>567.5</ele>
        <time>2026-03-29T09:22:33Z</time>
      </trkpt>
      <trkpt lat="47.95098" lon="6.61453">
        <ele>567</ele>
        <time>2026-03-29T09:22:38Z</time>
      </trkpt>
      <trkpt lat="47.95106" lon="6.61454">
        <ele>566.1</ele>
        <time>2026-03-29T09:22:43Z</time>
      </trkpt>
      <trkpt lat="47.95115" lon="6.61455">
        <ele>565.1</ele>
        <time>2026-03-29T09:22:48Z</time>
      </trkpt>
      <trkpt lat="47.95123" lon="6.61456">
        <ele>564.2</ele>
        <time>2026-03-29T09:22:53Z</time>
      </trkpt>
      <trkpt lat="47.95131" lon="6.61457">
        <ele>563.2</ele>
        <time>2026-03-29T09:22:58Z</time>
      </trkpt>
      <trkpt lat="47.95139" lon="6.61458">
        <ele>562.2</ele>
        <time>2026-03-29T09:23:03Z</time>
      </trkpt>
      <trkpt lat="47.95145" lon="6.61457">
        <ele>561.6</ele>
        <time>2026-03-29T09:23:08Z</time>
      </trkpt>
      <trkpt lat="47.95153" lon="6.61458">
        <ele>560.6</ele>
        <time>2026-03-29T09:23:13Z</time>
      </trkpt>
      <trkpt lat="47.95161" lon="6.61456">
        <ele>560</ele>
        <time>2026-03-29T09:23:18Z</time>
      </trkpt>
      <trkpt lat="47.95168" lon="6.61455">
        <ele>559.4</ele>
        <time>2026-03-29T09:23:23Z</time>
      </trkpt>
      <trkpt lat="47.95176" lon="6.61453">
        <ele>559.1</ele>
        <time>2026-03-29T09:23:28Z</time>
      </trkpt>
      <trkpt lat="47.95182" lon="6.61454">
        <ele>558.5</ele>
        <time>2026-03-29T09:23:33Z</time>
      </trkpt>
      <trkpt lat="47.9519" lon="6.61455">
        <ele>557.7</ele>
        <time>2026-03-29T09:23:38Z</time>
      </trkpt>
      <trkpt lat="47.95197" lon="6.61455">
        <ele>557.1</ele>
        <time>2026-03-29T09:23:43Z</time>
      </trkpt>
      <trkpt lat="47.95202" lon="6.61452">
        <ele>557.3</ele>
        <time>2026-03-29T09:23:48Z</time>
      </trkpt>
      <trkpt lat="47.95206" lon="6.61451">
        <ele>557.3</ele>
        <time>2026-03-29T09:23:53Z</time>
      </trkpt>
      <trkpt lat="47.95212" lon="6.61451">
        <ele>556.8</ele>
        <time>2026-03-29T09:23:58Z</time>
      </trkpt>
      <trkpt lat="47.95218" lon="6.61451">
        <ele>556.4</ele>
        <time>2026-03-29T09:24:03Z</time>
      </trkpt>
      <trkpt lat="47.95225" lon="6.61449">
        <ele>556.4</ele>
        <time>2026-03-29T09:24:08Z</time>
      </trkpt>
      <trkpt lat="47.95233" lon="6.61447">
        <ele>556.4</ele>
        <time>2026-03-29T09:24:13Z</time>
      </trkpt>
      <trkpt lat="47.9524" lon="6.61446">
        <ele>556.2</ele>
        <time>2026-03-29T09:24:18Z</time>
      </trkpt>
      <trkpt lat="47.95248" lon="6.61446">
        <ele>555.7</ele>
        <time>2026-03-29T09:24:23Z</time>
      </trkpt>
      <trkpt lat="47.95256" lon="6.61442">
        <ele>556.3</ele>
        <time>2026-03-29T09:24:28Z</time>
      </trkpt>
      <trkpt lat="47.95266" lon="6.61437">
        <ele>556.9</ele>
        <time>2026-03-29T09:24:33Z</time>
      </trkpt>
      <trkpt lat="47.9527" lon="6.61432">
        <ele>558.1</ele>
        <time>2026-03-29T09:24:38Z</time>
      </trkpt>
      <trkpt lat="47.95275" lon="6.61424">
        <ele>560.1</ele>
        <time>2026-03-29T09:24:43Z</time>
      </trkpt>
      <trkpt lat="47.95278" lon="6.61416">
        <ele>562.1</ele>
        <time>2026-03-29T09:24:48Z</time>
      </trkpt>
      <trkpt lat="47.95282" lon="6.61411">
        <ele>563</ele>
        <time>2026-03-29T09:24:53Z</time>
      </trkpt>
      <trkpt lat="47.95287" lon="6.61407">
        <ele>563.6</ele>
        <time>2026-03-29T09:24:58Z</time>
      </trkpt>
      <trkpt lat="47.95292" lon="6.61408">
        <ele>563.1</ele>
        <time>2026-03-29T09:25:03Z</time>
      </trkpt>
      <trkpt lat="47.95295" lon="6.61406">
        <ele>563.4</ele>
        <time>2026-03-29T09:25:08Z</time>
      </trkpt>
      <trkpt lat="47.95299" lon="6.61403">
        <ele>563.8</ele>
        <time>2026-03-29T09:25:13Z</time>
      </trkpt>
      <trkpt lat="47.95302" lon="6.61396">
        <ele>565.4</ele>
        <time>2026-03-29T09:25:18Z</time>
      </trkpt>
      <trkpt lat="47.95306" lon="6.61392">
        <ele>566.2</ele>
        <time>2026-03-29T09:25:23Z</time>
      </trkpt>
      <trkpt lat="47.9531" lon="6.61388">
        <ele>567</ele>
        <time>2026-03-29T09:25:28Z</time>
      </trkpt>
      <trkpt lat="47.95313" lon="6.61381">
        <ele>568.7</ele>
        <time>2026-03-29T09:25:33Z</time>
      </trkpt>
      <trkpt lat="47.95318" lon="6.61375">
        <ele>570.1</ele>
        <time>2026-03-29T09:25:38Z</time>
      </trkpt>
      <trkpt lat="47.95321" lon="6.6137">
        <ele>571.3</ele>
        <time>2026-03-29T09:25:43Z</time>
      </trkpt>
      <trkpt lat="47.95324" lon="6.61366">
        <ele>572.2</ele>
        <time>2026-03-29T09:25:48Z</time>
      </trkpt>
      <trkpt lat="47.95327" lon="6.61361">
        <ele>573.5</ele>
        <time>2026-03-29T09:25:53Z</time>
      </trkpt>
      <trkpt lat="47.9533" lon="6.61359">
        <ele>574</ele>
        <time>2026-03-29T09:25:58Z</time>
      </trkpt>
      <trkpt lat="47.95335" lon="6.61356">
        <ele>574.3</ele>
        <time>2026-03-29T09:26:03Z</time>
      </trkpt>
      <trkpt lat="47.95338" lon="6.61352">
        <ele>574.7</ele>
        <time>2026-03-29T09:26:08Z</time>
      </trkpt>
      <trkpt lat="47.95338" lon="6.61352">
        <ele>574.7</ele>
        <time>2026-03-29T09:26:13Z</time>
      </trkpt>
      <trkpt lat="47.95338" lon="6.61352">
        <ele>574.7</ele>
        <time>2026-03-29T09:26:18Z</time>
      </trkpt>
      <trkpt lat="47.95344" lon="6.61344">
        <ele>575.6</ele>
        <time>2026-03-29T09:26:23Z</time>
      </trkpt>
      <trkpt lat="47.95345" lon="6.61344">
        <ele>575.3</ele>
        <time>2026-03-29T09:26:28Z</time>
      </trkpt>
      <trkpt lat="47.9535" lon="6.61339">
        <ele>575.6</ele>
        <time>2026-03-29T09:26:33Z</time>
      </trkpt>
      <trkpt lat="47.95353" lon="6.61336">
        <ele>575.8</ele>
        <time>2026-03-29T09:26:38Z</time>
      </trkpt>
      <trkpt lat="47.95354" lon="6.6133">
        <ele>577.2</ele>
        <time>2026-03-29T09:26:43Z</time>
      </trkpt>
      <trkpt lat="47.95356" lon="6.61326">
        <ele>577.8</ele>
        <time>2026-03-29T09:26:48Z</time>
      </trkpt>
      <trkpt lat="47.95359" lon="6.61321">
        <ele>578.5</ele>
        <time>2026-03-29T09:26:53Z</time>
      </trkpt>
      <trkpt lat="47.95361" lon="6.61316">
        <ele>579.4</ele>
        <time>2026-03-29T09:26:58Z</time>
      </trkpt>
      <trkpt lat="47.95364" lon="6.61313">
        <ele>579.6</ele>
        <time>2026-03-29T09:27:03Z</time>
      </trkpt>
      <trkpt lat="47.95366" lon="6.61309">
        <ele>580.3</ele>
        <time>2026-03-29T09:27:08Z</time>
      </trkpt>
      <trkpt lat="47.95369" lon="6.61304">
        <ele>581</ele>
        <time>2026-03-29T09:27:13Z</time>
      </trkpt>
      <trkpt lat="47.95372" lon="6.61301">
        <ele>581.2</ele>
        <time>2026-03-29T09:27:18Z</time>
      </trkpt>
      <trkpt lat="47.95374" lon="6.61297">
        <ele>581.9</ele>
        <time>2026-03-29T09:27:23Z</time>
      </trkpt>
      <trkpt lat="47.95376" lon="6.61293">
        <ele>582.7</ele>
        <time>2026-03-29T09:27:28Z</time>
      </trkpt>
      <trkpt lat="47.95378" lon="6.6129">
        <ele>583.1</ele>
        <time>2026-03-29T09:27:33Z</time>
      </trkpt>
      <trkpt lat="47.9538" lon="6.61285">
        <ele>584.2</ele>
        <time>2026-03-29T09:27:38Z</time>
      </trkpt>
      <trkpt lat="47.95385" lon="6.61281">
        <ele>584.4</ele>
        <time>2026-03-29T09:27:43Z</time>
      </trkpt>
      <trkpt lat="47.9539" lon="6.61275">
        <ele>585.2</ele>
        <time>2026-03-29T09:27:48Z</time>
      </trkpt>
      <trkpt lat="47.95395" lon="6.6127">
        <ele>585.7</ele>
        <time>2026-03-29T09:27:53Z</time>
      </trkpt>
      <trkpt lat="47.95398" lon="6.61263">
        <ele>587.3</ele>
        <time>2026-03-29T09:27:58Z</time>
      </trkpt>
      <trkpt lat="47.95402" lon="6.61255">
        <ele>589</ele>
        <time>2026-03-29T09:28:03Z</time>
      </trkpt>
      <trkpt lat="47.95408" lon="6.6125">
        <ele>589.5</ele>
        <time>2026-03-29T09:28:08Z</time>
      </trkpt>
      <trkpt lat="47.95412" lon="6.61244">
        <ele>590.7</ele>
        <time>2026-03-29T09:28:13Z</time>
      </trkpt>
      <trkpt lat="47.95415" lon="6.61237">
        <ele>592.5</ele>
        <time>2026-03-29T09:28:18Z</time>
      </trkpt>
      <trkpt lat="47.95416" lon="6.61228">
        <ele>595.2</ele>
        <time>2026-03-29T09:28:23Z</time>
      </trkpt>
      <trkpt lat="47.95418" lon="6.6122">
        <ele>597.3</ele>
        <time>2026-03-29T09:28:28Z</time>
      </trkpt>
      <trkpt lat="47.95421" lon="6.61212">
        <ele>598.8</ele>
        <time>2026-03-29T09:28:33Z</time>
      </trkpt>
      <trkpt lat="47.95425" lon="6.61203">
        <ele>600.2</ele>
        <time>2026-03-29T09:28:38Z</time>
      </trkpt>
      <trkpt lat="47.95428" lon="6.61195">
        <ele>601.5</ele>
        <time>2026-03-29T09:28:43Z</time>
      </trkpt>
      <trkpt lat="47.95431" lon="6.6119">
        <ele>601.8</ele>
        <time>2026-03-29T09:28:48Z</time>
      </trkpt>
      <trkpt lat="47.95435" lon="6.61184">
        <ele>602</ele>
        <time>2026-03-29T09:28:53Z</time>
      </trkpt>
      <trkpt lat="47.95439" lon="6.6118">
        <ele>601.5</ele>
        <time>2026-03-29T09:28:58Z</time>
      </trkpt>
      <trkpt lat="47.95445" lon="6.61177">
        <ele>599.9</ele>
        <time>2026-03-29T09:29:03Z</time>
      </trkpt>
      <trkpt lat="47.95449" lon="6.61174">
        <ele>599.1</ele>
        <time>2026-03-29T09:29:08Z</time>
      </trkpt>
      <trkpt lat="47.95455" lon="6.61171">
        <ele>597.3</ele>
        <time>2026-03-29T09:29:13Z</time>
      </trkpt>
      <trkpt lat="47.95459" lon="6.61165">
        <ele>597.2</ele>
        <time>2026-03-29T09:29:18Z</time>
      </trkpt>
      <trkpt lat="47.95466" lon="6.6116">
        <ele>595.5</ele>
        <time>2026-03-29T09:29:23Z</time>
      </trkpt>
      <trkpt lat="47.95471" lon="6.61155">
        <ele>594.7</ele>
        <time>2026-03-29T09:29:28Z</time>
      </trkpt>
      <trkpt lat="47.95477" lon="6.61151">
        <ele>593.2</ele>
        <time>2026-03-29T09:29:33Z</time>
      </trkpt>
      <trkpt lat="47.95483" lon="6.61145">
        <ele>592.3</ele>
        <time>2026-03-29T09:29:38Z</time>
      </trkpt>
      <trkpt lat="47.95489" lon="6.61141">
        <ele>590.8</ele>
        <time>2026-03-29T09:29:43Z</time>
      </trkpt>
      <trkpt lat="47.95496" lon="6.6114">
        <ele>588.1</ele>
        <time>2026-03-29T09:29:48Z</time>
      </trkpt>
      <trkpt lat="47.95502" lon="6.61147">
        <ele>584.3</ele>
        <time>2026-03-29T09:29:53Z</time>
      </trkpt>
      <trkpt lat="47.95506" lon="6.61154">
        <ele>582.1</ele>
        <time>2026-03-29T09:29:58Z</time>
      </trkpt>
      <trkpt lat="47.9551" lon="6.61163">
        <ele>579.4</ele>
        <time>2026-03-29T09:30:03Z</time>
      </trkpt>
      <trkpt lat="47.95515" lon="6.6117">
        <ele>577.5</ele>
        <time>2026-03-29T09:30:08Z</time>
      </trkpt>
      <trkpt lat="47.9552" lon="6.61176">
        <ele>576.1</ele>
        <time>2026-03-29T09:30:13Z</time>
      </trkpt>
      <trkpt lat="47.95524" lon="6.61181">
        <ele>575</ele>
        <time>2026-03-29T09:30:18Z</time>
      </trkpt>
      <trkpt lat="47.95527" lon="6.61185">
        <ele>574.2</ele>
        <time>2026-03-29T09:30:23Z</time>
      </trkpt>
      <trkpt lat="47.95533" lon="6.61189">
        <ele>573.1</ele>
        <time>2026-03-29T09:30:28Z</time>
      </trkpt>
      <trkpt lat="47.9554" lon="6.61191">
        <ele>572.4</ele>
        <time>2026-03-29T09:30:33Z</time>
      </trkpt>
      <trkpt lat="47.95545" lon="6.61196">
        <ele>571.2</ele>
        <time>2026-03-29T09:30:38Z</time>
      </trkpt>
      <trkpt lat="47.9555" lon="6.612">
        <ele>570.2</ele>
        <time>2026-03-29T09:30:43Z</time>
      </trkpt>
      <trkpt lat="47.95557" lon="6.61205">
        <ele>569</ele>
        <time>2026-03-29T09:30:48Z</time>
      </trkpt>
      <trkpt lat="47.95565" lon="6.61212">
        <ele>567.4</ele>
        <time>2026-03-29T09:30:53Z</time>
      </trkpt>
      <trkpt lat="47.95568" lon="6.61218">
        <ele>566.2</ele>
        <time>2026-03-29T09:30:58Z</time>
      </trkpt>
      <trkpt lat="47.95574" lon="6.61221">
        <ele>565.4</ele>
        <time>2026-03-29T09:31:03Z</time>
      </trkpt>
      <trkpt lat="47.95579" lon="6.61226">
        <ele>564.3</ele>
        <time>2026-03-29T09:31:08Z</time>
      </trkpt>
      <trkpt lat="47.95583" lon="6.61234">
        <ele>562.7</ele>
        <time>2026-03-29T09:31:13Z</time>
      </trkpt>
      <trkpt lat="47.95584" lon="6.61243">
        <ele>561.3</ele>
        <time>2026-03-29T09:31:18Z</time>
      </trkpt>
      <trkpt lat="47.95587" lon="6.61252">
        <ele>560.4</ele>
        <time>2026-03-29T09:31:23Z</time>
      </trkpt>
      <trkpt lat="47.9559" lon="6.61257">
        <ele>560.1</ele>
        <time>2026-03-29T09:31:28Z</time>
      </trkpt>
      <trkpt lat="47.95591" lon="6.61269">
        <ele>558.5</ele>
        <time>2026-03-29T09:31:33Z</time>
      </trkpt>
      <trkpt lat="47.95591" lon="6.61282">
        <ele>556.6</ele>
        <time>2026-03-29T09:31:38Z</time>
      </trkpt>
      <trkpt lat="47.95593" lon="6.61292">
        <ele>555.5</ele>
        <time>2026-03-29T09:31:43Z</time>
      </trkpt>
      <trkpt lat="47.95597" lon="6.61302">
        <ele>555</ele>
        <time>2026-03-29T09:31:48Z</time>
      </trkpt>
      <trkpt lat="47.95601" lon="6.61309">
        <ele>554.9</ele>
        <time>2026-03-29T09:31:53Z</time>
      </trkpt>
      <trkpt lat="47.95605" lon="6.61319">
        <ele>554.4</ele>
        <time>2026-03-29T09:31:58Z</time>
      </trkpt>
      <trkpt lat="47.95609" lon="6.61328">
        <ele>554.2</ele>
        <time>2026-03-29T09:32:03Z</time>
      </trkpt>
      <trkpt lat="47.95613" lon="6.61332">
        <ele>554.6</ele>
        <time>2026-03-29T09:32:08Z</time>
      </trkpt>
      <trkpt lat="47.95616" lon="6.61338">
        <ele>554.5</ele>
        <time>2026-03-29T09:32:13Z</time>
      </trkpt>
      <trkpt lat="47.95619" lon="6.61342">
        <ele>554.7</ele>
        <time>2026-03-29T09:32:18Z</time>
      </trkpt>
      <trkpt lat="47.95623" lon="6.61344">
        <ele>555.4</ele>
        <time>2026-03-29T09:32:23Z</time>
      </trkpt>
      <trkpt lat="47.95626" lon="6.61346">
        <ele>555.9</ele>
        <time>2026-03-29T09:32:28Z</time>
      </trkpt>
      <trkpt lat="47.95628" lon="6.61348">
        <ele>556.1</ele>
        <time>2026-03-29T09:32:33Z</time>
      </trkpt>
      <trkpt lat="47.95631" lon="6.61351">
        <ele>556.4</ele>
        <time>2026-03-29T09:32:38Z</time>
      </trkpt>
      <trkpt lat="47.95632" lon="6.61355">
        <ele>556</ele>
        <time>2026-03-29T09:32:43Z</time>
      </trkpt>
      <trkpt lat="47.95634" lon="6.61358">
        <ele>556.1</ele>
        <time>2026-03-29T09:32:48Z</time>
      </trkpt>
      <trkpt lat="47.95635" lon="6.6136">
        <ele>556.1</ele>
        <time>2026-03-29T09:32:53Z</time>
      </trkpt>
      <trkpt lat="47.95638" lon="6.61362">
        <ele>556.5</ele>
        <time>2026-03-29T09:32:58Z</time>
      </trkpt>
      <trkpt lat="47.95641" lon="6.61366">
        <ele>556.7</ele>
        <time>2026-03-29T09:33:03Z</time>
      </trkpt>
      <trkpt lat="47.95644" lon="6.61368">
        <ele>557.2</ele>
        <time>2026-03-29T09:33:08Z</time>
      </trkpt>
      <trkpt lat="47.95646" lon="6.6137">
        <ele>557.4</ele>
        <time>2026-03-29T09:33:13Z</time>
      </trkpt>
      <trkpt lat="47.95649" lon="6.61373">
        <ele>557.7</ele>
        <time>2026-03-29T09:33:18Z</time>
      </trkpt>
      <trkpt lat="47.95651" lon="6.61374">
        <ele>558.1</ele>
        <time>2026-03-29T09:33:23Z</time>
      </trkpt>
      <trkpt lat="47.95653" lon="6.61377">
        <ele>558.2</ele>
        <time>2026-03-29T09:33:28Z</time>
      </trkpt>
      <trkpt lat="47.95655" lon="6.61379">
        <ele>558.4</ele>
        <time>2026-03-29T09:33:33Z</time>
      </trkpt>
      <trkpt lat="47.95658" lon="6.61382">
        <ele>558.7</ele>
        <time>2026-03-29T09:33:38Z</time>
      </trkpt>
      <trkpt lat="47.9566" lon="6.61386">
        <ele>558.7</ele>
        <time>2026-03-29T09:33:43Z</time>
      </trkpt>
      <trkpt lat="47.95662" lon="6.61389">
        <ele>558.8</ele>
        <time>2026-03-29T09:33:48Z</time>
      </trkpt>
      <trkpt lat="47.95664" lon="6.61393">
        <ele>558.7</ele>
        <time>2026-03-29T09:33:53Z</time>
      </trkpt>
      <trkpt lat="47.95666" lon="6.61396">
        <ele>558.8</ele>
        <time>2026-03-29T09:33:58Z</time>
      </trkpt>
      <trkpt lat="47.95668" lon="6.61399">
        <ele>559</ele>
        <time>2026-03-29T09:34:03Z</time>
      </trkpt>
      <trkpt lat="47.95668" lon="6.61401">
        <ele>558.7</ele>
        <time>2026-03-29T09:34:08Z</time>
      </trkpt>
      <trkpt lat="47.95668" lon="6.61401">
        <ele>558.7</ele>
        <time>2026-03-29T09:34:13Z</time>
      </trkpt>
      <trkpt lat="47.95668" lon="6.61401">
        <ele>558.7</ele>
        <time>2026-03-29T09:34:18Z</time>
      </trkpt>
      <trkpt lat="47.95668" lon="6.61401">
        <ele>558.7</ele>
        <time>2026-03-29T09:34:23Z</time>
      </trkpt>
      <trkpt lat="47.95668" lon="6.61401">
        <ele>558.7</ele>
        <time>2026-03-29T09:34:28Z</time>
      </trkpt>
      <trkpt lat="47.95668" lon="6.61401">
        <ele>558.7</ele>
        <time>2026-03-29T09:34:33Z</time>
      </trkpt>
      <trkpt lat="47.95668" lon="6.61401">
        <ele>558.7</ele>
        <time>2026-03-29T09:34:38Z</time>
      </trkpt>
      <trkpt lat="47.95668" lon="6.61401">
        <ele>558.7</ele>
        <time>2026-03-29T09:34:43Z</time>
      </trkpt>
      <trkpt lat="47.95668" lon="6.61401">
        <ele>558.7</ele>
        <time>2026-03-29T09:34:48Z</time>
      </trkpt>
      <trkpt lat="47.95668" lon="6.61401">
        <ele>558.7</ele>
        <time>2026-03-29T09:34:53Z</time>
      </trkpt>
      <trkpt lat="47.95668" lon="6.61401">
        <ele>558.7</ele>
        <time>2026-03-29T09:34:58Z</time>
      </trkpt>
      <trkpt lat="47.95668" lon="6.61401">
        <ele>558.7</ele>
        <time>2026-03-29T09:35:03Z</time>
      </trkpt>
      <trkpt lat="47.95668" lon="6.61401">
        <ele>558.7</ele>
        <time>2026-03-29T09:35:08Z</time>
      </trkpt>
      <trkpt lat="47.95668" lon="6.61401">
        <ele>558.7</ele>
        <time>2026-03-29T09:35:13Z</time>
      </trkpt>
      <trkpt lat="47.95672" lon="6.61396">
        <ele>560.7</ele>
        <time>2026-03-29T09:35:18Z</time>
      </trkpt>
      <trkpt lat="47.95676" lon="6.61399">
        <ele>561.5</ele>
        <time>2026-03-29T09:35:23Z</time>
      </trkpt>
      <trkpt lat="47.95681" lon="6.614">
        <ele>562.9</ele>
        <time>2026-03-29T09:35:28Z</time>
      </trkpt>
      <trkpt lat="47.95686" lon="6.6141">
        <ele>563</ele>
        <time>2026-03-29T09:35:33Z</time>
      </trkpt>
      <trkpt lat="47.9569" lon="6.61416">
        <ele>563.4</ele>
        <time>2026-03-29T09:35:38Z</time>
      </trkpt>
      <trkpt lat="47.95693" lon="6.61419">
        <ele>563.8</ele>
        <time>2026-03-29T09:35:43Z</time>
      </trkpt>
      <trkpt lat="47.95696" lon="6.6142">
        <ele>564.6</ele>
        <time>2026-03-29T09:35:48Z</time>
      </trkpt>
      <trkpt lat="47.95701" lon="6.6142">
        <ele>566.1</ele>
        <time>2026-03-29T09:35:53Z</time>
      </trkpt>
      <trkpt lat="47.95706" lon="6.61423">
        <ele>567.1</ele>
        <time>2026-03-29T09:35:58Z</time>
      </trkpt>
      <trkpt lat="47.95709" lon="6.61423">
        <ele>568.1</ele>
        <time>2026-03-29T09:36:03Z</time>
      </trkpt>
      <trkpt lat="47.95714" lon="6.61427">
        <ele>568.9</ele>
        <time>2026-03-29T09:36:08Z</time>
      </trkpt>
      <trkpt lat="47.95719" lon="6.6143">
        <ele>569.9</ele>
        <time>2026-03-29T09:36:13Z</time>
      </trkpt>
      <trkpt lat="47.95723" lon="6.61434">
        <ele>570.5</ele>
        <time>2026-03-29T09:36:18Z</time>
      </trkpt>
      <trkpt lat="47.95726" lon="6.61437">
        <ele>570.9</ele>
        <time>2026-03-29T09:36:23Z</time>
      </trkpt>
      <trkpt lat="47.9573" lon="6.6144">
        <ele>571.6</ele>
        <time>2026-03-29T09:36:28Z</time>
      </trkpt>
      <trkpt lat="47.95735" lon="6.61443">
        <ele>572.6</ele>
        <time>2026-03-29T09:36:33Z</time>
      </trkpt>
      <trkpt lat="47.95738" lon="6.61447">
        <ele>572.8</ele>
        <time>2026-03-29T09:36:38Z</time>
      </trkpt>
      <trkpt lat="47.9574" lon="6.61451">
        <ele>572.7</ele>
        <time>2026-03-29T09:36:43Z</time>
      </trkpt>
      <trkpt lat="47.95742" lon="6.61452">
        <ele>573.1</ele>
        <time>2026-03-29T09:36:48Z</time>
      </trkpt>
      <trkpt lat="47.95743" lon="6.61453">
        <ele>573.3</ele>
        <time>2026-03-29T09:36:53Z</time>
      </trkpt>
      <trkpt lat="47.95747" lon="6.61454">
        <ele>574.3</ele>
        <time>2026-03-29T09:36:58Z</time>
      </trkpt>
      <trkpt lat="47.95751" lon="6.61453">
        <ele>575.9</ele>
        <time>2026-03-29T09:37:03Z</time>
      </trkpt>
      <trkpt lat="47.95753" lon="6.61452">
        <ele>576.9</ele>
        <time>2026-03-29T09:37:08Z</time>
      </trkpt>
      <trkpt lat="47.95755" lon="6.61446">
        <ele>578.7</ele>
        <time>2026-03-29T09:37:13Z</time>
      </trkpt>
      <trkpt lat="47.95753" lon="6.61439">
        <ele>579.2</ele>
        <time>2026-03-29T09:37:18Z</time>
      </trkpt>
      <trkpt lat="47.95752" lon="6.61433">
        <ele>579.8</ele>
        <time>2026-03-29T09:37:23Z</time>
      </trkpt>
      <trkpt lat="47.95752" lon="6.61427">
        <ele>580.9</ele>
        <time>2026-03-29T09:37:28Z</time>
      </trkpt>
      <trkpt lat="47.95748" lon="6.61423">
        <ele>580.2</ele>
        <time>2026-03-29T09:37:33Z</time>
      </trkpt>
      <trkpt lat="47.95745" lon="6.61417">
        <ele>580.4</ele>
        <time>2026-03-29T09:37:38Z</time>
      </trkpt>
      <trkpt lat="47.95744" lon="6.61413">
        <ele>580.7</ele>
        <time>2026-03-29T09:37:43Z</time>
      </trkpt>
      <trkpt lat="47.95744" lon="6.61413">
        <ele>580.7</ele>
        <time>2026-03-29T09:37:48Z</time>
      </trkpt>
      <trkpt lat="47.95744" lon="6.61413">
        <ele>580.7</ele>
        <time>2026-03-29T09:37:53Z</time>
      </trkpt>
      <trkpt lat="47.95744" lon="6.61413">
        <ele>580.7</ele>
        <time>2026-03-29T09:37:58Z</time>
      </trkpt>
      <trkpt lat="47.95744" lon="6.61413">
        <ele>580.7</ele>
        <time>2026-03-29T09:38:03Z</time>
      </trkpt>
      <trkpt lat="47.95743" lon="6.61407">
        <ele>581.4</ele>
        <time>2026-03-29T09:38:08Z</time>
      </trkpt>
      <trkpt lat="47.95742" lon="6.61402">
        <ele>581.9</ele>
        <time>2026-03-29T09:38:13Z</time>
      </trkpt>
      <trkpt lat="47.95743" lon="6.61396">
        <ele>583.2</ele>
        <time>2026-03-29T09:38:18Z</time>
      </trkpt>
      <trkpt lat="47.95741" lon="6.61391">
        <ele>583.4</ele>
        <time>2026-03-29T09:38:23Z</time>
      </trkpt>
      <trkpt lat="47.9574" lon="6.61384">
        <ele>584.3</ele>
        <time>2026-03-29T09:38:28Z</time>
      </trkpt>
      <trkpt lat="47.95738" lon="6.61376">
        <ele>584.9</ele>
        <time>2026-03-29T09:38:33Z</time>
      </trkpt>
      <trkpt lat="47.95737" lon="6.61369">
        <ele>585.8</ele>
        <time>2026-03-29T09:38:38Z</time>
      </trkpt>
      <trkpt lat="47.95735" lon="6.61362">
        <ele>586.3</ele>
        <time>2026-03-29T09:38:43Z</time>
      </trkpt>
      <trkpt lat="47.95734" lon="6.61354">
        <ele>587.2</ele>
        <time>2026-03-29T09:38:48Z</time>
      </trkpt>
      <trkpt lat="47.95733" lon="6.61349">
        <ele>587.7</ele>
        <time>2026-03-29T09:38:53Z</time>
      </trkpt>
      <trkpt lat="47.9573" lon="6.61342">
        <ele>587.9</ele>
        <time>2026-03-29T09:38:58Z</time>
      </trkpt>
      <trkpt lat="47.9573" lon="6.61333">
        <ele>589.3</ele>
        <time>2026-03-29T09:39:03Z</time>
      </trkpt>
      <trkpt lat="47.95727" lon="6.61328">
        <ele>589</ele>
        <time>2026-03-29T09:39:08Z</time>
      </trkpt>
      <trkpt lat="47.95724" lon="6.61322">
        <ele>588.8</ele>
        <time>2026-03-29T09:39:13Z</time>
      </trkpt>
      <trkpt lat="47.9572" lon="6.61317">
        <ele>588</ele>
        <time>2026-03-29T09:39:18Z</time>
      </trkpt>
      <trkpt lat="47.95717" lon="6.61313">
        <ele>587.5</ele>
        <time>2026-03-29T09:39:23Z</time>
      </trkpt>
      <trkpt lat="47.95714" lon="6.61308">
        <ele>587.1</ele>
        <time>2026-03-29T09:39:28Z</time>
      </trkpt>
      <trkpt lat="47.9571" lon="6.61303">
        <ele>586.2</ele>
        <time>2026-03-29T09:39:33Z</time>
      </trkpt>
      <trkpt lat="47.95707" lon="6.61297">
        <ele>585.9</ele>
        <time>2026-03-29T09:39:38Z</time>
      </trkpt>
      <trkpt lat="47.95704" lon="6.61291">
        <ele>585.5</ele>
        <time>2026-03-29T09:39:43Z</time>
      </trkpt>
      <trkpt lat="47.95701" lon="6.61285">
        <ele>585</ele>
        <time>2026-03-29T09:39:48Z</time>
      </trkpt>
      <trkpt lat="47.957" lon="6.61277">
        <ele>585.6</ele>
        <time>2026-03-29T09:39:53Z</time>
      </trkpt>
      <trkpt lat="47.95699" lon="6.61271">
        <ele>585.8</ele>
        <time>2026-03-29T09:39:58Z</time>
      </trkpt>
      <trkpt lat="47.95699" lon="6.61264">
        <ele>586.6</ele>
        <time>2026-03-29T09:40:03Z</time>
      </trkpt>
      <trkpt lat="47.957" lon="6.61256">
        <ele>587.9</ele>
        <time>2026-03-29T09:40:08Z</time>
      </trkpt>
      <trkpt lat="47.95702" lon="6.6125">
        <ele>589.4</ele>
        <time>2026-03-29T09:40:13Z</time>
      </trkpt>
      <trkpt lat="47.95705" lon="6.61244">
        <ele>591.4</ele>
        <time>2026-03-29T09:40:18Z</time>
      </trkpt>
      <trkpt lat="47.95708" lon="6.61239">
        <ele>593.2</ele>
        <time>2026-03-29T09:40:23Z</time>
      </trkpt>
      <trkpt lat="47.95712" lon="6.61234">
        <ele>595.4</ele>
        <time>2026-03-29T09:40:28Z</time>
      </trkpt>
      <trkpt lat="47.95715" lon="6.6123">
        <ele>597</ele>
        <time>2026-03-29T09:40:33Z</time>
      </trkpt>
      <trkpt lat="47.95717" lon="6.61223">
        <ele>598.6</ele>
        <time>2026-03-29T09:40:38Z</time>
      </trkpt>
      <trkpt lat="47.95718" lon="6.61216">
        <ele>599.8</ele>
        <time>2026-03-29T09:40:43Z</time>
      </trkpt>
      <trkpt lat="47.95716" lon="6.61209">
        <ele>599.9</ele>
        <time>2026-03-29T09:40:48Z</time>
      </trkpt>
      <trkpt lat="47.95716" lon="6.61199">
        <ele>601</ele>
        <time>2026-03-29T09:40:53Z</time>
      </trkpt>
      <trkpt lat="47.95716" lon="6.61192">
        <ele>601.8</ele>
        <time>2026-03-29T09:40:58Z</time>
      </trkpt>
      <trkpt lat="47.95717" lon="6.61183">
        <ele>603.2</ele>
        <time>2026-03-29T09:41:03Z</time>
      </trkpt>
      <trkpt lat="47.95719" lon="6.61174">
        <ele>605</ele>
        <time>2026-03-29T09:41:08Z</time>
      </trkpt>
      <trkpt lat="47.9572" lon="6.61166">
        <ele>606.3</ele>
        <time>2026-03-29T09:41:13Z</time>
      </trkpt>
      <trkpt lat="47.95721" lon="6.61159">
        <ele>607.7</ele>
        <time>2026-03-29T09:41:18Z</time>
      </trkpt>
      <trkpt lat="47.95722" lon="6.61152">
        <ele>609</ele>
        <time>2026-03-29T09:41:23Z</time>
      </trkpt>
      <trkpt lat="47.95723" lon="6.61144">
        <ele>610.5</ele>
        <time>2026-03-29T09:41:28Z</time>
      </trkpt>
      <trkpt lat="47.95724" lon="6.61135">
        <ele>612.1</ele>
        <time>2026-03-29T09:41:33Z</time>
      </trkpt>
      <trkpt lat="47.95723" lon="6.61127">
        <ele>613</ele>
        <time>2026-03-29T09:41:38Z</time>
      </trkpt>
      <trkpt lat="47.95723" lon="6.6112">
        <ele>614</ele>
        <time>2026-03-29T09:41:43Z</time>
      </trkpt>
      <trkpt lat="47.95723" lon="6.61112">
        <ele>615.1</ele>
        <time>2026-03-29T09:41:48Z</time>
      </trkpt>
      <trkpt lat="47.95723" lon="6.61104">
        <ele>616.2</ele>
        <time>2026-03-29T09:41:53Z</time>
      </trkpt>
      <trkpt lat="47.95723" lon="6.61099">
        <ele>617</ele>
        <time>2026-03-29T09:41:58Z</time>
      </trkpt>
      <trkpt lat="47.95724" lon="6.61093">
        <ele>618.1</ele>
        <time>2026-03-29T09:42:03Z</time>
      </trkpt>
      <trkpt lat="47.95724" lon="6.61087">
        <ele>618.9</ele>
        <time>2026-03-29T09:42:08Z</time>
      </trkpt>
      <trkpt lat="47.95725" lon="6.61078">
        <ele>620.4</ele>
        <time>2026-03-29T09:42:13Z</time>
      </trkpt>
      <trkpt lat="47.95723" lon="6.61068">
        <ele>621.3</ele>
        <time>2026-03-29T09:42:18Z</time>
      </trkpt>
      <trkpt lat="47.95722" lon="6.61061">
        <ele>622.1</ele>
        <time>2026-03-29T09:42:23Z</time>
      </trkpt>
      <trkpt lat="47.9572" lon="6.61051">
        <ele>623</ele>
        <time>2026-03-29T09:42:28Z</time>
      </trkpt>
      <trkpt lat="47.95719" lon="6.61042">
        <ele>624.1</ele>
        <time>2026-03-29T09:42:33Z</time>
      </trkpt>
      <trkpt lat="47.95716" lon="6.61034">
        <ele>624.7</ele>
        <time>2026-03-29T09:42:38Z</time>
      </trkpt>
      <trkpt lat="47.95715" lon="6.61027">
        <ele>625.5</ele>
        <time>2026-03-29T09:42:43Z</time>
      </trkpt>
      <trkpt lat="47.95715" lon="6.61021">
        <ele>626.4</ele>
        <time>2026-03-29T09:42:48Z</time>
      </trkpt>
      <trkpt lat="47.95714" lon="6.61015">
        <ele>627.1</ele>
        <time>2026-03-29T09:42:53Z</time>
      </trkpt>
      <trkpt lat="47.95711" lon="6.6101">
        <ele>627.4</ele>
        <time>2026-03-29T09:42:58Z</time>
      </trkpt>
      <trkpt lat="47.95708" lon="6.61004">
        <ele>627.8</ele>
        <time>2026-03-29T09:43:03Z</time>
      </trkpt>
      <trkpt lat="47.95705" lon="6.60999">
        <ele>628.1</ele>
        <time>2026-03-29T09:43:08Z</time>
      </trkpt>
      <trkpt lat="47.95702" lon="6.60991">
        <ele>628.4</ele>
        <time>2026-03-29T09:43:13Z</time>
      </trkpt>
      <trkpt lat="47.95699" lon="6.60987">
        <ele>628.3</ele>
        <time>2026-03-29T09:43:18Z</time>
      </trkpt>
      <trkpt lat="47.95694" lon="6.60986">
        <ele>627.7</ele>
        <time>2026-03-29T09:43:23Z</time>
      </trkpt>
      <trkpt lat="47.95688" lon="6.60985">
        <ele>626.9</ele>
        <time>2026-03-29T09:43:28Z</time>
      </trkpt>
      <trkpt lat="47.95683" lon="6.60989">
        <ele>625.7</ele>
        <time>2026-03-29T09:43:33Z</time>
      </trkpt>
      <trkpt lat="47.95682" lon="6.60989">
        <ele>625.5</ele>
        <time>2026-03-29T09:43:38Z</time>
      </trkpt>
      <trkpt lat="47.95681" lon="6.60987">
        <ele>625.6</ele>
        <time>2026-03-29T09:43:43Z</time>
      </trkpt>
      <trkpt lat="47.95681" lon="6.60987">
        <ele>625.6</ele>
        <time>2026-03-29T09:43:48Z</time>
      </trkpt>
      <trkpt lat="47.95681" lon="6.60987">
        <ele>625.6</ele>
        <time>2026-03-29T09:43:53Z</time>
      </trkpt>
      <trkpt lat="47.95681" lon="6.60987">
        <ele>625.6</ele>
        <time>2026-03-29T09:43:58Z</time>
      </trkpt>
      <trkpt lat="47.95681" lon="6.60987">
        <ele>625.6</ele>
        <time>2026-03-29T09:44:03Z</time>
      </trkpt>
      <trkpt lat="47.95681" lon="6.60987">
        <ele>625.6</ele>
        <time>2026-03-29T09:44:08Z</time>
      </trkpt>
      <trkpt lat="47.95681" lon="6.60987">
        <ele>625.6</ele>
        <time>2026-03-29T09:44:13Z</time>
      </trkpt>
      <trkpt lat="47.95685" lon="6.60989">
        <ele>626</ele>
        <time>2026-03-29T09:44:18Z</time>
      </trkpt>
      <trkpt lat="47.95687" lon="6.60986">
        <ele>626.6</ele>
        <time>2026-03-29T09:44:23Z</time>
      </trkpt>
      <trkpt lat="47.95692" lon="6.60981">
        <ele>627.9</ele>
        <time>2026-03-29T09:44:28Z</time>
      </trkpt>
      <trkpt lat="47.95695" lon="6.60976">
        <ele>628.8</ele>
        <time>2026-03-29T09:44:33Z</time>
      </trkpt>
      <trkpt lat="47.95695" lon="6.60969">
        <ele>629.5</ele>
        <time>2026-03-29T09:44:38Z</time>
      </trkpt>
      <trkpt lat="47.95697" lon="6.6096">
        <ele>630.7</ele>
        <time>2026-03-29T09:44:43Z</time>
      </trkpt>
      <trkpt lat="47.9569" lon="6.60941">
        <ele>631.6</ele>
        <time>2026-03-29T09:44:48Z</time>
      </trkpt>
      <trkpt lat="47.95687" lon="6.60931">
        <ele>632.2</ele>
        <time>2026-03-29T09:44:53Z</time>
      </trkpt>
      <trkpt lat="47.95687" lon="6.60925">
        <ele>632.8</ele>
        <time>2026-03-29T09:44:58Z</time>
      </trkpt>
      <trkpt lat="47.9569" lon="6.60921">
        <ele>633.6</ele>
        <time>2026-03-29T09:45:03Z</time>
      </trkpt>
      <trkpt lat="47.95694" lon="6.6092">
        <ele>634.3</ele>
        <time>2026-03-29T09:45:08Z</time>
      </trkpt>
      <trkpt lat="47.95694" lon="6.6092">
        <ele>634.3</ele>
        <time>2026-03-29T09:45:13Z</time>
      </trkpt>
      <trkpt lat="47.95703" lon="6.60914">
        <ele>636.1</ele>
        <time>2026-03-29T09:45:18Z</time>
      </trkpt>
      <trkpt lat="47.95707" lon="6.60909">
        <ele>637.1</ele>
        <time>2026-03-29T09:45:23Z</time>
      </trkpt>
      <trkpt lat="47.9571" lon="6.60904">
        <ele>638</ele>
        <time>2026-03-29T09:45:28Z</time>
      </trkpt>
      <trkpt lat="47.95714" lon="6.60901">
        <ele>638.7</ele>
        <time>2026-03-29T09:45:33Z</time>
      </trkpt>
      <trkpt lat="47.95718" lon="6.60896">
        <ele>639.6</ele>
        <time>2026-03-29T09:45:38Z</time>
      </trkpt>
      <trkpt lat="47.95721" lon="6.60889">
        <ele>640.4</ele>
        <time>2026-03-29T09:45:43Z</time>
      </trkpt>
      <trkpt lat="47.95724" lon="6.60883">
        <ele>641.2</ele>
        <time>2026-03-29T09:45:48Z</time>
      </trkpt>
      <trkpt lat="47.95726" lon="6.60877">
        <ele>641.8</ele>
        <time>2026-03-29T09:45:53Z</time>
      </trkpt>
      <trkpt lat="47.95729" lon="6.6087">
        <ele>642.5</ele>
        <time>2026-03-29T09:45:58Z</time>
      </trkpt>
      <trkpt lat="47.95732" lon="6.60862">
        <ele>643.2</ele>
        <time>2026-03-29T09:46:03Z</time>
      </trkpt>
      <trkpt lat="47.95735" lon="6.60859">
        <ele>643.5</ele>
        <time>2026-03-29T09:46:08Z</time>
      </trkpt>
      <trkpt lat="47.95738" lon="6.60852">
        <ele>644</ele>
        <time>2026-03-29T09:46:13Z</time>
      </trkpt>
      <trkpt lat="47.95743" lon="6.60846">
        <ele>644.4</ele>
        <time>2026-03-29T09:46:18Z</time>
      </trkpt>
      <trkpt lat="47.95746" lon="6.60842">
        <ele>644.6</ele>
        <time>2026-03-29T09:46:23Z</time>
      </trkpt>
      <trkpt lat="47.95748" lon="6.6084">
        <ele>644.7</ele>
        <time>2026-03-29T09:46:28Z</time>
      </trkpt>
      <trkpt lat="47.95748" lon="6.60845">
        <ele>644.5</ele>
        <time>2026-03-29T09:46:33Z</time>
      </trkpt>
      <trkpt lat="47.95745" lon="6.60852">
        <ele>644.2</ele>
        <time>2026-03-29T09:46:38Z</time>
      </trkpt>
      <trkpt lat="47.95744" lon="6.60859">
        <ele>643.8</ele>
        <time>2026-03-29T09:46:43Z</time>
      </trkpt>
      <trkpt lat="47.95744" lon="6.60867">
        <ele>643.5</ele>
        <time>2026-03-29T09:46:48Z</time>
      </trkpt>
      <trkpt lat="47.95745" lon="6.60876">
        <ele>643.1</ele>
        <time>2026-03-29T09:46:53Z</time>
      </trkpt>
      <trkpt lat="47.95743" lon="6.60884">
        <ele>642.6</ele>
        <time>2026-03-29T09:46:58Z</time>
      </trkpt>
      <trkpt lat="47.95745" lon="6.60891">
        <ele>642.5</ele>
        <time>2026-03-29T09:47:03Z</time>
      </trkpt>
      <trkpt lat="47.95748" lon="6.60898">
        <ele>642.5</ele>
        <time>2026-03-29T09:47:08Z</time>
      </trkpt>
      <trkpt lat="47.95751" lon="6.60906">
        <ele>642.6</ele>
        <time>2026-03-29T09:47:13Z</time>
      </trkpt>
      <trkpt lat="47.95755" lon="6.60909">
        <ele>643.5</ele>
        <time>2026-03-29T09:47:18Z</time>
      </trkpt>
      <trkpt lat="47.95759" lon="6.60912">
        <ele>644.3</ele>
        <time>2026-03-29T09:47:23Z</time>
      </trkpt>
      <trkpt lat="47.95761" lon="6.60916">
        <ele>644.7</ele>
        <time>2026-03-29T09:47:28Z</time>
      </trkpt>
      <trkpt lat="47.95765" lon="6.60918">
        <ele>645.5</ele>
        <time>2026-03-29T09:47:33Z</time>
      </trkpt>
      <trkpt lat="47.95769" lon="6.60919">
        <ele>646.4</ele>
        <time>2026-03-29T09:47:38Z</time>
      </trkpt>
      <trkpt lat="47.95774" lon="6.60918">
        <ele>647.7</ele>
        <time>2026-03-29T09:47:43Z</time>
      </trkpt>
      <trkpt lat="47.95779" lon="6.60914">
        <ele>649</ele>
        <time>2026-03-29T09:47:48Z</time>
      </trkpt>
      <trkpt lat="47.95784" lon="6.60909">
        <ele>650.3</ele>
        <time>2026-03-29T09:47:53Z</time>
      </trkpt>
      <trkpt lat="47.95788" lon="6.60904">
        <ele>651.3</ele>
        <time>2026-03-29T09:47:58Z</time>
      </trkpt>
      <trkpt lat="47.95794" lon="6.60899">
        <ele>652.7</ele>
        <time>2026-03-29T09:48:03Z</time>
      </trkpt>
      <trkpt lat="47.958" lon="6.60895">
        <ele>654.2</ele>
        <time>2026-03-29T09:48:08Z</time>
      </trkpt>
      <trkpt lat="47.95805" lon="6.60892">
        <ele>655.3</ele>
        <time>2026-03-29T09:48:13Z</time>
      </trkpt>
      <trkpt lat="47.9581" lon="6.60887">
        <ele>656.4</ele>
        <time>2026-03-29T09:48:18Z</time>
      </trkpt>
      <trkpt lat="47.95814" lon="6.60883">
        <ele>657.3</ele>
        <time>2026-03-29T09:48:23Z</time>
      </trkpt>
      <trkpt lat="47.95818" lon="6.60881">
        <ele>658.2</ele>
        <time>2026-03-29T09:48:28Z</time>
      </trkpt>
      <trkpt lat="47.95821" lon="6.60879">
        <ele>658.9</ele>
        <time>2026-03-29T09:48:33Z</time>
      </trkpt>
      <trkpt lat="47.95817" lon="6.60879">
        <ele>658</ele>
        <time>2026-03-29T09:48:38Z</time>
      </trkpt>
      <trkpt lat="47.95814" lon="6.60873">
        <ele>657.3</ele>
        <time>2026-03-29T09:48:43Z</time>
      </trkpt>
      <trkpt lat="47.95815" lon="6.60867">
        <ele>657.5</ele>
        <time>2026-03-29T09:48:48Z</time>
      </trkpt>
      <trkpt lat="47.95817" lon="6.60859">
        <ele>657.9</ele>
        <time>2026-03-29T09:48:53Z</time>
      </trkpt>
      <trkpt lat="47.95818" lon="6.60859">
        <ele>658.1</ele>
        <time>2026-03-29T09:48:58Z</time>
      </trkpt>
      <trkpt lat="47.95819" lon="6.60862">
        <ele>658.4</ele>
        <time>2026-03-29T09:49:03Z</time>
      </trkpt>
      <trkpt lat="47.95819" lon="6.60862">
        <ele>658.4</ele>
        <time>2026-03-29T09:49:08Z</time>
      </trkpt>
      <trkpt lat="47.95819" lon="6.60862">
        <ele>658.4</ele>
        <time>2026-03-29T09:49:13Z</time>
      </trkpt>
      <trkpt lat="47.95819" lon="6.60862">
        <ele>658.4</ele>
        <time>2026-03-29T09:49:18Z</time>
      </trkpt>
      <trkpt lat="47.95819" lon="6.60862">
        <ele>658.4</ele>
        <time>2026-03-29T09:49:23Z</time>
      </trkpt>
      <trkpt lat="47.95819" lon="6.60862">
        <ele>658.4</ele>
        <time>2026-03-29T09:49:28Z</time>
      </trkpt>
      <trkpt lat="47.95819" lon="6.60862">
        <ele>658.4</ele>
        <time>2026-03-29T09:49:33Z</time>
      </trkpt>
      <trkpt lat="47.95819" lon="6.60862">
        <ele>658.4</ele>
        <time>2026-03-29T09:49:38Z</time>
      </trkpt>
      <trkpt lat="47.95819" lon="6.60862">
        <ele>658.4</ele>
        <time>2026-03-29T09:49:43Z</time>
      </trkpt>
      <trkpt lat="47.95819" lon="6.60862">
        <ele>658.4</ele>
        <time>2026-03-29T09:49:48Z</time>
      </trkpt>
      <trkpt lat="47.95819" lon="6.60862">
        <ele>658.4</ele>
        <time>2026-03-29T09:49:53Z</time>
      </trkpt>
      <trkpt lat="47.95819" lon="6.60862">
        <ele>658.4</ele>
        <time>2026-03-29T09:49:58Z</time>
      </trkpt>
      <trkpt lat="47.95819" lon="6.60862">
        <ele>658.4</ele>
        <time>2026-03-29T09:50:03Z</time>
      </trkpt>
      <trkpt lat="47.95819" lon="6.60862">
        <ele>658.4</ele>
        <time>2026-03-29T09:50:08Z</time>
      </trkpt>
      <trkpt lat="47.95819" lon="6.60862">
        <ele>658.4</ele>
        <time>2026-03-29T09:50:13Z</time>
      </trkpt>
      <trkpt lat="47.95819" lon="6.60862">
        <ele>658.4</ele>
        <time>2026-03-29T09:50:18Z</time>
      </trkpt>
      <trkpt lat="47.95819" lon="6.60862">
        <ele>658.4</ele>
        <time>2026-03-29T09:50:23Z</time>
      </trkpt>
      <trkpt lat="47.95819" lon="6.60862">
        <ele>658.4</ele>
        <time>2026-03-29T09:50:28Z</time>
      </trkpt>
      <trkpt lat="47.95819" lon="6.60862">
        <ele>658.4</ele>
        <time>2026-03-29T09:50:33Z</time>
      </trkpt>
      <trkpt lat="47.95819" lon="6.60862">
        <ele>658.4</ele>
        <time>2026-03-29T09:50:38Z</time>
      </trkpt>
      <trkpt lat="47.95819" lon="6.60862">
        <ele>658.4</ele>
        <time>2026-03-29T09:50:43Z</time>
      </trkpt>
      <trkpt lat="47.95819" lon="6.60862">
        <ele>658.4</ele>
        <time>2026-03-29T09:50:48Z</time>
      </trkpt>
      <trkpt lat="47.95819" lon="6.60862">
        <ele>658.4</ele>
        <time>2026-03-29T09:50:53Z</time>
      </trkpt>
      <trkpt lat="47.95819" lon="6.60862">
        <ele>658.4</ele>
        <time>2026-03-29T09:50:58Z</time>
      </trkpt>
      <trkpt lat="47.95819" lon="6.60862">
        <ele>658.4</ele>
        <time>2026-03-29T09:51:03Z</time>
      </trkpt>
      <trkpt lat="47.95819" lon="6.60862">
        <ele>658.4</ele>
        <time>2026-03-29T09:51:08Z</time>
      </trkpt>
      <trkpt lat="47.95819" lon="6.60862">
        <ele>658.4</ele>
        <time>2026-03-29T09:51:13Z</time>
      </trkpt>
      <trkpt lat="47.95819" lon="6.60862">
        <ele>658.4</ele>
        <time>2026-03-29T09:51:18Z</time>
      </trkpt>
      <trkpt lat="47.95819" lon="6.60862">
        <ele>658.4</ele>
        <time>2026-03-29T09:51:23Z</time>
      </trkpt>
      <trkpt lat="47.95816" lon="6.60868">
        <ele>657.7</ele>
        <time>2026-03-29T09:51:28Z</time>
      </trkpt>
      <trkpt lat="47.95814" lon="6.60873">
        <ele>657.3</ele>
        <time>2026-03-29T09:51:33Z</time>
      </trkpt>
      <trkpt lat="47.95816" lon="6.60882">
        <ele>657.8</ele>
        <time>2026-03-29T09:51:38Z</time>
      </trkpt>
      <trkpt lat="47.95822" lon="6.60881">
        <ele>659.1</ele>
        <time>2026-03-29T09:51:43Z</time>
      </trkpt>
      <trkpt lat="47.95827" lon="6.60879">
        <ele>660.2</ele>
        <time>2026-03-29T09:51:48Z</time>
      </trkpt>
      <trkpt lat="47.9583" lon="6.60876">
        <ele>660.8</ele>
        <time>2026-03-29T09:51:53Z</time>
      </trkpt>
      <trkpt lat="47.95834" lon="6.60875">
        <ele>661.7</ele>
        <time>2026-03-29T09:51:58Z</time>
      </trkpt>
      <trkpt lat="47.95839" lon="6.60875">
        <ele>662.9</ele>
        <time>2026-03-29T09:52:03Z</time>
      </trkpt>
      <trkpt lat="47.95845" lon="6.60877">
        <ele>664.5</ele>
        <time>2026-03-29T09:52:08Z</time>
      </trkpt>
      <trkpt lat="47.9585" lon="6.60879">
        <ele>665.7</ele>
        <time>2026-03-29T09:52:13Z</time>
      </trkpt>
      <trkpt lat="47.95852" lon="6.60879">
        <ele>666.3</ele>
        <time>2026-03-29T09:52:18Z</time>
      </trkpt>
      <trkpt lat="47.95855" lon="6.60879">
        <ele>667</ele>
        <time>2026-03-29T09:52:23Z</time>
      </trkpt>
      <trkpt lat="47.95857" lon="6.6088">
        <ele>667.5</ele>
        <time>2026-03-29T09:52:28Z</time>
      </trkpt>
      <trkpt lat="47.9586" lon="6.6088">
        <ele>668.3</ele>
        <time>2026-03-29T09:52:33Z</time>
      </trkpt>
      <trkpt lat="47.95864" lon="6.6088">
        <ele>669.3</ele>
        <time>2026-03-29T09:52:38Z</time>
      </trkpt>
      <trkpt lat="47.95867" lon="6.60877">
        <ele>670</ele>
        <time>2026-03-29T09:52:43Z</time>
      </trkpt>
      <trkpt lat="47.9587" lon="6.60874">
        <ele>670.7</ele>
        <time>2026-03-29T09:52:48Z</time>
      </trkpt>
      <trkpt lat="47.95873" lon="6.6087">
        <ele>671.4</ele>
        <time>2026-03-29T09:52:53Z</time>
      </trkpt>
      <trkpt lat="47.95876" lon="6.60869">
        <ele>672.2</ele>
        <time>2026-03-29T09:52:58Z</time>
      </trkpt>
      <trkpt lat="47.95879" lon="6.60865">
        <ele>672.9</ele>
        <time>2026-03-29T09:53:03Z</time>
      </trkpt>
      <trkpt lat="47.95882" lon="6.60863">
        <ele>673.6</ele>
        <time>2026-03-29T09:53:08Z</time>
      </trkpt>
      <trkpt lat="47.95885" lon="6.6086">
        <ele>674.3</ele>
        <time>2026-03-29T09:53:13Z</time>
      </trkpt>
      <trkpt lat="47.95889" lon="6.60859">
        <ele>675.3</ele>
        <time>2026-03-29T09:53:18Z</time>
      </trkpt>
      <trkpt lat="47.95893" lon="6.60859">
        <ele>676.3</ele>
        <time>2026-03-29T09:53:23Z</time>
      </trkpt>
      <trkpt lat="47.95897" lon="6.60859">
        <ele>677.4</ele>
        <time>2026-03-29T09:53:28Z</time>
      </trkpt>
      <trkpt lat="47.959" lon="6.6086">
        <ele>678.1</ele>
        <time>2026-03-29T09:53:33Z</time>
      </trkpt>
      <trkpt lat="47.95903" lon="6.60863">
        <ele>678.9</ele>
        <time>2026-03-29T09:53:38Z</time>
      </trkpt>
      <trkpt lat="47.95905" lon="6.60865">
        <ele>679.4</ele>
        <time>2026-03-29T09:53:43Z</time>
      </trkpt>
      <trkpt lat="47.95908" lon="6.60864">
        <ele>680.2</ele>
        <time>2026-03-29T09:53:48Z</time>
      </trkpt>
      <trkpt lat="47.95911" lon="6.60864">
        <ele>680.9</ele>
        <time>2026-03-29T09:53:53Z</time>
      </trkpt>
      <trkpt lat="47.95915" lon="6.60864">
        <ele>681.9</ele>
        <time>2026-03-29T09:53:58Z</time>
      </trkpt>
      <trkpt lat="47.95919" lon="6.60863">
        <ele>682.7</ele>
        <time>2026-03-29T09:54:03Z</time>
      </trkpt>
      <trkpt lat="47.95923" lon="6.60863">
        <ele>683.3</ele>
        <time>2026-03-29T09:54:08Z</time>
      </trkpt>
      <trkpt lat="47.95927" lon="6.60863">
        <ele>684</ele>
        <time>2026-03-29T09:54:13Z</time>
      </trkpt>
      <trkpt lat="47.95932" lon="6.60864">
        <ele>684.8</ele>
        <time>2026-03-29T09:54:18Z</time>
      </trkpt>
      <trkpt lat="47.95935" lon="6.60862">
        <ele>685.2</ele>
        <time>2026-03-29T09:54:23Z</time>
      </trkpt>
      <trkpt lat="47.95939" lon="6.6086">
        <ele>685.8</ele>
        <time>2026-03-29T09:54:28Z</time>
      </trkpt>
      <trkpt lat="47.95944" lon="6.6086">
        <ele>686.6</ele>
        <time>2026-03-29T09:54:33Z</time>
      </trkpt>
      <trkpt lat="47.95949" lon="6.60858">
        <ele>687.3</ele>
        <time>2026-03-29T09:54:38Z</time>
      </trkpt>
      <trkpt lat="47.95956" lon="6.60855">
        <ele>688.3</ele>
        <time>2026-03-29T09:54:43Z</time>
      </trkpt>
      <trkpt lat="47.95962" lon="6.6085">
        <ele>689.1</ele>
        <time>2026-03-29T09:54:48Z</time>
      </trkpt>
      <trkpt lat="47.95967" lon="6.60843">
        <ele>689.6</ele>
        <time>2026-03-29T09:54:53Z</time>
      </trkpt>
      <trkpt lat="47.95974" lon="6.60841">
        <ele>690.5</ele>
        <time>2026-03-29T09:54:58Z</time>
      </trkpt>
      <trkpt lat="47.95979" lon="6.6084">
        <ele>691.2</ele>
        <time>2026-03-29T09:55:03Z</time>
      </trkpt>
      <trkpt lat="47.95986" lon="6.6084">
        <ele>692.3</ele>
        <time>2026-03-29T09:55:08Z</time>
      </trkpt>
      <trkpt lat="47.95994" lon="6.60843">
        <ele>693.6</ele>
        <time>2026-03-29T09:55:13Z</time>
      </trkpt>
      <trkpt lat="47.96" lon="6.6084">
        <ele>694.3</ele>
        <time>2026-03-29T09:55:18Z</time>
      </trkpt>
      <trkpt lat="47.95998" lon="6.60833">
        <ele>693.7</ele>
        <time>2026-03-29T09:55:23Z</time>
      </trkpt>
      <trkpt lat="47.95993" lon="6.60826">
        <ele>692.2</ele>
        <time>2026-03-29T09:55:28Z</time>
      </trkpt>
      <trkpt lat="47.95992" lon="6.60821">
        <ele>691.5</ele>
        <time>2026-03-29T09:55:33Z</time>
      </trkpt>
      <trkpt lat="47.95993" lon="6.60818">
        <ele>691.4</ele>
        <time>2026-03-29T09:55:38Z</time>
      </trkpt>
      <trkpt lat="47.95994" lon="6.60818">
        <ele>691.5</ele>
        <time>2026-03-29T09:55:43Z</time>
      </trkpt>
      <trkpt lat="47.95996" lon="6.60826">
        <ele>692.6</ele>
        <time>2026-03-29T09:55:48Z</time>
      </trkpt>
      <trkpt lat="47.95999" lon="6.60836">
        <ele>694</ele>
        <time>2026-03-29T09:55:53Z</time>
      </trkpt>
      <trkpt lat="47.96005" lon="6.6084">
        <ele>694.4</ele>
        <time>2026-03-29T09:55:58Z</time>
      </trkpt>
      <trkpt lat="47.96012" lon="6.60839">
        <ele>694.4</ele>
        <time>2026-03-29T09:56:03Z</time>
      </trkpt>
      <trkpt lat="47.96016" lon="6.60835">
        <ele>694.3</ele>
        <time>2026-03-29T09:56:08Z</time>
      </trkpt>
      <trkpt lat="47.96015" lon="6.6083">
        <ele>693.9</ele>
        <time>2026-03-29T09:56:13Z</time>
      </trkpt>
      <trkpt lat="47.96014" lon="6.60828">
        <ele>693.7</ele>
        <time>2026-03-29T09:56:18Z</time>
      </trkpt>
      <trkpt lat="47.96014" lon="6.60828">
        <ele>693.7</ele>
        <time>2026-03-29T09:56:23Z</time>
      </trkpt>
      <trkpt lat="47.96014" lon="6.60828">
        <ele>693.7</ele>
        <time>2026-03-29T09:56:28Z</time>
      </trkpt>
      <trkpt lat="47.96014" lon="6.60828">
        <ele>693.7</ele>
        <time>2026-03-29T09:56:33Z</time>
      </trkpt>
      <trkpt lat="47.96014" lon="6.60828">
        <ele>693.7</ele>
        <time>2026-03-29T09:56:38Z</time>
      </trkpt>
      <trkpt lat="47.96014" lon="6.60828">
        <ele>693.7</ele>
        <time>2026-03-29T09:56:43Z</time>
      </trkpt>
      <trkpt lat="47.96014" lon="6.60828">
        <ele>693.7</ele>
        <time>2026-03-29T09:56:48Z</time>
      </trkpt>
      <trkpt lat="47.96014" lon="6.60828">
        <ele>693.7</ele>
        <time>2026-03-29T09:56:53Z</time>
      </trkpt>
      <trkpt lat="47.96021" lon="6.60843">
        <ele>694.7</ele>
        <time>2026-03-29T09:56:58Z</time>
      </trkpt>
      <trkpt lat="47.96026" lon="6.60837">
        <ele>694.5</ele>
        <time>2026-03-29T09:57:03Z</time>
      </trkpt>
      <trkpt lat="47.96032" lon="6.6083">
        <ele>694.1</ele>
        <time>2026-03-29T09:57:08Z</time>
      </trkpt>
      <trkpt lat="47.96037" lon="6.60825">
        <ele>693.8</ele>
        <time>2026-03-29T09:57:13Z</time>
      </trkpt>
      <trkpt lat="47.96041" lon="6.60815">
        <ele>693.2</ele>
        <time>2026-03-29T09:57:18Z</time>
      </trkpt>
      <trkpt lat="47.96043" lon="6.60805">
        <ele>692.5</ele>
        <time>2026-03-29T09:57:23Z</time>
      </trkpt>
      <trkpt lat="47.96047" lon="6.60794">
        <ele>691.9</ele>
        <time>2026-03-29T09:57:28Z</time>
      </trkpt>
      <trkpt lat="47.9605" lon="6.60786">
        <ele>691.5</ele>
        <time>2026-03-29T09:57:33Z</time>
      </trkpt>
      <trkpt lat="47.96052" lon="6.60778">
        <ele>691.1</ele>
        <time>2026-03-29T09:57:38Z</time>
      </trkpt>
      <trkpt lat="47.96054" lon="6.6077">
        <ele>690.8</ele>
        <time>2026-03-29T09:57:43Z</time>
      </trkpt>
      <trkpt lat="47.96056" lon="6.60768">
        <ele>690.8</ele>
        <time>2026-03-29T09:57:48Z</time>
      </trkpt>
      <trkpt lat="47.96058" lon="6.60766">
        <ele>690.8</ele>
        <time>2026-03-29T09:57:53Z</time>
      </trkpt>
      <trkpt lat="47.96058" lon="6.60759">
        <ele>690.4</ele>
        <time>2026-03-29T09:57:58Z</time>
      </trkpt>
      <trkpt lat="47.96061" lon="6.60755">
        <ele>690.4</ele>
        <time>2026-03-29T09:58:03Z</time>
      </trkpt>
      <trkpt lat="47.96064" lon="6.60751">
        <ele>690.4</ele>
        <time>2026-03-29T09:58:08Z</time>
      </trkpt>
      <trkpt lat="47.96067" lon="6.60747">
        <ele>690.5</ele>
        <time>2026-03-29T09:58:13Z</time>
      </trkpt>
      <trkpt lat="47.9607" lon="6.60743">
        <ele>690.6</ele>
        <time>2026-03-29T09:58:18Z</time>
      </trkpt>
      <trkpt lat="47.96073" lon="6.60739">
        <ele>690.7</ele>
        <time>2026-03-29T09:58:23Z</time>
      </trkpt>
      <trkpt lat="47.96077" lon="6.60735">
        <ele>690.9</ele>
        <time>2026-03-29T09:58:28Z</time>
      </trkpt>
      <trkpt lat="47.96081" lon="6.60732">
        <ele>691.1</ele>
        <time>2026-03-29T09:58:33Z</time>
      </trkpt>
      <trkpt lat="47.96085" lon="6.60729">
        <ele>691.5</ele>
        <time>2026-03-29T09:58:38Z</time>
      </trkpt>
      <trkpt lat="47.96088" lon="6.60725">
        <ele>691.9</ele>
        <time>2026-03-29T09:58:43Z</time>
      </trkpt>
      <trkpt lat="47.96091" lon="6.60721">
        <ele>692.2</ele>
        <time>2026-03-29T09:58:48Z</time>
      </trkpt>
      <trkpt lat="47.96094" lon="6.60716">
        <ele>692.6</ele>
        <time>2026-03-29T09:58:53Z</time>
      </trkpt>
      <trkpt lat="47.96098" lon="6.60712">
        <ele>693.2</ele>
        <time>2026-03-29T09:58:58Z</time>
      </trkpt>
      <trkpt lat="47.96102" lon="6.60708">
        <ele>693.7</ele>
        <time>2026-03-29T09:59:03Z</time>
      </trkpt>
      <trkpt lat="47.96106" lon="6.60705">
        <ele>694.4</ele>
        <time>2026-03-29T09:59:08Z</time>
      </trkpt>
      <trkpt lat="47.96111" lon="6.60702">
        <ele>695.2</ele>
        <time>2026-03-29T09:59:13Z</time>
      </trkpt>
      <trkpt lat="47.96114" lon="6.60699">
        <ele>695.6</ele>
        <time>2026-03-29T09:59:18Z</time>
      </trkpt>
      <trkpt lat="47.96118" lon="6.60696">
        <ele>696.3</ele>
        <time>2026-03-29T09:59:23Z</time>
      </trkpt>
      <trkpt lat="47.96122" lon="6.60693">
        <ele>696.9</ele>
        <time>2026-03-29T09:59:28Z</time>
      </trkpt>
      <trkpt lat="47.96127" lon="6.6069">
        <ele>697.8</ele>
        <time>2026-03-29T09:59:33Z</time>
      </trkpt>
      <trkpt lat="47.9613" lon="6.60686">
        <ele>698.3</ele>
        <time>2026-03-29T09:59:38Z</time>
      </trkpt>
      <trkpt lat="47.96134" lon="6.6068">
        <ele>698.9</ele>
        <time>2026-03-29T09:59:43Z</time>
      </trkpt>
      <trkpt lat="47.96136" lon="6.60675">
        <ele>699.2</ele>
        <time>2026-03-29T09:59:48Z</time>
      </trkpt>
      <trkpt lat="47.9614" lon="6.60669">
        <ele>699.9</ele>
        <time>2026-03-29T09:59:53Z</time>
      </trkpt>
      <trkpt lat="47.96141" lon="6.60663">
        <ele>700.1</ele>
        <time>2026-03-29T09:59:58Z</time>
      </trkpt>
      <trkpt lat="47.96143" lon="6.60658">
        <ele>700.6</ele>
        <time>2026-03-29T10:00:03Z</time>
      </trkpt>
      <trkpt lat="47.96146" lon="6.60654">
        <ele>701.2</ele>
        <time>2026-03-29T10:00:08Z</time>
      </trkpt>
      <trkpt lat="47.96147" lon="6.60648">
        <ele>701.5</ele>
        <time>2026-03-29T10:00:13Z</time>
      </trkpt>
      <trkpt lat="47.9615" lon="6.60641">
        <ele>702.2</ele>
        <time>2026-03-29T10:00:18Z</time>
      </trkpt>
      <trkpt lat="47.96154" lon="6.60638">
        <ele>703</ele>
        <time>2026-03-29T10:00:23Z</time>
      </trkpt>
      <trkpt lat="47.96154" lon="6.60638">
        <ele>703</ele>
        <time>2026-03-29T10:00:28Z</time>
      </trkpt>
      <trkpt lat="47.96154" lon="6.60638">
        <ele>703</ele>
        <time>2026-03-29T10:00:33Z</time>
      </trkpt>
      <trkpt lat="47.96154" lon="6.60638">
        <ele>703</ele>
        <time>2026-03-29T10:00:38Z</time>
      </trkpt>
      <trkpt lat="47.96154" lon="6.60638">
        <ele>703</ele>
        <time>2026-03-29T10:00:43Z</time>
      </trkpt>
      <trkpt lat="47.96154" lon="6.60638">
        <ele>703</ele>
        <time>2026-03-29T10:00:48Z</time>
      </trkpt>
      <trkpt lat="47.96154" lon="6.60638">
        <ele>703</ele>
        <time>2026-03-29T10:00:53Z</time>
      </trkpt>
      <trkpt lat="47.96154" lon="6.60638">
        <ele>703</ele>
        <time>2026-03-29T10:00:58Z</time>
      </trkpt>
      <trkpt lat="47.96154" lon="6.60638">
        <ele>703</ele>
        <time>2026-03-29T10:01:03Z</time>
      </trkpt>
      <trkpt lat="47.96154" lon="6.60638">
        <ele>703</ele>
        <time>2026-03-29T10:01:08Z</time>
      </trkpt>
      <trkpt lat="47.96154" lon="6.60638">
        <ele>703</ele>
        <time>2026-03-29T10:01:13Z</time>
      </trkpt>
      <trkpt lat="47.96154" lon="6.60638">
        <ele>703</ele>
        <time>2026-03-29T10:01:18Z</time>
      </trkpt>
      <trkpt lat="47.96154" lon="6.60638">
        <ele>703</ele>
        <time>2026-03-29T10:01:23Z</time>
      </trkpt>
      <trkpt lat="47.96154" lon="6.60638">
        <ele>703</ele>
        <time>2026-03-29T10:01:28Z</time>
      </trkpt>
      <trkpt lat="47.96156" lon="6.60632">
        <ele>703.4</ele>
        <time>2026-03-29T10:01:33Z</time>
      </trkpt>
      <trkpt lat="47.96163" lon="6.60629">
        <ele>704.8</ele>
        <time>2026-03-29T10:01:38Z</time>
      </trkpt>
      <trkpt lat="47.96169" lon="6.60625">
        <ele>706</ele>
        <time>2026-03-29T10:01:43Z</time>
      </trkpt>
      <trkpt lat="47.96174" lon="6.60625">
        <ele>707</ele>
        <time>2026-03-29T10:01:48Z</time>
      </trkpt>
      <trkpt lat="47.96179" lon="6.60624">
        <ele>708</ele>
        <time>2026-03-29T10:01:53Z</time>
      </trkpt>
      <trkpt lat="47.96183" lon="6.60622">
        <ele>708.8</ele>
        <time>2026-03-29T10:01:58Z</time>
      </trkpt>
      <trkpt lat="47.96189" lon="6.60621">
        <ele>710.1</ele>
        <time>2026-03-29T10:02:03Z</time>
      </trkpt>
      <trkpt lat="47.96194" lon="6.60619">
        <ele>711.1</ele>
        <time>2026-03-29T10:02:08Z</time>
      </trkpt>
      <trkpt lat="47.96199" lon="6.60621">
        <ele>712.1</ele>
        <time>2026-03-29T10:02:13Z</time>
      </trkpt>
      <trkpt lat="47.96203" lon="6.60622">
        <ele>712.8</ele>
        <time>2026-03-29T10:02:18Z</time>
      </trkpt>
      <trkpt lat="47.96209" lon="6.60622">
        <ele>714</ele>
        <time>2026-03-29T10:02:23Z</time>
      </trkpt>
      <trkpt lat="47.96216" lon="6.60623">
        <ele>715.4</ele>
        <time>2026-03-29T10:02:28Z</time>
      </trkpt>
      <trkpt lat="47.9622" lon="6.60625">
        <ele>716.1</ele>
        <time>2026-03-29T10:02:33Z</time>
      </trkpt>
      <trkpt lat="47.96226" lon="6.60628">
        <ele>717</ele>
        <time>2026-03-29T10:02:38Z</time>
      </trkpt>
      <trkpt lat="47.96232" lon="6.60631">
        <ele>718</ele>
        <time>2026-03-29T10:02:43Z</time>
      </trkpt>
      <trkpt lat="47.96235" lon="6.60635">
        <ele>718.2</ele>
        <time>2026-03-29T10:02:48Z</time>
      </trkpt>
      <trkpt lat="47.9624" lon="6.60638">
        <ele>718.9</ele>
        <time>2026-03-29T10:02:53Z</time>
      </trkpt>
      <trkpt lat="47.96245" lon="6.60641">
        <ele>719.6</ele>
        <time>2026-03-29T10:02:58Z</time>
      </trkpt>
      <trkpt lat="47.9625" lon="6.60641">
        <ele>720.5</ele>
        <time>2026-03-29T10:03:03Z</time>
      </trkpt>
      <trkpt lat="47.96255" lon="6.6064">
        <ele>721.2</ele>
        <time>2026-03-29T10:03:08Z</time>
      </trkpt>
      <trkpt lat="47.96261" lon="6.60641">
        <ele>721.9</ele>
        <time>2026-03-29T10:03:13Z</time>
      </trkpt>
      <trkpt lat="47.96267" lon="6.60643">
        <ele>722.5</ele>
        <time>2026-03-29T10:03:18Z</time>
      </trkpt>
      <trkpt lat="47.96272" lon="6.6064">
        <ele>723.4</ele>
        <time>2026-03-29T10:03:23Z</time>
      </trkpt>
      <trkpt lat="47.96279" lon="6.60637">
        <ele>724.6</ele>
        <time>2026-03-29T10:03:28Z</time>
      </trkpt>
      <trkpt lat="47.96283" lon="6.60631">
        <ele>725.6</ele>
        <time>2026-03-29T10:03:33Z</time>
      </trkpt>
      <trkpt lat="47.96287" lon="6.60626">
        <ele>726.6</ele>
        <time>2026-03-29T10:03:38Z</time>
      </trkpt>
      <trkpt lat="47.96291" lon="6.60619">
        <ele>727.7</ele>
        <time>2026-03-29T10:03:43Z</time>
      </trkpt>
      <trkpt lat="47.96295" lon="6.60612">
        <ele>728.8</ele>
        <time>2026-03-29T10:03:48Z</time>
      </trkpt>
      <trkpt lat="47.963" lon="6.60605">
        <ele>730.1</ele>
        <time>2026-03-29T10:03:53Z</time>
      </trkpt>
      <trkpt lat="47.96305" lon="6.60596">
        <ele>731.5</ele>
        <time>2026-03-29T10:03:58Z</time>
      </trkpt>
      <trkpt lat="47.96313" lon="6.60586">
        <ele>733.3</ele>
        <time>2026-03-29T10:04:03Z</time>
      </trkpt>
      <trkpt lat="47.9632" lon="6.60578">
        <ele>734.7</ele>
        <time>2026-03-29T10:04:08Z</time>
      </trkpt>
      <trkpt lat="47.96325" lon="6.6057">
        <ele>735.7</ele>
        <time>2026-03-29T10:04:13Z</time>
      </trkpt>
      <trkpt lat="47.96327" lon="6.60562">
        <ele>736.3</ele>
        <time>2026-03-29T10:04:18Z</time>
      </trkpt>
      <trkpt lat="47.9633" lon="6.60554">
        <ele>737</ele>
        <time>2026-03-29T10:04:23Z</time>
      </trkpt>
      <trkpt lat="47.96333" lon="6.60546">
        <ele>737.8</ele>
        <time>2026-03-29T10:04:28Z</time>
      </trkpt>
      <trkpt lat="47.96339" lon="6.60538">
        <ele>738.2</ele>
        <time>2026-03-29T10:04:33Z</time>
      </trkpt>
      <trkpt lat="47.96345" lon="6.60532">
        <ele>738.5</ele>
        <time>2026-03-29T10:04:38Z</time>
      </trkpt>
      <trkpt lat="47.96348" lon="6.60526">
        <ele>738.8</ele>
        <time>2026-03-29T10:04:43Z</time>
      </trkpt>
      <trkpt lat="47.96354" lon="6.6052">
        <ele>739.1</ele>
        <time>2026-03-29T10:04:48Z</time>
      </trkpt>
      <trkpt lat="47.9636" lon="6.60519">
        <ele>739.2</ele>
        <time>2026-03-29T10:04:53Z</time>
      </trkpt>
      <trkpt lat="47.96367" lon="6.60514">
        <ele>739.4</ele>
        <time>2026-03-29T10:04:58Z</time>
      </trkpt>
      <trkpt lat="47.96374" lon="6.6051">
        <ele>739.6</ele>
        <time>2026-03-29T10:05:03Z</time>
      </trkpt>
      <trkpt lat="47.9638" lon="6.60506">
        <ele>739.8</ele>
        <time>2026-03-29T10:05:08Z</time>
      </trkpt>
      <trkpt lat="47.96388" lon="6.60503">
        <ele>739.9</ele>
        <time>2026-03-29T10:05:13Z</time>
      </trkpt>
      <trkpt lat="47.96394" lon="6.605">
        <ele>740</ele>
        <time>2026-03-29T10:05:18Z</time>
      </trkpt>
      <trkpt lat="47.96402" lon="6.60497">
        <ele>740.3</ele>
        <time>2026-03-29T10:05:23Z</time>
      </trkpt>
      <trkpt lat="47.96409" lon="6.60495">
        <ele>740.5</ele>
        <time>2026-03-29T10:05:28Z</time>
      </trkpt>
      <trkpt lat="47.96416" lon="6.60492">
        <ele>740.9</ele>
        <time>2026-03-29T10:05:33Z</time>
      </trkpt>
      <trkpt lat="47.96423" lon="6.60489">
        <ele>740.9</ele>
        <time>2026-03-29T10:05:38Z</time>
      </trkpt>
      <trkpt lat="47.96429" lon="6.60486">
        <ele>741</ele>
        <time>2026-03-29T10:05:43Z</time>
      </trkpt>
      <trkpt lat="47.96436" lon="6.60485">
        <ele>740.8</ele>
        <time>2026-03-29T10:05:48Z</time>
      </trkpt>
      <trkpt lat="47.96444" lon="6.60485">
        <ele>740.4</ele>
        <time>2026-03-29T10:05:53Z</time>
      </trkpt>
      <trkpt lat="47.96451" lon="6.60488">
        <ele>739.8</ele>
        <time>2026-03-29T10:05:58Z</time>
      </trkpt>
      <trkpt lat="47.96458" lon="6.6049">
        <ele>739.2</ele>
        <time>2026-03-29T10:06:03Z</time>
      </trkpt>
      <trkpt lat="47.96465" lon="6.60494">
        <ele>738.4</ele>
        <time>2026-03-29T10:06:08Z</time>
      </trkpt>
      <trkpt lat="47.96473" lon="6.60496">
        <ele>737.8</ele>
        <time>2026-03-29T10:06:13Z</time>
      </trkpt>
      <trkpt lat="47.9648" lon="6.605">
        <ele>737</ele>
        <time>2026-03-29T10:06:18Z</time>
      </trkpt>
      <trkpt lat="47.96487" lon="6.60505">
        <ele>736.3</ele>
        <time>2026-03-29T10:06:23Z</time>
      </trkpt>
      <trkpt lat="47.96493" lon="6.60508">
        <ele>735.9</ele>
        <time>2026-03-29T10:06:28Z</time>
      </trkpt>
      <trkpt lat="47.965" lon="6.60512">
        <ele>735.3</ele>
        <time>2026-03-29T10:06:33Z</time>
      </trkpt>
      <trkpt lat="47.96508" lon="6.60515">
        <ele>734.7</ele>
        <time>2026-03-29T10:06:38Z</time>
      </trkpt>
      <trkpt lat="47.96514" lon="6.60519">
        <ele>734.1</ele>
        <time>2026-03-29T10:06:43Z</time>
      </trkpt>
      <trkpt lat="47.96522" lon="6.60523">
        <ele>733.4</ele>
        <time>2026-03-29T10:06:48Z</time>
      </trkpt>
      <trkpt lat="47.96529" lon="6.60525">
        <ele>733</ele>
        <time>2026-03-29T10:06:53Z</time>
      </trkpt>
      <trkpt lat="47.96537" lon="6.60528">
        <ele>732.4</ele>
        <time>2026-03-29T10:06:58Z</time>
      </trkpt>
      <trkpt lat="47.96544" lon="6.60531">
        <ele>731.9</ele>
        <time>2026-03-29T10:07:03Z</time>
      </trkpt>
      <trkpt lat="47.96552" lon="6.60533">
        <ele>731.4</ele>
        <time>2026-03-29T10:07:08Z</time>
      </trkpt>
      <trkpt lat="47.96558" lon="6.60535">
        <ele>731</ele>
        <time>2026-03-29T10:07:13Z</time>
      </trkpt>
      <trkpt lat="47.96564" lon="6.60536">
        <ele>730.7</ele>
        <time>2026-03-29T10:07:18Z</time>
      </trkpt>
      <trkpt lat="47.96573" lon="6.60537">
        <ele>730.2</ele>
        <time>2026-03-29T10:07:23Z</time>
      </trkpt>
      <trkpt lat="47.9658" lon="6.60539">
        <ele>729.8</ele>
        <time>2026-03-29T10:07:28Z</time>
      </trkpt>
      <trkpt lat="47.96586" lon="6.60543">
        <ele>729.3</ele>
        <time>2026-03-29T10:07:33Z</time>
      </trkpt>
      <trkpt lat="47.96595" lon="6.60544">
        <ele>728.8</ele>
        <time>2026-03-29T10:07:38Z</time>
      </trkpt>
      <trkpt lat="47.96601" lon="6.60549">
        <ele>728.4</ele>
        <time>2026-03-29T10:07:43Z</time>
      </trkpt>
      <trkpt lat="47.96609" lon="6.60552">
        <ele>727.8</ele>
        <time>2026-03-29T10:07:48Z</time>
      </trkpt>
      <trkpt lat="47.96616" lon="6.60549">
        <ele>727.6</ele>
        <time>2026-03-29T10:07:53Z</time>
      </trkpt>
      <trkpt lat="47.96623" lon="6.60547">
        <ele>727.3</ele>
        <time>2026-03-29T10:07:58Z</time>
      </trkpt>
      <trkpt lat="47.96631" lon="6.60547">
        <ele>726.9</ele>
        <time>2026-03-29T10:08:03Z</time>
      </trkpt>
      <trkpt lat="47.96637" lon="6.60545">
        <ele>726.8</ele>
        <time>2026-03-29T10:08:08Z</time>
      </trkpt>
      <trkpt lat="47.96644" lon="6.60542">
        <ele>726.6</ele>
        <time>2026-03-29T10:08:13Z</time>
      </trkpt>
      <trkpt lat="47.96647" lon="6.60542">
        <ele>726.4</ele>
        <time>2026-03-29T10:08:18Z</time>
      </trkpt>
      <trkpt lat="47.96649" lon="6.6054">
        <ele>726.4</ele>
        <time>2026-03-29T10:08:23Z</time>
      </trkpt>
      <trkpt lat="47.96649" lon="6.6054">
        <ele>726.4</ele>
        <time>2026-03-29T10:08:28Z</time>
      </trkpt>
      <trkpt lat="47.96651" lon="6.60539">
        <ele>726.4</ele>
        <time>2026-03-29T10:08:33Z</time>
      </trkpt>
      <trkpt lat="47.96658" lon="6.60536">
        <ele>726.2</ele>
        <time>2026-03-29T10:08:38Z</time>
      </trkpt>
      <trkpt lat="47.96665" lon="6.60529">
        <ele>726.3</ele>
        <time>2026-03-29T10:08:43Z</time>
      </trkpt>
      <trkpt lat="47.96671" lon="6.60526">
        <ele>726.1</ele>
        <time>2026-03-29T10:08:48Z</time>
      </trkpt>
      <trkpt lat="47.96672" lon="6.60527">
        <ele>726</ele>
        <time>2026-03-29T10:08:53Z</time>
      </trkpt>
      <trkpt lat="47.96672" lon="6.60527">
        <ele>726</ele>
        <time>2026-03-29T10:08:58Z</time>
      </trkpt>
      <trkpt lat="47.96673" lon="6.60523">
        <ele>726.1</ele>
        <time>2026-03-29T10:09:03Z</time>
      </trkpt>
      <trkpt lat="47.96678" lon="6.60517">
        <ele>726.1</ele>
        <time>2026-03-29T10:09:08Z</time>
      </trkpt>
      <trkpt lat="47.96683" lon="6.6051">
        <ele>726.1</ele>
        <time>2026-03-29T10:09:13Z</time>
      </trkpt>
      <trkpt lat="47.96689" lon="6.60503">
        <ele>726</ele>
        <time>2026-03-29T10:09:18Z</time>
      </trkpt>
      <trkpt lat="47.96695" lon="6.60497">
        <ele>725.8</ele>
        <time>2026-03-29T10:09:23Z</time>
      </trkpt>
      <trkpt lat="47.967" lon="6.60491">
        <ele>725.8</ele>
        <time>2026-03-29T10:09:28Z</time>
      </trkpt>
      <trkpt lat="47.96707" lon="6.60486">
        <ele>725.6</ele>
        <time>2026-03-29T10:09:33Z</time>
      </trkpt>
      <trkpt lat="47.96714" lon="6.60481">
        <ele>725.4</ele>
        <time>2026-03-29T10:09:38Z</time>
      </trkpt>
      <trkpt lat="47.96719" lon="6.60473">
        <ele>725.6</ele>
        <time>2026-03-29T10:09:43Z</time>
      </trkpt>
      <trkpt lat="47.96722" lon="6.60464">
        <ele>726.1</ele>
        <time>2026-03-29T10:09:48Z</time>
      </trkpt>
      <trkpt lat="47.96722" lon="6.60461">
        <ele>726.3</ele>
        <time>2026-03-29T10:09:53Z</time>
      </trkpt>
      <trkpt lat="47.96723" lon="6.6045">
        <ele>727.1</ele>
        <time>2026-03-29T10:09:58Z</time>
      </trkpt>
      <trkpt lat="47.96723" lon="6.6044">
        <ele>727.8</ele>
        <time>2026-03-29T10:10:03Z</time>
      </trkpt>
      <trkpt lat="47.96723" lon="6.60431">
        <ele>728.5</ele>
        <time>2026-03-29T10:10:08Z</time>
      </trkpt>
      <trkpt lat="47.96722" lon="6.60423">
        <ele>729.2</ele>
        <time>2026-03-29T10:10:13Z</time>
      </trkpt>
      <trkpt lat="47.96721" lon="6.60415">
        <ele>729.7</ele>
        <time>2026-03-29T10:10:18Z</time>
      </trkpt>
      <trkpt lat="47.9672" lon="6.6041">
        <ele>729.7</ele>
        <time>2026-03-29T10:10:23Z</time>
      </trkpt>
      <trkpt lat="47.9672" lon="6.60408">
        <ele>729.7</ele>
        <time>2026-03-29T10:10:28Z</time>
      </trkpt>
      <trkpt lat="47.96719" lon="6.60404">
        <ele>729.7</ele>
        <time>2026-03-29T10:10:33Z</time>
      </trkpt>
      <trkpt lat="47.96718" lon="6.60397">
        <ele>729.6</ele>
        <time>2026-03-29T10:10:38Z</time>
      </trkpt>
      <trkpt lat="47.96715" lon="6.60386">
        <ele>729.6</ele>
        <time>2026-03-29T10:10:43Z</time>
      </trkpt>
      <trkpt lat="47.96715" lon="6.60377">
        <ele>729.5</ele>
        <time>2026-03-29T10:10:48Z</time>
      </trkpt>
      <trkpt lat="47.96713" lon="6.60368">
        <ele>729.4</ele>
        <time>2026-03-29T10:10:53Z</time>
      </trkpt>
      <trkpt lat="47.96712" lon="6.60358">
        <ele>729.3</ele>
        <time>2026-03-29T10:10:58Z</time>
      </trkpt>
      <trkpt lat="47.96712" lon="6.60349">
        <ele>729.2</ele>
        <time>2026-03-29T10:11:03Z</time>
      </trkpt>
      <trkpt lat="47.96712" lon="6.60341">
        <ele>729</ele>
        <time>2026-03-29T10:11:08Z</time>
      </trkpt>
      <trkpt lat="47.96711" lon="6.6034">
        <ele>729</ele>
        <time>2026-03-29T10:11:13Z</time>
      </trkpt>
      <trkpt lat="47.9671" lon="6.60337">
        <ele>729</ele>
        <time>2026-03-29T10:11:18Z</time>
      </trkpt>
      <trkpt lat="47.9671" lon="6.60326">
        <ele>728.5</ele>
        <time>2026-03-29T10:11:23Z</time>
      </trkpt>
      <trkpt lat="47.96708" lon="6.60307">
        <ele>727.4</ele>
        <time>2026-03-29T10:11:28Z</time>
      </trkpt>
      <trkpt lat="47.96708" lon="6.60295">
        <ele>726.7</ele>
        <time>2026-03-29T10:11:33Z</time>
      </trkpt>
      <trkpt lat="47.9671" lon="6.60287">
        <ele>726.2</ele>
        <time>2026-03-29T10:11:38Z</time>
      </trkpt>
      <trkpt lat="47.96709" lon="6.60277">
        <ele>725.6</ele>
        <time>2026-03-29T10:11:43Z</time>
      </trkpt>
      <trkpt lat="47.9671" lon="6.60273">
        <ele>725.3</ele>
        <time>2026-03-29T10:11:48Z</time>
      </trkpt>
      <trkpt lat="47.96709" lon="6.60263">
        <ele>724.8</ele>
        <time>2026-03-29T10:11:53Z</time>
      </trkpt>
      <trkpt lat="47.96709" lon="6.6025">
        <ele>724</ele>
        <time>2026-03-29T10:11:58Z</time>
      </trkpt>
      <trkpt lat="47.9671" lon="6.60237">
        <ele>722.8</ele>
        <time>2026-03-29T10:12:03Z</time>
      </trkpt>
      <trkpt lat="47.9671" lon="6.60227">
        <ele>721.9</ele>
        <time>2026-03-29T10:12:08Z</time>
      </trkpt>
      <trkpt lat="47.96711" lon="6.60215">
        <ele>720.8</ele>
        <time>2026-03-29T10:12:13Z</time>
      </trkpt>
      <trkpt lat="47.96712" lon="6.60203">
        <ele>719.8</ele>
        <time>2026-03-29T10:12:18Z</time>
      </trkpt>
      <trkpt lat="47.96712" lon="6.60191">
        <ele>718.7</ele>
        <time>2026-03-29T10:12:23Z</time>
      </trkpt>
      <trkpt lat="47.96715" lon="6.6018">
        <ele>717.7</ele>
        <time>2026-03-29T10:12:28Z</time>
      </trkpt>
      <trkpt lat="47.96718" lon="6.60171">
        <ele>717</ele>
        <time>2026-03-29T10:12:33Z</time>
      </trkpt>
      <trkpt lat="47.96722" lon="6.60159">
        <ele>716</ele>
        <time>2026-03-29T10:12:38Z</time>
      </trkpt>
      <trkpt lat="47.96726" lon="6.60148">
        <ele>715</ele>
        <time>2026-03-29T10:12:43Z</time>
      </trkpt>
      <trkpt lat="47.96727" lon="6.6014">
        <ele>714.3</ele>
        <time>2026-03-29T10:12:48Z</time>
      </trkpt>
      <trkpt lat="47.96731" lon="6.60131">
        <ele>713.6</ele>
        <time>2026-03-29T10:12:53Z</time>
      </trkpt>
      <trkpt lat="47.96734" lon="6.60121">
        <ele>712.8</ele>
        <time>2026-03-29T10:12:58Z</time>
      </trkpt>
      <trkpt lat="47.96738" lon="6.60112">
        <ele>712.1</ele>
        <time>2026-03-29T10:13:03Z</time>
      </trkpt>
      <trkpt lat="47.96743" lon="6.60104">
        <ele>711.5</ele>
        <time>2026-03-29T10:13:08Z</time>
      </trkpt>
      <trkpt lat="47.96748" lon="6.60097">
        <ele>711.1</ele>
        <time>2026-03-29T10:13:13Z</time>
      </trkpt>
      <trkpt lat="47.96751" lon="6.60092">
        <ele>710.7</ele>
        <time>2026-03-29T10:13:18Z</time>
      </trkpt>
      <trkpt lat="47.96754" lon="6.60086">
        <ele>710.1</ele>
        <time>2026-03-29T10:13:23Z</time>
      </trkpt>
      <trkpt lat="47.96757" lon="6.60082">
        <ele>709.6</ele>
        <time>2026-03-29T10:13:28Z</time>
      </trkpt>
      <trkpt lat="47.96761" lon="6.60077">
        <ele>708.9</ele>
        <time>2026-03-29T10:13:33Z</time>
      </trkpt>
      <trkpt lat="47.96762" lon="6.60076">
        <ele>708.7</ele>
        <time>2026-03-29T10:13:38Z</time>
      </trkpt>
      <trkpt lat="47.96762" lon="6.60076">
        <ele>708.7</ele>
        <time>2026-03-29T10:13:43Z</time>
      </trkpt>
      <trkpt lat="47.96763" lon="6.60071">
        <ele>708.2</ele>
        <time>2026-03-29T10:13:48Z</time>
      </trkpt>
      <trkpt lat="47.96769" lon="6.60064">
        <ele>707.3</ele>
        <time>2026-03-29T10:13:53Z</time>
      </trkpt>
      <trkpt lat="47.96773" lon="6.60059">
        <ele>706.8</ele>
        <time>2026-03-29T10:13:58Z</time>
      </trkpt>
      <trkpt lat="47.96777" lon="6.60051">
        <ele>706.1</ele>
        <time>2026-03-29T10:14:03Z</time>
      </trkpt>
      <trkpt lat="47.96781" lon="6.60044">
        <ele>705.6</ele>
        <time>2026-03-29T10:14:08Z</time>
      </trkpt>
      <trkpt lat="47.96785" lon="6.60036">
        <ele>705.1</ele>
        <time>2026-03-29T10:14:13Z</time>
      </trkpt>
      <trkpt lat="47.96791" lon="6.60028">
        <ele>704.8</ele>
        <time>2026-03-29T10:14:18Z</time>
      </trkpt>
      <trkpt lat="47.96795" lon="6.60022">
        <ele>704.7</ele>
        <time>2026-03-29T10:14:23Z</time>
      </trkpt>
      <trkpt lat="47.96799" lon="6.60015">
        <ele>704.5</ele>
        <time>2026-03-29T10:14:28Z</time>
      </trkpt>
      <trkpt lat="47.96805" lon="6.60008">
        <ele>704.6</ele>
        <time>2026-03-29T10:14:33Z</time>
      </trkpt>
      <trkpt lat="47.96809" lon="6.60002">
        <ele>704.7</ele>
        <time>2026-03-29T10:14:38Z</time>
      </trkpt>
      <trkpt lat="47.96814" lon="6.59995">
        <ele>705.2</ele>
        <time>2026-03-29T10:14:43Z</time>
      </trkpt>
      <trkpt lat="47.96818" lon="6.59988">
        <ele>705.7</ele>
        <time>2026-03-29T10:14:48Z</time>
      </trkpt>
      <trkpt lat="47.96822" lon="6.5998">
        <ele>706.4</ele>
        <time>2026-03-29T10:14:53Z</time>
      </trkpt>
      <trkpt lat="47.96826" lon="6.59972">
        <ele>707.1</ele>
        <time>2026-03-29T10:14:58Z</time>
      </trkpt>
      <trkpt lat="47.96831" lon="6.59965">
        <ele>707.9</ele>
        <time>2026-03-29T10:15:03Z</time>
      </trkpt>
      <trkpt lat="47.96837" lon="6.5996">
        <ele>708.8</ele>
        <time>2026-03-29T10:15:08Z</time>
      </trkpt>
      <trkpt lat="47.96841" lon="6.59953">
        <ele>709.4</ele>
        <time>2026-03-29T10:15:13Z</time>
      </trkpt>
      <trkpt lat="47.96847" lon="6.59948">
        <ele>710</ele>
        <time>2026-03-29T10:15:18Z</time>
      </trkpt>
      <trkpt lat="47.96852" lon="6.59942">
        <ele>710.6</ele>
        <time>2026-03-29T10:15:23Z</time>
      </trkpt>
      <trkpt lat="47.96857" lon="6.59936">
        <ele>711.2</ele>
        <time>2026-03-29T10:15:28Z</time>
      </trkpt>
      <trkpt lat="47.96862" lon="6.59932">
        <ele>711.7</ele>
        <time>2026-03-29T10:15:33Z</time>
      </trkpt>
      <trkpt lat="47.96868" lon="6.59927">
        <ele>712.3</ele>
        <time>2026-03-29T10:15:38Z</time>
      </trkpt>
      <trkpt lat="47.96873" lon="6.59922">
        <ele>712.8</ele>
        <time>2026-03-29T10:15:43Z</time>
      </trkpt>
      <trkpt lat="47.96881" lon="6.59918">
        <ele>713.4</ele>
        <time>2026-03-29T10:15:48Z</time>
      </trkpt>
      <trkpt lat="47.96887" lon="6.59911">
        <ele>714.1</ele>
        <time>2026-03-29T10:15:53Z</time>
      </trkpt>
      <trkpt lat="47.96894" lon="6.59907">
        <ele>714.8</ele>
        <time>2026-03-29T10:15:58Z</time>
      </trkpt>
      <trkpt lat="47.969" lon="6.59903">
        <ele>715.4</ele>
        <time>2026-03-29T10:16:03Z</time>
      </trkpt>
      <trkpt lat="47.96907" lon="6.59897">
        <ele>716.2</ele>
        <time>2026-03-29T10:16:08Z</time>
      </trkpt>
      <trkpt lat="47.96914" lon="6.59893">
        <ele>716.9</ele>
        <time>2026-03-29T10:16:13Z</time>
      </trkpt>
      <trkpt lat="47.9692" lon="6.59888">
        <ele>717.4</ele>
        <time>2026-03-29T10:16:18Z</time>
      </trkpt>
      <trkpt lat="47.96925" lon="6.59882">
        <ele>717.7</ele>
        <time>2026-03-29T10:16:23Z</time>
      </trkpt>
      <trkpt lat="47.96931" lon="6.59877">
        <ele>718</ele>
        <time>2026-03-29T10:16:28Z</time>
      </trkpt>
      <trkpt lat="47.96938" lon="6.59873">
        <ele>718.2</ele>
        <time>2026-03-29T10:16:33Z</time>
      </trkpt>
      <trkpt lat="47.96944" lon="6.59867">
        <ele>718.5</ele>
        <time>2026-03-29T10:16:38Z</time>
      </trkpt>
      <trkpt lat="47.9695" lon="6.59862">
        <ele>718.6</ele>
        <time>2026-03-29T10:16:43Z</time>
      </trkpt>
      <trkpt lat="47.96956" lon="6.59856">
        <ele>718.8</ele>
        <time>2026-03-29T10:16:48Z</time>
      </trkpt>
      <trkpt lat="47.96961" lon="6.5985">
        <ele>719</ele>
        <time>2026-03-29T10:16:53Z</time>
      </trkpt>
      <trkpt lat="47.96967" lon="6.59842">
        <ele>719.2</ele>
        <time>2026-03-29T10:16:58Z</time>
      </trkpt>
      <trkpt lat="47.96973" lon="6.59833">
        <ele>719.3</ele>
        <time>2026-03-29T10:17:03Z</time>
      </trkpt>
      <trkpt lat="47.96979" lon="6.59825">
        <ele>719.7</ele>
        <time>2026-03-29T10:17:08Z</time>
      </trkpt>
      <trkpt lat="47.96984" lon="6.59816">
        <ele>720.2</ele>
        <time>2026-03-29T10:17:13Z</time>
      </trkpt>
      <trkpt lat="47.96988" lon="6.59808">
        <ele>720.6</ele>
        <time>2026-03-29T10:17:18Z</time>
      </trkpt>
      <trkpt lat="47.96991" lon="6.59797">
        <ele>721.2</ele>
        <time>2026-03-29T10:17:23Z</time>
      </trkpt>
      <trkpt lat="47.96994" lon="6.59788">
        <ele>721.8</ele>
        <time>2026-03-29T10:17:28Z</time>
      </trkpt>
      <trkpt lat="47.97001" lon="6.5978">
        <ele>722.2</ele>
        <time>2026-03-29T10:17:33Z</time>
      </trkpt>
      <trkpt lat="47.97007" lon="6.59773">
        <ele>722.4</ele>
        <time>2026-03-29T10:17:38Z</time>
      </trkpt>
      <trkpt lat="47.97012" lon="6.59768">
        <ele>722.5</ele>
        <time>2026-03-29T10:17:43Z</time>
      </trkpt>
      <trkpt lat="47.97019" lon="6.59766">
        <ele>722.3</ele>
        <time>2026-03-29T10:17:48Z</time>
      </trkpt>
      <trkpt lat="47.97026" lon="6.59762">
        <ele>722.3</ele>
        <time>2026-03-29T10:17:53Z</time>
      </trkpt>
      <trkpt lat="47.97033" lon="6.59757">
        <ele>722.2</ele>
        <time>2026-03-29T10:17:58Z</time>
      </trkpt>
      <trkpt lat="47.97039" lon="6.59758">
        <ele>721.9</ele>
        <time>2026-03-29T10:18:03Z</time>
      </trkpt>
      <trkpt lat="47.97045" lon="6.59762">
        <ele>721.5</ele>
        <time>2026-03-29T10:18:08Z</time>
      </trkpt>
      <trkpt lat="47.97053" lon="6.59768">
        <ele>721.1</ele>
        <time>2026-03-29T10:18:13Z</time>
      </trkpt>
      <trkpt lat="47.97061" lon="6.5977">
        <ele>720.8</ele>
        <time>2026-03-29T10:18:18Z</time>
      </trkpt>
      <trkpt lat="47.97067" lon="6.59771">
        <ele>720.5</ele>
        <time>2026-03-29T10:18:23Z</time>
      </trkpt>
      <trkpt lat="47.97072" lon="6.59768">
        <ele>720.4</ele>
        <time>2026-03-29T10:18:28Z</time>
      </trkpt>
      <trkpt lat="47.97078" lon="6.59767">
        <ele>720.2</ele>
        <time>2026-03-29T10:18:33Z</time>
      </trkpt>
      <trkpt lat="47.97082" lon="6.59768">
        <ele>720</ele>
        <time>2026-03-29T10:18:38Z</time>
      </trkpt>
      <trkpt lat="47.97087" lon="6.59771">
        <ele>720</ele>
        <time>2026-03-29T10:18:43Z</time>
      </trkpt>
      <trkpt lat="47.97093" lon="6.59774">
        <ele>719.9</ele>
        <time>2026-03-29T10:18:48Z</time>
      </trkpt>
      <trkpt lat="47.971" lon="6.59773">
        <ele>719.8</ele>
        <time>2026-03-29T10:18:53Z</time>
      </trkpt>
      <trkpt lat="47.97108" lon="6.59774">
        <ele>719.7</ele>
        <time>2026-03-29T10:18:58Z</time>
      </trkpt>
      <trkpt lat="47.97115" lon="6.59775">
        <ele>719.6</ele>
        <time>2026-03-29T10:19:03Z</time>
      </trkpt>
      <trkpt lat="47.9712" lon="6.59776">
        <ele>719.6</ele>
        <time>2026-03-29T10:19:08Z</time>
      </trkpt>
      <trkpt lat="47.97123" lon="6.59781">
        <ele>719.5</ele>
        <time>2026-03-29T10:19:13Z</time>
      </trkpt>
      <trkpt lat="47.97131" lon="6.59783">
        <ele>719.4</ele>
        <time>2026-03-29T10:19:18Z</time>
      </trkpt>
      <trkpt lat="47.97134" lon="6.59785">
        <ele>719.4</ele>
        <time>2026-03-29T10:19:23Z</time>
      </trkpt>
      <trkpt lat="47.97139" lon="6.59788">
        <ele>719.3</ele>
        <time>2026-03-29T10:19:28Z</time>
      </trkpt>
      <trkpt lat="47.97145" lon="6.59791">
        <ele>719.3</ele>
        <time>2026-03-29T10:19:33Z</time>
      </trkpt>
      <trkpt lat="47.97151" lon="6.59793">
        <ele>719.2</ele>
        <time>2026-03-29T10:19:38Z</time>
      </trkpt>
      <trkpt lat="47.97158" lon="6.59795">
        <ele>719.1</ele>
        <time>2026-03-29T10:19:43Z</time>
      </trkpt>
      <trkpt lat="47.97163" lon="6.59794">
        <ele>719</ele>
        <time>2026-03-29T10:19:48Z</time>
      </trkpt>
      <trkpt lat="47.9717" lon="6.59794">
        <ele>719</ele>
        <time>2026-03-29T10:19:53Z</time>
      </trkpt>
      <trkpt lat="47.97175" lon="6.59798">
        <ele>718.9</ele>
        <time>2026-03-29T10:19:58Z</time>
      </trkpt>
      <trkpt lat="47.97178" lon="6.59797">
        <ele>718.9</ele>
        <time>2026-03-29T10:20:03Z</time>
      </trkpt>
      <trkpt lat="47.97178" lon="6.59797">
        <ele>718.9</ele>
        <time>2026-03-29T10:20:08Z</time>
      </trkpt>
      <trkpt lat="47.97172" lon="6.59795">
        <ele>718.9</ele>
        <time>2026-03-29T10:20:13Z</time>
      </trkpt>
      <trkpt lat="47.97165" lon="6.59788">
        <ele>719</ele>
        <time>2026-03-29T10:20:18Z</time>
      </trkpt>
      <trkpt lat="47.97159" lon="6.59784">
        <ele>719.1</ele>
        <time>2026-03-29T10:20:23Z</time>
      </trkpt>
      <trkpt lat="47.97156" lon="6.59779">
        <ele>719.1</ele>
        <time>2026-03-29T10:20:28Z</time>
      </trkpt>
      <trkpt lat="47.97153" lon="6.59777">
        <ele>719.2</ele>
        <time>2026-03-29T10:20:33Z</time>
      </trkpt>
      <trkpt lat="47.97147" lon="6.59779">
        <ele>719.2</ele>
        <time>2026-03-29T10:20:38Z</time>
      </trkpt>
      <trkpt lat="47.97145" lon="6.59786">
        <ele>719.3</ele>
        <time>2026-03-29T10:20:43Z</time>
      </trkpt>
      <trkpt lat="47.97141" lon="6.59788">
        <ele>719.3</ele>
        <time>2026-03-29T10:20:48Z</time>
      </trkpt>
      <trkpt lat="47.97137" lon="6.59786">
        <ele>719.4</ele>
        <time>2026-03-29T10:20:53Z</time>
      </trkpt>
      <trkpt lat="47.97133" lon="6.59784">
        <ele>719.4</ele>
        <time>2026-03-29T10:20:58Z</time>
      </trkpt>
      <trkpt lat="47.97129" lon="6.59781">
        <ele>719.5</ele>
        <time>2026-03-29T10:21:03Z</time>
      </trkpt>
      <trkpt lat="47.97124" lon="6.59778">
        <ele>719.5</ele>
        <time>2026-03-29T10:21:08Z</time>
      </trkpt>
      <trkpt lat="47.9712" lon="6.59775">
        <ele>719.6</ele>
        <time>2026-03-29T10:21:13Z</time>
      </trkpt>
      <trkpt lat="47.97117" lon="6.59769">
        <ele>719.6</ele>
        <time>2026-03-29T10:21:18Z</time>
      </trkpt>
      <trkpt lat="47.97115" lon="6.5976">
        <ele>719.6</ele>
        <time>2026-03-29T10:21:23Z</time>
      </trkpt>
      <trkpt lat="47.97114" lon="6.59754">
        <ele>719.6</ele>
        <time>2026-03-29T10:21:28Z</time>
      </trkpt>
      <trkpt lat="47.97117" lon="6.59747">
        <ele>719.7</ele>
        <time>2026-03-29T10:21:33Z</time>
      </trkpt>
      <trkpt lat="47.9712" lon="6.59738">
        <ele>720.1</ele>
        <time>2026-03-29T10:21:38Z</time>
      </trkpt>
      <trkpt lat="47.97124" lon="6.59731">
        <ele>720.3</ele>
        <time>2026-03-29T10:21:43Z</time>
      </trkpt>
      <trkpt lat="47.97129" lon="6.59725">
        <ele>720.4</ele>
        <time>2026-03-29T10:21:48Z</time>
      </trkpt>
      <trkpt lat="47.97134" lon="6.5972">
        <ele>720.5</ele>
        <time>2026-03-29T10:21:53Z</time>
      </trkpt>
      <trkpt lat="47.97138" lon="6.59716">
        <ele>720.5</ele>
        <time>2026-03-29T10:21:58Z</time>
      </trkpt>
      <trkpt lat="47.97143" lon="6.59713">
        <ele>720.4</ele>
        <time>2026-03-29T10:22:03Z</time>
      </trkpt>
      <trkpt lat="47.97146" lon="6.59708">
        <ele>720.4</ele>
        <time>2026-03-29T10:22:08Z</time>
      </trkpt>
      <trkpt lat="47.97149" lon="6.59703">
        <ele>720.4</ele>
        <time>2026-03-29T10:22:13Z</time>
      </trkpt>
      <trkpt lat="47.97152" lon="6.59698">
        <ele>720.3</ele>
        <time>2026-03-29T10:22:18Z</time>
      </trkpt>
      <trkpt lat="47.97157" lon="6.59693">
        <ele>720.2</ele>
        <time>2026-03-29T10:22:23Z</time>
      </trkpt>
      <trkpt lat="47.97162" lon="6.59689">
        <ele>720</ele>
        <time>2026-03-29T10:22:28Z</time>
      </trkpt>
      <trkpt lat="47.97167" lon="6.59683">
        <ele>719.8</ele>
        <time>2026-03-29T10:22:33Z</time>
      </trkpt>
      <trkpt lat="47.97172" lon="6.59679">
        <ele>719.5</ele>
        <time>2026-03-29T10:22:38Z</time>
      </trkpt>
      <trkpt lat="47.97174" lon="6.59678">
        <ele>719.3</ele>
        <time>2026-03-29T10:22:43Z</time>
      </trkpt>
      <trkpt lat="47.97175" lon="6.59677">
        <ele>719.2</ele>
        <time>2026-03-29T10:22:48Z</time>
      </trkpt>
      <trkpt lat="47.97176" lon="6.59675">
        <ele>719.2</ele>
        <time>2026-03-29T10:22:53Z</time>
      </trkpt>
      <trkpt lat="47.97181" lon="6.59672">
        <ele>718.8</ele>
        <time>2026-03-29T10:22:58Z</time>
      </trkpt>
      <trkpt lat="47.97187" lon="6.5967">
        <ele>718.3</ele>
        <time>2026-03-29T10:23:03Z</time>
      </trkpt>
      <trkpt lat="47.97195" lon="6.59666">
        <ele>717.7</ele>
        <time>2026-03-29T10:23:08Z</time>
      </trkpt>
      <trkpt lat="47.97198" lon="6.59666">
        <ele>717.4</ele>
        <time>2026-03-29T10:23:13Z</time>
      </trkpt>
      <trkpt lat="47.97201" lon="6.59665">
        <ele>717.2</ele>
        <time>2026-03-29T10:23:18Z</time>
      </trkpt>
      <trkpt lat="47.97207" lon="6.59663">
        <ele>716.9</ele>
        <time>2026-03-29T10:23:23Z</time>
      </trkpt>
      <trkpt lat="47.97213" lon="6.59657">
        <ele>716.7</ele>
        <time>2026-03-29T10:23:28Z</time>
      </trkpt>
      <trkpt lat="47.97219" lon="6.59653">
        <ele>716.4</ele>
        <time>2026-03-29T10:23:33Z</time>
      </trkpt>
      <trkpt lat="47.97224" lon="6.59652">
        <ele>715.9</ele>
        <time>2026-03-29T10:23:38Z</time>
      </trkpt>
      <trkpt lat="47.9723" lon="6.59649">
        <ele>715.5</ele>
        <time>2026-03-29T10:23:43Z</time>
      </trkpt>
      <trkpt lat="47.97237" lon="6.59646">
        <ele>714.9</ele>
        <time>2026-03-29T10:23:48Z</time>
      </trkpt>
      <trkpt lat="47.97243" lon="6.59644">
        <ele>714.3</ele>
        <time>2026-03-29T10:23:53Z</time>
      </trkpt>
      <trkpt lat="47.97249" lon="6.59644">
        <ele>713.7</ele>
        <time>2026-03-29T10:23:58Z</time>
      </trkpt>
      <trkpt lat="47.97255" lon="6.59646">
        <ele>713</ele>
        <time>2026-03-29T10:24:03Z</time>
      </trkpt>
      <trkpt lat="47.97263" lon="6.59643">
        <ele>712.4</ele>
        <time>2026-03-29T10:24:08Z</time>
      </trkpt>
      <trkpt lat="47.97269" lon="6.59641">
        <ele>711.8</ele>
        <time>2026-03-29T10:24:13Z</time>
      </trkpt>
      <trkpt lat="47.97275" lon="6.5964">
        <ele>711.3</ele>
        <time>2026-03-29T10:24:18Z</time>
      </trkpt>
      <trkpt lat="47.97281" lon="6.59639">
        <ele>710.7</ele>
        <time>2026-03-29T10:24:23Z</time>
      </trkpt>
      <trkpt lat="47.97287" lon="6.59636">
        <ele>710.1</ele>
        <time>2026-03-29T10:24:28Z</time>
      </trkpt>
      <trkpt lat="47.97293" lon="6.59635">
        <ele>709.5</ele>
        <time>2026-03-29T10:24:33Z</time>
      </trkpt>
      <trkpt lat="47.973" lon="6.59633">
        <ele>708.8</ele>
        <time>2026-03-29T10:24:38Z</time>
      </trkpt>
      <trkpt lat="47.97307" lon="6.59632">
        <ele>708</ele>
        <time>2026-03-29T10:24:43Z</time>
      </trkpt>
      <trkpt lat="47.97314" lon="6.59635">
        <ele>707.4</ele>
        <time>2026-03-29T10:24:48Z</time>
      </trkpt>
      <trkpt lat="47.9732" lon="6.59636">
        <ele>706.8</ele>
        <time>2026-03-29T10:24:53Z</time>
      </trkpt>
      <trkpt lat="47.97325" lon="6.59637">
        <ele>706.4</ele>
        <time>2026-03-29T10:24:58Z</time>
      </trkpt>
      <trkpt lat="47.97328" lon="6.5964">
        <ele>706.2</ele>
        <time>2026-03-29T10:25:03Z</time>
      </trkpt>
      <trkpt lat="47.97332" lon="6.59644">
        <ele>706</ele>
        <time>2026-03-29T10:25:08Z</time>
      </trkpt>
      <trkpt lat="47.97334" lon="6.59648">
        <ele>706</ele>
        <time>2026-03-29T10:25:13Z</time>
      </trkpt>
      <trkpt lat="47.97336" lon="6.59653">
        <ele>705.9</ele>
        <time>2026-03-29T10:25:18Z</time>
      </trkpt>
      <trkpt lat="47.97339" lon="6.59655">
        <ele>705.5</ele>
        <time>2026-03-29T10:25:23Z</time>
      </trkpt>
      <trkpt lat="47.97345" lon="6.59657">
        <ele>704.6</ele>
        <time>2026-03-29T10:25:28Z</time>
      </trkpt>
      <trkpt lat="47.97349" lon="6.5966">
        <ele>704.1</ele>
        <time>2026-03-29T10:25:33Z</time>
      </trkpt>
      <trkpt lat="47.97354" lon="6.59666">
        <ele>703.5</ele>
        <time>2026-03-29T10:25:38Z</time>
      </trkpt>
      <trkpt lat="47.97359" lon="6.5967">
        <ele>702.8</ele>
        <time>2026-03-29T10:25:43Z</time>
      </trkpt>
      <trkpt lat="47.97365" lon="6.59674">
        <ele>701.9</ele>
        <time>2026-03-29T10:25:48Z</time>
      </trkpt>
      <trkpt lat="47.97368" lon="6.59677">
        <ele>701.5</ele>
        <time>2026-03-29T10:25:53Z</time>
      </trkpt>
      <trkpt lat="47.97372" lon="6.59676">
        <ele>700.8</ele>
        <time>2026-03-29T10:25:58Z</time>
      </trkpt>
      <trkpt lat="47.97373" lon="6.59674">
        <ele>700.6</ele>
        <time>2026-03-29T10:26:03Z</time>
      </trkpt>
      <trkpt lat="47.97373" lon="6.59674">
        <ele>700.6</ele>
        <time>2026-03-29T10:26:08Z</time>
      </trkpt>
      <trkpt lat="47.97373" lon="6.59674">
        <ele>700.6</ele>
        <time>2026-03-29T10:26:13Z</time>
      </trkpt>
      <trkpt lat="47.97377" lon="6.59663">
        <ele>699.5</ele>
        <time>2026-03-29T10:26:18Z</time>
      </trkpt>
      <trkpt lat="47.97379" lon="6.59661">
        <ele>699.1</ele>
        <time>2026-03-29T10:26:23Z</time>
      </trkpt>
      <trkpt lat="47.97384" lon="6.59658">
        <ele>698.2</ele>
        <time>2026-03-29T10:26:28Z</time>
      </trkpt>
      <trkpt lat="47.97391" lon="6.59659">
        <ele>697.1</ele>
        <time>2026-03-29T10:26:33Z</time>
      </trkpt>
      <trkpt lat="47.97397" lon="6.59667">
        <ele>696.3</ele>
        <time>2026-03-29T10:26:38Z</time>
      </trkpt>
      <trkpt lat="47.97401" lon="6.59674">
        <ele>695.9</ele>
        <time>2026-03-29T10:26:43Z</time>
      </trkpt>
      <trkpt lat="47.97407" lon="6.59679">
        <ele>695.1</ele>
        <time>2026-03-29T10:26:48Z</time>
      </trkpt>
      <trkpt lat="47.97412" lon="6.59684">
        <ele>694.4</ele>
        <time>2026-03-29T10:26:53Z</time>
      </trkpt>
      <trkpt lat="47.97419" lon="6.5969">
        <ele>693.3</ele>
        <time>2026-03-29T10:26:58Z</time>
      </trkpt>
      <trkpt lat="47.97426" lon="6.597">
        <ele>692</ele>
        <time>2026-03-29T10:27:03Z</time>
      </trkpt>
      <trkpt lat="47.97433" lon="6.59704">
        <ele>690.4</ele>
        <time>2026-03-29T10:27:08Z</time>
      </trkpt>
      <trkpt lat="47.97443" lon="6.59704">
        <ele>688</ele>
        <time>2026-03-29T10:27:13Z</time>
      </trkpt>
      <trkpt lat="47.9745" lon="6.59706">
        <ele>686.4</ele>
        <time>2026-03-29T10:27:18Z</time>
      </trkpt>
      <trkpt lat="47.97455" lon="6.59711">
        <ele>685.4</ele>
        <time>2026-03-29T10:27:23Z</time>
      </trkpt>
      <trkpt lat="47.97461" lon="6.59719">
        <ele>684.2</ele>
        <time>2026-03-29T10:27:28Z</time>
      </trkpt>
      <trkpt lat="47.97465" lon="6.59722">
        <ele>683.4</ele>
        <time>2026-03-29T10:27:33Z</time>
      </trkpt>
      <trkpt lat="47.97472" lon="6.59728">
        <ele>681.9</ele>
        <time>2026-03-29T10:27:38Z</time>
      </trkpt>
      <trkpt lat="47.97478" lon="6.59723">
        <ele>680.3</ele>
        <time>2026-03-29T10:27:43Z</time>
      </trkpt>
      <trkpt lat="47.97485" lon="6.59718">
        <ele>678.4</ele>
        <time>2026-03-29T10:27:48Z</time>
      </trkpt>
      <trkpt lat="47.97492" lon="6.59719">
        <ele>676.8</ele>
        <time>2026-03-29T10:27:53Z</time>
      </trkpt>
      <trkpt lat="47.97497" lon="6.59721">
        <ele>675.7</ele>
        <time>2026-03-29T10:27:58Z</time>
      </trkpt>
      <trkpt lat="47.97502" lon="6.59723">
        <ele>675</ele>
        <time>2026-03-29T10:28:03Z</time>
      </trkpt>
      <trkpt lat="47.97502" lon="6.59723">
        <ele>675</ele>
        <time>2026-03-29T10:28:08Z</time>
      </trkpt>
      <trkpt lat="47.97502" lon="6.59723">
        <ele>675</ele>
        <time>2026-03-29T10:28:13Z</time>
      </trkpt>
      <trkpt lat="47.97502" lon="6.59723">
        <ele>675</ele>
        <time>2026-03-29T10:28:18Z</time>
      </trkpt>
      <trkpt lat="47.97502" lon="6.59723">
        <ele>675</ele>
        <time>2026-03-29T10:28:23Z</time>
      </trkpt>
      <trkpt lat="47.97504" lon="6.59722">
        <ele>674.9</ele>
        <time>2026-03-29T10:28:28Z</time>
      </trkpt>
      <trkpt lat="47.9751" lon="6.59724">
        <ele>674.9</ele>
        <time>2026-03-29T10:28:33Z</time>
      </trkpt>
      <trkpt lat="47.97514" lon="6.5972">
        <ele>674.7</ele>
        <time>2026-03-29T10:28:38Z</time>
      </trkpt>
      <trkpt lat="47.97518" lon="6.59718">
        <ele>674.5</ele>
        <time>2026-03-29T10:28:43Z</time>
      </trkpt>
      <trkpt lat="47.97524" lon="6.59716">
        <ele>674.4</ele>
        <time>2026-03-29T10:28:48Z</time>
      </trkpt>
      <trkpt lat="47.97529" lon="6.59712">
        <ele>674.2</ele>
        <time>2026-03-29T10:28:53Z</time>
      </trkpt>
      <trkpt lat="47.97537" lon="6.59709">
        <ele>674.1</ele>
        <time>2026-03-29T10:28:58Z</time>
      </trkpt>
      <trkpt lat="47.97542" lon="6.59707">
        <ele>674</ele>
        <time>2026-03-29T10:29:03Z</time>
      </trkpt>
      <trkpt lat="47.97546" lon="6.59705">
        <ele>673.9</ele>
        <time>2026-03-29T10:29:08Z</time>
      </trkpt>
      <trkpt lat="47.97548" lon="6.59701">
        <ele>673.9</ele>
        <time>2026-03-29T10:29:13Z</time>
      </trkpt>
      <trkpt lat="47.97551" lon="6.59696">
        <ele>673.8</ele>
        <time>2026-03-29T10:29:18Z</time>
      </trkpt>
      <trkpt lat="47.97553" lon="6.5969">
        <ele>673.8</ele>
        <time>2026-03-29T10:29:23Z</time>
      </trkpt>
      <trkpt lat="47.97554" lon="6.59682">
        <ele>673.7</ele>
        <time>2026-03-29T10:29:28Z</time>
      </trkpt>
      <trkpt lat="47.97556" lon="6.59674">
        <ele>673.7</ele>
        <time>2026-03-29T10:29:33Z</time>
      </trkpt>
      <trkpt lat="47.97558" lon="6.59667">
        <ele>673.7</ele>
        <time>2026-03-29T10:29:38Z</time>
      </trkpt>
      <trkpt lat="47.97559" lon="6.59662">
        <ele>673.8</ele>
        <time>2026-03-29T10:29:43Z</time>
      </trkpt>
      <trkpt lat="47.97559" lon="6.59655">
        <ele>674</ele>
        <time>2026-03-29T10:29:48Z</time>
      </trkpt>
      <trkpt lat="47.9756" lon="6.59649">
        <ele>674.1</ele>
        <time>2026-03-29T10:29:53Z</time>
      </trkpt>
      <trkpt lat="47.97563" lon="6.59644">
        <ele>674.3</ele>
        <time>2026-03-29T10:29:58Z</time>
      </trkpt>
      <trkpt lat="47.97564" lon="6.5964">
        <ele>674.4</ele>
        <time>2026-03-29T10:30:03Z</time>
      </trkpt>
      <trkpt lat="47.97564" lon="6.59636">
        <ele>674.5</ele>
        <time>2026-03-29T10:30:08Z</time>
      </trkpt>
      <trkpt lat="47.97567" lon="6.5963">
        <ele>674.8</ele>
        <time>2026-03-29T10:30:13Z</time>
      </trkpt>
      <trkpt lat="47.97569" lon="6.59625">
        <ele>675</ele>
        <time>2026-03-29T10:30:18Z</time>
      </trkpt>
      <trkpt lat="47.97571" lon="6.59623">
        <ele>675.1</ele>
        <time>2026-03-29T10:30:23Z</time>
      </trkpt>
      <trkpt lat="47.97573" lon="6.5962">
        <ele>675.3</ele>
        <time>2026-03-29T10:30:28Z</time>
      </trkpt>
      <trkpt lat="47.97575" lon="6.59617">
        <ele>675.4</ele>
        <time>2026-03-29T10:30:33Z</time>
      </trkpt>
      <trkpt lat="47.97578" lon="6.59614">
        <ele>675.7</ele>
        <time>2026-03-29T10:30:38Z</time>
      </trkpt>
      <trkpt lat="47.9758" lon="6.59609">
        <ele>675.9</ele>
        <time>2026-03-29T10:30:43Z</time>
      </trkpt>
      <trkpt lat="47.97582" lon="6.59605">
        <ele>676.2</ele>
        <time>2026-03-29T10:30:48Z</time>
      </trkpt>
      <trkpt lat="47.97584" lon="6.59601">
        <ele>676.5</ele>
        <time>2026-03-29T10:30:53Z</time>
      </trkpt>
      <trkpt lat="47.97586" lon="6.59598">
        <ele>676.8</ele>
        <time>2026-03-29T10:30:58Z</time>
      </trkpt>
      <trkpt lat="47.97589" lon="6.59597">
        <ele>677.3</ele>
        <time>2026-03-29T10:31:03Z</time>
      </trkpt>
      <trkpt lat="47.97589" lon="6.59596">
        <ele>677.3</ele>
        <time>2026-03-29T10:31:08Z</time>
      </trkpt>
      <trkpt lat="47.97593" lon="6.5959">
        <ele>678.1</ele>
        <time>2026-03-29T10:31:13Z</time>
      </trkpt>
      <trkpt lat="47.97594" lon="6.59586">
        <ele>678.4</ele>
        <time>2026-03-29T10:31:18Z</time>
      </trkpt>
      <trkpt lat="47.97596" lon="6.59584">
        <ele>678.8</ele>
        <time>2026-03-29T10:31:23Z</time>
      </trkpt>
      <trkpt lat="47.97598" lon="6.5958">
        <ele>679.2</ele>
        <time>2026-03-29T10:31:28Z</time>
      </trkpt>
      <trkpt lat="47.976" lon="6.59578">
        <ele>679.6</ele>
        <time>2026-03-29T10:31:33Z</time>
      </trkpt>
      <trkpt lat="47.97603" lon="6.59574">
        <ele>680.1</ele>
        <time>2026-03-29T10:31:38Z</time>
      </trkpt>
      <trkpt lat="47.97606" lon="6.59567">
        <ele>680.8</ele>
        <time>2026-03-29T10:31:43Z</time>
      </trkpt>
      <trkpt lat="47.97609" lon="6.59562">
        <ele>681.4</ele>
        <time>2026-03-29T10:31:48Z</time>
      </trkpt>
      <trkpt lat="47.97613" lon="6.59558">
        <ele>682.1</ele>
        <time>2026-03-29T10:31:53Z</time>
      </trkpt>
      <trkpt lat="47.97616" lon="6.59556">
        <ele>682.6</ele>
        <time>2026-03-29T10:31:58Z</time>
      </trkpt>
      <trkpt lat="47.97619" lon="6.59552">
        <ele>683.1</ele>
        <time>2026-03-29T10:32:03Z</time>
      </trkpt>
      <trkpt lat="47.97621" lon="6.5955">
        <ele>683.4</ele>
        <time>2026-03-29T10:32:08Z</time>
      </trkpt>
      <trkpt lat="47.97624" lon="6.59547">
        <ele>684</ele>
        <time>2026-03-29T10:32:13Z</time>
      </trkpt>
      <trkpt lat="47.97626" lon="6.59543">
        <ele>684.3</ele>
        <time>2026-03-29T10:32:18Z</time>
      </trkpt>
      <trkpt lat="47.97628" lon="6.59541">
        <ele>684.7</ele>
        <time>2026-03-29T10:32:23Z</time>
      </trkpt>
      <trkpt lat="47.9763" lon="6.59537">
        <ele>685.1</ele>
        <time>2026-03-29T10:32:28Z</time>
      </trkpt>
      <trkpt lat="47.97632" lon="6.59534">
        <ele>685.4</ele>
        <time>2026-03-29T10:32:33Z</time>
      </trkpt>
      <trkpt lat="47.97634" lon="6.59531">
        <ele>685.8</ele>
        <time>2026-03-29T10:32:38Z</time>
      </trkpt>
      <trkpt lat="47.97636" lon="6.59528">
        <ele>686.2</ele>
        <time>2026-03-29T10:32:43Z</time>
      </trkpt>
      <trkpt lat="47.97637" lon="6.59527">
        <ele>686.3</ele>
        <time>2026-03-29T10:32:48Z</time>
      </trkpt>
      <trkpt lat="47.97637" lon="6.59527">
        <ele>686.3</ele>
        <time>2026-03-29T10:32:53Z</time>
      </trkpt>
      <trkpt lat="47.97645" lon="6.59521">
        <ele>687.6</ele>
        <time>2026-03-29T10:32:58Z</time>
      </trkpt>
      <trkpt lat="47.97648" lon="6.59519">
        <ele>688</ele>
        <time>2026-03-29T10:33:03Z</time>
      </trkpt>
      <trkpt lat="47.97652" lon="6.59515">
        <ele>688.7</ele>
        <time>2026-03-29T10:33:08Z</time>
      </trkpt>
      <trkpt lat="47.97654" lon="6.59512">
        <ele>689</ele>
        <time>2026-03-29T10:33:13Z</time>
      </trkpt>
      <trkpt lat="47.97656" lon="6.5951">
        <ele>689.3</ele>
        <time>2026-03-29T10:33:18Z</time>
      </trkpt>
      <trkpt lat="47.97658" lon="6.59507">
        <ele>689.7</ele>
        <time>2026-03-29T10:33:23Z</time>
      </trkpt>
      <trkpt lat="47.97659" lon="6.59503">
        <ele>689.9</ele>
        <time>2026-03-29T10:33:28Z</time>
      </trkpt>
      <trkpt lat="47.97662" lon="6.59498">
        <ele>690.6</ele>
        <time>2026-03-29T10:33:33Z</time>
      </trkpt>
      <trkpt lat="47.97663" lon="6.59494">
        <ele>691.1</ele>
        <time>2026-03-29T10:33:38Z</time>
      </trkpt>
      <trkpt lat="47.97665" lon="6.59488">
        <ele>692.1</ele>
        <time>2026-03-29T10:33:43Z</time>
      </trkpt>
      <trkpt lat="47.97668" lon="6.59484">
        <ele>692.9</ele>
        <time>2026-03-29T10:33:48Z</time>
      </trkpt>
      <trkpt lat="47.97672" lon="6.5948">
        <ele>693.8</ele>
        <time>2026-03-29T10:33:53Z</time>
      </trkpt>
      <trkpt lat="47.97673" lon="6.59477">
        <ele>694.3</ele>
        <time>2026-03-29T10:33:58Z</time>
      </trkpt>
      <trkpt lat="47.97675" lon="6.59473">
        <ele>694.9</ele>
        <time>2026-03-29T10:34:03Z</time>
      </trkpt>
      <trkpt lat="47.97677" lon="6.59469">
        <ele>695.6</ele>
        <time>2026-03-29T10:34:08Z</time>
      </trkpt>
      <trkpt lat="47.9768" lon="6.59464">
        <ele>696.6</ele>
        <time>2026-03-29T10:34:13Z</time>
      </trkpt>
      <trkpt lat="47.97682" lon="6.59459">
        <ele>697.4</ele>
        <time>2026-03-29T10:34:18Z</time>
      </trkpt>
      <trkpt lat="47.97684" lon="6.59454">
        <ele>698.2</ele>
        <time>2026-03-29T10:34:23Z</time>
      </trkpt>
      <trkpt lat="47.97687" lon="6.59448">
        <ele>699.2</ele>
        <time>2026-03-29T10:34:28Z</time>
      </trkpt>
      <trkpt lat="47.97691" lon="6.59443">
        <ele>700.3</ele>
        <time>2026-03-29T10:34:33Z</time>
      </trkpt>
      <trkpt lat="47.97694" lon="6.5944">
        <ele>701</ele>
        <time>2026-03-29T10:34:38Z</time>
      </trkpt>
      <trkpt lat="47.97696" lon="6.59434">
        <ele>701.9</ele>
        <time>2026-03-29T10:34:43Z</time>
      </trkpt>
      <trkpt lat="47.97697" lon="6.59427">
        <ele>702.8</ele>
        <time>2026-03-29T10:34:48Z</time>
      </trkpt>
      <trkpt lat="47.977" lon="6.59421">
        <ele>703.9</ele>
        <time>2026-03-29T10:34:53Z</time>
      </trkpt>
      <trkpt lat="47.97704" lon="6.59414">
        <ele>705</ele>
        <time>2026-03-29T10:34:58Z</time>
      </trkpt>
      <trkpt lat="47.97706" lon="6.59407">
        <ele>705.6</ele>
        <time>2026-03-29T10:35:03Z</time>
      </trkpt>
      <trkpt lat="47.97707" lon="6.59398">
        <ele>706.2</ele>
        <time>2026-03-29T10:35:08Z</time>
      </trkpt>
      <trkpt lat="47.97709" lon="6.59391">
        <ele>706.8</ele>
        <time>2026-03-29T10:35:13Z</time>
      </trkpt>
      <trkpt lat="47.97711" lon="6.59384">
        <ele>707.5</ele>
        <time>2026-03-29T10:35:18Z</time>
      </trkpt>
      <trkpt lat="47.97713" lon="6.59378">
        <ele>708.1</ele>
        <time>2026-03-29T10:35:23Z</time>
      </trkpt>
      <trkpt lat="47.97716" lon="6.59372">
        <ele>709</ele>
        <time>2026-03-29T10:35:28Z</time>
      </trkpt>
      <trkpt lat="47.97719" lon="6.59365">
        <ele>709.9</ele>
        <time>2026-03-29T10:35:33Z</time>
      </trkpt>
      <trkpt lat="47.97721" lon="6.59357">
        <ele>710.7</ele>
        <time>2026-03-29T10:35:38Z</time>
      </trkpt>
      <trkpt lat="47.97724" lon="6.59349">
        <ele>711.7</ele>
        <time>2026-03-29T10:35:43Z</time>
      </trkpt>
      <trkpt lat="47.97729" lon="6.59344">
        <ele>713</ele>
        <time>2026-03-29T10:35:48Z</time>
      </trkpt>
      <trkpt lat="47.97733" lon="6.5934">
        <ele>714.1</ele>
        <time>2026-03-29T10:35:53Z</time>
      </trkpt>
      <trkpt lat="47.97737" lon="6.59335">
        <ele>715.2</ele>
        <time>2026-03-29T10:35:58Z</time>
      </trkpt>
      <trkpt lat="47.97741" lon="6.5933">
        <ele>716.4</ele>
        <time>2026-03-29T10:36:03Z</time>
      </trkpt>
      <trkpt lat="47.97746" lon="6.59322">
        <ele>717.9</ele>
        <time>2026-03-29T10:36:08Z</time>
      </trkpt>
      <trkpt lat="47.97748" lon="6.59315">
        <ele>718.7</ele>
        <time>2026-03-29T10:36:13Z</time>
      </trkpt>
      <trkpt lat="47.97752" lon="6.59308">
        <ele>719.7</ele>
        <time>2026-03-29T10:36:18Z</time>
      </trkpt>
      <trkpt lat="47.97757" lon="6.59303">
        <ele>720.5</ele>
        <time>2026-03-29T10:36:23Z</time>
      </trkpt>
      <trkpt lat="47.97761" lon="6.59301">
        <ele>720.9</ele>
        <time>2026-03-29T10:36:28Z</time>
      </trkpt>
      <trkpt lat="47.97766" lon="6.593">
        <ele>721.4</ele>
        <time>2026-03-29T10:36:33Z</time>
      </trkpt>
      <trkpt lat="47.97769" lon="6.59295">
        <ele>721.9</ele>
        <time>2026-03-29T10:36:38Z</time>
      </trkpt>
      <trkpt lat="47.97778" lon="6.59295">
        <ele>722.7</ele>
        <time>2026-03-29T10:36:43Z</time>
      </trkpt>
      <trkpt lat="47.97785" lon="6.59296">
        <ele>723.3</ele>
        <time>2026-03-29T10:36:48Z</time>
      </trkpt>
      <trkpt lat="47.97792" lon="6.59295">
        <ele>723.9</ele>
        <time>2026-03-29T10:36:53Z</time>
      </trkpt>
      <trkpt lat="47.978" lon="6.59293">
        <ele>724.7</ele>
        <time>2026-03-29T10:36:58Z</time>
      </trkpt>
      <trkpt lat="47.97804" lon="6.59294">
        <ele>725</ele>
        <time>2026-03-29T10:37:03Z</time>
      </trkpt>
      <trkpt lat="47.97809" lon="6.59294">
        <ele>725.4</ele>
        <time>2026-03-29T10:37:08Z</time>
      </trkpt>
      <trkpt lat="47.97816" lon="6.59293">
        <ele>726</ele>
        <time>2026-03-29T10:37:13Z</time>
      </trkpt>
      <trkpt lat="47.97823" lon="6.59292">
        <ele>726.6</ele>
        <time>2026-03-29T10:37:18Z</time>
      </trkpt>
      <trkpt lat="47.9783" lon="6.59292">
        <ele>727.2</ele>
        <time>2026-03-29T10:37:23Z</time>
      </trkpt>
      <trkpt lat="47.97838" lon="6.59287">
        <ele>727.2</ele>
        <time>2026-03-29T10:37:28Z</time>
      </trkpt>
      <trkpt lat="47.97845" lon="6.59284">
        <ele>726.8</ele>
        <time>2026-03-29T10:37:33Z</time>
      </trkpt>
      <trkpt lat="47.97851" lon="6.59285">
        <ele>726.3</ele>
        <time>2026-03-29T10:37:38Z</time>
      </trkpt>
      <trkpt lat="47.97857" lon="6.59288">
        <ele>725.8</ele>
        <time>2026-03-29T10:37:43Z</time>
      </trkpt>
      <trkpt lat="47.97865" lon="6.5929">
        <ele>725.2</ele>
        <time>2026-03-29T10:37:48Z</time>
      </trkpt>
      <trkpt lat="47.97873" lon="6.5929">
        <ele>724.7</ele>
        <time>2026-03-29T10:37:53Z</time>
      </trkpt>
      <trkpt lat="47.9788" lon="6.59288">
        <ele>724.2</ele>
        <time>2026-03-29T10:37:58Z</time>
      </trkpt>
      <trkpt lat="47.97887" lon="6.59288">
        <ele>723.7</ele>
        <time>2026-03-29T10:38:03Z</time>
      </trkpt>
      <trkpt lat="47.97894" lon="6.59289">
        <ele>723.2</ele>
        <time>2026-03-29T10:38:08Z</time>
      </trkpt>
      <trkpt lat="47.979" lon="6.59289">
        <ele>722.7</ele>
        <time>2026-03-29T10:38:13Z</time>
      </trkpt>
      <trkpt lat="47.97906" lon="6.59287">
        <ele>722.3</ele>
        <time>2026-03-29T10:38:18Z</time>
      </trkpt>
      <trkpt lat="47.97913" lon="6.59288">
        <ele>721.8</ele>
        <time>2026-03-29T10:38:23Z</time>
      </trkpt>
      <trkpt lat="47.97921" lon="6.59288">
        <ele>721.3</ele>
        <time>2026-03-29T10:38:28Z</time>
      </trkpt>
      <trkpt lat="47.97932" lon="6.59289">
        <ele>720.5</ele>
        <time>2026-03-29T10:38:33Z</time>
      </trkpt>
      <trkpt lat="47.9794" lon="6.59287">
        <ele>720</ele>
        <time>2026-03-29T10:38:38Z</time>
      </trkpt>
      <trkpt lat="47.97947" lon="6.59285">
        <ele>719.6</ele>
        <time>2026-03-29T10:38:43Z</time>
      </trkpt>
      <trkpt lat="47.97954" lon="6.59286">
        <ele>719.1</ele>
        <time>2026-03-29T10:38:48Z</time>
      </trkpt>
      <trkpt lat="47.97962" lon="6.59287">
        <ele>718.6</ele>
        <time>2026-03-29T10:38:53Z</time>
      </trkpt>
      <trkpt lat="47.97968" lon="6.59289">
        <ele>718.2</ele>
        <time>2026-03-29T10:38:58Z</time>
      </trkpt>
      <trkpt lat="47.97975" lon="6.59293">
        <ele>717.6</ele>
        <time>2026-03-29T10:39:03Z</time>
      </trkpt>
      <trkpt lat="47.97982" lon="6.59297">
        <ele>717.1</ele>
        <time>2026-03-29T10:39:08Z</time>
      </trkpt>
      <trkpt lat="47.97986" lon="6.593">
        <ele>716.7</ele>
        <time>2026-03-29T10:39:13Z</time>
      </trkpt>
      <trkpt lat="47.97991" lon="6.59296">
        <ele>716.5</ele>
        <time>2026-03-29T10:39:18Z</time>
      </trkpt>
      <trkpt lat="47.97997" lon="6.59295">
        <ele>716.1</ele>
        <time>2026-03-29T10:39:23Z</time>
      </trkpt>
      <trkpt lat="47.98005" lon="6.59296">
        <ele>715.8</ele>
        <time>2026-03-29T10:39:28Z</time>
      </trkpt>
      <trkpt lat="47.98012" lon="6.59295">
        <ele>715.6</ele>
        <time>2026-03-29T10:39:33Z</time>
      </trkpt>
      <trkpt lat="47.98019" lon="6.59294">
        <ele>715.5</ele>
        <time>2026-03-29T10:39:38Z</time>
      </trkpt>
      <trkpt lat="47.98025" lon="6.59291">
        <ele>715.4</ele>
        <time>2026-03-29T10:39:43Z</time>
      </trkpt>
      <trkpt lat="47.98033" lon="6.59291">
        <ele>715.2</ele>
        <time>2026-03-29T10:39:48Z</time>
      </trkpt>
      <trkpt lat="47.98039" lon="6.5929">
        <ele>715.1</ele>
        <time>2026-03-29T10:39:53Z</time>
      </trkpt>
      <trkpt lat="47.98042" lon="6.59289">
        <ele>715.1</ele>
        <time>2026-03-29T10:39:58Z</time>
      </trkpt>
      <trkpt lat="47.98047" lon="6.59291">
        <ele>714.9</ele>
        <time>2026-03-29T10:40:03Z</time>
      </trkpt>
      <trkpt lat="47.98054" lon="6.59293">
        <ele>714.7</ele>
        <time>2026-03-29T10:40:08Z</time>
      </trkpt>
      <trkpt lat="47.9806" lon="6.59297">
        <ele>714.4</ele>
        <time>2026-03-29T10:40:13Z</time>
      </trkpt>
      <trkpt lat="47.98067" lon="6.59302">
        <ele>714.1</ele>
        <time>2026-03-29T10:40:18Z</time>
      </trkpt>
      <trkpt lat="47.98073" lon="6.59303">
        <ele>714</ele>
        <time>2026-03-29T10:40:23Z</time>
      </trkpt>
      <trkpt lat="47.98078" lon="6.59306">
        <ele>713.8</ele>
        <time>2026-03-29T10:40:28Z</time>
      </trkpt>
      <trkpt lat="47.98086" lon="6.5931">
        <ele>713.6</ele>
        <time>2026-03-29T10:40:33Z</time>
      </trkpt>
      <trkpt lat="47.98094" lon="6.59314">
        <ele>713.5</ele>
        <time>2026-03-29T10:40:38Z</time>
      </trkpt>
      <trkpt lat="47.98102" lon="6.59317">
        <ele>713.5</ele>
        <time>2026-03-29T10:40:43Z</time>
      </trkpt>
      <trkpt lat="47.98107" lon="6.59322">
        <ele>713.3</ele>
        <time>2026-03-29T10:40:48Z</time>
      </trkpt>
      <trkpt lat="47.98113" lon="6.59327">
        <ele>713.2</ele>
        <time>2026-03-29T10:40:53Z</time>
      </trkpt>
      <trkpt lat="47.98118" lon="6.59332">
        <ele>713</ele>
        <time>2026-03-29T10:40:58Z</time>
      </trkpt>
      <trkpt lat="47.98123" lon="6.59337">
        <ele>712.7</ele>
        <time>2026-03-29T10:41:03Z</time>
      </trkpt>
      <trkpt lat="47.98127" lon="6.59341">
        <ele>712.3</ele>
        <time>2026-03-29T10:41:08Z</time>
      </trkpt>
      <trkpt lat="47.98128" lon="6.59343">
        <ele>712.1</ele>
        <time>2026-03-29T10:41:13Z</time>
      </trkpt>
      <trkpt lat="47.98128" lon="6.59345">
        <ele>712</ele>
        <time>2026-03-29T10:41:18Z</time>
      </trkpt>
      <trkpt lat="47.98128" lon="6.59345">
        <ele>712</ele>
        <time>2026-03-29T10:41:23Z</time>
      </trkpt>
      <trkpt lat="47.98128" lon="6.59345">
        <ele>712</ele>
        <time>2026-03-29T10:41:28Z</time>
      </trkpt>
      <trkpt lat="47.98128" lon="6.59345">
        <ele>712</ele>
        <time>2026-03-29T10:41:33Z</time>
      </trkpt>
      <trkpt lat="47.98128" lon="6.59345">
        <ele>712</ele>
        <time>2026-03-29T10:41:38Z</time>
      </trkpt>
      <trkpt lat="47.98127" lon="6.59338">
        <ele>712.6</ele>
        <time>2026-03-29T10:41:43Z</time>
      </trkpt>
      <trkpt lat="47.98127" lon="6.59332">
        <ele>713</ele>
        <time>2026-03-29T10:41:48Z</time>
      </trkpt>
      <trkpt lat="47.9813" lon="6.59327">
        <ele>713.2</ele>
        <time>2026-03-29T10:41:53Z</time>
      </trkpt>
      <trkpt lat="47.98132" lon="6.59325">
        <ele>713.3</ele>
        <time>2026-03-29T10:41:58Z</time>
      </trkpt>
      <trkpt lat="47.98134" lon="6.59323">
        <ele>713.4</ele>
        <time>2026-03-29T10:42:03Z</time>
      </trkpt>
      <trkpt lat="47.98137" lon="6.59321">
        <ele>713.5</ele>
        <time>2026-03-29T10:42:08Z</time>
      </trkpt>
      <trkpt lat="47.98142" lon="6.59319">
        <ele>713.6</ele>
        <time>2026-03-29T10:42:13Z</time>
      </trkpt>
      <trkpt lat="47.98147" lon="6.59316">
        <ele>713.7</ele>
        <time>2026-03-29T10:42:18Z</time>
      </trkpt>
      <trkpt lat="47.98149" lon="6.59315">
        <ele>713.8</ele>
        <time>2026-03-29T10:42:23Z</time>
      </trkpt>
      <trkpt lat="47.98149" lon="6.59314">
        <ele>713.8</ele>
        <time>2026-03-29T10:42:28Z</time>
      </trkpt>
      <trkpt lat="47.98149" lon="6.59314">
        <ele>713.8</ele>
        <time>2026-03-29T10:42:33Z</time>
      </trkpt>
      <trkpt lat="47.98149" lon="6.59314">
        <ele>713.8</ele>
        <time>2026-03-29T10:42:38Z</time>
      </trkpt>
      <trkpt lat="47.98149" lon="6.59314">
        <ele>713.8</ele>
        <time>2026-03-29T10:42:43Z</time>
      </trkpt>
      <trkpt lat="47.98149" lon="6.59314">
        <ele>713.8</ele>
        <time>2026-03-29T10:42:48Z</time>
      </trkpt>
      <trkpt lat="47.98149" lon="6.59314">
        <ele>713.8</ele>
        <time>2026-03-29T10:42:53Z</time>
      </trkpt>
      <trkpt lat="47.9815" lon="6.59314">
        <ele>713.8</ele>
        <time>2026-03-29T10:42:58Z</time>
      </trkpt>
      <trkpt lat="47.98157" lon="6.59314">
        <ele>713.9</ele>
        <time>2026-03-29T10:43:03Z</time>
      </trkpt>
      <trkpt lat="47.98163" lon="6.59311">
        <ele>714</ele>
        <time>2026-03-29T10:43:08Z</time>
      </trkpt>
      <trkpt lat="47.9817" lon="6.59311">
        <ele>714.3</ele>
        <time>2026-03-29T10:43:13Z</time>
      </trkpt>
      <trkpt lat="47.98176" lon="6.59311">
        <ele>714.7</ele>
        <time>2026-03-29T10:43:18Z</time>
      </trkpt>
      <trkpt lat="47.98183" lon="6.5931">
        <ele>715.3</ele>
        <time>2026-03-29T10:43:23Z</time>
      </trkpt>
      <trkpt lat="47.98192" lon="6.59303">
        <ele>716.3</ele>
        <time>2026-03-29T10:43:28Z</time>
      </trkpt>
      <trkpt lat="47.982" lon="6.59299">
        <ele>717</ele>
        <time>2026-03-29T10:43:33Z</time>
      </trkpt>
      <trkpt lat="47.98204" lon="6.59294">
        <ele>717.6</ele>
        <time>2026-03-29T10:43:38Z</time>
      </trkpt>
      <trkpt lat="47.98209" lon="6.59289">
        <ele>718.2</ele>
        <time>2026-03-29T10:43:43Z</time>
      </trkpt>
      <trkpt lat="47.98213" lon="6.59287">
        <ele>718.6</ele>
        <time>2026-03-29T10:43:48Z</time>
      </trkpt>
      <trkpt lat="47.98218" lon="6.59286">
        <ele>719</ele>
        <time>2026-03-29T10:43:53Z</time>
      </trkpt>
      <trkpt lat="47.98223" lon="6.59288">
        <ele>719.2</ele>
        <time>2026-03-29T10:43:58Z</time>
      </trkpt>
      <trkpt lat="47.98228" lon="6.5929">
        <ele>719.5</ele>
        <time>2026-03-29T10:44:03Z</time>
      </trkpt>
      <trkpt lat="47.98233" lon="6.59292">
        <ele>719.8</ele>
        <time>2026-03-29T10:44:08Z</time>
      </trkpt>
      <trkpt lat="47.98238" lon="6.59297">
        <ele>719.9</ele>
        <time>2026-03-29T10:44:13Z</time>
      </trkpt>
      <trkpt lat="47.98244" lon="6.59302">
        <ele>720.1</ele>
        <time>2026-03-29T10:44:18Z</time>
      </trkpt>
      <trkpt lat="47.98249" lon="6.59301">
        <ele>720.5</ele>
        <time>2026-03-29T10:44:23Z</time>
      </trkpt>
      <trkpt lat="47.98254" lon="6.59305">
        <ele>720.5</ele>
        <time>2026-03-29T10:44:28Z</time>
      </trkpt>
      <trkpt lat="47.98258" lon="6.59311">
        <ele>720.3</ele>
        <time>2026-03-29T10:44:33Z</time>
      </trkpt>
      <trkpt lat="47.98264" lon="6.59313">
        <ele>720.4</ele>
        <time>2026-03-29T10:44:38Z</time>
      </trkpt>
      <trkpt lat="47.98271" lon="6.59312">
        <ele>720.7</ele>
        <time>2026-03-29T10:44:43Z</time>
      </trkpt>
      <trkpt lat="47.98278" lon="6.59312">
        <ele>721</ele>
        <time>2026-03-29T10:44:48Z</time>
      </trkpt>
      <trkpt lat="47.98287" lon="6.59311">
        <ele>721.3</ele>
        <time>2026-03-29T10:44:53Z</time>
      </trkpt>
      <trkpt lat="47.98296" lon="6.59307">
        <ele>721.9</ele>
        <time>2026-03-29T10:44:58Z</time>
      </trkpt>
      <trkpt lat="47.98301" lon="6.59304">
        <ele>722.3</ele>
        <time>2026-03-29T10:45:03Z</time>
      </trkpt>
      <trkpt lat="47.98308" lon="6.593">
        <ele>722.8</ele>
        <time>2026-03-29T10:45:08Z</time>
      </trkpt>
      <trkpt lat="47.98315" lon="6.59296">
        <ele>723.4</ele>
        <time>2026-03-29T10:45:13Z</time>
      </trkpt>
      <trkpt lat="47.98319" lon="6.59296">
        <ele>723.6</ele>
        <time>2026-03-29T10:45:18Z</time>
      </trkpt>
      <trkpt lat="47.98323" lon="6.59297">
        <ele>723.6</ele>
        <time>2026-03-29T10:45:23Z</time>
      </trkpt>
      <trkpt lat="47.98329" lon="6.59297">
        <ele>723.9</ele>
        <time>2026-03-29T10:45:28Z</time>
      </trkpt>
      <trkpt lat="47.98333" lon="6.59294">
        <ele>724.3</ele>
        <time>2026-03-29T10:45:33Z</time>
      </trkpt>
      <trkpt lat="47.98336" lon="6.59289">
        <ele>724.7</ele>
        <time>2026-03-29T10:45:38Z</time>
      </trkpt>
      <trkpt lat="47.98342" lon="6.59283">
        <ele>725.2</ele>
        <time>2026-03-29T10:45:43Z</time>
      </trkpt>
      <trkpt lat="47.98348" lon="6.5928">
        <ele>725.4</ele>
        <time>2026-03-29T10:45:48Z</time>
      </trkpt>
      <trkpt lat="47.98354" lon="6.59276">
        <ele>725.6</ele>
        <time>2026-03-29T10:45:53Z</time>
      </trkpt>
      <trkpt lat="47.9836" lon="6.59276">
        <ele>725.6</ele>
        <time>2026-03-29T10:45:58Z</time>
      </trkpt>
      <trkpt lat="47.98364" lon="6.59275">
        <ele>725.6</ele>
        <time>2026-03-29T10:46:03Z</time>
      </trkpt>
      <trkpt lat="47.9837" lon="6.59271">
        <ele>725.8</ele>
        <time>2026-03-29T10:46:08Z</time>
      </trkpt>
      <trkpt lat="47.98375" lon="6.59268">
        <ele>725.9</ele>
        <time>2026-03-29T10:46:13Z</time>
      </trkpt>
      <trkpt lat="47.98382" lon="6.59263">
        <ele>726.1</ele>
        <time>2026-03-29T10:46:18Z</time>
      </trkpt>
      <trkpt lat="47.98388" lon="6.59259">
        <ele>726.2</ele>
        <time>2026-03-29T10:46:23Z</time>
      </trkpt>
      <trkpt lat="47.98392" lon="6.59262">
        <ele>726</ele>
        <time>2026-03-29T10:46:28Z</time>
      </trkpt>
      <trkpt lat="47.98396" lon="6.59265">
        <ele>725.8</ele>
        <time>2026-03-29T10:46:33Z</time>
      </trkpt>
      <trkpt lat="47.98398" lon="6.59267">
        <ele>725.7</ele>
        <time>2026-03-29T10:46:38Z</time>
      </trkpt>
      <trkpt lat="47.98402" lon="6.59268">
        <ele>725.6</ele>
        <time>2026-03-29T10:46:43Z</time>
      </trkpt>
      <trkpt lat="47.98407" lon="6.5927">
        <ele>725.4</ele>
        <time>2026-03-29T10:46:48Z</time>
      </trkpt>
      <trkpt lat="47.98413" lon="6.59271">
        <ele>725.3</ele>
        <time>2026-03-29T10:46:53Z</time>
      </trkpt>
      <trkpt lat="47.98418" lon="6.59274">
        <ele>725.1</ele>
        <time>2026-03-29T10:46:58Z</time>
      </trkpt>
      <trkpt lat="47.98423" lon="6.5928">
        <ele>724.9</ele>
        <time>2026-03-29T10:47:03Z</time>
      </trkpt>
      <trkpt lat="47.9843" lon="6.59283">
        <ele>724.7</ele>
        <time>2026-03-29T10:47:08Z</time>
      </trkpt>
      <trkpt lat="47.98432" lon="6.59286">
        <ele>724.6</ele>
        <time>2026-03-29T10:47:13Z</time>
      </trkpt>
      <trkpt lat="47.98432" lon="6.59286">
        <ele>724.6</ele>
        <time>2026-03-29T10:47:18Z</time>
      </trkpt>
      <trkpt lat="47.98432" lon="6.59286">
        <ele>724.6</ele>
        <time>2026-03-29T10:47:23Z</time>
      </trkpt>
      <trkpt lat="47.98432" lon="6.59286">
        <ele>724.6</ele>
        <time>2026-03-29T10:47:28Z</time>
      </trkpt>
      <trkpt lat="47.98432" lon="6.59286">
        <ele>724.6</ele>
        <time>2026-03-29T10:47:33Z</time>
      </trkpt>
      <trkpt lat="47.98432" lon="6.59286">
        <ele>724.6</ele>
        <time>2026-03-29T10:47:38Z</time>
      </trkpt>
      <trkpt lat="47.98432" lon="6.59286">
        <ele>724.6</ele>
        <time>2026-03-29T10:47:43Z</time>
      </trkpt>
      <trkpt lat="47.98432" lon="6.59286">
        <ele>724.6</ele>
        <time>2026-03-29T10:47:48Z</time>
      </trkpt>
      <trkpt lat="47.98432" lon="6.59286">
        <ele>724.6</ele>
        <time>2026-03-29T10:47:53Z</time>
      </trkpt>
      <trkpt lat="47.98432" lon="6.59286">
        <ele>724.6</ele>
        <time>2026-03-29T10:47:58Z</time>
      </trkpt>
      <trkpt lat="47.98433" lon="6.59286">
        <ele>724.6</ele>
        <time>2026-03-29T10:48:03Z</time>
      </trkpt>
      <trkpt lat="47.98438" lon="6.5929">
        <ele>724.4</ele>
        <time>2026-03-29T10:48:08Z</time>
      </trkpt>
      <trkpt lat="47.98445" lon="6.59291">
        <ele>724.4</ele>
        <time>2026-03-29T10:48:13Z</time>
      </trkpt>
      <trkpt lat="47.98449" lon="6.59296">
        <ele>724.1</ele>
        <time>2026-03-29T10:48:18Z</time>
      </trkpt>
      <trkpt lat="47.98453" lon="6.59303">
        <ele>723.8</ele>
        <time>2026-03-29T10:48:23Z</time>
      </trkpt>
      <trkpt lat="47.98455" lon="6.59306">
        <ele>723.7</ele>
        <time>2026-03-29T10:48:28Z</time>
      </trkpt>
      <trkpt lat="47.98456" lon="6.59307">
        <ele>723.6</ele>
        <time>2026-03-29T10:48:33Z</time>
      </trkpt>
      <trkpt lat="47.98458" lon="6.59307">
        <ele>723.6</ele>
        <time>2026-03-29T10:48:38Z</time>
      </trkpt>
      <trkpt lat="47.98458" lon="6.59307">
        <ele>723.6</ele>
        <time>2026-03-29T10:48:43Z</time>
      </trkpt>
      <trkpt lat="47.98463" lon="6.5932">
        <ele>723</ele>
        <time>2026-03-29T10:48:48Z</time>
      </trkpt>
      <trkpt lat="47.98466" lon="6.59329">
        <ele>722.6</ele>
        <time>2026-03-29T10:48:53Z</time>
      </trkpt>
      <trkpt lat="47.98473" lon="6.59335">
        <ele>722.2</ele>
        <time>2026-03-29T10:48:58Z</time>
      </trkpt>
      <trkpt lat="47.98479" lon="6.5934">
        <ele>721.7</ele>
        <time>2026-03-29T10:49:03Z</time>
      </trkpt>
      <trkpt lat="47.98482" lon="6.59344">
        <ele>721.2</ele>
        <time>2026-03-29T10:49:08Z</time>
      </trkpt>
      <trkpt lat="47.98487" lon="6.59349">
        <ele>720.7</ele>
        <time>2026-03-29T10:49:13Z</time>
      </trkpt>
      <trkpt lat="47.98492" lon="6.59355">
        <ele>720.1</ele>
        <time>2026-03-29T10:49:18Z</time>
      </trkpt>
      <trkpt lat="47.98497" lon="6.59359">
        <ele>719.6</ele>
        <time>2026-03-29T10:49:23Z</time>
      </trkpt>
      <trkpt lat="47.98501" lon="6.59363">
        <ele>719.1</ele>
        <time>2026-03-29T10:49:28Z</time>
      </trkpt>
      <trkpt lat="47.98506" lon="6.59367">
        <ele>718.7</ele>
        <time>2026-03-29T10:49:33Z</time>
      </trkpt>
      <trkpt lat="47.98512" lon="6.5937">
        <ele>718.3</ele>
        <time>2026-03-29T10:49:38Z</time>
      </trkpt>
      <trkpt lat="47.98516" lon="6.59372">
        <ele>718.1</ele>
        <time>2026-03-29T10:49:43Z</time>
      </trkpt>
      <trkpt lat="47.98521" lon="6.59376">
        <ele>717.7</ele>
        <time>2026-03-29T10:49:48Z</time>
      </trkpt>
      <trkpt lat="47.98527" lon="6.59377">
        <ele>717.5</ele>
        <time>2026-03-29T10:49:53Z</time>
      </trkpt>
      <trkpt lat="47.98533" lon="6.59379">
        <ele>717.2</ele>
        <time>2026-03-29T10:49:58Z</time>
      </trkpt>
      <trkpt lat="47.98535" lon="6.59385">
        <ele>716.6</ele>
        <time>2026-03-29T10:50:03Z</time>
      </trkpt>
      <trkpt lat="47.98538" lon="6.59392">
        <ele>715.9</ele>
        <time>2026-03-29T10:50:08Z</time>
      </trkpt>
      <trkpt lat="47.9854" lon="6.59394">
        <ele>715.7</ele>
        <time>2026-03-29T10:50:13Z</time>
      </trkpt>
      <trkpt lat="47.98543" lon="6.594">
        <ele>715.1</ele>
        <time>2026-03-29T10:50:18Z</time>
      </trkpt>
      <trkpt lat="47.98548" lon="6.59405">
        <ele>714.5</ele>
        <time>2026-03-29T10:50:23Z</time>
      </trkpt>
      <trkpt lat="47.98556" lon="6.59413">
        <ele>713.7</ele>
        <time>2026-03-29T10:50:28Z</time>
      </trkpt>
      <trkpt lat="47.98563" lon="6.59415">
        <ele>713.4</ele>
        <time>2026-03-29T10:50:33Z</time>
      </trkpt>
      <trkpt lat="47.9857" lon="6.59415">
        <ele>713.3</ele>
        <time>2026-03-29T10:50:38Z</time>
      </trkpt>
      <trkpt lat="47.98571" lon="6.59421">
        <ele>712.8</ele>
        <time>2026-03-29T10:50:43Z</time>
      </trkpt>
      <trkpt lat="47.98573" lon="6.59427">
        <ele>712.2</ele>
        <time>2026-03-29T10:50:48Z</time>
      </trkpt>
      <trkpt lat="47.98579" lon="6.59427">
        <ele>712.2</ele>
        <time>2026-03-29T10:50:53Z</time>
      </trkpt>
      <trkpt lat="47.98585" lon="6.59429">
        <ele>711.9</ele>
        <time>2026-03-29T10:50:58Z</time>
      </trkpt>
      <trkpt lat="47.98592" lon="6.59428">
        <ele>711.6</ele>
        <time>2026-03-29T10:51:03Z</time>
      </trkpt>
      <trkpt lat="47.98598" lon="6.59433">
        <ele>711</ele>
        <time>2026-03-29T10:51:08Z</time>
      </trkpt>
      <trkpt lat="47.98604" lon="6.59437">
        <ele>710.4</ele>
        <time>2026-03-29T10:51:13Z</time>
      </trkpt>
      <trkpt lat="47.9861" lon="6.59441">
        <ele>709.8</ele>
        <time>2026-03-29T10:51:18Z</time>
      </trkpt>
      <trkpt lat="47.98612" lon="6.59449">
        <ele>709</ele>
        <time>2026-03-29T10:51:23Z</time>
      </trkpt>
      <trkpt lat="47.98614" lon="6.59455">
        <ele>708.5</ele>
        <time>2026-03-29T10:51:28Z</time>
      </trkpt>
      <trkpt lat="47.98625" lon="6.59449">
        <ele>708.5</ele>
        <time>2026-03-29T10:51:33Z</time>
      </trkpt>
      <trkpt lat="47.98632" lon="6.59449">
        <ele>708.2</ele>
        <time>2026-03-29T10:51:38Z</time>
      </trkpt>
      <trkpt lat="47.9864" lon="6.59451">
        <ele>707.7</ele>
        <time>2026-03-29T10:51:43Z</time>
      </trkpt>
      <trkpt lat="47.98646" lon="6.59452">
        <ele>707.3</ele>
        <time>2026-03-29T10:51:48Z</time>
      </trkpt>
      <trkpt lat="47.98649" lon="6.59453">
        <ele>707.1</ele>
        <time>2026-03-29T10:51:53Z</time>
      </trkpt>
      <trkpt lat="47.98649" lon="6.59453">
        <ele>707.1</ele>
        <time>2026-03-29T10:51:58Z</time>
      </trkpt>
      <trkpt lat="47.98649" lon="6.59453">
        <ele>707.1</ele>
        <time>2026-03-29T10:52:03Z</time>
      </trkpt>
      <trkpt lat="47.98649" lon="6.59453">
        <ele>707.1</ele>
        <time>2026-03-29T10:52:08Z</time>
      </trkpt>
      <trkpt lat="47.98646" lon="6.59451">
        <ele>707.4</ele>
        <time>2026-03-29T10:52:13Z</time>
      </trkpt>
      <trkpt lat="47.98644" lon="6.59453">
        <ele>707.4</ele>
        <time>2026-03-29T10:52:18Z</time>
      </trkpt>
      <trkpt lat="47.9864" lon="6.59453">
        <ele>707.5</ele>
        <time>2026-03-29T10:52:23Z</time>
      </trkpt>
      <trkpt lat="47.98638" lon="6.5946">
        <ele>707.1</ele>
        <time>2026-03-29T10:52:28Z</time>
      </trkpt>
      <trkpt lat="47.9864" lon="6.59463">
        <ele>706.8</ele>
        <time>2026-03-29T10:52:33Z</time>
      </trkpt>
      <trkpt lat="47.98647" lon="6.59457">
        <ele>706.9</ele>
        <time>2026-03-29T10:52:38Z</time>
      </trkpt>
      <trkpt lat="47.98655" lon="6.59452">
        <ele>707</ele>
        <time>2026-03-29T10:52:43Z</time>
      </trkpt>
      <trkpt lat="47.98662" lon="6.59452">
        <ele>706.7</ele>
        <time>2026-03-29T10:52:48Z</time>
      </trkpt>
      <trkpt lat="47.98669" lon="6.59452">
        <ele>706.3</ele>
        <time>2026-03-29T10:52:53Z</time>
      </trkpt>
      <trkpt lat="47.98673" lon="6.59455">
        <ele>705.7</ele>
        <time>2026-03-29T10:52:58Z</time>
      </trkpt>
      <trkpt lat="47.98677" lon="6.59455">
        <ele>705.4</ele>
        <time>2026-03-29T10:53:03Z</time>
      </trkpt>
      <trkpt lat="47.98684" lon="6.59455">
        <ele>704.8</ele>
        <time>2026-03-29T10:53:08Z</time>
      </trkpt>
      <trkpt lat="47.9869" lon="6.59459">
        <ele>704.1</ele>
        <time>2026-03-29T10:53:13Z</time>
      </trkpt>
      <trkpt lat="47.98693" lon="6.59463">
        <ele>703.7</ele>
        <time>2026-03-29T10:53:18Z</time>
      </trkpt>
      <trkpt lat="47.98696" lon="6.59468">
        <ele>703.2</ele>
        <time>2026-03-29T10:53:23Z</time>
      </trkpt>
      <trkpt lat="47.98702" lon="6.59471">
        <ele>702.7</ele>
        <time>2026-03-29T10:53:28Z</time>
      </trkpt>
      <trkpt lat="47.98709" lon="6.59474">
        <ele>702</ele>
        <time>2026-03-29T10:53:33Z</time>
      </trkpt>
      <trkpt lat="47.98713" lon="6.59477">
        <ele>701.7</ele>
        <time>2026-03-29T10:53:38Z</time>
      </trkpt>
      <trkpt lat="47.98717" lon="6.5948">
        <ele>701.3</ele>
        <time>2026-03-29T10:53:43Z</time>
      </trkpt>
      <trkpt lat="47.98719" lon="6.59483">
        <ele>701.1</ele>
        <time>2026-03-29T10:53:48Z</time>
      </trkpt>
      <trkpt lat="47.98721" lon="6.59485">
        <ele>700.9</ele>
        <time>2026-03-29T10:53:53Z</time>
      </trkpt>
      <trkpt lat="47.98726" lon="6.59486">
        <ele>700.6</ele>
        <time>2026-03-29T10:53:58Z</time>
      </trkpt>
      <trkpt lat="47.98733" lon="6.59485">
        <ele>700.2</ele>
        <time>2026-03-29T10:54:03Z</time>
      </trkpt>
      <trkpt lat="47.98738" lon="6.59482">
        <ele>699.9</ele>
        <time>2026-03-29T10:54:08Z</time>
      </trkpt>
      <trkpt lat="47.98741" lon="6.59487">
        <ele>699.7</ele>
        <time>2026-03-29T10:54:13Z</time>
      </trkpt>
      <trkpt lat="47.98745" lon="6.5949">
        <ele>699.4</ele>
        <time>2026-03-29T10:54:18Z</time>
      </trkpt>
      <trkpt lat="47.98748" lon="6.59495">
        <ele>699.2</ele>
        <time>2026-03-29T10:54:23Z</time>
      </trkpt>
      <trkpt lat="47.98752" lon="6.595">
        <ele>699.2</ele>
        <time>2026-03-29T10:54:28Z</time>
      </trkpt>
      <trkpt lat="47.98754" lon="6.5951">
        <ele>698.9</ele>
        <time>2026-03-29T10:54:33Z</time>
      </trkpt>
      <trkpt lat="47.98754" lon="6.59524">
        <ele>698.1</ele>
        <time>2026-03-29T10:54:38Z</time>
      </trkpt>
      <trkpt lat="47.98757" lon="6.5953">
        <ele>698.2</ele>
        <time>2026-03-29T10:54:43Z</time>
      </trkpt>
      <trkpt lat="47.98756" lon="6.59536">
        <ele>697.7</ele>
        <time>2026-03-29T10:54:48Z</time>
      </trkpt>
      <trkpt lat="47.98753" lon="6.59542">
        <ele>696.9</ele>
        <time>2026-03-29T10:54:53Z</time>
      </trkpt>
      <trkpt lat="47.9875" lon="6.59546">
        <ele>696.2</ele>
        <time>2026-03-29T10:54:58Z</time>
      </trkpt>
      <trkpt lat="47.98748" lon="6.59548">
        <ele>696.1</ele>
        <time>2026-03-29T10:55:03Z</time>
      </trkpt>
      <trkpt lat="47.98746" lon="6.59551">
        <ele>696</ele>
        <time>2026-03-29T10:55:08Z</time>
      </trkpt>
      <trkpt lat="47.98743" lon="6.59554">
        <ele>695.8</ele>
        <time>2026-03-29T10:55:13Z</time>
      </trkpt>
      <trkpt lat="47.98742" lon="6.59558">
        <ele>695.6</ele>
        <time>2026-03-29T10:55:18Z</time>
      </trkpt>
      <trkpt lat="47.98742" lon="6.59564">
        <ele>695.2</ele>
        <time>2026-03-29T10:55:23Z</time>
      </trkpt>
      <trkpt lat="47.98742" lon="6.59569">
        <ele>694.8</ele>
        <time>2026-03-29T10:55:28Z</time>
      </trkpt>
      <trkpt lat="47.98744" lon="6.59571">
        <ele>694.7</ele>
        <time>2026-03-29T10:55:33Z</time>
      </trkpt>
      <trkpt lat="47.98744" lon="6.59571">
        <ele>694.7</ele>
        <time>2026-03-29T10:55:38Z</time>
      </trkpt>
      <trkpt lat="47.98745" lon="6.59579">
        <ele>694.2</ele>
        <time>2026-03-29T10:55:43Z</time>
      </trkpt>
      <trkpt lat="47.98747" lon="6.59586">
        <ele>693.5</ele>
        <time>2026-03-29T10:55:48Z</time>
      </trkpt>
      <trkpt lat="47.98751" lon="6.59596">
        <ele>692.1</ele>
        <time>2026-03-29T10:55:53Z</time>
      </trkpt>
      <trkpt lat="47.98754" lon="6.59599">
        <ele>692.1</ele>
        <time>2026-03-29T10:55:58Z</time>
      </trkpt>
      <trkpt lat="47.98758" lon="6.59602">
        <ele>692.4</ele>
        <time>2026-03-29T10:56:03Z</time>
      </trkpt>
      <trkpt lat="47.98765" lon="6.59602">
        <ele>693.7</ele>
        <time>2026-03-29T10:56:08Z</time>
      </trkpt>
      <trkpt lat="47.98771" lon="6.59601">
        <ele>695.1</ele>
        <time>2026-03-29T10:56:13Z</time>
      </trkpt>
      <trkpt lat="47.98776" lon="6.59601">
        <ele>696</ele>
        <time>2026-03-29T10:56:18Z</time>
      </trkpt>
      <trkpt lat="47.98782" lon="6.59601">
        <ele>697.2</ele>
        <time>2026-03-29T10:56:23Z</time>
      </trkpt>
      <trkpt lat="47.98788" lon="6.59602">
        <ele>698.2</ele>
        <time>2026-03-29T10:56:28Z</time>
      </trkpt>
      <trkpt lat="47.98794" lon="6.59604">
        <ele>699</ele>
        <time>2026-03-29T10:56:33Z</time>
      </trkpt>
      <trkpt lat="47.988" lon="6.59607">
        <ele>699.6</ele>
        <time>2026-03-29T10:56:38Z</time>
      </trkpt>
      <trkpt lat="47.98805" lon="6.59608">
        <ele>700.4</ele>
        <time>2026-03-29T10:56:43Z</time>
      </trkpt>
      <trkpt lat="47.98811" lon="6.59611">
        <ele>701.1</ele>
        <time>2026-03-29T10:56:48Z</time>
      </trkpt>
      <trkpt lat="47.98814" lon="6.59615">
        <ele>701</ele>
        <time>2026-03-29T10:56:53Z</time>
      </trkpt>
      <trkpt lat="47.98818" lon="6.5962">
        <ele>700.9</ele>
        <time>2026-03-29T10:56:58Z</time>
      </trkpt>
      <trkpt lat="47.98823" lon="6.59623">
        <ele>701.4</ele>
        <time>2026-03-29T10:57:03Z</time>
      </trkpt>
      <trkpt lat="47.98827" lon="6.5963">
        <ele>700.9</ele>
        <time>2026-03-29T10:57:08Z</time>
      </trkpt>
      <trkpt lat="47.98832" lon="6.59635">
        <ele>701.1</ele>
        <time>2026-03-29T10:57:13Z</time>
      </trkpt>
      <trkpt lat="47.9884" lon="6.59638">
        <ele>701.9</ele>
        <time>2026-03-29T10:57:18Z</time>
      </trkpt>
      <trkpt lat="47.98844" lon="6.59643">
        <ele>701.7</ele>
        <time>2026-03-29T10:57:23Z</time>
      </trkpt>
      <trkpt lat="47.98848" lon="6.59649">
        <ele>701.5</ele>
        <time>2026-03-29T10:57:28Z</time>
      </trkpt>
      <trkpt lat="47.98853" lon="6.59654">
        <ele>701.6</ele>
        <time>2026-03-29T10:57:33Z</time>
      </trkpt>
      <trkpt lat="47.98859" lon="6.59659">
        <ele>702</ele>
        <time>2026-03-29T10:57:38Z</time>
      </trkpt>
      <trkpt lat="47.98867" lon="6.59664">
        <ele>702.8</ele>
        <time>2026-03-29T10:57:43Z</time>
      </trkpt>
      <trkpt lat="47.98873" lon="6.59668">
        <ele>703.3</ele>
        <time>2026-03-29T10:57:48Z</time>
      </trkpt>
      <trkpt lat="47.98879" lon="6.59673">
        <ele>703</ele>
        <time>2026-03-29T10:57:53Z</time>
      </trkpt>
      <trkpt lat="47.98887" lon="6.59677">
        <ele>703.5</ele>
        <time>2026-03-29T10:57:58Z</time>
      </trkpt>
      <trkpt lat="47.98895" lon="6.5968">
        <ele>704.1</ele>
        <time>2026-03-29T10:58:03Z</time>
      </trkpt>
      <trkpt lat="47.98903" lon="6.59681">
        <ele>705.3</ele>
        <time>2026-03-29T10:58:08Z</time>
      </trkpt>
      <trkpt lat="47.98911" lon="6.59684">
        <ele>706</ele>
        <time>2026-03-29T10:58:13Z</time>
      </trkpt>
      <trkpt lat="47.98917" lon="6.59685">
        <ele>706.8</ele>
        <time>2026-03-29T10:58:18Z</time>
      </trkpt>
      <trkpt lat="47.98926" lon="6.59687">
        <ele>707</ele>
        <time>2026-03-29T10:58:23Z</time>
      </trkpt>
      <trkpt lat="47.98934" lon="6.59689">
        <ele>707.2</ele>
        <time>2026-03-29T10:58:28Z</time>
      </trkpt>
      <trkpt lat="47.98939" lon="6.59691">
        <ele>707.1</ele>
        <time>2026-03-29T10:58:33Z</time>
      </trkpt>
      <trkpt lat="47.98947" lon="6.59691">
        <ele>707.9</ele>
        <time>2026-03-29T10:58:38Z</time>
      </trkpt>
      <trkpt lat="47.98955" lon="6.59689">
        <ele>709.2</ele>
        <time>2026-03-29T10:58:43Z</time>
      </trkpt>
      <trkpt lat="47.98961" lon="6.5969">
        <ele>709.5</ele>
        <time>2026-03-29T10:58:48Z</time>
      </trkpt>
      <trkpt lat="47.98968" lon="6.5969">
        <ele>710.2</ele>
        <time>2026-03-29T10:58:53Z</time>
      </trkpt>
      <trkpt lat="47.98976" lon="6.59692">
        <ele>710.5</ele>
        <time>2026-03-29T10:58:58Z</time>
      </trkpt>
      <trkpt lat="47.98982" lon="6.59694">
        <ele>710.6</ele>
        <time>2026-03-29T10:59:03Z</time>
      </trkpt>
      <trkpt lat="47.98988" lon="6.59698">
        <ele>710.4</ele>
        <time>2026-03-29T10:59:08Z</time>
      </trkpt>
      <trkpt lat="47.98993" lon="6.59703">
        <ele>709.8</ele>
        <time>2026-03-29T10:59:13Z</time>
      </trkpt>
      <trkpt lat="47.98999" lon="6.59709">
        <ele>709.2</ele>
        <time>2026-03-29T10:59:18Z</time>
      </trkpt>
      <trkpt lat="47.99005" lon="6.59714">
        <ele>708.6</ele>
        <time>2026-03-29T10:59:23Z</time>
      </trkpt>
      <trkpt lat="47.99015" lon="6.59716">
        <ele>708.8</ele>
        <time>2026-03-29T10:59:28Z</time>
      </trkpt>
      <trkpt lat="47.99023" lon="6.59719">
        <ele>708.8</ele>
        <time>2026-03-29T10:59:33Z</time>
      </trkpt>
      <trkpt lat="47.99027" lon="6.59721">
        <ele>708.7</ele>
        <time>2026-03-29T10:59:38Z</time>
      </trkpt>
      <trkpt lat="47.99028" lon="6.59724">
        <ele>708.3</ele>
        <time>2026-03-29T10:59:43Z</time>
      </trkpt>
      <trkpt lat="47.99028" lon="6.59724">
        <ele>708.3</ele>
        <time>2026-03-29T10:59:48Z</time>
      </trkpt>
      <trkpt lat="47.99028" lon="6.59724">
        <ele>708.3</ele>
        <time>2026-03-29T10:59:53Z</time>
      </trkpt>
      <trkpt lat="47.99028" lon="6.59724">
        <ele>708.3</ele>
        <time>2026-03-29T10:59:58Z</time>
      </trkpt>
      <trkpt lat="47.9904" lon="6.59719">
        <ele>709.9</ele>
        <time>2026-03-29T11:00:03Z</time>
      </trkpt>
      <trkpt lat="47.99044" lon="6.59717">
        <ele>710.4</ele>
        <time>2026-03-29T11:00:08Z</time>
      </trkpt>
      <trkpt lat="47.99046" lon="6.59715">
        <ele>710.8</ele>
        <time>2026-03-29T11:00:13Z</time>
      </trkpt>
      <trkpt lat="47.9905" lon="6.59715">
        <ele>711</ele>
        <time>2026-03-29T11:00:18Z</time>
      </trkpt>
      <trkpt lat="47.9905" lon="6.59715">
        <ele>711</ele>
        <time>2026-03-29T11:00:23Z</time>
      </trkpt>
      <trkpt lat="47.99053" lon="6.59717">
        <ele>710.9</ele>
        <time>2026-03-29T11:00:28Z</time>
      </trkpt>
      <trkpt lat="47.99053" lon="6.5972">
        <ele>710.6</ele>
        <time>2026-03-29T11:00:33Z</time>
      </trkpt>
      <trkpt lat="47.99054" lon="6.59721">
        <ele>710.5</ele>
        <time>2026-03-29T11:00:38Z</time>
      </trkpt>
      <trkpt lat="47.99054" lon="6.59721">
        <ele>710.5</ele>
        <time>2026-03-29T11:00:43Z</time>
      </trkpt>
      <trkpt lat="47.99058" lon="6.59719">
        <ele>711</ele>
        <time>2026-03-29T11:00:48Z</time>
      </trkpt>
      <trkpt lat="47.99061" lon="6.5972">
        <ele>711.1</ele>
        <time>2026-03-29T11:00:53Z</time>
      </trkpt>
      <trkpt lat="47.99065" lon="6.59717">
        <ele>711.7</ele>
        <time>2026-03-29T11:00:58Z</time>
      </trkpt>
      <trkpt lat="47.99067" lon="6.59718">
        <ele>711.7</ele>
        <time>2026-03-29T11:01:03Z</time>
      </trkpt>
      <trkpt lat="47.99067" lon="6.59718">
        <ele>711.7</ele>
        <time>2026-03-29T11:01:08Z</time>
      </trkpt>
      <trkpt lat="47.99067" lon="6.59718">
        <ele>711.7</ele>
        <time>2026-03-29T11:01:13Z</time>
      </trkpt>
      <trkpt lat="47.99067" lon="6.59718">
        <ele>711.7</ele>
        <time>2026-03-29T11:01:18Z</time>
      </trkpt>
      <trkpt lat="47.99067" lon="6.59718">
        <ele>711.7</ele>
        <time>2026-03-29T11:01:23Z</time>
      </trkpt>
      <trkpt lat="47.99067" lon="6.59718">
        <ele>711.7</ele>
        <time>2026-03-29T11:01:28Z</time>
      </trkpt>
      <trkpt lat="47.99067" lon="6.59718">
        <ele>711.7</ele>
        <time>2026-03-29T11:01:33Z</time>
      </trkpt>
      <trkpt lat="47.99067" lon="6.59718">
        <ele>711.7</ele>
        <time>2026-03-29T11:01:38Z</time>
      </trkpt>
      <trkpt lat="47.99067" lon="6.59718">
        <ele>711.7</ele>
        <time>2026-03-29T11:01:43Z</time>
      </trkpt>
      <trkpt lat="47.99067" lon="6.59718">
        <ele>711.7</ele>
        <time>2026-03-29T11:01:48Z</time>
      </trkpt>
      <trkpt lat="47.99067" lon="6.59718">
        <ele>711.7</ele>
        <time>2026-03-29T11:01:53Z</time>
      </trkpt>
      <trkpt lat="47.99067" lon="6.59718">
        <ele>711.7</ele>
        <time>2026-03-29T11:01:58Z</time>
      </trkpt>
      <trkpt lat="47.99067" lon="6.59718">
        <ele>711.7</ele>
        <time>2026-03-29T11:02:03Z</time>
      </trkpt>
      <trkpt lat="47.99067" lon="6.59718">
        <ele>711.7</ele>
        <time>2026-03-29T11:02:08Z</time>
      </trkpt>
      <trkpt lat="47.99067" lon="6.59718">
        <ele>711.7</ele>
        <time>2026-03-29T11:02:13Z</time>
      </trkpt>
      <trkpt lat="47.99067" lon="6.59718">
        <ele>711.7</ele>
        <time>2026-03-29T11:02:18Z</time>
      </trkpt>
      <trkpt lat="47.99067" lon="6.59718">
        <ele>711.7</ele>
        <time>2026-03-29T11:02:23Z</time>
      </trkpt>
      <trkpt lat="47.99067" lon="6.59718">
        <ele>711.7</ele>
        <time>2026-03-29T11:02:28Z</time>
      </trkpt>
      <trkpt lat="47.99067" lon="6.59718">
        <ele>711.7</ele>
        <time>2026-03-29T11:02:33Z</time>
      </trkpt>
      <trkpt lat="47.99067" lon="6.59718">
        <ele>711.7</ele>
        <time>2026-03-29T11:02:38Z</time>
      </trkpt>
      <trkpt lat="47.9907" lon="6.5972">
        <ele>711.7</ele>
        <time>2026-03-29T11:02:43Z</time>
      </trkpt>
      <trkpt lat="47.99075" lon="6.5972">
        <ele>712</ele>
        <time>2026-03-29T11:02:48Z</time>
      </trkpt>
      <trkpt lat="47.99081" lon="6.5972">
        <ele>712.4</ele>
        <time>2026-03-29T11:02:53Z</time>
      </trkpt>
      <trkpt lat="47.99088" lon="6.59723">
        <ele>712.5</ele>
        <time>2026-03-29T11:02:58Z</time>
      </trkpt>
      <trkpt lat="47.99095" lon="6.59724">
        <ele>712.8</ele>
        <time>2026-03-29T11:03:03Z</time>
      </trkpt>
      <trkpt lat="47.99111" lon="6.59726">
        <ele>713.6</ele>
        <time>2026-03-29T11:03:08Z</time>
      </trkpt>
      <trkpt lat="47.99127" lon="6.59733">
        <ele>714.1</ele>
        <time>2026-03-29T11:03:13Z</time>
      </trkpt>
      <trkpt lat="47.99135" lon="6.59743">
        <ele>714.1</ele>
        <time>2026-03-29T11:03:18Z</time>
      </trkpt>
      <trkpt lat="47.99138" lon="6.59749">
        <ele>714</ele>
        <time>2026-03-29T11:03:23Z</time>
      </trkpt>
      <trkpt lat="47.99144" lon="6.59755">
        <ele>713.4</ele>
        <time>2026-03-29T11:03:28Z</time>
      </trkpt>
      <trkpt lat="47.99149" lon="6.59761">
        <ele>712.7</ele>
        <time>2026-03-29T11:03:33Z</time>
      </trkpt>
      <trkpt lat="47.99154" lon="6.59765">
        <ele>712.4</ele>
        <time>2026-03-29T11:03:38Z</time>
      </trkpt>
      <trkpt lat="47.99159" lon="6.59771">
        <ele>711.8</ele>
        <time>2026-03-29T11:03:43Z</time>
      </trkpt>
      <trkpt lat="47.99164" lon="6.59776">
        <ele>711.4</ele>
        <time>2026-03-29T11:03:48Z</time>
      </trkpt>
      <trkpt lat="47.99171" lon="6.59782">
        <ele>710.4</ele>
        <time>2026-03-29T11:03:53Z</time>
      </trkpt>
      <trkpt lat="47.99177" lon="6.59787">
        <ele>709.3</ele>
        <time>2026-03-29T11:03:58Z</time>
      </trkpt>
      <trkpt lat="47.99182" lon="6.59791">
        <ele>708.5</ele>
        <time>2026-03-29T11:04:03Z</time>
      </trkpt>
      <trkpt lat="47.99187" lon="6.59797">
        <ele>707.5</ele>
        <time>2026-03-29T11:04:08Z</time>
      </trkpt>
      <trkpt lat="47.99193" lon="6.59801">
        <ele>706.8</ele>
        <time>2026-03-29T11:04:13Z</time>
      </trkpt>
      <trkpt lat="47.992" lon="6.59806">
        <ele>706.1</ele>
        <time>2026-03-29T11:04:18Z</time>
      </trkpt>
      <trkpt lat="47.99207" lon="6.59812">
        <ele>705.3</ele>
        <time>2026-03-29T11:04:23Z</time>
      </trkpt>
      <trkpt lat="47.99213" lon="6.59818">
        <ele>704.7</ele>
        <time>2026-03-29T11:04:28Z</time>
      </trkpt>
      <trkpt lat="47.9922" lon="6.59823">
        <ele>704.2</ele>
        <time>2026-03-29T11:04:33Z</time>
      </trkpt>
      <trkpt lat="47.99229" lon="6.59825">
        <ele>704.1</ele>
        <time>2026-03-29T11:04:38Z</time>
      </trkpt>
      <trkpt lat="47.99236" lon="6.59828">
        <ele>704</ele>
        <time>2026-03-29T11:04:43Z</time>
      </trkpt>
      <trkpt lat="47.99244" lon="6.59829">
        <ele>704.1</ele>
        <time>2026-03-29T11:04:48Z</time>
      </trkpt>
      <trkpt lat="47.9925" lon="6.59831">
        <ele>704.1</ele>
        <time>2026-03-29T11:04:53Z</time>
      </trkpt>
      <trkpt lat="47.99259" lon="6.59832">
        <ele>704</ele>
        <time>2026-03-29T11:04:58Z</time>
      </trkpt>
      <trkpt lat="47.9927" lon="6.59833">
        <ele>703.8</ele>
        <time>2026-03-29T11:05:03Z</time>
      </trkpt>
      <trkpt lat="47.99279" lon="6.59834">
        <ele>703.6</ele>
        <time>2026-03-29T11:05:08Z</time>
      </trkpt>
      <trkpt lat="47.99284" lon="6.59838">
        <ele>703.1</ele>
        <time>2026-03-29T11:05:13Z</time>
      </trkpt>
      <trkpt lat="47.99291" lon="6.59843">
        <ele>702.5</ele>
        <time>2026-03-29T11:05:18Z</time>
      </trkpt>
      <trkpt lat="47.99298" lon="6.59848">
        <ele>701.9</ele>
        <time>2026-03-29T11:05:23Z</time>
      </trkpt>
      <trkpt lat="47.99305" lon="6.59852">
        <ele>701.5</ele>
        <time>2026-03-29T11:05:28Z</time>
      </trkpt>
      <trkpt lat="47.99312" lon="6.59855">
        <ele>701.3</ele>
        <time>2026-03-29T11:05:33Z</time>
      </trkpt>
      <trkpt lat="47.99318" lon="6.59862">
        <ele>700.7</ele>
        <time>2026-03-29T11:05:38Z</time>
      </trkpt>
      <trkpt lat="47.99326" lon="6.59865">
        <ele>700.6</ele>
        <time>2026-03-29T11:05:43Z</time>
      </trkpt>
      <trkpt lat="47.99334" lon="6.59869">
        <ele>700.4</ele>
        <time>2026-03-29T11:05:48Z</time>
      </trkpt>
      <trkpt lat="47.99341" lon="6.5987">
        <ele>700.3</ele>
        <time>2026-03-29T11:05:53Z</time>
      </trkpt>
      <trkpt lat="47.99349" lon="6.5987">
        <ele>700.3</ele>
        <time>2026-03-29T11:05:58Z</time>
      </trkpt>
      <trkpt lat="47.99356" lon="6.59871">
        <ele>700.1</ele>
        <time>2026-03-29T11:06:03Z</time>
      </trkpt>
      <trkpt lat="47.99365" lon="6.59869">
        <ele>700.2</ele>
        <time>2026-03-29T11:06:08Z</time>
      </trkpt>
      <trkpt lat="47.99372" lon="6.5987">
        <ele>700.1</ele>
        <time>2026-03-29T11:06:13Z</time>
      </trkpt>
      <trkpt lat="47.99381" lon="6.5987">
        <ele>700</ele>
        <time>2026-03-29T11:06:18Z</time>
      </trkpt>
      <trkpt lat="47.9939" lon="6.59872">
        <ele>699.9</ele>
        <time>2026-03-29T11:06:23Z</time>
      </trkpt>
      <trkpt lat="47.99398" lon="6.59875">
        <ele>699.6</ele>
        <time>2026-03-29T11:06:28Z</time>
      </trkpt>
      <trkpt lat="47.99404" lon="6.5988">
        <ele>699.3</ele>
        <time>2026-03-29T11:06:33Z</time>
      </trkpt>
      <trkpt lat="47.99411" lon="6.59885">
        <ele>698.9</ele>
        <time>2026-03-29T11:06:38Z</time>
      </trkpt>
      <trkpt lat="47.99418" lon="6.59887">
        <ele>698.7</ele>
        <time>2026-03-29T11:06:43Z</time>
      </trkpt>
      <trkpt lat="47.99425" lon="6.5989">
        <ele>698.1</ele>
        <time>2026-03-29T11:06:48Z</time>
      </trkpt>
      <trkpt lat="47.99431" lon="6.59896">
        <ele>697.4</ele>
        <time>2026-03-29T11:06:53Z</time>
      </trkpt>
      <trkpt lat="47.99434" lon="6.59903">
        <ele>696.9</ele>
        <time>2026-03-29T11:06:58Z</time>
      </trkpt>
      <trkpt lat="47.99435" lon="6.59908">
        <ele>696.6</ele>
        <time>2026-03-29T11:07:03Z</time>
      </trkpt>
      <trkpt lat="47.99433" lon="6.59915">
        <ele>696.3</ele>
        <time>2026-03-29T11:07:08Z</time>
      </trkpt>
      <trkpt lat="47.99433" lon="6.59924">
        <ele>696</ele>
        <time>2026-03-29T11:07:13Z</time>
      </trkpt>
      <trkpt lat="47.99435" lon="6.59934">
        <ele>695.7</ele>
        <time>2026-03-29T11:07:18Z</time>
      </trkpt>
      <trkpt lat="47.99435" lon="6.59945">
        <ele>695.4</ele>
        <time>2026-03-29T11:07:23Z</time>
      </trkpt>
      <trkpt lat="47.99437" lon="6.59954">
        <ele>695.1</ele>
        <time>2026-03-29T11:07:28Z</time>
      </trkpt>
      <trkpt lat="47.99441" lon="6.59962">
        <ele>694.7</ele>
        <time>2026-03-29T11:07:33Z</time>
      </trkpt>
      <trkpt lat="47.99441" lon="6.59971">
        <ele>694.5</ele>
        <time>2026-03-29T11:07:38Z</time>
      </trkpt>
      <trkpt lat="47.99442" lon="6.5998">
        <ele>694.3</ele>
        <time>2026-03-29T11:07:43Z</time>
      </trkpt>
      <trkpt lat="47.99443" lon="6.59989">
        <ele>694</ele>
        <time>2026-03-29T11:07:48Z</time>
      </trkpt>
      <trkpt lat="47.99443" lon="6.59997">
        <ele>693.8</ele>
        <time>2026-03-29T11:07:53Z</time>
      </trkpt>
      <trkpt lat="47.99441" lon="6.60011">
        <ele>693.6</ele>
        <time>2026-03-29T11:07:58Z</time>
      </trkpt>
      <trkpt lat="47.9944" lon="6.60024">
        <ele>693.4</ele>
        <time>2026-03-29T11:08:03Z</time>
      </trkpt>
      <trkpt lat="47.99442" lon="6.60034">
        <ele>693.2</ele>
        <time>2026-03-29T11:08:08Z</time>
      </trkpt>
      <trkpt lat="47.99443" lon="6.60045">
        <ele>693</ele>
        <time>2026-03-29T11:08:13Z</time>
      </trkpt>
      <trkpt lat="47.99443" lon="6.60056">
        <ele>692.8</ele>
        <time>2026-03-29T11:08:18Z</time>
      </trkpt>
      <trkpt lat="47.99442" lon="6.60065">
        <ele>692.6</ele>
        <time>2026-03-29T11:08:23Z</time>
      </trkpt>
      <trkpt lat="47.9944" lon="6.60071">
        <ele>692.5</ele>
        <time>2026-03-29T11:08:28Z</time>
      </trkpt>
      <trkpt lat="47.99439" lon="6.60078">
        <ele>692.4</ele>
        <time>2026-03-29T11:08:33Z</time>
      </trkpt>
      <trkpt lat="47.99438" lon="6.60088">
        <ele>691.7</ele>
        <time>2026-03-29T11:08:38Z</time>
      </trkpt>
      <trkpt lat="47.99437" lon="6.60097">
        <ele>690.7</ele>
        <time>2026-03-29T11:08:43Z</time>
      </trkpt>
      <trkpt lat="47.99438" lon="6.60105">
        <ele>689.8</ele>
        <time>2026-03-29T11:08:48Z</time>
      </trkpt>
      <trkpt lat="47.9944" lon="6.60115">
        <ele>688.7</ele>
        <time>2026-03-29T11:08:53Z</time>
      </trkpt>
      <trkpt lat="47.99445" lon="6.60121">
        <ele>688.3</ele>
        <time>2026-03-29T11:08:58Z</time>
      </trkpt>
      <trkpt lat="47.99449" lon="6.60126">
        <ele>687.9</ele>
        <time>2026-03-29T11:09:03Z</time>
      </trkpt>
      <trkpt lat="47.9945" lon="6.60127">
        <ele>687.9</ele>
        <time>2026-03-29T11:09:08Z</time>
      </trkpt>
      <trkpt lat="47.99457" lon="6.6013">
        <ele>688</ele>
        <time>2026-03-29T11:09:13Z</time>
      </trkpt>
      <trkpt lat="47.99462" lon="6.60135">
        <ele>687.7</ele>
        <time>2026-03-29T11:09:18Z</time>
      </trkpt>
      <trkpt lat="47.99468" lon="6.60136">
        <ele>688</ele>
        <time>2026-03-29T11:09:23Z</time>
      </trkpt>
      <trkpt lat="47.99475" lon="6.60132">
        <ele>688.7</ele>
        <time>2026-03-29T11:09:28Z</time>
      </trkpt>
      <trkpt lat="47.99483" lon="6.60142">
        <ele>688.4</ele>
        <time>2026-03-29T11:09:33Z</time>
      </trkpt>
      <trkpt lat="47.99484" lon="6.60152">
        <ele>687.7</ele>
        <time>2026-03-29T11:09:38Z</time>
      </trkpt>
      <trkpt lat="47.99485" lon="6.60156">
        <ele>687.5</ele>
        <time>2026-03-29T11:09:43Z</time>
      </trkpt>
      <trkpt lat="47.99491" lon="6.60158">
        <ele>687.8</ele>
        <time>2026-03-29T11:09:48Z</time>
      </trkpt>
      <trkpt lat="47.99493" lon="6.60166">
        <ele>687.5</ele>
        <time>2026-03-29T11:09:53Z</time>
      </trkpt>
      <trkpt lat="47.99496" lon="6.60175">
        <ele>686.5</ele>
        <time>2026-03-29T11:09:58Z</time>
      </trkpt>
      <trkpt lat="47.99497" lon="6.60183">
        <ele>685.5</ele>
        <time>2026-03-29T11:10:03Z</time>
      </trkpt>
      <trkpt lat="47.995" lon="6.60189">
        <ele>685.1</ele>
        <time>2026-03-29T11:10:08Z</time>
      </trkpt>
      <trkpt lat="47.99501" lon="6.60196">
        <ele>684.1</ele>
        <time>2026-03-29T11:10:13Z</time>
      </trkpt>
      <trkpt lat="47.99503" lon="6.60205">
        <ele>682.8</ele>
        <time>2026-03-29T11:10:18Z</time>
      </trkpt>
      <trkpt lat="47.99508" lon="6.60214">
        <ele>681.4</ele>
        <time>2026-03-29T11:10:23Z</time>
      </trkpt>
      <trkpt lat="47.99511" lon="6.60219">
        <ele>680.7</ele>
        <time>2026-03-29T11:10:28Z</time>
      </trkpt>
      <trkpt lat="47.9951" lon="6.60219">
        <ele>680.7</ele>
        <time>2026-03-29T11:10:33Z</time>
      </trkpt>
      <trkpt lat="47.99511" lon="6.60224">
        <ele>680.1</ele>
        <time>2026-03-29T11:10:38Z</time>
      </trkpt>
      <trkpt lat="47.99512" lon="6.60231">
        <ele>679.2</ele>
        <time>2026-03-29T11:10:43Z</time>
      </trkpt>
      <trkpt lat="47.99514" lon="6.60238">
        <ele>678.3</ele>
        <time>2026-03-29T11:10:48Z</time>
      </trkpt>
      <trkpt lat="47.99519" lon="6.60242">
        <ele>677.7</ele>
        <time>2026-03-29T11:10:53Z</time>
      </trkpt>
      <trkpt lat="47.99522" lon="6.60244">
        <ele>677.4</ele>
        <time>2026-03-29T11:10:58Z</time>
      </trkpt>
      <trkpt lat="47.99522" lon="6.60246">
        <ele>677.2</ele>
        <time>2026-03-29T11:11:03Z</time>
      </trkpt>
      <trkpt lat="47.99522" lon="6.60246">
        <ele>677.2</ele>
        <time>2026-03-29T11:11:08Z</time>
      </trkpt>
      <trkpt lat="47.99522" lon="6.60246">
        <ele>677.2</ele>
        <time>2026-03-29T11:11:13Z</time>
      </trkpt>
      <trkpt lat="47.99522" lon="6.60246">
        <ele>677.2</ele>
        <time>2026-03-29T11:11:18Z</time>
      </trkpt>
      <trkpt lat="47.99522" lon="6.60246">
        <ele>677.2</ele>
        <time>2026-03-29T11:11:23Z</time>
      </trkpt>
      <trkpt lat="47.99522" lon="6.60246">
        <ele>677.2</ele>
        <time>2026-03-29T11:11:28Z</time>
      </trkpt>
      <trkpt lat="47.99522" lon="6.60246">
        <ele>677.2</ele>
        <time>2026-03-29T11:11:33Z</time>
      </trkpt>
      <trkpt lat="47.99522" lon="6.60246">
        <ele>677.2</ele>
        <time>2026-03-29T11:11:38Z</time>
      </trkpt>
      <trkpt lat="47.99522" lon="6.60246">
        <ele>677.2</ele>
        <time>2026-03-29T11:11:43Z</time>
      </trkpt>
      <trkpt lat="47.99522" lon="6.60246">
        <ele>677.2</ele>
        <time>2026-03-29T11:11:48Z</time>
      </trkpt>
      <trkpt lat="47.99511" lon="6.60251">
        <ele>676.7</ele>
        <time>2026-03-29T11:11:53Z</time>
      </trkpt>
      <trkpt lat="47.9951" lon="6.60258">
        <ele>675.7</ele>
        <time>2026-03-29T11:11:58Z</time>
      </trkpt>
      <trkpt lat="47.99508" lon="6.60267">
        <ele>674.4</ele>
        <time>2026-03-29T11:12:03Z</time>
      </trkpt>
      <trkpt lat="47.99509" lon="6.60275">
        <ele>673.2</ele>
        <time>2026-03-29T11:12:08Z</time>
      </trkpt>
      <trkpt lat="47.99514" lon="6.60281">
        <ele>672.2</ele>
        <time>2026-03-29T11:12:13Z</time>
      </trkpt>
      <trkpt lat="47.99516" lon="6.60282">
        <ele>672.1</ele>
        <time>2026-03-29T11:12:18Z</time>
      </trkpt>
      <trkpt lat="47.99519" lon="6.60282">
        <ele>672</ele>
        <time>2026-03-29T11:12:23Z</time>
      </trkpt>
      <trkpt lat="47.9952" lon="6.6028">
        <ele>672.3</ele>
        <time>2026-03-29T11:12:28Z</time>
      </trkpt>
      <trkpt lat="47.99526" lon="6.60274">
        <ele>673.1</ele>
        <time>2026-03-29T11:12:33Z</time>
      </trkpt>
      <trkpt lat="47.99533" lon="6.60267">
        <ele>674</ele>
        <time>2026-03-29T11:12:38Z</time>
      </trkpt>
      <trkpt lat="47.99538" lon="6.60261">
        <ele>674.8</ele>
        <time>2026-03-29T11:12:43Z</time>
      </trkpt>
      <trkpt lat="47.99539" lon="6.60259">
        <ele>675.1</ele>
        <time>2026-03-29T11:12:48Z</time>
      </trkpt>
      <trkpt lat="47.99539" lon="6.60259">
        <ele>675.1</ele>
        <time>2026-03-29T11:12:53Z</time>
      </trkpt>
      <trkpt lat="47.99539" lon="6.60259">
        <ele>675.1</ele>
        <time>2026-03-29T11:12:58Z</time>
      </trkpt>
      <trkpt lat="47.99539" lon="6.60259">
        <ele>675.1</ele>
        <time>2026-03-29T11:13:03Z</time>
      </trkpt>
      <trkpt lat="47.99539" lon="6.60259">
        <ele>675.1</ele>
        <time>2026-03-29T11:13:08Z</time>
      </trkpt>
      <trkpt lat="47.99539" lon="6.60259">
        <ele>675.1</ele>
        <time>2026-03-29T11:13:13Z</time>
      </trkpt>
      <trkpt lat="47.99539" lon="6.60259">
        <ele>675.1</ele>
        <time>2026-03-29T11:13:18Z</time>
      </trkpt>
      <trkpt lat="47.99539" lon="6.60259">
        <ele>675.1</ele>
        <time>2026-03-29T11:13:23Z</time>
      </trkpt>
      <trkpt lat="47.99539" lon="6.60259">
        <ele>675.1</ele>
        <time>2026-03-29T11:13:28Z</time>
      </trkpt>
      <trkpt lat="47.99539" lon="6.60259">
        <ele>675.1</ele>
        <time>2026-03-29T11:13:33Z</time>
      </trkpt>
      <trkpt lat="47.99539" lon="6.60259">
        <ele>675.1</ele>
        <time>2026-03-29T11:13:38Z</time>
      </trkpt>
      <trkpt lat="47.99544" lon="6.60248">
        <ele>676.7</ele>
        <time>2026-03-29T11:13:43Z</time>
      </trkpt>
      <trkpt lat="47.99552" lon="6.60249">
        <ele>676.5</ele>
        <time>2026-03-29T11:13:48Z</time>
      </trkpt>
      <trkpt lat="47.99558" lon="6.60248">
        <ele>676.5</ele>
        <time>2026-03-29T11:13:53Z</time>
      </trkpt>
      <trkpt lat="47.99559" lon="6.60235">
        <ele>677.6</ele>
        <time>2026-03-29T11:13:58Z</time>
      </trkpt>
      <trkpt lat="47.99561" lon="6.60228">
        <ele>678.2</ele>
        <time>2026-03-29T11:14:03Z</time>
      </trkpt>
      <trkpt lat="47.99563" lon="6.60223">
        <ele>678.6</ele>
        <time>2026-03-29T11:14:08Z</time>
      </trkpt>
      <trkpt lat="47.99569" lon="6.60222">
        <ele>678.5</ele>
        <time>2026-03-29T11:14:13Z</time>
      </trkpt>
      <trkpt lat="47.99571" lon="6.60223">
        <ele>678.3</ele>
        <time>2026-03-29T11:14:18Z</time>
      </trkpt>
      <trkpt lat="47.99571" lon="6.60218">
        <ele>678.7</ele>
        <time>2026-03-29T11:14:23Z</time>
      </trkpt>
      <trkpt lat="47.99574" lon="6.60213">
        <ele>679</ele>
        <time>2026-03-29T11:14:28Z</time>
      </trkpt>
      <trkpt lat="47.99578" lon="6.6021">
        <ele>679.1</ele>
        <time>2026-03-29T11:14:33Z</time>
      </trkpt>
      <trkpt lat="47.99582" lon="6.60208">
        <ele>679.1</ele>
        <time>2026-03-29T11:14:38Z</time>
      </trkpt>
      <trkpt lat="47.99586" lon="6.60209">
        <ele>678.7</ele>
        <time>2026-03-29T11:14:43Z</time>
      </trkpt>
      <trkpt lat="47.9959" lon="6.60212">
        <ele>678</ele>
        <time>2026-03-29T11:14:48Z</time>
      </trkpt>
      <trkpt lat="47.99596" lon="6.60212">
        <ele>677.3</ele>
        <time>2026-03-29T11:14:53Z</time>
      </trkpt>
      <trkpt lat="47.99602" lon="6.6021">
        <ele>676.8</ele>
        <time>2026-03-29T11:14:58Z</time>
      </trkpt>
      <trkpt lat="47.99608" lon="6.60208">
        <ele>676.4</ele>
        <time>2026-03-29T11:15:03Z</time>
      </trkpt>
      <trkpt lat="47.99613" lon="6.60209">
        <ele>675.7</ele>
        <time>2026-03-29T11:15:08Z</time>
      </trkpt>
      <trkpt lat="47.99618" lon="6.60208">
        <ele>675.3</ele>
        <time>2026-03-29T11:15:13Z</time>
      </trkpt>
      <trkpt lat="47.99624" lon="6.60207">
        <ele>674.8</ele>
        <time>2026-03-29T11:15:18Z</time>
      </trkpt>
      <trkpt lat="47.99627" lon="6.60208">
        <ele>674.3</ele>
        <time>2026-03-29T11:15:23Z</time>
      </trkpt>
      <trkpt lat="47.99631" lon="6.60207">
        <ele>674.1</ele>
        <time>2026-03-29T11:15:28Z</time>
      </trkpt>
      <trkpt lat="47.99635" lon="6.60207">
        <ele>673.6</ele>
        <time>2026-03-29T11:15:33Z</time>
      </trkpt>
      <trkpt lat="47.99638" lon="6.60209">
        <ele>673</ele>
        <time>2026-03-29T11:15:38Z</time>
      </trkpt>
      <trkpt lat="47.99643" lon="6.60205">
        <ele>673.1</ele>
        <time>2026-03-29T11:15:43Z</time>
      </trkpt>
      <trkpt lat="47.99649" lon="6.60195">
        <ele>674.4</ele>
        <time>2026-03-29T11:15:48Z</time>
      </trkpt>
      <trkpt lat="47.99655" lon="6.60184">
        <ele>676</ele>
        <time>2026-03-29T11:15:53Z</time>
      </trkpt>
      <trkpt lat="47.9966" lon="6.60178">
        <ele>676.9</ele>
        <time>2026-03-29T11:15:58Z</time>
      </trkpt>
      <trkpt lat="47.99666" lon="6.60172">
        <ele>677.9</ele>
        <time>2026-03-29T11:16:03Z</time>
      </trkpt>
      <trkpt lat="47.99669" lon="6.60165">
        <ele>678.6</ele>
        <time>2026-03-29T11:16:08Z</time>
      </trkpt>
      <trkpt lat="47.99674" lon="6.60158">
        <ele>678.2</ele>
        <time>2026-03-29T11:16:13Z</time>
      </trkpt>
      <trkpt lat="47.99677" lon="6.60153">
        <ele>678.1</ele>
        <time>2026-03-29T11:16:18Z</time>
      </trkpt>
      <trkpt lat="47.99678" lon="6.60146">
        <ele>678.7</ele>
        <time>2026-03-29T11:16:23Z</time>
      </trkpt>
      <trkpt lat="47.99683" lon="6.60139">
        <ele>678.6</ele>
        <time>2026-03-29T11:16:28Z</time>
      </trkpt>
      <trkpt lat="47.99689" lon="6.60135">
        <ele>677.9</ele>
        <time>2026-03-29T11:16:33Z</time>
      </trkpt>
      <trkpt lat="47.99696" lon="6.6013">
        <ele>677.3</ele>
        <time>2026-03-29T11:16:38Z</time>
      </trkpt>
      <trkpt lat="47.99702" lon="6.60124">
        <ele>677.1</ele>
        <time>2026-03-29T11:16:43Z</time>
      </trkpt>
      <trkpt lat="47.99707" lon="6.6012">
        <ele>676.9</ele>
        <time>2026-03-29T11:16:48Z</time>
      </trkpt>
      <trkpt lat="47.99712" lon="6.60117">
        <ele>676.5</ele>
        <time>2026-03-29T11:16:53Z</time>
      </trkpt>
      <trkpt lat="47.99714" lon="6.60119">
        <ele>675.8</ele>
        <time>2026-03-29T11:16:58Z</time>
      </trkpt>
      <trkpt lat="47.99717" lon="6.6012">
        <ele>675.1</ele>
        <time>2026-03-29T11:17:03Z</time>
      </trkpt>
      <trkpt lat="47.9972" lon="6.60115">
        <ele>675.5</ele>
        <time>2026-03-29T11:17:08Z</time>
      </trkpt>
      <trkpt lat="47.99725" lon="6.60109">
        <ele>675.9</ele>
        <time>2026-03-29T11:17:13Z</time>
      </trkpt>
      <trkpt lat="47.99729" lon="6.60106">
        <ele>675.8</ele>
        <time>2026-03-29T11:17:18Z</time>
      </trkpt>
      <trkpt lat="47.99729" lon="6.60107">
        <ele>675.6</ele>
        <time>2026-03-29T11:17:23Z</time>
      </trkpt>
      <trkpt lat="47.99729" lon="6.60108">
        <ele>675.4</ele>
        <time>2026-03-29T11:17:28Z</time>
      </trkpt>
      <trkpt lat="47.99729" lon="6.60108">
        <ele>675.4</ele>
        <time>2026-03-29T11:17:33Z</time>
      </trkpt>
      <trkpt lat="47.99729" lon="6.60108">
        <ele>675.4</ele>
        <time>2026-03-29T11:17:38Z</time>
      </trkpt>
      <trkpt lat="47.99729" lon="6.60108">
        <ele>675.4</ele>
        <time>2026-03-29T11:17:43Z</time>
      </trkpt>
      <trkpt lat="47.99729" lon="6.60108">
        <ele>675.4</ele>
        <time>2026-03-29T11:17:48Z</time>
      </trkpt>
      <trkpt lat="47.99738" lon="6.60106">
        <ele>674.4</ele>
        <time>2026-03-29T11:17:53Z</time>
      </trkpt>
      <trkpt lat="47.99741" lon="6.60105">
        <ele>674.2</ele>
        <time>2026-03-29T11:17:58Z</time>
      </trkpt>
      <trkpt lat="47.99743" lon="6.60103">
        <ele>674.3</ele>
        <time>2026-03-29T11:18:03Z</time>
      </trkpt>
      <trkpt lat="47.99743" lon="6.60098">
        <ele>675.5</ele>
        <time>2026-03-29T11:18:08Z</time>
      </trkpt>
      <trkpt lat="47.99743" lon="6.60097">
        <ele>675.7</ele>
        <time>2026-03-29T11:18:13Z</time>
      </trkpt>
      <trkpt lat="47.99747" lon="6.601">
        <ele>674.4</ele>
        <time>2026-03-29T11:18:18Z</time>
      </trkpt>
      <trkpt lat="47.99752" lon="6.60103">
        <ele>673</ele>
        <time>2026-03-29T11:18:23Z</time>
      </trkpt>
      <trkpt lat="47.99756" lon="6.60101">
        <ele>672.9</ele>
        <time>2026-03-29T11:18:28Z</time>
      </trkpt>
      <trkpt lat="47.9976" lon="6.60098">
        <ele>673.1</ele>
        <time>2026-03-29T11:18:33Z</time>
      </trkpt>
      <trkpt lat="47.99764" lon="6.60096">
        <ele>673</ele>
        <time>2026-03-29T11:18:38Z</time>
      </trkpt>
      <trkpt lat="47.99768" lon="6.60093">
        <ele>673.2</ele>
        <time>2026-03-29T11:18:43Z</time>
      </trkpt>
      <trkpt lat="47.99775" lon="6.60093">
        <ele>672.2</ele>
        <time>2026-03-29T11:18:48Z</time>
      </trkpt>
      <trkpt lat="47.99782" lon="6.60094">
        <ele>671</ele>
        <time>2026-03-29T11:18:53Z</time>
      </trkpt>
      <trkpt lat="47.99787" lon="6.60096">
        <ele>669.7</ele>
        <time>2026-03-29T11:18:58Z</time>
      </trkpt>
      <trkpt lat="47.99792" lon="6.60096">
        <ele>669</ele>
        <time>2026-03-29T11:19:03Z</time>
      </trkpt>
      <trkpt lat="47.99797" lon="6.60096">
        <ele>668.3</ele>
        <time>2026-03-29T11:19:08Z</time>
      </trkpt>
      <trkpt lat="47.99803" lon="6.60097">
        <ele>667.2</ele>
        <time>2026-03-29T11:19:13Z</time>
      </trkpt>
      <trkpt lat="47.99808" lon="6.60095">
        <ele>667.1</ele>
        <time>2026-03-29T11:19:18Z</time>
      </trkpt>
      <trkpt lat="47.99815" lon="6.60093">
        <ele>666.6</ele>
        <time>2026-03-29T11:19:23Z</time>
      </trkpt>
      <trkpt lat="47.99822" lon="6.60091">
        <ele>666.3</ele>
        <time>2026-03-29T11:19:28Z</time>
      </trkpt>
      <trkpt lat="47.99826" lon="6.60091">
        <ele>665.7</ele>
        <time>2026-03-29T11:19:33Z</time>
      </trkpt>
      <trkpt lat="47.99831" lon="6.6009">
        <ele>665.3</ele>
        <time>2026-03-29T11:19:38Z</time>
      </trkpt>
      <trkpt lat="47.99835" lon="6.60088">
        <ele>665.5</ele>
        <time>2026-03-29T11:19:43Z</time>
      </trkpt>
      <trkpt lat="47.99839" lon="6.60087">
        <ele>665.6</ele>
        <time>2026-03-29T11:19:48Z</time>
      </trkpt>
      <trkpt lat="47.99843" lon="6.60086">
        <ele>665.6</ele>
        <time>2026-03-29T11:19:53Z</time>
      </trkpt>
      <trkpt lat="47.99848" lon="6.60084">
        <ele>665.9</ele>
        <time>2026-03-29T11:19:58Z</time>
      </trkpt>
      <trkpt lat="47.99853" lon="6.60083">
        <ele>665.9</ele>
        <time>2026-03-29T11:20:03Z</time>
      </trkpt>
      <trkpt lat="47.99858" lon="6.60079">
        <ele>666.7</ele>
        <time>2026-03-29T11:20:08Z</time>
      </trkpt>
      <trkpt lat="47.99863" lon="6.60077">
        <ele>666.9</ele>
        <time>2026-03-29T11:20:13Z</time>
      </trkpt>
      <trkpt lat="47.9987" lon="6.60074">
        <ele>667.4</ele>
        <time>2026-03-29T11:20:18Z</time>
      </trkpt>
      <trkpt lat="47.99877" lon="6.60068">
        <ele>668.6</ele>
        <time>2026-03-29T11:20:23Z</time>
      </trkpt>
      <trkpt lat="47.9988" lon="6.60065">
        <ele>669.3</ele>
        <time>2026-03-29T11:20:28Z</time>
      </trkpt>
      <trkpt lat="47.99883" lon="6.60062">
        <ele>670</ele>
        <time>2026-03-29T11:20:33Z</time>
      </trkpt>
      <trkpt lat="47.99887" lon="6.6006">
        <ele>670.3</ele>
        <time>2026-03-29T11:20:38Z</time>
      </trkpt>
      <trkpt lat="47.99893" lon="6.60057">
        <ele>670.8</ele>
        <time>2026-03-29T11:20:43Z</time>
      </trkpt>
      <trkpt lat="47.99899" lon="6.60053">
        <ele>671.6</ele>
        <time>2026-03-29T11:20:48Z</time>
      </trkpt>
      <trkpt lat="47.99903" lon="6.60048">
        <ele>672.9</ele>
        <time>2026-03-29T11:20:53Z</time>
      </trkpt>
      <trkpt lat="47.99907" lon="6.60044">
        <ele>673.8</ele>
        <time>2026-03-29T11:20:58Z</time>
      </trkpt>
      <trkpt lat="47.99908" lon="6.60041">
        <ele>674.6</ele>
        <time>2026-03-29T11:21:03Z</time>
      </trkpt>
      <trkpt lat="47.9991" lon="6.6004">
        <ele>674.8</ele>
        <time>2026-03-29T11:21:08Z</time>
      </trkpt>
      <trkpt lat="47.99913" lon="6.60037">
        <ele>675.5</ele>
        <time>2026-03-29T11:21:13Z</time>
      </trkpt>
      <trkpt lat="47.99917" lon="6.60033">
        <ele>676.5</ele>
        <time>2026-03-29T11:21:18Z</time>
      </trkpt>
      <trkpt lat="47.99922" lon="6.60028">
        <ele>677.4</ele>
        <time>2026-03-29T11:21:23Z</time>
      </trkpt>
      <trkpt lat="47.99926" lon="6.60025">
        <ele>677.8</ele>
        <time>2026-03-29T11:21:28Z</time>
      </trkpt>
      <trkpt lat="47.99933" lon="6.60023">
        <ele>677.6</ele>
        <time>2026-03-29T11:21:33Z</time>
      </trkpt>
      <trkpt lat="47.99938" lon="6.60024">
        <ele>676.7</ele>
        <time>2026-03-29T11:21:38Z</time>
      </trkpt>
      <trkpt lat="47.99941" lon="6.60021">
        <ele>677.3</ele>
        <time>2026-03-29T11:21:43Z</time>
      </trkpt>
      <trkpt lat="47.99946" lon="6.6002">
        <ele>677</ele>
        <time>2026-03-29T11:21:48Z</time>
      </trkpt>
      <trkpt lat="47.99949" lon="6.60016">
        <ele>677.7</ele>
        <time>2026-03-29T11:21:53Z</time>
      </trkpt>
      <trkpt lat="47.99949" lon="6.60016">
        <ele>677.7</ele>
        <time>2026-03-29T11:21:58Z</time>
      </trkpt>
      <trkpt lat="47.99949" lon="6.60016">
        <ele>677.7</ele>
        <time>2026-03-29T11:22:03Z</time>
      </trkpt>
      <trkpt lat="47.99954" lon="6.60008">
        <ele>679.3</ele>
        <time>2026-03-29T11:22:08Z</time>
      </trkpt>
      <trkpt lat="47.9996" lon="6.60007">
        <ele>678.9</ele>
        <time>2026-03-29T11:22:13Z</time>
      </trkpt>
      <trkpt lat="47.99967" lon="6.60005">
        <ele>678.6</ele>
        <time>2026-03-29T11:22:18Z</time>
      </trkpt>
      <trkpt lat="47.99973" lon="6.60002">
        <ele>678.7</ele>
        <time>2026-03-29T11:22:23Z</time>
      </trkpt>
      <trkpt lat="47.99977" lon="6.6">
        <ele>678.8</ele>
        <time>2026-03-29T11:22:28Z</time>
      </trkpt>
      <trkpt lat="47.99984" lon="6.59999">
        <ele>678.1</ele>
        <time>2026-03-29T11:22:33Z</time>
      </trkpt>
      <trkpt lat="47.99991" lon="6.59999">
        <ele>677.3</ele>
        <time>2026-03-29T11:22:38Z</time>
      </trkpt>
      <trkpt lat="47.99996" lon="6.59999">
        <ele>676.7</ele>
        <time>2026-03-29T11:22:43Z</time>
      </trkpt>
      <trkpt lat="47.99998" lon="6.59998">
        <ele>676.6</ele>
        <time>2026-03-29T11:22:48Z</time>
      </trkpt>
      <trkpt lat="47.99999" lon="6.59997">
        <ele>676.7</ele>
        <time>2026-03-29T11:22:53Z</time>
      </trkpt>
      <trkpt lat="47.99999" lon="6.59996">
        <ele>676.9</ele>
        <time>2026-03-29T11:22:58Z</time>
      </trkpt>
      <trkpt lat="47.99999" lon="6.59996">
        <ele>676.9</ele>
        <time>2026-03-29T11:23:03Z</time>
      </trkpt>
      <trkpt lat="47.99999" lon="6.59996">
        <ele>676.9</ele>
        <time>2026-03-29T11:23:08Z</time>
      </trkpt>
      <trkpt lat="48.00005" lon="6.59997">
        <ele>675.9</ele>
        <time>2026-03-29T11:23:13Z</time>
      </trkpt>
      <trkpt lat="48.00011" lon="6.59999">
        <ele>674.6</ele>
        <time>2026-03-29T11:23:18Z</time>
      </trkpt>
      <trkpt lat="48.00021" lon="6.6">
        <ele>673</ele>
        <time>2026-03-29T11:23:23Z</time>
      </trkpt>
      <trkpt lat="48.00029" lon="6.6">
        <ele>671.8</ele>
        <time>2026-03-29T11:23:28Z</time>
      </trkpt>
      <trkpt lat="48.00036" lon="6.6">
        <ele>670.8</ele>
        <time>2026-03-29T11:23:33Z</time>
      </trkpt>
      <trkpt lat="48.00043" lon="6.59998">
        <ele>670.2</ele>
        <time>2026-03-29T11:23:38Z</time>
      </trkpt>
      <trkpt lat="48.00048" lon="6.59996">
        <ele>669.9</ele>
        <time>2026-03-29T11:23:43Z</time>
      </trkpt>
      <trkpt lat="48.00053" lon="6.59997">
        <ele>669</ele>
        <time>2026-03-29T11:23:48Z</time>
      </trkpt>
      <trkpt lat="48.00058" lon="6.59994">
        <ele>669</ele>
        <time>2026-03-29T11:23:53Z</time>
      </trkpt>
      <trkpt lat="48.00064" lon="6.59992">
        <ele>668.5</ele>
        <time>2026-03-29T11:23:58Z</time>
      </trkpt>
      <trkpt lat="48.00071" lon="6.5999">
        <ele>668</ele>
        <time>2026-03-29T11:24:03Z</time>
      </trkpt>
      <trkpt lat="48.00077" lon="6.59989">
        <ele>667.4</ele>
        <time>2026-03-29T11:24:08Z</time>
      </trkpt>
      <trkpt lat="48.00082" lon="6.59988">
        <ele>666.9</ele>
        <time>2026-03-29T11:24:13Z</time>
      </trkpt>
      <trkpt lat="48.00089" lon="6.59989">
        <ele>665.6</ele>
        <time>2026-03-29T11:24:18Z</time>
      </trkpt>
      <trkpt lat="48.00097" lon="6.59989">
        <ele>664.4</ele>
        <time>2026-03-29T11:24:23Z</time>
      </trkpt>
      <trkpt lat="48.00104" lon="6.59987">
        <ele>663.8</ele>
        <time>2026-03-29T11:24:28Z</time>
      </trkpt>
      <trkpt lat="48.0011" lon="6.59984">
        <ele>663.6</ele>
        <time>2026-03-29T11:24:33Z</time>
      </trkpt>
      <trkpt lat="48.00117" lon="6.59979">
        <ele>663.7</ele>
        <time>2026-03-29T11:24:38Z</time>
      </trkpt>
      <trkpt lat="48.00122" lon="6.59976">
        <ele>663.7</ele>
        <time>2026-03-29T11:24:43Z</time>
      </trkpt>
      <trkpt lat="48.00127" lon="6.59975">
        <ele>663.2</ele>
        <time>2026-03-29T11:24:48Z</time>
      </trkpt>
      <trkpt lat="48.00132" lon="6.59973">
        <ele>662.9</ele>
        <time>2026-03-29T11:24:53Z</time>
      </trkpt>
      <trkpt lat="48.00134" lon="6.59971">
        <ele>663.1</ele>
        <time>2026-03-29T11:24:58Z</time>
      </trkpt>
      <trkpt lat="48.00135" lon="6.5997">
        <ele>663.2</ele>
        <time>2026-03-29T11:25:03Z</time>
      </trkpt>
      <trkpt lat="48.00134" lon="6.59969">
        <ele>663.6</ele>
        <time>2026-03-29T11:25:08Z</time>
      </trkpt>
      <trkpt lat="48.00134" lon="6.59969">
        <ele>663.6</ele>
        <time>2026-03-29T11:25:13Z</time>
      </trkpt>
      <trkpt lat="48.00134" lon="6.59969">
        <ele>663.6</ele>
        <time>2026-03-29T11:25:18Z</time>
      </trkpt>
      <trkpt lat="48.00135" lon="6.59972">
        <ele>662.7</ele>
        <time>2026-03-29T11:25:23Z</time>
      </trkpt>
      <trkpt lat="48.0014" lon="6.59975">
        <ele>661.3</ele>
        <time>2026-03-29T11:25:28Z</time>
      </trkpt>
      <trkpt lat="48.00148" lon="6.59979">
        <ele>659.1</ele>
        <time>2026-03-29T11:25:33Z</time>
      </trkpt>
      <trkpt lat="48.00156" lon="6.59981">
        <ele>657.4</ele>
        <time>2026-03-29T11:25:38Z</time>
      </trkpt>
      <trkpt lat="48.00161" lon="6.59985">
        <ele>655.6</ele>
        <time>2026-03-29T11:25:43Z</time>
      </trkpt>
      <trkpt lat="48.00166" lon="6.59987">
        <ele>654.4</ele>
        <time>2026-03-29T11:25:48Z</time>
      </trkpt>
      <trkpt lat="48.00172" lon="6.59987">
        <ele>653.6</ele>
        <time>2026-03-29T11:25:53Z</time>
      </trkpt>
      <trkpt lat="48.00176" lon="6.59988">
        <ele>652.8</ele>
        <time>2026-03-29T11:25:58Z</time>
      </trkpt>
      <trkpt lat="48.00182" lon="6.5999">
        <ele>651.5</ele>
        <time>2026-03-29T11:26:03Z</time>
      </trkpt>
      <trkpt lat="48.00188" lon="6.59989">
        <ele>650.9</ele>
        <time>2026-03-29T11:26:08Z</time>
      </trkpt>
      <trkpt lat="48.00193" lon="6.59988">
        <ele>650.5</ele>
        <time>2026-03-29T11:26:13Z</time>
      </trkpt>
      <trkpt lat="48.00198" lon="6.59986">
        <ele>650.3</ele>
        <time>2026-03-29T11:26:18Z</time>
      </trkpt>
      <trkpt lat="48.00205" lon="6.59985">
        <ele>649.6</ele>
        <time>2026-03-29T11:26:23Z</time>
      </trkpt>
      <trkpt lat="48.00211" lon="6.59981">
        <ele>649.7</ele>
        <time>2026-03-29T11:26:28Z</time>
      </trkpt>
      <trkpt lat="48.00216" lon="6.59978">
        <ele>649.7</ele>
        <time>2026-03-29T11:26:33Z</time>
      </trkpt>
      <trkpt lat="48.00221" lon="6.59975">
        <ele>649.7</ele>
        <time>2026-03-29T11:26:38Z</time>
      </trkpt>
      <trkpt lat="48.00225" lon="6.59971">
        <ele>650.1</ele>
        <time>2026-03-29T11:26:43Z</time>
      </trkpt>
      <trkpt lat="48.00229" lon="6.5997">
        <ele>649.8</ele>
        <time>2026-03-29T11:26:48Z</time>
      </trkpt>
      <trkpt lat="48.00234" lon="6.59966">
        <ele>650</ele>
        <time>2026-03-29T11:26:53Z</time>
      </trkpt>
      <trkpt lat="48.00239" lon="6.59964">
        <ele>649.8</ele>
        <time>2026-03-29T11:26:58Z</time>
      </trkpt>
      <trkpt lat="48.00244" lon="6.59961">
        <ele>649.8</ele>
        <time>2026-03-29T11:27:03Z</time>
      </trkpt>
      <trkpt lat="48.0025" lon="6.59955">
        <ele>650.3</ele>
        <time>2026-03-29T11:27:08Z</time>
      </trkpt>
      <trkpt lat="48.00256" lon="6.59949">
        <ele>649.9</ele>
        <time>2026-03-29T11:27:13Z</time>
      </trkpt>
      <trkpt lat="48.0026" lon="6.59944">
        <ele>649.9</ele>
        <time>2026-03-29T11:27:18Z</time>
      </trkpt>
      <trkpt lat="48.00265" lon="6.59938">
        <ele>649.8</ele>
        <time>2026-03-29T11:27:23Z</time>
      </trkpt>
      <trkpt lat="48.00271" lon="6.59931">
        <ele>649.8</ele>
        <time>2026-03-29T11:27:28Z</time>
      </trkpt>
      <trkpt lat="48.00275" lon="6.59926">
        <ele>649.8</ele>
        <time>2026-03-29T11:27:33Z</time>
      </trkpt>
      <trkpt lat="48.0028" lon="6.59924">
        <ele>648.9</ele>
        <time>2026-03-29T11:27:38Z</time>
      </trkpt>
      <trkpt lat="48.00284" lon="6.5992">
        <ele>648.8</ele>
        <time>2026-03-29T11:27:43Z</time>
      </trkpt>
      <trkpt lat="48.00289" lon="6.5992">
        <ele>647.4</ele>
        <time>2026-03-29T11:27:48Z</time>
      </trkpt>
      <trkpt lat="48.00294" lon="6.59917">
        <ele>646.8</ele>
        <time>2026-03-29T11:27:53Z</time>
      </trkpt>
      <trkpt lat="48.003" lon="6.59918">
        <ele>644.9</ele>
        <time>2026-03-29T11:27:58Z</time>
      </trkpt>
      <trkpt lat="48.00306" lon="6.59915">
        <ele>644</ele>
        <time>2026-03-29T11:28:03Z</time>
      </trkpt>
      <trkpt lat="48.00313" lon="6.5991">
        <ele>643.3</ele>
        <time>2026-03-29T11:28:08Z</time>
      </trkpt>
      <trkpt lat="48.00318" lon="6.59906">
        <ele>642.9</ele>
        <time>2026-03-29T11:28:13Z</time>
      </trkpt>
      <trkpt lat="48.00323" lon="6.59903">
        <ele>642.3</ele>
        <time>2026-03-29T11:28:18Z</time>
      </trkpt>
      <trkpt lat="48.00329" lon="6.599">
        <ele>641.4</ele>
        <time>2026-03-29T11:28:23Z</time>
      </trkpt>
      <trkpt lat="48.00336" lon="6.59898">
        <ele>639.8</ele>
        <time>2026-03-29T11:28:28Z</time>
      </trkpt>
      <trkpt lat="48.00341" lon="6.59897">
        <ele>638.4</ele>
        <time>2026-03-29T11:28:33Z</time>
      </trkpt>
      <trkpt lat="48.00344" lon="6.59894">
        <ele>638.2</ele>
        <time>2026-03-29T11:28:38Z</time>
      </trkpt>
      <trkpt lat="48.00347" lon="6.59889">
        <ele>638.5</ele>
        <time>2026-03-29T11:28:43Z</time>
      </trkpt>
      <trkpt lat="48.0035" lon="6.59884">
        <ele>638.9</ele>
        <time>2026-03-29T11:28:48Z</time>
      </trkpt>
      <trkpt lat="48.00353" lon="6.59877">
        <ele>639.7</ele>
        <time>2026-03-29T11:28:53Z</time>
      </trkpt>
      <trkpt lat="48.00357" lon="6.59871">
        <ele>640</ele>
        <time>2026-03-29T11:28:58Z</time>
      </trkpt>
      <trkpt lat="48.00363" lon="6.59863">
        <ele>640.2</ele>
        <time>2026-03-29T11:29:03Z</time>
      </trkpt>
      <trkpt lat="48.00366" lon="6.59859">
        <ele>640.4</ele>
        <time>2026-03-29T11:29:08Z</time>
      </trkpt>
      <trkpt lat="48.00372" lon="6.59858">
        <ele>638.8</ele>
        <time>2026-03-29T11:29:13Z</time>
      </trkpt>
      <trkpt lat="48.00379" lon="6.59857">
        <ele>636.9</ele>
        <time>2026-03-29T11:29:18Z</time>
      </trkpt>
      <trkpt lat="48.00384" lon="6.59855">
        <ele>635.9</ele>
        <time>2026-03-29T11:29:23Z</time>
      </trkpt>
      <trkpt lat="48.00389" lon="6.59854">
        <ele>634.6</ele>
        <time>2026-03-29T11:29:28Z</time>
      </trkpt>
      <trkpt lat="48.00394" lon="6.59853">
        <ele>633.3</ele>
        <time>2026-03-29T11:29:33Z</time>
      </trkpt>
      <trkpt lat="48.004" lon="6.59849">
        <ele>632.6</ele>
        <time>2026-03-29T11:29:38Z</time>
      </trkpt>
      <trkpt lat="48.00406" lon="6.59846">
        <ele>631.6</ele>
        <time>2026-03-29T11:29:43Z</time>
      </trkpt>
      <trkpt lat="48.0041" lon="6.5984">
        <ele>632.1</ele>
        <time>2026-03-29T11:29:48Z</time>
      </trkpt>
      <trkpt lat="48.00416" lon="6.5984">
        <ele>630.3</ele>
        <time>2026-03-29T11:29:53Z</time>
      </trkpt>
      <trkpt lat="48.00422" lon="6.59841">
        <ele>628.2</ele>
        <time>2026-03-29T11:29:58Z</time>
      </trkpt>
      <trkpt lat="48.00427" lon="6.59841">
        <ele>626.7</ele>
        <time>2026-03-29T11:30:03Z</time>
      </trkpt>
      <trkpt lat="48.00432" lon="6.59838">
        <ele>626.1</ele>
        <time>2026-03-29T11:30:08Z</time>
      </trkpt>
      <trkpt lat="48.00436" lon="6.59838">
        <ele>624.9</ele>
        <time>2026-03-29T11:30:13Z</time>
      </trkpt>
      <trkpt lat="48.0044" lon="6.59835">
        <ele>624.5</ele>
        <time>2026-03-29T11:30:18Z</time>
      </trkpt>
      <trkpt lat="48.00445" lon="6.59834">
        <ele>623.3</ele>
        <time>2026-03-29T11:30:23Z</time>
      </trkpt>
      <trkpt lat="48.0045" lon="6.59831">
        <ele>622.7</ele>
        <time>2026-03-29T11:30:28Z</time>
      </trkpt>
      <trkpt lat="48.00457" lon="6.59829">
        <ele>621.1</ele>
        <time>2026-03-29T11:30:33Z</time>
      </trkpt>
      <trkpt lat="48.00464" lon="6.59827">
        <ele>619.6</ele>
        <time>2026-03-29T11:30:38Z</time>
      </trkpt>
      <trkpt lat="48.0047" lon="6.59826">
        <ele>618.1</ele>
        <time>2026-03-29T11:30:43Z</time>
      </trkpt>
      <trkpt lat="48.00471" lon="6.59824">
        <ele>618.3</ele>
        <time>2026-03-29T11:30:48Z</time>
      </trkpt>
      <trkpt lat="48.0047" lon="6.59821">
        <ele>619.5</ele>
        <time>2026-03-29T11:30:53Z</time>
      </trkpt>
      <trkpt lat="48.0047" lon="6.59821">
        <ele>619.5</ele>
        <time>2026-03-29T11:30:58Z</time>
      </trkpt>
      <trkpt lat="48.0047" lon="6.59821">
        <ele>619.5</ele>
        <time>2026-03-29T11:31:03Z</time>
      </trkpt>
      <trkpt lat="48.0047" lon="6.59821">
        <ele>619.5</ele>
        <time>2026-03-29T11:31:08Z</time>
      </trkpt>
      <trkpt lat="48.0047" lon="6.59821">
        <ele>619.5</ele>
        <time>2026-03-29T11:31:13Z</time>
      </trkpt>
      <trkpt lat="48.0047" lon="6.59821">
        <ele>619.5</ele>
        <time>2026-03-29T11:31:18Z</time>
      </trkpt>
      <trkpt lat="48.0047" lon="6.59821">
        <ele>619.5</ele>
        <time>2026-03-29T11:31:23Z</time>
      </trkpt>
      <trkpt lat="48.0047" lon="6.59821">
        <ele>619.5</ele>
        <time>2026-03-29T11:31:28Z</time>
      </trkpt>
      <trkpt lat="48.0047" lon="6.59821">
        <ele>619.5</ele>
        <time>2026-03-29T11:31:33Z</time>
      </trkpt>
      <trkpt lat="48.0047" lon="6.59821">
        <ele>619.5</ele>
        <time>2026-03-29T11:31:38Z</time>
      </trkpt>
      <trkpt lat="48.0047" lon="6.59821">
        <ele>619.5</ele>
        <time>2026-03-29T11:31:43Z</time>
      </trkpt>
      <trkpt lat="48.0047" lon="6.59821">
        <ele>619.5</ele>
        <time>2026-03-29T11:31:48Z</time>
      </trkpt>
      <trkpt lat="48.0047" lon="6.59821">
        <ele>619.5</ele>
        <time>2026-03-29T11:31:53Z</time>
      </trkpt>
      <trkpt lat="48.0047" lon="6.59821">
        <ele>619.5</ele>
        <time>2026-03-29T11:31:58Z</time>
      </trkpt>
      <trkpt lat="48.0047" lon="6.59821">
        <ele>619.5</ele>
        <time>2026-03-29T11:32:03Z</time>
      </trkpt>
      <trkpt lat="48.0047" lon="6.59821">
        <ele>619.5</ele>
        <time>2026-03-29T11:32:08Z</time>
      </trkpt>
      <trkpt lat="48.0047" lon="6.59821">
        <ele>619.5</ele>
        <time>2026-03-29T11:32:13Z</time>
      </trkpt>
      <trkpt lat="48.0047" lon="6.59821">
        <ele>619.5</ele>
        <time>2026-03-29T11:32:18Z</time>
      </trkpt>
      <trkpt lat="48.0047" lon="6.59821">
        <ele>619.5</ele>
        <time>2026-03-29T11:32:23Z</time>
      </trkpt>
      <trkpt lat="48.0047" lon="6.59821">
        <ele>619.5</ele>
        <time>2026-03-29T11:32:28Z</time>
      </trkpt>
      <trkpt lat="48.0047" lon="6.59821">
        <ele>619.5</ele>
        <time>2026-03-29T11:32:33Z</time>
      </trkpt>
      <trkpt lat="48.0047" lon="6.59821">
        <ele>619.5</ele>
        <time>2026-03-29T11:32:38Z</time>
      </trkpt>
      <trkpt lat="48.0047" lon="6.59821">
        <ele>619.5</ele>
        <time>2026-03-29T11:32:43Z</time>
      </trkpt>
      <trkpt lat="48.0047" lon="6.59821">
        <ele>619.5</ele>
        <time>2026-03-29T11:32:48Z</time>
      </trkpt>
      <trkpt lat="48.0047" lon="6.59821">
        <ele>619.5</ele>
        <time>2026-03-29T11:32:53Z</time>
      </trkpt>
      <trkpt lat="48.0047" lon="6.59821">
        <ele>619.5</ele>
        <time>2026-03-29T11:32:58Z</time>
      </trkpt>
      <trkpt lat="48.0047" lon="6.59821">
        <ele>619.5</ele>
        <time>2026-03-29T11:33:03Z</time>
      </trkpt>
      <trkpt lat="48.0047" lon="6.59821">
        <ele>619.5</ele>
        <time>2026-03-29T11:33:08Z</time>
      </trkpt>
      <trkpt lat="48.0047" lon="6.59821">
        <ele>619.5</ele>
        <time>2026-03-29T11:33:13Z</time>
      </trkpt>
      <trkpt lat="48.0047" lon="6.59821">
        <ele>619.5</ele>
        <time>2026-03-29T11:33:18Z</time>
      </trkpt>
      <trkpt lat="48.0047" lon="6.59821">
        <ele>619.5</ele>
        <time>2026-03-29T11:33:23Z</time>
      </trkpt>
      <trkpt lat="48.0047" lon="6.59821">
        <ele>619.5</ele>
        <time>2026-03-29T11:33:28Z</time>
      </trkpt>
      <trkpt lat="48.0047" lon="6.59821">
        <ele>619.5</ele>
        <time>2026-03-29T11:33:33Z</time>
      </trkpt>
      <trkpt lat="48.0047" lon="6.59821">
        <ele>619.5</ele>
        <time>2026-03-29T11:33:38Z</time>
      </trkpt>
      <trkpt lat="48.0047" lon="6.59821">
        <ele>619.5</ele>
        <time>2026-03-29T11:33:43Z</time>
      </trkpt>
      <trkpt lat="48.0047" lon="6.59821">
        <ele>619.5</ele>
        <time>2026-03-29T11:33:48Z</time>
      </trkpt>
      <trkpt lat="48.0047" lon="6.59821">
        <ele>619.5</ele>
        <time>2026-03-29T11:33:53Z</time>
      </trkpt>
      <trkpt lat="48.0047" lon="6.59821">
        <ele>619.5</ele>
        <time>2026-03-29T11:33:58Z</time>
      </trkpt>
      <trkpt lat="48.00474" lon="6.5982">
        <ele>618.5</ele>
        <time>2026-03-29T11:34:03Z</time>
      </trkpt>
      <trkpt lat="48.00481" lon="6.5982">
        <ele>616.4</ele>
        <time>2026-03-29T11:34:08Z</time>
      </trkpt>
      <trkpt lat="48.00486" lon="6.59823">
        <ele>614.1</ele>
        <time>2026-03-29T11:34:13Z</time>
      </trkpt>
      <trkpt lat="48.00491" lon="6.59821">
        <ele>613.1</ele>
        <time>2026-03-29T11:34:18Z</time>
      </trkpt>
      <trkpt lat="48.00495" lon="6.59817">
        <ele>613</ele>
        <time>2026-03-29T11:34:23Z</time>
      </trkpt>
      <trkpt lat="48.005" lon="6.59813">
        <ele>612.6</ele>
        <time>2026-03-29T11:34:28Z</time>
      </trkpt>
      <trkpt lat="48.00505" lon="6.59812">
        <ele>611.4</ele>
        <time>2026-03-29T11:34:33Z</time>
      </trkpt>
      <trkpt lat="48.00509" lon="6.5981">
        <ele>610.8</ele>
        <time>2026-03-29T11:34:38Z</time>
      </trkpt>
      <trkpt lat="48.00513" lon="6.59805">
        <ele>611</ele>
        <time>2026-03-29T11:34:43Z</time>
      </trkpt>
      <trkpt lat="48.00516" lon="6.59801">
        <ele>611.1</ele>
        <time>2026-03-29T11:34:48Z</time>
      </trkpt>
      <trkpt lat="48.00516" lon="6.59801">
        <ele>611.1</ele>
        <time>2026-03-29T11:34:53Z</time>
      </trkpt>
      <trkpt lat="48.00516" lon="6.59801">
        <ele>611.1</ele>
        <time>2026-03-29T11:34:58Z</time>
      </trkpt>
      <trkpt lat="48.00515" lon="6.59798">
        <ele>612.2</ele>
        <time>2026-03-29T11:35:03Z</time>
      </trkpt>
      <trkpt lat="48.00521" lon="6.5979">
        <ele>612.5</ele>
        <time>2026-03-29T11:35:08Z</time>
      </trkpt>
      <trkpt lat="48.00527" lon="6.59782">
        <ele>612.7</ele>
        <time>2026-03-29T11:35:13Z</time>
      </trkpt>
      <trkpt lat="48.00532" lon="6.59776">
        <ele>612.7</ele>
        <time>2026-03-29T11:35:18Z</time>
      </trkpt>
      <trkpt lat="48.00537" lon="6.59771">
        <ele>612.3</ele>
        <time>2026-03-29T11:35:23Z</time>
      </trkpt>
      <trkpt lat="48.00542" lon="6.59768">
        <ele>611.5</ele>
        <time>2026-03-29T11:35:28Z</time>
      </trkpt>
      <trkpt lat="48.00549" lon="6.59761">
        <ele>610.9</ele>
        <time>2026-03-29T11:35:33Z</time>
      </trkpt>
      <trkpt lat="48.00555" lon="6.59755">
        <ele>610.3</ele>
        <time>2026-03-29T11:35:38Z</time>
      </trkpt>
      <trkpt lat="48.0056" lon="6.5975">
        <ele>609.8</ele>
        <time>2026-03-29T11:35:43Z</time>
      </trkpt>
      <trkpt lat="48.00566" lon="6.59747">
        <ele>608.4</ele>
        <time>2026-03-29T11:35:48Z</time>
      </trkpt>
      <trkpt lat="48.00573" lon="6.59752">
        <ele>605</ele>
        <time>2026-03-29T11:35:53Z</time>
      </trkpt>
      <trkpt lat="48.00583" lon="6.59752">
        <ele>601.7</ele>
        <time>2026-03-29T11:35:58Z</time>
      </trkpt>
      <trkpt lat="48.0059" lon="6.59741">
        <ele>602.1</ele>
        <time>2026-03-29T11:36:03Z</time>
      </trkpt>
      <trkpt lat="48.00594" lon="6.59734">
        <ele>602.5</ele>
        <time>2026-03-29T11:36:08Z</time>
      </trkpt>
      <trkpt lat="48.00595" lon="6.59731">
        <ele>602.8</ele>
        <time>2026-03-29T11:36:13Z</time>
      </trkpt>
      <trkpt lat="48.00604" lon="6.59732">
        <ele>600.2</ele>
        <time>2026-03-29T11:36:18Z</time>
      </trkpt>
      <trkpt lat="48.00605" lon="6.59726">
        <ele>601.1</ele>
        <time>2026-03-29T11:36:23Z</time>
      </trkpt>
      <trkpt lat="48.00606" lon="6.59712">
        <ele>603.5</ele>
        <time>2026-03-29T11:36:28Z</time>
      </trkpt>
      <trkpt lat="48.0061" lon="6.59702">
        <ele>604.3</ele>
        <time>2026-03-29T11:36:33Z</time>
      </trkpt>
      <trkpt lat="48.00611" lon="6.59694">
        <ele>605.6</ele>
        <time>2026-03-29T11:36:38Z</time>
      </trkpt>
      <trkpt lat="48.00618" lon="6.59687">
        <ele>604.9</ele>
        <time>2026-03-29T11:36:43Z</time>
      </trkpt>
      <trkpt lat="48.00623" lon="6.59682">
        <ele>604.3</ele>
        <time>2026-03-29T11:36:48Z</time>
      </trkpt>
      <trkpt lat="48.00626" lon="6.59675">
        <ele>604.7</ele>
        <time>2026-03-29T11:36:53Z</time>
      </trkpt>
      <trkpt lat="48.00632" lon="6.59669">
        <ele>604</ele>
        <time>2026-03-29T11:36:58Z</time>
      </trkpt>
      <trkpt lat="48.00638" lon="6.59663">
        <ele>603.4</ele>
        <time>2026-03-29T11:37:03Z</time>
      </trkpt>
      <trkpt lat="48.00642" lon="6.59658">
        <ele>603.4</ele>
        <time>2026-03-29T11:37:08Z</time>
      </trkpt>
      <trkpt lat="48.00648" lon="6.59653">
        <ele>602.7</ele>
        <time>2026-03-29T11:37:13Z</time>
      </trkpt>
      <trkpt lat="48.00653" lon="6.59647">
        <ele>602.6</ele>
        <time>2026-03-29T11:37:18Z</time>
      </trkpt>
      <trkpt lat="48.00657" lon="6.59641">
        <ele>602.8</ele>
        <time>2026-03-29T11:37:23Z</time>
      </trkpt>
      <trkpt lat="48.00662" lon="6.59637">
        <ele>602.2</ele>
        <time>2026-03-29T11:37:28Z</time>
      </trkpt>
      <trkpt lat="48.00667" lon="6.59633">
        <ele>601.6</ele>
        <time>2026-03-29T11:37:33Z</time>
      </trkpt>
      <trkpt lat="48.00672" lon="6.59631">
        <ele>600.4</ele>
        <time>2026-03-29T11:37:38Z</time>
      </trkpt>
      <trkpt lat="48.00679" lon="6.59626">
        <ele>599.2</ele>
        <time>2026-03-29T11:37:43Z</time>
      </trkpt>
      <trkpt lat="48.00683" lon="6.59623">
        <ele>598.5</ele>
        <time>2026-03-29T11:37:48Z</time>
      </trkpt>
      <trkpt lat="48.00688" lon="6.59619">
        <ele>597.7</ele>
        <time>2026-03-29T11:37:53Z</time>
      </trkpt>
      <trkpt lat="48.00695" lon="6.59615">
        <ele>596.1</ele>
        <time>2026-03-29T11:37:58Z</time>
      </trkpt>
      <trkpt lat="48.00702" lon="6.59611">
        <ele>594.4</ele>
        <time>2026-03-29T11:38:03Z</time>
      </trkpt>
      <trkpt lat="48.00707" lon="6.59605">
        <ele>593.7</ele>
        <time>2026-03-29T11:38:08Z</time>
      </trkpt>
      <trkpt lat="48.00714" lon="6.59598">
        <ele>592.4</ele>
        <time>2026-03-29T11:38:13Z</time>
      </trkpt>
      <trkpt lat="48.00721" lon="6.59593">
        <ele>590.6</ele>
        <time>2026-03-29T11:38:18Z</time>
      </trkpt>
      <trkpt lat="48.00726" lon="6.5959">
        <ele>589.2</ele>
        <time>2026-03-29T11:38:23Z</time>
      </trkpt>
      <trkpt lat="48.00732" lon="6.59588">
        <ele>587.2</ele>
        <time>2026-03-29T11:38:28Z</time>
      </trkpt>
      <trkpt lat="48.0074" lon="6.59588">
        <ele>584.2</ele>
        <time>2026-03-29T11:38:33Z</time>
      </trkpt>
      <trkpt lat="48.00745" lon="6.59585">
        <ele>582.7</ele>
        <time>2026-03-29T11:38:38Z</time>
      </trkpt>
      <trkpt lat="48.0075" lon="6.59581">
        <ele>581.8</ele>
        <time>2026-03-29T11:38:43Z</time>
      </trkpt>
      <trkpt lat="48.00756" lon="6.59578">
        <ele>581.1</ele>
        <time>2026-03-29T11:38:48Z</time>
      </trkpt>
      <trkpt lat="48.00761" lon="6.59576">
        <ele>580.3</ele>
        <time>2026-03-29T11:38:53Z</time>
      </trkpt>
      <trkpt lat="48.00766" lon="6.59572">
        <ele>580.2</ele>
        <time>2026-03-29T11:38:58Z</time>
      </trkpt>
      <trkpt lat="48.0077" lon="6.5957">
        <ele>579.6</ele>
        <time>2026-03-29T11:39:03Z</time>
      </trkpt>
      <trkpt lat="48.00776" lon="6.59565">
        <ele>579.3</ele>
        <time>2026-03-29T11:39:08Z</time>
      </trkpt>
      <trkpt lat="48.00782" lon="6.59561">
        <ele>578.7</ele>
        <time>2026-03-29T11:39:13Z</time>
      </trkpt>
      <trkpt lat="48.00789" lon="6.59557">
        <ele>577.6</ele>
        <time>2026-03-29T11:39:18Z</time>
      </trkpt>
      <trkpt lat="48.00797" lon="6.59554">
        <ele>575.9</ele>
        <time>2026-03-29T11:39:23Z</time>
      </trkpt>
      <trkpt lat="48.00804" lon="6.59553">
        <ele>574</ele>
        <time>2026-03-29T11:39:28Z</time>
      </trkpt>
      <trkpt lat="48.0081" lon="6.59546">
        <ele>573.7</ele>
        <time>2026-03-29T11:39:33Z</time>
      </trkpt>
      <trkpt lat="48.00817" lon="6.59545">
        <ele>571.7</ele>
        <time>2026-03-29T11:39:38Z</time>
      </trkpt>
      <trkpt lat="48.00823" lon="6.59545">
        <ele>569.7</ele>
        <time>2026-03-29T11:39:43Z</time>
      </trkpt>
      <trkpt lat="48.00829" lon="6.5954">
        <ele>568.8</ele>
        <time>2026-03-29T11:39:48Z</time>
      </trkpt>
      <trkpt lat="48.00835" lon="6.59537">
        <ele>567.5</ele>
        <time>2026-03-29T11:39:53Z</time>
      </trkpt>
      <trkpt lat="48.00841" lon="6.59534">
        <ele>566.4</ele>
        <time>2026-03-29T11:39:58Z</time>
      </trkpt>
      <trkpt lat="48.00847" lon="6.59533">
        <ele>565.1</ele>
        <time>2026-03-29T11:40:03Z</time>
      </trkpt>
      <trkpt lat="48.00852" lon="6.59534">
        <ele>563.5</ele>
        <time>2026-03-29T11:40:08Z</time>
      </trkpt>
      <trkpt lat="48.00858" lon="6.59533">
        <ele>562.2</ele>
        <time>2026-03-29T11:40:13Z</time>
      </trkpt>
      <trkpt lat="48.00865" lon="6.5953">
        <ele>560.9</ele>
        <time>2026-03-29T11:40:18Z</time>
      </trkpt>
      <trkpt lat="48.00872" lon="6.59526">
        <ele>559.8</ele>
        <time>2026-03-29T11:40:23Z</time>
      </trkpt>
      <trkpt lat="48.00878" lon="6.59523">
        <ele>558.8</ele>
        <time>2026-03-29T11:40:28Z</time>
      </trkpt>
      <trkpt lat="48.00883" lon="6.59519">
        <ele>558.2</ele>
        <time>2026-03-29T11:40:33Z</time>
      </trkpt>
      <trkpt lat="48.00889" lon="6.59513">
        <ele>557.8</ele>
        <time>2026-03-29T11:40:38Z</time>
      </trkpt>
      <trkpt lat="48.00894" lon="6.59507">
        <ele>557.6</ele>
        <time>2026-03-29T11:40:43Z</time>
      </trkpt>
      <trkpt lat="48.00897" lon="6.59502">
        <ele>557.8</ele>
        <time>2026-03-29T11:40:48Z</time>
      </trkpt>
      <trkpt lat="48.00902" lon="6.59499">
        <ele>557.1</ele>
        <time>2026-03-29T11:40:53Z</time>
      </trkpt>
      <trkpt lat="48.00907" lon="6.59496">
        <ele>556.3</ele>
        <time>2026-03-29T11:40:58Z</time>
      </trkpt>
      <trkpt lat="48.0091" lon="6.5949">
        <ele>556.7</ele>
        <time>2026-03-29T11:41:03Z</time>
      </trkpt>
      <trkpt lat="48.00914" lon="6.59486">
        <ele>556.4</ele>
        <time>2026-03-29T11:41:08Z</time>
      </trkpt>
      <trkpt lat="48.0092" lon="6.59483">
        <ele>555.4</ele>
        <time>2026-03-29T11:41:13Z</time>
      </trkpt>
      <trkpt lat="48.00926" lon="6.59481">
        <ele>554.1</ele>
        <time>2026-03-29T11:41:18Z</time>
      </trkpt>
      <trkpt lat="48.00929" lon="6.59478">
        <ele>553.9</ele>
        <time>2026-03-29T11:41:23Z</time>
      </trkpt>
      <trkpt lat="48.00934" lon="6.59478">
        <ele>552.5</ele>
        <time>2026-03-29T11:41:28Z</time>
      </trkpt>
      <trkpt lat="48.00939" lon="6.59474">
        <ele>551.8</ele>
        <time>2026-03-29T11:41:33Z</time>
      </trkpt>
      <trkpt lat="48.00944" lon="6.59469">
        <ele>551.4</ele>
        <time>2026-03-29T11:41:38Z</time>
      </trkpt>
      <trkpt lat="48.00948" lon="6.59467">
        <ele>550.6</ele>
        <time>2026-03-29T11:41:43Z</time>
      </trkpt>
      <trkpt lat="48.0095" lon="6.59461">
        <ele>551.1</ele>
        <time>2026-03-29T11:41:48Z</time>
      </trkpt>
      <trkpt lat="48.00956" lon="6.59456">
        <ele>550.3</ele>
        <time>2026-03-29T11:41:53Z</time>
      </trkpt>
      <trkpt lat="48.00962" lon="6.59452">
        <ele>549.3</ele>
        <time>2026-03-29T11:41:58Z</time>
      </trkpt>
      <trkpt lat="48.00969" lon="6.59449">
        <ele>547.8</ele>
        <time>2026-03-29T11:42:03Z</time>
      </trkpt>
      <trkpt lat="48.00972" lon="6.59443">
        <ele>548</ele>
        <time>2026-03-29T11:42:08Z</time>
      </trkpt>
      <trkpt lat="48.00978" lon="6.59439">
        <ele>546.9</ele>
        <time>2026-03-29T11:42:13Z</time>
      </trkpt>
      <trkpt lat="48.00983" lon="6.5943">
        <ele>546.9</ele>
        <time>2026-03-29T11:42:18Z</time>
      </trkpt>
      <trkpt lat="48.0099" lon="6.59423">
        <ele>546</ele>
        <time>2026-03-29T11:42:23Z</time>
      </trkpt>
      <trkpt lat="48.00993" lon="6.59417">
        <ele>546</ele>
        <time>2026-03-29T11:42:28Z</time>
      </trkpt>
      <trkpt lat="48.00997" lon="6.59413">
        <ele>544.7</ele>
        <time>2026-03-29T11:42:33Z</time>
      </trkpt>
      <trkpt lat="48.01001" lon="6.59404">
        <ele>543</ele>
        <time>2026-03-29T11:42:38Z</time>
      </trkpt>
      <trkpt lat="48.01004" lon="6.59402">
        <ele>541.7</ele>
        <time>2026-03-29T11:42:43Z</time>
      </trkpt>
      <trkpt lat="48.01006" lon="6.59399">
        <ele>540.8</ele>
        <time>2026-03-29T11:42:48Z</time>
      </trkpt>
      <trkpt lat="48.01008" lon="6.59393">
        <ele>539.8</ele>
        <time>2026-03-29T11:42:53Z</time>
      </trkpt>
      <trkpt lat="48.01007" lon="6.59392">
        <ele>540.2</ele>
        <time>2026-03-29T11:42:58Z</time>
      </trkpt>
      <trkpt lat="48.01007" lon="6.5939">
        <ele>540.1</ele>
        <time>2026-03-29T11:43:03Z</time>
      </trkpt>
      <trkpt lat="48.01012" lon="6.59385">
        <ele>538.1</ele>
        <time>2026-03-29T11:43:08Z</time>
      </trkpt>
      <trkpt lat="48.01018" lon="6.59379">
        <ele>535.8</ele>
        <time>2026-03-29T11:43:13Z</time>
      </trkpt>
      <trkpt lat="48.01022" lon="6.59374">
        <ele>534.3</ele>
        <time>2026-03-29T11:43:18Z</time>
      </trkpt>
      <trkpt lat="48.01025" lon="6.59368">
        <ele>533.3</ele>
        <time>2026-03-29T11:43:23Z</time>
      </trkpt>
      <trkpt lat="48.01025" lon="6.59368">
        <ele>533.3</ele>
        <time>2026-03-29T11:43:28Z</time>
      </trkpt>
      <trkpt lat="48.01028" lon="6.59365">
        <ele>532.3</ele>
        <time>2026-03-29T11:43:33Z</time>
      </trkpt>
      <trkpt lat="48.01031" lon="6.5936">
        <ele>531.3</ele>
        <time>2026-03-29T11:43:38Z</time>
      </trkpt>
      <trkpt lat="48.01033" lon="6.59352">
        <ele>530.7</ele>
        <time>2026-03-29T11:43:43Z</time>
      </trkpt>
      <trkpt lat="48.01036" lon="6.59344">
        <ele>529.9</ele>
        <time>2026-03-29T11:43:48Z</time>
      </trkpt>
      <trkpt lat="48.01038" lon="6.59339">
        <ele>529.4</ele>
        <time>2026-03-29T11:43:53Z</time>
      </trkpt>
      <trkpt lat="48.0104" lon="6.59333">
        <ele>528.9</ele>
        <time>2026-03-29T11:43:58Z</time>
      </trkpt>
      <trkpt lat="48.01042" lon="6.59326">
        <ele>527.6</ele>
        <time>2026-03-29T11:44:03Z</time>
      </trkpt>
      <trkpt lat="48.01042" lon="6.59322">
        <ele>527.1</ele>
        <time>2026-03-29T11:44:08Z</time>
      </trkpt>
      <trkpt lat="48.01043" lon="6.59321">
        <ele>526.7</ele>
        <time>2026-03-29T11:44:13Z</time>
      </trkpt>
      <trkpt lat="48.01044" lon="6.59315">
        <ele>525.8</ele>
        <time>2026-03-29T11:44:18Z</time>
      </trkpt>
      <trkpt lat="48.01046" lon="6.59306">
        <ele>524.3</ele>
        <time>2026-03-29T11:44:23Z</time>
      </trkpt>
      <trkpt lat="48.01047" lon="6.59299">
        <ele>523.3</ele>
        <time>2026-03-29T11:44:28Z</time>
      </trkpt>
      <trkpt lat="48.01047" lon="6.59292">
        <ele>522.5</ele>
        <time>2026-03-29T11:44:33Z</time>
      </trkpt>
      <trkpt lat="48.0105" lon="6.5929">
        <ele>521.6</ele>
        <time>2026-03-29T11:44:38Z</time>
      </trkpt>
      <trkpt lat="48.01052" lon="6.59282">
        <ele>520.3</ele>
        <time>2026-03-29T11:44:43Z</time>
      </trkpt>
      <trkpt lat="48.01053" lon="6.59275">
        <ele>519.4</ele>
        <time>2026-03-29T11:44:48Z</time>
      </trkpt>
      <trkpt lat="48.01055" lon="6.59267">
        <ele>518.1</ele>
        <time>2026-03-29T11:44:53Z</time>
      </trkpt>
      <trkpt lat="48.01054" lon="6.5926">
        <ele>517.6</ele>
        <time>2026-03-29T11:44:58Z</time>
      </trkpt>
      <trkpt lat="48.01053" lon="6.59254">
        <ele>517.2</ele>
        <time>2026-03-29T11:45:03Z</time>
      </trkpt>
      <trkpt lat="48.01052" lon="6.59249">
        <ele>516.8</ele>
        <time>2026-03-29T11:45:08Z</time>
      </trkpt>
      <trkpt lat="48.01051" lon="6.5924">
        <ele>515.5</ele>
        <time>2026-03-29T11:45:13Z</time>
      </trkpt>
      <trkpt lat="48.01049" lon="6.59233">
        <ele>514.7</ele>
        <time>2026-03-29T11:45:18Z</time>
      </trkpt>
      <trkpt lat="48.01046" lon="6.59226">
        <ele>514.1</ele>
        <time>2026-03-29T11:45:23Z</time>
      </trkpt>
      <trkpt lat="48.01044" lon="6.59218">
        <ele>513.2</ele>
        <time>2026-03-29T11:45:28Z</time>
      </trkpt>
      <trkpt lat="48.01037" lon="6.5921">
        <ele>513.2</ele>
        <time>2026-03-29T11:45:33Z</time>
      </trkpt>
      <trkpt lat="48.01033" lon="6.59202">
        <ele>512.7</ele>
        <time>2026-03-29T11:45:38Z</time>
      </trkpt>
      <trkpt lat="48.01029" lon="6.59194">
        <ele>512.2</ele>
        <time>2026-03-29T11:45:43Z</time>
      </trkpt>
      <trkpt lat="48.01026" lon="6.59184">
        <ele>511.2</ele>
        <time>2026-03-29T11:45:48Z</time>
      </trkpt>
      <trkpt lat="48.01024" lon="6.59174">
        <ele>510</ele>
        <time>2026-03-29T11:45:53Z</time>
      </trkpt>
      <trkpt lat="48.01025" lon="6.59169">
        <ele>509</ele>
        <time>2026-03-29T11:45:58Z</time>
      </trkpt>
      <trkpt lat="48.01026" lon="6.59162">
        <ele>507.4</ele>
        <time>2026-03-29T11:46:03Z</time>
      </trkpt>
      <trkpt lat="48.01027" lon="6.5915">
        <ele>504.6</ele>
        <time>2026-03-29T11:46:08Z</time>
      </trkpt>
      <trkpt lat="48.01028" lon="6.59139">
        <ele>502</ele>
        <time>2026-03-29T11:46:13Z</time>
      </trkpt>
      <trkpt lat="48.01029" lon="6.59127">
        <ele>499.2</ele>
        <time>2026-03-29T11:46:18Z</time>
      </trkpt>
      <trkpt lat="48.01031" lon="6.5912">
        <ele>497.3</ele>
        <time>2026-03-29T11:46:23Z</time>
      </trkpt>
      <trkpt lat="48.01036" lon="6.59115">
        <ele>495.2</ele>
        <time>2026-03-29T11:46:28Z</time>
      </trkpt>
      <trkpt lat="48.0104" lon="6.59114">
        <ele>494.3</ele>
        <time>2026-03-29T11:46:33Z</time>
      </trkpt>
      <trkpt lat="48.01045" lon="6.59112">
        <ele>492.9</ele>
        <time>2026-03-29T11:46:38Z</time>
      </trkpt>
      <trkpt lat="48.01051" lon="6.59108">
        <ele>490.9</ele>
        <time>2026-03-29T11:46:43Z</time>
      </trkpt>
      <trkpt lat="48.01056" lon="6.59104">
        <ele>489.1</ele>
        <time>2026-03-29T11:46:48Z</time>
      </trkpt>
      <trkpt lat="48.01061" lon="6.59103">
        <ele>488</ele>
        <time>2026-03-29T11:46:53Z</time>
      </trkpt>
      <trkpt lat="48.01068" lon="6.59101">
        <ele>486.3</ele>
        <time>2026-03-29T11:46:58Z</time>
      </trkpt>
      <trkpt lat="48.01074" lon="6.59101">
        <ele>485.1</ele>
        <time>2026-03-29T11:47:03Z</time>
      </trkpt>
      <trkpt lat="48.01082" lon="6.59101">
        <ele>483.6</ele>
        <time>2026-03-29T11:47:08Z</time>
      </trkpt>
      <trkpt lat="48.01084" lon="6.59101">
        <ele>483.4</ele>
        <time>2026-03-29T11:47:13Z</time>
      </trkpt>
      <trkpt lat="48.01085" lon="6.591">
        <ele>483.1</ele>
        <time>2026-03-29T11:47:18Z</time>
      </trkpt>
      <trkpt lat="48.01089" lon="6.59099">
        <ele>482.7</ele>
        <time>2026-03-29T11:47:23Z</time>
      </trkpt>
      <trkpt lat="48.01091" lon="6.59102">
        <ele>483.1</ele>
        <time>2026-03-29T11:47:28Z</time>
      </trkpt>
      <trkpt lat="48.01092" lon="6.59102">
        <ele>483.1</ele>
        <time>2026-03-29T11:47:33Z</time>
      </trkpt>
      <trkpt lat="48.01095" lon="6.59102">
        <ele>482.9</ele>
        <time>2026-03-29T11:47:38Z</time>
      </trkpt>
      <trkpt lat="48.01108" lon="6.59102">
        <ele>482.2</ele>
        <time>2026-03-29T11:47:43Z</time>
      </trkpt>
      <trkpt lat="48.01115" lon="6.59103">
        <ele>481.9</ele>
        <time>2026-03-29T11:47:48Z</time>
      </trkpt>
      <trkpt lat="48.01115" lon="6.59103">
        <ele>481.9</ele>
        <time>2026-03-29T11:47:53Z</time>
      </trkpt>
      <trkpt lat="48.01121" lon="6.59102">
        <ele>481.4</ele>
        <time>2026-03-29T11:47:58Z</time>
      </trkpt>
      <trkpt lat="48.01127" lon="6.59101">
        <ele>481</ele>
        <time>2026-03-29T11:48:03Z</time>
      </trkpt>
      <trkpt lat="48.01133" lon="6.591">
        <ele>480.6</ele>
        <time>2026-03-29T11:48:08Z</time>
      </trkpt>
      <trkpt lat="48.01133" lon="6.591">
        <ele>480.6</ele>
        <time>2026-03-29T11:48:13Z</time>
      </trkpt>
      <trkpt lat="48.01142" lon="6.59099">
        <ele>480.1</ele>
        <time>2026-03-29T11:48:18Z</time>
      </trkpt>
      <trkpt lat="48.01148" lon="6.59082">
        <ele>479.1</ele>
        <time>2026-03-29T11:48:23Z</time>
      </trkpt>
      <trkpt lat="48.01151" lon="6.59081">
        <ele>479</ele>
        <time>2026-03-29T11:48:28Z</time>
      </trkpt>
      <trkpt lat="48.01153" lon="6.59084">
        <ele>479.2</ele>
        <time>2026-03-29T11:48:33Z</time>
      </trkpt>
      <trkpt lat="48.01155" lon="6.59088">
        <ele>479.2</ele>
        <time>2026-03-29T11:48:38Z</time>
      </trkpt>
      <trkpt lat="48.01157" lon="6.59096">
        <ele>479.3</ele>
        <time>2026-03-29T11:48:43Z</time>
      </trkpt>
      <trkpt lat="48.01158" lon="6.59101">
        <ele>479.3</ele>
        <time>2026-03-29T11:48:48Z</time>
      </trkpt>
      <trkpt lat="48.01159" lon="6.59106">
        <ele>479.2</ele>
        <time>2026-03-29T11:48:53Z</time>
      </trkpt>
      <trkpt lat="48.0116" lon="6.59112">
        <ele>479.2</ele>
        <time>2026-03-29T11:48:58Z</time>
      </trkpt>
      <trkpt lat="48.01159" lon="6.59114">
        <ele>479.3</ele>
        <time>2026-03-29T11:49:03Z</time>
      </trkpt>
      <trkpt lat="48.01159" lon="6.59115">
        <ele>479.3</ele>
        <time>2026-03-29T11:49:08Z</time>
      </trkpt>
      <trkpt lat="48.01159" lon="6.59115">
        <ele>479.3</ele>
        <time>2026-03-29T11:49:13Z</time>
      </trkpt>
      <trkpt lat="48.01159" lon="6.59115">
        <ele>479.3</ele>
        <time>2026-03-29T11:49:18Z</time>
      </trkpt>
      <trkpt lat="48.01159" lon="6.59115">
        <ele>479.3</ele>
        <time>2026-03-29T11:49:23Z</time>
      </trkpt>
      <trkpt lat="48.01159" lon="6.59115">
        <ele>479.3</ele>
        <time>2026-03-29T11:49:28Z</time>
      </trkpt>
      <trkpt lat="48.01158" lon="6.59132">
        <ele>479.6</ele>
        <time>2026-03-29T11:49:33Z</time>
      </trkpt>
      <trkpt lat="48.01158" lon="6.59136">
        <ele>479.6</ele>
        <time>2026-03-29T11:49:38Z</time>
      </trkpt>
      <trkpt lat="48.01157" lon="6.59141">
        <ele>479.8</ele>
        <time>2026-03-29T11:49:43Z</time>
      </trkpt>
      <trkpt lat="48.01156" lon="6.59149">
        <ele>480.1</ele>
        <time>2026-03-29T11:49:48Z</time>
      </trkpt>
      <trkpt lat="48.01156" lon="6.59154">
        <ele>480.1</ele>
        <time>2026-03-29T11:49:53Z</time>
      </trkpt>
      <trkpt lat="48.01159" lon="6.59159">
        <ele>479.6</ele>
        <time>2026-03-29T11:49:58Z</time>
      </trkpt>
      <trkpt lat="48.01163" lon="6.59161">
        <ele>478.8</ele>
        <time>2026-03-29T11:50:03Z</time>
      </trkpt>
      <trkpt lat="48.01166" lon="6.59161">
        <ele>478.2</ele>
        <time>2026-03-29T11:50:08Z</time>
      </trkpt>
      <trkpt lat="48.01172" lon="6.5916">
        <ele>476.4</ele>
        <time>2026-03-29T11:50:13Z</time>
      </trkpt>
      <trkpt lat="48.01178" lon="6.59158">
        <ele>474.6</ele>
        <time>2026-03-29T11:50:18Z</time>
      </trkpt>
      <trkpt lat="48.01183" lon="6.59153">
        <ele>473.2</ele>
        <time>2026-03-29T11:50:23Z</time>
      </trkpt>
      <trkpt lat="48.01186" lon="6.59152">
        <ele>472.3</ele>
        <time>2026-03-29T11:50:28Z</time>
      </trkpt>
      <trkpt lat="48.0119" lon="6.59148">
        <ele>471.2</ele>
        <time>2026-03-29T11:50:33Z</time>
      </trkpt>
      <trkpt lat="48.01195" lon="6.59141">
        <ele>469.9</ele>
        <time>2026-03-29T11:50:38Z</time>
      </trkpt>
      <trkpt lat="48.01198" lon="6.59136">
        <ele>469.1</ele>
        <time>2026-03-29T11:50:43Z</time>
      </trkpt>
      <trkpt lat="48.01203" lon="6.59129">
        <ele>467.9</ele>
        <time>2026-03-29T11:50:48Z</time>
      </trkpt>
      <trkpt lat="48.01209" lon="6.59122">
        <ele>466.4</ele>
        <time>2026-03-29T11:50:53Z</time>
      </trkpt>
      <trkpt lat="48.01214" lon="6.59111">
        <ele>465.4</ele>
        <time>2026-03-29T11:50:58Z</time>
      </trkpt>
      <trkpt lat="48.01221" lon="6.59099">
        <ele>464</ele>
        <time>2026-03-29T11:51:03Z</time>
      </trkpt>
      <trkpt lat="48.01224" lon="6.59093">
        <ele>463.4</ele>
        <time>2026-03-29T11:51:08Z</time>
      </trkpt>
      <trkpt lat="48.0123" lon="6.59083">
        <ele>462.3</ele>
        <time>2026-03-29T11:51:13Z</time>
      </trkpt>
      <trkpt lat="48.01233" lon="6.59076">
        <ele>461.3</ele>
        <time>2026-03-29T11:51:18Z</time>
      </trkpt>
      <trkpt lat="48.01238" lon="6.59067">
        <ele>459.7</ele>
        <time>2026-03-29T11:51:23Z</time>
      </trkpt>
      <trkpt lat="48.01241" lon="6.5906">
        <ele>458.8</ele>
        <time>2026-03-29T11:51:28Z</time>
      </trkpt>
      <trkpt lat="48.01243" lon="6.5905">
        <ele>458</ele>
        <time>2026-03-29T11:51:33Z</time>
      </trkpt>
      <trkpt lat="48.01246" lon="6.59039">
        <ele>456.9</ele>
        <time>2026-03-29T11:51:38Z</time>
      </trkpt>
      <trkpt lat="48.01247" lon="6.59032">
        <ele>456.5</ele>
        <time>2026-03-29T11:51:43Z</time>
      </trkpt>
      <trkpt lat="48.0125" lon="6.59026">
        <ele>455.6</ele>
        <time>2026-03-29T11:51:48Z</time>
      </trkpt>
      <trkpt lat="48.01255" lon="6.59023">
        <ele>453.4</ele>
        <time>2026-03-29T11:51:53Z</time>
      </trkpt>
      <trkpt lat="48.01255" lon="6.59024">
        <ele>453.4</ele>
        <time>2026-03-29T11:51:58Z</time>
      </trkpt>
      <trkpt lat="48.01252" lon="6.59028">
        <ele>454.8</ele>
        <time>2026-03-29T11:52:03Z</time>
      </trkpt>
      <trkpt lat="48.01251" lon="6.5903">
        <ele>455.3</ele>
        <time>2026-03-29T11:52:08Z</time>
      </trkpt>
      <trkpt lat="48.0125" lon="6.5903">
        <ele>455.7</ele>
        <time>2026-03-29T11:52:13Z</time>
      </trkpt>
      <trkpt lat="48.01249" lon="6.5903">
        <ele>456</ele>
        <time>2026-03-29T11:52:18Z</time>
      </trkpt>
      <trkpt lat="48.01249" lon="6.5903">
        <ele>456</ele>
        <time>2026-03-29T11:52:23Z</time>
      </trkpt>
      <trkpt lat="48.01249" lon="6.5903">
        <ele>456</ele>
        <time>2026-03-29T11:52:28Z</time>
      </trkpt>
      <trkpt lat="48.01249" lon="6.5903">
        <ele>456</ele>
        <time>2026-03-29T11:52:33Z</time>
      </trkpt>
      <trkpt lat="48.01249" lon="6.5903">
        <ele>456</ele>
        <time>2026-03-29T11:52:38Z</time>
      </trkpt>
      <trkpt lat="48.01242" lon="6.59038">
        <ele>457.9</ele>
        <time>2026-03-29T11:52:43Z</time>
      </trkpt>
      <trkpt lat="48.01247" lon="6.59044">
        <ele>456.8</ele>
        <time>2026-03-29T11:52:48Z</time>
      </trkpt>
      <trkpt lat="48.01253" lon="6.59048">
        <ele>454.9</ele>
        <time>2026-03-29T11:52:53Z</time>
      </trkpt>
      <trkpt lat="48.0126" lon="6.59053">
        <ele>452.2</ele>
        <time>2026-03-29T11:52:58Z</time>
      </trkpt>
      <trkpt lat="48.01266" lon="6.59057">
        <ele>449.9</ele>
        <time>2026-03-29T11:53:03Z</time>
      </trkpt>
      <trkpt lat="48.01268" lon="6.59057">
        <ele>449.1</ele>
        <time>2026-03-29T11:53:08Z</time>
      </trkpt>
      <trkpt lat="48.01274" lon="6.5906">
        <ele>446.8</ele>
        <time>2026-03-29T11:53:13Z</time>
      </trkpt>
      <trkpt lat="48.01281" lon="6.59065">
        <ele>444.2</ele>
        <time>2026-03-29T11:53:18Z</time>
      </trkpt>
      <trkpt lat="48.01286" lon="6.59067">
        <ele>442.4</ele>
        <time>2026-03-29T11:53:23Z</time>
      </trkpt>
      <trkpt lat="48.0129" lon="6.59073">
        <ele>441.1</ele>
        <time>2026-03-29T11:53:28Z</time>
      </trkpt>
      <trkpt lat="48.01292" lon="6.59082">
        <ele>440.8</ele>
        <time>2026-03-29T11:53:33Z</time>
      </trkpt>
      <trkpt lat="48.01297" lon="6.59091">
        <ele>438.9</ele>
        <time>2026-03-29T11:53:38Z</time>
      </trkpt>
      <trkpt lat="48.01305" lon="6.59095">
        <ele>435.8</ele>
        <time>2026-03-29T11:53:43Z</time>
      </trkpt>
      <trkpt lat="48.01314" lon="6.59095">
        <ele>432.5</ele>
        <time>2026-03-29T11:53:48Z</time>
      </trkpt>
      <trkpt lat="48.01319" lon="6.59095">
        <ele>430.6</ele>
        <time>2026-03-29T11:53:53Z</time>
      </trkpt>
      <trkpt lat="48.01326" lon="6.59096">
        <ele>428</ele>
        <time>2026-03-29T11:53:58Z</time>
      </trkpt>
      <trkpt lat="48.01329" lon="6.59098">
        <ele>427</ele>
        <time>2026-03-29T11:54:03Z</time>
      </trkpt>
      <trkpt lat="48.01332" lon="6.59104">
        <ele>426</ele>
        <time>2026-03-29T11:54:08Z</time>
      </trkpt>
      <trkpt lat="48.01335" lon="6.5911">
        <ele>425.4</ele>
        <time>2026-03-29T11:54:13Z</time>
      </trkpt>
      <trkpt lat="48.0134" lon="6.59115">
        <ele>424.9</ele>
        <time>2026-03-29T11:54:18Z</time>
      </trkpt>
      <trkpt lat="48.01345" lon="6.59118">
        <ele>424.3</ele>
        <time>2026-03-29T11:54:23Z</time>
      </trkpt>
      <trkpt lat="48.01349" lon="6.59125">
        <ele>423.8</ele>
        <time>2026-03-29T11:54:28Z</time>
      </trkpt>
      <trkpt lat="48.01351" lon="6.59132">
        <ele>423.7</ele>
        <time>2026-03-29T11:54:33Z</time>
      </trkpt>
      <trkpt lat="48.01351" lon="6.59138">
        <ele>423.8</ele>
        <time>2026-03-29T11:54:38Z</time>
      </trkpt>
      <trkpt lat="48.0135" lon="6.59142">
        <ele>424</ele>
        <time>2026-03-29T11:54:43Z</time>
      </trkpt>
      <trkpt lat="48.0135" lon="6.59144">
        <ele>424</ele>
        <time>2026-03-29T11:54:48Z</time>
      </trkpt>
      <trkpt lat="48.0135" lon="6.59144">
        <ele>424</ele>
        <time>2026-03-29T11:54:53Z</time>
      </trkpt>
      <trkpt lat="48.0135" lon="6.59144">
        <ele>424</ele>
        <time>2026-03-29T11:54:58Z</time>
      </trkpt>
      <trkpt lat="48.0135" lon="6.59144">
        <ele>424</ele>
        <time>2026-03-29T11:55:03Z</time>
      </trkpt>
      <trkpt lat="48.0135" lon="6.59144">
        <ele>424</ele>
        <time>2026-03-29T11:55:08Z</time>
      </trkpt>
      <trkpt lat="48.0135" lon="6.59144">
        <ele>424</ele>
        <time>2026-03-29T11:55:13Z</time>
      </trkpt>
      <trkpt lat="48.0135" lon="6.59144">
        <ele>424</ele>
        <time>2026-03-29T11:55:18Z</time>
      </trkpt>
      <trkpt lat="48.0135" lon="6.59144">
        <ele>424</ele>
        <time>2026-03-29T11:55:23Z</time>
      </trkpt>
      <trkpt lat="48.0135" lon="6.59144">
        <ele>424</ele>
        <time>2026-03-29T11:55:28Z</time>
      </trkpt>
      <trkpt lat="48.0135" lon="6.59144">
        <ele>424</ele>
        <time>2026-03-29T11:55:33Z</time>
      </trkpt>
      <trkpt lat="48.0135" lon="6.59144">
        <ele>424</ele>
        <time>2026-03-29T11:55:38Z</time>
      </trkpt>
      <trkpt lat="48.0135" lon="6.59144">
        <ele>424</ele>
        <time>2026-03-29T11:55:43Z</time>
      </trkpt>
      <trkpt lat="48.0135" lon="6.59144">
        <ele>424</ele>
        <time>2026-03-29T11:55:48Z</time>
      </trkpt>
      <trkpt lat="48.0135" lon="6.59144">
        <ele>424</ele>
        <time>2026-03-29T11:55:53Z</time>
      </trkpt>
      <trkpt lat="48.0135" lon="6.59144">
        <ele>424</ele>
        <time>2026-03-29T11:55:58Z</time>
      </trkpt>
      <trkpt lat="48.0135" lon="6.59144">
        <ele>424</ele>
        <time>2026-03-29T11:56:03Z</time>
      </trkpt>
      <trkpt lat="48.0135" lon="6.59144">
        <ele>424</ele>
        <time>2026-03-29T11:56:08Z</time>
      </trkpt>
      <trkpt lat="48.0135" lon="6.59144">
        <ele>424</ele>
        <time>2026-03-29T11:56:13Z</time>
      </trkpt>
      <trkpt lat="48.01352" lon="6.59139">
        <ele>423.6</ele>
        <time>2026-03-29T11:56:18Z</time>
      </trkpt>
      <trkpt lat="48.01351" lon="6.59132">
        <ele>423.7</ele>
        <time>2026-03-29T11:56:23Z</time>
      </trkpt>
      <trkpt lat="48.0135" lon="6.59124">
        <ele>423.7</ele>
        <time>2026-03-29T11:56:28Z</time>
      </trkpt>
      <trkpt lat="48.01346" lon="6.59117">
        <ele>424.1</ele>
        <time>2026-03-29T11:56:33Z</time>
      </trkpt>
      <trkpt lat="48.01341" lon="6.59111">
        <ele>424.7</ele>
        <time>2026-03-29T11:56:38Z</time>
      </trkpt>
      <trkpt lat="48.01335" lon="6.59107">
        <ele>425.4</ele>
        <time>2026-03-29T11:56:43Z</time>
      </trkpt>
      <trkpt lat="48.01331" lon="6.59103">
        <ele>426.3</ele>
        <time>2026-03-29T11:56:48Z</time>
      </trkpt>
      <trkpt lat="48.01324" lon="6.59103">
        <ele>428.9</ele>
        <time>2026-03-29T11:56:53Z</time>
      </trkpt>
      <trkpt lat="48.01319" lon="6.59099">
        <ele>430.7</ele>
        <time>2026-03-29T11:56:58Z</time>
      </trkpt>
      <trkpt lat="48.01313" lon="6.59091">
        <ele>432.8</ele>
        <time>2026-03-29T11:57:03Z</time>
      </trkpt>
      <trkpt lat="48.01303" lon="6.59087">
        <ele>436.6</ele>
        <time>2026-03-29T11:57:08Z</time>
      </trkpt>
      <trkpt lat="48.01295" lon="6.59086">
        <ele>439.7</ele>
        <time>2026-03-29T11:57:13Z</time>
      </trkpt>
      <trkpt lat="48.01289" lon="6.59086">
        <ele>442</ele>
        <time>2026-03-29T11:57:18Z</time>
      </trkpt>
      <trkpt lat="48.01285" lon="6.59086">
        <ele>443.5</ele>
        <time>2026-03-29T11:57:23Z</time>
      </trkpt>
      <trkpt lat="48.01284" lon="6.5907">
        <ele>443.3</ele>
        <time>2026-03-29T11:57:28Z</time>
      </trkpt>
      <trkpt lat="48.01284" lon="6.59063">
        <ele>443</ele>
        <time>2026-03-29T11:57:33Z</time>
      </trkpt>
      <trkpt lat="48.01286" lon="6.59062">
        <ele>442.1</ele>
        <time>2026-03-29T11:57:38Z</time>
      </trkpt>
      <trkpt lat="48.01294" lon="6.59058">
        <ele>438.7</ele>
        <time>2026-03-29T11:57:43Z</time>
      </trkpt>
      <trkpt lat="48.013" lon="6.59057">
        <ele>436.2</ele>
        <time>2026-03-29T11:57:48Z</time>
      </trkpt>
      <trkpt lat="48.01303" lon="6.59057">
        <ele>435</ele>
        <time>2026-03-29T11:57:53Z</time>
      </trkpt>
      <trkpt lat="48.01308" lon="6.59058">
        <ele>433.1</ele>
        <time>2026-03-29T11:57:58Z</time>
      </trkpt>
      <trkpt lat="48.01315" lon="6.5906">
        <ele>430.4</ele>
        <time>2026-03-29T11:58:03Z</time>
      </trkpt>
      <trkpt lat="48.01322" lon="6.5906">
        <ele>427.6</ele>
        <time>2026-03-29T11:58:08Z</time>
      </trkpt>
      <trkpt lat="48.01325" lon="6.5906">
        <ele>426.4</ele>
        <time>2026-03-29T11:58:13Z</time>
      </trkpt>
      <trkpt lat="48.01325" lon="6.59057">
        <ele>426.1</ele>
        <time>2026-03-29T11:58:18Z</time>
      </trkpt>
      <trkpt lat="48.01325" lon="6.59055">
        <ele>426</ele>
        <time>2026-03-29T11:58:23Z</time>
      </trkpt>
      <trkpt lat="48.01325" lon="6.59055">
        <ele>426</ele>
        <time>2026-03-29T11:58:28Z</time>
      </trkpt>
      <trkpt lat="48.01336" lon="6.59057">
        <ele>422.5</ele>
        <time>2026-03-29T11:58:33Z</time>
      </trkpt>
      <trkpt lat="48.01338" lon="6.59055">
        <ele>422</ele>
        <time>2026-03-29T11:58:38Z</time>
      </trkpt>
      <trkpt lat="48.01338" lon="6.59052">
        <ele>421.8</ele>
        <time>2026-03-29T11:58:43Z</time>
      </trkpt>
      <trkpt lat="48.01338" lon="6.59051">
        <ele>421.7</ele>
        <time>2026-03-29T11:58:48Z</time>
      </trkpt>
      <trkpt lat="48.01338" lon="6.59051">
        <ele>421.7</ele>
        <time>2026-03-29T11:58:53Z</time>
      </trkpt>
      <trkpt lat="48.01338" lon="6.59051">
        <ele>421.7</ele>
        <time>2026-03-29T11:58:58Z</time>
      </trkpt>
      <trkpt lat="48.01338" lon="6.59051">
        <ele>421.7</ele>
        <time>2026-03-29T11:59:03Z</time>
      </trkpt>
      <trkpt lat="48.01338" lon="6.59047">
        <ele>421.4</ele>
        <time>2026-03-29T11:59:08Z</time>
      </trkpt>
      <trkpt lat="48.01342" lon="6.59047">
        <ele>420.9</ele>
        <time>2026-03-29T11:59:13Z</time>
      </trkpt>
      <trkpt lat="48.01346" lon="6.59045">
        <ele>420.2</ele>
        <time>2026-03-29T11:59:18Z</time>
      </trkpt>
      <trkpt lat="48.0135" lon="6.5904">
        <ele>419.3</ele>
        <time>2026-03-29T11:59:23Z</time>
      </trkpt>
      <trkpt lat="48.01353" lon="6.59036">
        <ele>418.5</ele>
        <time>2026-03-29T11:59:28Z</time>
      </trkpt>
      <trkpt lat="48.01357" lon="6.59028">
        <ele>417.3</ele>
        <time>2026-03-29T11:59:33Z</time>
      </trkpt>
      <trkpt lat="48.01361" lon="6.59021">
        <ele>416.2</ele>
        <time>2026-03-29T11:59:38Z</time>
      </trkpt>
      <trkpt lat="48.01365" lon="6.59022">
        <ele>415.8</ele>
        <time>2026-03-29T11:59:43Z</time>
      </trkpt>
      <trkpt lat="48.0137" lon="6.59028">
        <ele>415.7</ele>
        <time>2026-03-29T11:59:48Z</time>
      </trkpt>
      <trkpt lat="48.01376" lon="6.59034">
        <ele>415.4</ele>
        <time>2026-03-29T11:59:53Z</time>
      </trkpt>
      <trkpt lat="48.01389" lon="6.59033">
        <ele>413.7</ele>
        <time>2026-03-29T11:59:58Z</time>
      </trkpt>
      <trkpt lat="48.014" lon="6.59036">
        <ele>412.6</ele>
        <time>2026-03-29T12:00:03Z</time>
      </trkpt>
      <trkpt lat="48.01406" lon="6.5904">
        <ele>412.2</ele>
        <time>2026-03-29T12:00:08Z</time>
      </trkpt>
      <trkpt lat="48.01412" lon="6.5905">
        <ele>412.4</ele>
        <time>2026-03-29T12:00:13Z</time>
      </trkpt>
      <trkpt lat="48.01414" lon="6.59067">
        <ele>413.8</ele>
        <time>2026-03-29T12:00:18Z</time>
      </trkpt>
      <trkpt lat="48.01421" lon="6.5907">
        <ele>413.1</ele>
        <time>2026-03-29T12:00:23Z</time>
      </trkpt>
      <trkpt lat="48.01424" lon="6.59067">
        <ele>412.4</ele>
        <time>2026-03-29T12:00:28Z</time>
      </trkpt>
      <trkpt lat="48.01427" lon="6.59063">
        <ele>411.6</ele>
        <time>2026-03-29T12:00:33Z</time>
      </trkpt>
      <trkpt lat="48.01428" lon="6.59063">
        <ele>411.4</ele>
        <time>2026-03-29T12:00:38Z</time>
      </trkpt>
      <trkpt lat="48.01434" lon="6.5906">
        <ele>410.4</ele>
        <time>2026-03-29T12:00:43Z</time>
      </trkpt>
      <trkpt lat="48.01439" lon="6.59063">
        <ele>409.9</ele>
        <time>2026-03-29T12:00:48Z</time>
      </trkpt>
      <trkpt lat="48.01445" lon="6.59063">
        <ele>409</ele>
        <time>2026-03-29T12:00:53Z</time>
      </trkpt>
      <trkpt lat="48.01446" lon="6.59063">
        <ele>408.9</ele>
        <time>2026-03-29T12:00:58Z</time>
      </trkpt>
      <trkpt lat="48.01452" lon="6.59064">
        <ele>408.1</ele>
        <time>2026-03-29T12:01:03Z</time>
      </trkpt>
      <trkpt lat="48.01459" lon="6.59064">
        <ele>407.1</ele>
        <time>2026-03-29T12:01:08Z</time>
      </trkpt>
      <trkpt lat="48.01466" lon="6.59064">
        <ele>406.1</ele>
        <time>2026-03-29T12:01:13Z</time>
      </trkpt>
      <trkpt lat="48.01472" lon="6.59064">
        <ele>405.2</ele>
        <time>2026-03-29T12:01:18Z</time>
      </trkpt>
      <trkpt lat="48.0148" lon="6.59065">
        <ele>404.1</ele>
        <time>2026-03-29T12:01:23Z</time>
      </trkpt>
      <trkpt lat="48.01486" lon="6.59065">
        <ele>403.2</ele>
        <time>2026-03-29T12:01:28Z</time>
      </trkpt>
      <trkpt lat="48.01495" lon="6.59065">
        <ele>401.9</ele>
        <time>2026-03-29T12:01:33Z</time>
      </trkpt>
      <trkpt lat="48.015" lon="6.59065">
        <ele>401.2</ele>
        <time>2026-03-29T12:01:38Z</time>
      </trkpt>
      <trkpt lat="48.01504" lon="6.59066">
        <ele>401.3</ele>
        <time>2026-03-29T12:01:43Z</time>
      </trkpt>
      <trkpt lat="48.01505" lon="6.59067">
        <ele>401.3</ele>
        <time>2026-03-29T12:01:48Z</time>
      </trkpt>
      <trkpt lat="48.01512" lon="6.59068">
        <ele>401.4</ele>
        <time>2026-03-29T12:01:53Z</time>
      </trkpt>
      <trkpt lat="48.01516" lon="6.59071">
        <ele>401.5</ele>
        <time>2026-03-29T12:01:58Z</time>
      </trkpt>
      <trkpt lat="48.01522" lon="6.5907">
        <ele>401.6</ele>
        <time>2026-03-29T12:02:03Z</time>
      </trkpt>
      <trkpt lat="48.01529" lon="6.5907">
        <ele>401.8</ele>
        <time>2026-03-29T12:02:08Z</time>
      </trkpt>
      <trkpt lat="48.01535" lon="6.5907">
        <ele>401.9</ele>
        <time>2026-03-29T12:02:13Z</time>
      </trkpt>
      <trkpt lat="48.01543" lon="6.5907">
        <ele>402.1</ele>
        <time>2026-03-29T12:02:18Z</time>
      </trkpt>
      <trkpt lat="48.0155" lon="6.59067">
        <ele>402.3</ele>
        <time>2026-03-29T12:02:23Z</time>
      </trkpt>
      <trkpt lat="48.01552" lon="6.59058">
        <ele>402.4</ele>
        <time>2026-03-29T12:02:28Z</time>
      </trkpt>
      <trkpt lat="48.01554" lon="6.59049">
        <ele>402.4</ele>
        <time>2026-03-29T12:02:33Z</time>
      </trkpt>
      <trkpt lat="48.01556" lon="6.59039">
        <ele>402.5</ele>
        <time>2026-03-29T12:02:38Z</time>
      </trkpt>
      <trkpt lat="48.01561" lon="6.59029">
        <ele>402.6</ele>
        <time>2026-03-29T12:02:43Z</time>
      </trkpt>
      <trkpt lat="48.01566" lon="6.59027">
        <ele>402.7</ele>
        <time>2026-03-29T12:02:48Z</time>
      </trkpt>
      <trkpt lat="48.01571" lon="6.59029">
        <ele>402.8</ele>
        <time>2026-03-29T12:02:53Z</time>
      </trkpt>
      <trkpt lat="48.01571" lon="6.59029">
        <ele>402.8</ele>
        <time>2026-03-29T12:02:58Z</time>
      </trkpt>
      <trkpt lat="48.01571" lon="6.59029">
        <ele>402.8</ele>
        <time>2026-03-29T12:03:03Z</time>
      </trkpt>
      <trkpt lat="48.01571" lon="6.59029">
        <ele>402.8</ele>
        <time>2026-03-29T12:03:08Z</time>
      </trkpt>
      <trkpt lat="48.01571" lon="6.59029">
        <ele>402.8</ele>
        <time>2026-03-29T12:03:13Z</time>
      </trkpt>
      <trkpt lat="48.01571" lon="6.59029">
        <ele>402.8</ele>
        <time>2026-03-29T12:03:18Z</time>
      </trkpt>
      <trkpt lat="48.01571" lon="6.59029">
        <ele>402.8</ele>
        <time>2026-03-29T12:03:23Z</time>
      </trkpt>
      <trkpt lat="48.01571" lon="6.59029">
        <ele>402.8</ele>
        <time>2026-03-29T12:03:28Z</time>
      </trkpt>
      <trkpt lat="48.01574" lon="6.59016">
        <ele>402.9</ele>
        <time>2026-03-29T12:03:33Z</time>
      </trkpt>
      <trkpt lat="48.01574" lon="6.59016">
        <ele>402.9</ele>
        <time>2026-03-29T12:03:38Z</time>
      </trkpt>
      <trkpt lat="48.01574" lon="6.59016">
        <ele>402.9</ele>
        <time>2026-03-29T12:03:43Z</time>
      </trkpt>
      <trkpt lat="48.01574" lon="6.59016">
        <ele>402.9</ele>
        <time>2026-03-29T12:03:48Z</time>
      </trkpt>
      <trkpt lat="48.01574" lon="6.59016">
        <ele>402.9</ele>
        <time>2026-03-29T12:03:53Z</time>
      </trkpt>
      <trkpt lat="48.01574" lon="6.59016">
        <ele>402.9</ele>
        <time>2026-03-29T12:03:58Z</time>
      </trkpt>
      <trkpt lat="48.01574" lon="6.59016">
        <ele>402.9</ele>
        <time>2026-03-29T12:04:03Z</time>
      </trkpt>
      <trkpt lat="48.01574" lon="6.59016">
        <ele>402.9</ele>
        <time>2026-03-29T12:04:08Z</time>
      </trkpt>
      <trkpt lat="48.01574" lon="6.59016">
        <ele>402.9</ele>
        <time>2026-03-29T12:04:13Z</time>
      </trkpt>
      <trkpt lat="48.01574" lon="6.59016">
        <ele>402.9</ele>
        <time>2026-03-29T12:04:18Z</time>
      </trkpt>
      <trkpt lat="48.01574" lon="6.59016">
        <ele>402.9</ele>
        <time>2026-03-29T12:04:23Z</time>
      </trkpt>
      <trkpt lat="48.01574" lon="6.59016">
        <ele>402.9</ele>
        <time>2026-03-29T12:04:28Z</time>
      </trkpt>
      <trkpt lat="48.01574" lon="6.59016">
        <ele>402.9</ele>
        <time>2026-03-29T12:04:33Z</time>
      </trkpt>
      <trkpt lat="48.01574" lon="6.59016">
        <ele>402.9</ele>
        <time>2026-03-29T12:04:38Z</time>
      </trkpt>
      <trkpt lat="48.01574" lon="6.59016">
        <ele>402.9</ele>
        <time>2026-03-29T12:04:43Z</time>
      </trkpt>
      <trkpt lat="48.01574" lon="6.59016">
        <ele>402.9</ele>
        <time>2026-03-29T12:04:48Z</time>
      </trkpt>
      <trkpt lat="48.01574" lon="6.59016">
        <ele>402.9</ele>
        <time>2026-03-29T12:04:53Z</time>
      </trkpt>
      <trkpt lat="48.01574" lon="6.59016">
        <ele>402.9</ele>
        <time>2026-03-29T12:04:58Z</time>
      </trkpt>
      <trkpt lat="48.01576" lon="6.59011">
        <ele>402.9</ele>
        <time>2026-03-29T12:05:03Z</time>
      </trkpt>
      <trkpt lat="48.01578" lon="6.59009">
        <ele>402.9</ele>
        <time>2026-03-29T12:05:08Z</time>
      </trkpt>
      <trkpt lat="48.01582" lon="6.59005">
        <ele>403</ele>
        <time>2026-03-29T12:05:13Z</time>
      </trkpt>
      <trkpt lat="48.01585" lon="6.59004">
        <ele>403</ele>
        <time>2026-03-29T12:05:18Z</time>
      </trkpt>
      <trkpt lat="48.01585" lon="6.59003">
        <ele>403</ele>
        <time>2026-03-29T12:05:23Z</time>
      </trkpt>
      <trkpt lat="48.01585" lon="6.59003">
        <ele>403</ele>
        <time>2026-03-29T12:05:28Z</time>
      </trkpt>
      <trkpt lat="48.01585" lon="6.59003">
        <ele>403</ele>
        <time>2026-03-29T12:05:33Z</time>
      </trkpt>
      <trkpt lat="48.01585" lon="6.59003">
        <ele>403</ele>
        <time>2026-03-29T12:05:38Z</time>
      </trkpt>
      <trkpt lat="48.01585" lon="6.59003">
        <ele>403</ele>
        <time>2026-03-29T12:05:43Z</time>
      </trkpt>
      <trkpt lat="48.01585" lon="6.59003">
        <ele>403</ele>
        <time>2026-03-29T12:05:48Z</time>
      </trkpt>
      <trkpt lat="48.01585" lon="6.59003">
        <ele>403</ele>
        <time>2026-03-29T12:05:53Z</time>
      </trkpt>
      <trkpt lat="48.0158" lon="6.59008">
        <ele>403</ele>
        <time>2026-03-29T12:05:58Z</time>
      </trkpt>
      <trkpt lat="48.01578" lon="6.59009">
        <ele>402.9</ele>
        <time>2026-03-29T12:06:03Z</time>
      </trkpt>
      <trkpt lat="48.01578" lon="6.59009">
        <ele>402.9</ele>
        <time>2026-03-29T12:06:08Z</time>
      </trkpt>
      <trkpt lat="48.01578" lon="6.59009">
        <ele>402.9</ele>
        <time>2026-03-29T12:06:13Z</time>
      </trkpt>
      <trkpt lat="48.01578" lon="6.59009">
        <ele>402.9</ele>
        <time>2026-03-29T12:06:18Z</time>
      </trkpt>
      <trkpt lat="48.01578" lon="6.59009">
        <ele>402.9</ele>
        <time>2026-03-29T12:06:23Z</time>
      </trkpt>
      <trkpt lat="48.01578" lon="6.59009">
        <ele>402.9</ele>
        <time>2026-03-29T12:06:28Z</time>
      </trkpt>
      <trkpt lat="48.01578" lon="6.59009">
        <ele>402.9</ele>
        <time>2026-03-29T12:06:33Z</time>
      </trkpt>
      <trkpt lat="48.01578" lon="6.59009">
        <ele>402.9</ele>
        <time>2026-03-29T12:06:38Z</time>
      </trkpt>
      <trkpt lat="48.01578" lon="6.59009">
        <ele>402.9</ele>
        <time>2026-03-29T12:06:43Z</time>
      </trkpt>
      <trkpt lat="48.01578" lon="6.59009">
        <ele>402.9</ele>
        <time>2026-03-29T12:06:48Z</time>
      </trkpt>
      <trkpt lat="48.01578" lon="6.59009">
        <ele>402.9</ele>
        <time>2026-03-29T12:06:53Z</time>
      </trkpt>
      <trkpt lat="48.01578" lon="6.59009">
        <ele>402.9</ele>
        <time>2026-03-29T12:06:58Z</time>
      </trkpt>
      <trkpt lat="48.01578" lon="6.59009">
        <ele>402.9</ele>
        <time>2026-03-29T12:07:03Z</time>
      </trkpt>
      <trkpt lat="48.01578" lon="6.59009">
        <ele>402.9</ele>
        <time>2026-03-29T12:07:08Z</time>
      </trkpt>
      <trkpt lat="48.01578" lon="6.59019">
        <ele>402.9</ele>
        <time>2026-03-29T12:07:13Z</time>
      </trkpt>
      <trkpt lat="48.01579" lon="6.59025">
        <ele>402.9</ele>
        <time>2026-03-29T12:07:18Z</time>
      </trkpt>
      <trkpt lat="48.01579" lon="6.59032">
        <ele>402.9</ele>
        <time>2026-03-29T12:07:23Z</time>
      </trkpt>
      <trkpt lat="48.01581" lon="6.59039">
        <ele>403</ele>
        <time>2026-03-29T12:07:28Z</time>
      </trkpt>
      <trkpt lat="48.01583" lon="6.59049">
        <ele>403</ele>
        <time>2026-03-29T12:07:33Z</time>
      </trkpt>
      <trkpt lat="48.01586" lon="6.59057">
        <ele>403</ele>
        <time>2026-03-29T12:07:38Z</time>
      </trkpt>
      <trkpt lat="48.01588" lon="6.59065">
        <ele>402.9</ele>
        <time>2026-03-29T12:07:43Z</time>
      </trkpt>
      <trkpt lat="48.01588" lon="6.59074">
        <ele>402.9</ele>
        <time>2026-03-29T12:07:48Z</time>
      </trkpt>
      <trkpt lat="48.01589" lon="6.59084">
        <ele>402.9</ele>
        <time>2026-03-29T12:07:53Z</time>
      </trkpt>
      <trkpt lat="48.01589" lon="6.59094">
        <ele>402.7</ele>
        <time>2026-03-29T12:07:58Z</time>
      </trkpt>
      <trkpt lat="48.01593" lon="6.591">
        <ele>402.6</ele>
        <time>2026-03-29T12:08:03Z</time>
      </trkpt>
      <trkpt lat="48.01595" lon="6.59107">
        <ele>402.5</ele>
        <time>2026-03-29T12:08:08Z</time>
      </trkpt>
      <trkpt lat="48.01596" lon="6.59117">
        <ele>402.4</ele>
        <time>2026-03-29T12:08:13Z</time>
      </trkpt>
      <trkpt lat="48.01598" lon="6.59122">
        <ele>402.3</ele>
        <time>2026-03-29T12:08:18Z</time>
      </trkpt>
      <trkpt lat="48.01599" lon="6.5913">
        <ele>402.2</ele>
        <time>2026-03-29T12:08:23Z</time>
      </trkpt>
      <trkpt lat="48.01599" lon="6.59131">
        <ele>402.2</ele>
        <time>2026-03-29T12:08:28Z</time>
      </trkpt>
      <trkpt lat="48.01599" lon="6.59131">
        <ele>402.2</ele>
        <time>2026-03-29T12:08:33Z</time>
      </trkpt>
      <trkpt lat="48.01599" lon="6.59131">
        <ele>402.2</ele>
        <time>2026-03-29T12:08:38Z</time>
      </trkpt>
      <trkpt lat="48.01599" lon="6.59131">
        <ele>402.2</ele>
        <time>2026-03-29T12:08:43Z</time>
      </trkpt>
      <trkpt lat="48.01599" lon="6.59131">
        <ele>402.2</ele>
        <time>2026-03-29T12:08:48Z</time>
      </trkpt>
      <trkpt lat="48.01599" lon="6.59131">
        <ele>402.2</ele>
        <time>2026-03-29T12:08:53Z</time>
      </trkpt>
      <trkpt lat="48.01599" lon="6.59131">
        <ele>402.2</ele>
        <time>2026-03-29T12:08:58Z</time>
      </trkpt>
      <trkpt lat="48.01599" lon="6.59131">
        <ele>402.2</ele>
        <time>2026-03-29T12:09:03Z</time>
      </trkpt>
      <trkpt lat="48.01599" lon="6.59131">
        <ele>402.2</ele>
        <time>2026-03-29T12:09:08Z</time>
      </trkpt>
      <trkpt lat="48.01599" lon="6.59131">
        <ele>402.2</ele>
        <time>2026-03-29T12:09:13Z</time>
      </trkpt>
      <trkpt lat="48.01599" lon="6.59131">
        <ele>402.2</ele>
        <time>2026-03-29T12:09:18Z</time>
      </trkpt>
      <trkpt lat="48.01599" lon="6.59131">
        <ele>402.2</ele>
        <time>2026-03-29T12:09:23Z</time>
      </trkpt>
      <trkpt lat="48.01599" lon="6.59131">
        <ele>402.2</ele>
        <time>2026-03-29T12:09:28Z</time>
      </trkpt>
      <trkpt lat="48.016" lon="6.59136">
        <ele>402.1</ele>
        <time>2026-03-29T12:09:33Z</time>
      </trkpt>
      <trkpt lat="48.01599" lon="6.59149">
        <ele>402</ele>
        <time>2026-03-29T12:09:38Z</time>
      </trkpt>
      <trkpt lat="48.01598" lon="6.5916">
        <ele>401.9</ele>
        <time>2026-03-29T12:09:43Z</time>
      </trkpt>
      <trkpt lat="48.01597" lon="6.59167">
        <ele>401.8</ele>
        <time>2026-03-29T12:09:48Z</time>
      </trkpt>
      <trkpt lat="48.01595" lon="6.59175">
        <ele>401.6</ele>
        <time>2026-03-29T12:09:53Z</time>
      </trkpt>
      <trkpt lat="48.01592" lon="6.59184">
        <ele>401.3</ele>
        <time>2026-03-29T12:09:58Z</time>
      </trkpt>
      <trkpt lat="48.01591" lon="6.59192">
        <ele>401.1</ele>
        <time>2026-03-29T12:10:03Z</time>
      </trkpt>
      <trkpt lat="48.01591" lon="6.59202">
        <ele>400.7</ele>
        <time>2026-03-29T12:10:08Z</time>
      </trkpt>
      <trkpt lat="48.01587" lon="6.59209">
        <ele>400.5</ele>
        <time>2026-03-29T12:10:13Z</time>
      </trkpt>
      <trkpt lat="48.0158" lon="6.59211">
        <ele>400.3</ele>
        <time>2026-03-29T12:10:18Z</time>
      </trkpt>
      <trkpt lat="48.01573" lon="6.5921">
        <ele>400.2</ele>
        <time>2026-03-29T12:10:23Z</time>
      </trkpt>
      <trkpt lat="48.01575" lon="6.59208">
        <ele>400.3</ele>
        <time>2026-03-29T12:10:28Z</time>
      </trkpt>
      <trkpt lat="48.01582" lon="6.59206">
        <ele>400.6</ele>
        <time>2026-03-29T12:10:33Z</time>
      </trkpt>
      <trkpt lat="48.01589" lon="6.59208">
        <ele>400.5</ele>
        <time>2026-03-29T12:10:38Z</time>
      </trkpt>
      <trkpt lat="48.01589" lon="6.59205">
        <ele>400.6</ele>
        <time>2026-03-29T12:10:43Z</time>
      </trkpt>
      <trkpt lat="48.01588" lon="6.59203">
        <ele>400.7</ele>
        <time>2026-03-29T12:10:48Z</time>
      </trkpt>
      <trkpt lat="48.01588" lon="6.59204">
        <ele>400.7</ele>
        <time>2026-03-29T12:10:53Z</time>
      </trkpt>
      <trkpt lat="48.01581" lon="6.59212">
        <ele>400.3</ele>
        <time>2026-03-29T12:10:58Z</time>
      </trkpt>
      <trkpt lat="48.01574" lon="6.59216">
        <ele>400</ele>
        <time>2026-03-29T12:11:03Z</time>
      </trkpt>
      <trkpt lat="48.01567" lon="6.59214">
        <ele>399.9</ele>
        <time>2026-03-29T12:11:08Z</time>
      </trkpt>
      <trkpt lat="48.01559" lon="6.5921">
        <ele>399.9</ele>
        <time>2026-03-29T12:11:13Z</time>
      </trkpt>
      <trkpt lat="48.01555" lon="6.59211">
        <ele>399.7</ele>
        <time>2026-03-29T12:11:18Z</time>
      </trkpt>
      <trkpt lat="48.01559" lon="6.59211">
        <ele>399.8</ele>
        <time>2026-03-29T12:11:23Z</time>
      </trkpt>
      <trkpt lat="48.01564" lon="6.59212">
        <ele>399.9</ele>
        <time>2026-03-29T12:11:28Z</time>
      </trkpt>
      <trkpt lat="48.0157" lon="6.59213">
        <ele>400</ele>
        <time>2026-03-29T12:11:33Z</time>
      </trkpt>
      <trkpt lat="48.01573" lon="6.59214">
        <ele>400</ele>
        <time>2026-03-29T12:11:38Z</time>
      </trkpt>
      <trkpt lat="48.01573" lon="6.59214">
        <ele>400</ele>
        <time>2026-03-29T12:11:43Z</time>
      </trkpt>
      <trkpt lat="48.0158" lon="6.59212">
        <ele>400.3</ele>
        <time>2026-03-29T12:11:48Z</time>
      </trkpt>
      <trkpt lat="48.01588" lon="6.59213">
        <ele>400.3</ele>
        <time>2026-03-29T12:11:53Z</time>
      </trkpt>
      <trkpt lat="48.01597" lon="6.59217">
        <ele>400.2</ele>
        <time>2026-03-29T12:11:58Z</time>
      </trkpt>
      <trkpt lat="48.01604" lon="6.5922">
        <ele>400.1</ele>
        <time>2026-03-29T12:12:03Z</time>
      </trkpt>
      <trkpt lat="48.01613" lon="6.59225">
        <ele>400</ele>
        <time>2026-03-29T12:12:08Z</time>
      </trkpt>
      <trkpt lat="48.01625" lon="6.59233">
        <ele>399.9</ele>
        <time>2026-03-29T12:12:13Z</time>
      </trkpt>
      <trkpt lat="48.01635" lon="6.59241">
        <ele>399.8</ele>
        <time>2026-03-29T12:12:18Z</time>
      </trkpt>
      <trkpt lat="48.01642" lon="6.59247">
        <ele>399.8</ele>
        <time>2026-03-29T12:12:23Z</time>
      </trkpt>
      <trkpt lat="48.01647" lon="6.59253">
        <ele>399.6</ele>
        <time>2026-03-29T12:12:28Z</time>
      </trkpt>
      <trkpt lat="48.01648" lon="6.59259">
        <ele>399.3</ele>
        <time>2026-03-29T12:12:33Z</time>
      </trkpt>
      <trkpt lat="48.0165" lon="6.59259">
        <ele>399.4</ele>
        <time>2026-03-29T12:12:38Z</time>
      </trkpt>
      <trkpt lat="48.01651" lon="6.59258">
        <ele>399.4</ele>
        <time>2026-03-29T12:12:43Z</time>
      </trkpt>
      <trkpt lat="48.01651" lon="6.59258">
        <ele>399.4</ele>
        <time>2026-03-29T12:12:48Z</time>
      </trkpt>
      <trkpt lat="48.01651" lon="6.59258">
        <ele>399.4</ele>
        <time>2026-03-29T12:12:53Z</time>
      </trkpt>
      <trkpt lat="48.01651" lon="6.59258">
        <ele>399.4</ele>
        <time>2026-03-29T12:12:58Z</time>
      </trkpt>
      <trkpt lat="48.01651" lon="6.59258">
        <ele>399.4</ele>
        <time>2026-03-29T12:13:03Z</time>
      </trkpt>
      <trkpt lat="48.01651" lon="6.59258">
        <ele>399.4</ele>
        <time>2026-03-29T12:13:08Z</time>
      </trkpt>
      <trkpt lat="48.01651" lon="6.59258">
        <ele>399.4</ele>
        <time>2026-03-29T12:13:13Z</time>
      </trkpt>
      <trkpt lat="48.01648" lon="6.59262">
        <ele>399.2</ele>
        <time>2026-03-29T12:13:18Z</time>
      </trkpt>
      <trkpt lat="48.01642" lon="6.5927">
        <ele>398.7</ele>
        <time>2026-03-29T12:13:23Z</time>
      </trkpt>
      <trkpt lat="48.01638" lon="6.59279">
        <ele>398.3</ele>
        <time>2026-03-29T12:13:28Z</time>
      </trkpt>
      <trkpt lat="48.01634" lon="6.59287">
        <ele>397.8</ele>
        <time>2026-03-29T12:13:33Z</time>
      </trkpt>
      <trkpt lat="48.01631" lon="6.59294">
        <ele>397.5</ele>
        <time>2026-03-29T12:13:38Z</time>
      </trkpt>
      <trkpt lat="48.01628" lon="6.59301">
        <ele>397.1</ele>
        <time>2026-03-29T12:13:43Z</time>
      </trkpt>
      <trkpt lat="48.01625" lon="6.59307">
        <ele>396.8</ele>
        <time>2026-03-29T12:13:48Z</time>
      </trkpt>
      <trkpt lat="48.01623" lon="6.59312">
        <ele>396.5</ele>
        <time>2026-03-29T12:13:53Z</time>
      </trkpt>
      <trkpt lat="48.0162" lon="6.59317">
        <ele>396.2</ele>
        <time>2026-03-29T12:13:58Z</time>
      </trkpt>
      <trkpt lat="48.01617" lon="6.59324">
        <ele>395.9</ele>
        <time>2026-03-29T12:14:03Z</time>
      </trkpt>
      <trkpt lat="48.01613" lon="6.59332">
        <ele>395.4</ele>
        <time>2026-03-29T12:14:08Z</time>
      </trkpt>
      <trkpt lat="48.01607" lon="6.59342">
        <ele>395.2</ele>
        <time>2026-03-29T12:14:13Z</time>
      </trkpt>
      <trkpt lat="48.01603" lon="6.5935">
        <ele>395.1</ele>
        <time>2026-03-29T12:14:18Z</time>
      </trkpt>
      <trkpt lat="48.01597" lon="6.59358">
        <ele>395.1</ele>
        <time>2026-03-29T12:14:23Z</time>
      </trkpt>
      <trkpt lat="48.01593" lon="6.59366">
        <ele>395</ele>
        <time>2026-03-29T12:14:28Z</time>
      </trkpt>
      <trkpt lat="48.01589" lon="6.59373">
        <ele>395</ele>
        <time>2026-03-29T12:14:33Z</time>
      </trkpt>
      <trkpt lat="48.01583" lon="6.59382">
        <ele>395</ele>
        <time>2026-03-29T12:14:38Z</time>
      </trkpt>
      <trkpt lat="48.01579" lon="6.59388">
        <ele>394.9</ele>
        <time>2026-03-29T12:14:43Z</time>
      </trkpt>
      <trkpt lat="48.01577" lon="6.59398">
        <ele>394.9</ele>
        <time>2026-03-29T12:14:48Z</time>
      </trkpt>
      <trkpt lat="48.01574" lon="6.59408">
        <ele>394.8</ele>
        <time>2026-03-29T12:14:53Z</time>
      </trkpt>
      <trkpt lat="48.01569" lon="6.59412">
        <ele>394.7</ele>
        <time>2026-03-29T12:14:58Z</time>
      </trkpt>
      <trkpt lat="48.01562" lon="6.5942">
        <ele>394.5</ele>
        <time>2026-03-29T12:15:03Z</time>
      </trkpt>
      <trkpt lat="48.01557" lon="6.59428">
        <ele>394.3</ele>
        <time>2026-03-29T12:15:08Z</time>
      </trkpt>
      <trkpt lat="48.01554" lon="6.59433">
        <ele>394.2</ele>
        <time>2026-03-29T12:15:13Z</time>
      </trkpt>
      <trkpt lat="48.01559" lon="6.59435">
        <ele>394.3</ele>
        <time>2026-03-29T12:15:18Z</time>
      </trkpt>
      <trkpt lat="48.01567" lon="6.59432">
        <ele>394.5</ele>
        <time>2026-03-29T12:15:23Z</time>
      </trkpt>
      <trkpt lat="48.01573" lon="6.59426">
        <ele>394.7</ele>
        <time>2026-03-29T12:15:28Z</time>
      </trkpt>
      <trkpt lat="48.01578" lon="6.59421">
        <ele>394.8</ele>
        <time>2026-03-29T12:15:33Z</time>
      </trkpt>
      <trkpt lat="48.01582" lon="6.59427">
        <ele>394.8</ele>
        <time>2026-03-29T12:15:38Z</time>
      </trkpt>
      <trkpt lat="48.01588" lon="6.59438">
        <ele>394.7</ele>
        <time>2026-03-29T12:15:43Z</time>
      </trkpt>
      <trkpt lat="48.01592" lon="6.59444">
        <ele>394.7</ele>
        <time>2026-03-29T12:15:48Z</time>
      </trkpt>
      <trkpt lat="48.01597" lon="6.59454">
        <ele>394.6</ele>
        <time>2026-03-29T12:15:53Z</time>
      </trkpt>
      <trkpt lat="48.01603" lon="6.59462">
        <ele>394.6</ele>
        <time>2026-03-29T12:15:58Z</time>
      </trkpt>
      <trkpt lat="48.01608" lon="6.5947">
        <ele>394.6</ele>
        <time>2026-03-29T12:16:03Z</time>
      </trkpt>
      <trkpt lat="48.01611" lon="6.59476">
        <ele>394.7</ele>
        <time>2026-03-29T12:16:08Z</time>
      </trkpt>
      <trkpt lat="48.01616" lon="6.59483">
        <ele>394.7</ele>
        <time>2026-03-29T12:16:13Z</time>
      </trkpt>
      <trkpt lat="48.01621" lon="6.59492">
        <ele>394.9</ele>
        <time>2026-03-29T12:16:18Z</time>
      </trkpt>
      <trkpt lat="48.01625" lon="6.595">
        <ele>395</ele>
        <time>2026-03-29T12:16:23Z</time>
      </trkpt>
      <trkpt lat="48.01629" lon="6.59507">
        <ele>394.9</ele>
        <time>2026-03-29T12:16:28Z</time>
      </trkpt>
      <trkpt lat="48.01636" lon="6.59518">
        <ele>394.8</ele>
        <time>2026-03-29T12:16:33Z</time>
      </trkpt>
      <trkpt lat="48.01639" lon="6.59525">
        <ele>394.7</ele>
        <time>2026-03-29T12:16:38Z</time>
      </trkpt>
      <trkpt lat="48.01644" lon="6.59534">
        <ele>394.6</ele>
        <time>2026-03-29T12:16:43Z</time>
      </trkpt>
      <trkpt lat="48.01648" lon="6.59541">
        <ele>394.6</ele>
        <time>2026-03-29T12:16:48Z</time>
      </trkpt>
      <trkpt lat="48.01653" lon="6.59549">
        <ele>394.5</ele>
        <time>2026-03-29T12:16:53Z</time>
      </trkpt>
      <trkpt lat="48.01656" lon="6.59554">
        <ele>394.4</ele>
        <time>2026-03-29T12:16:58Z</time>
      </trkpt>
      <trkpt lat="48.01661" lon="6.59564">
        <ele>394.3</ele>
        <time>2026-03-29T12:17:03Z</time>
      </trkpt>
      <trkpt lat="48.01668" lon="6.59576">
        <ele>394.2</ele>
        <time>2026-03-29T12:17:08Z</time>
      </trkpt>
      <trkpt lat="48.01672" lon="6.59581">
        <ele>394</ele>
        <time>2026-03-29T12:17:13Z</time>
      </trkpt>
      <trkpt lat="48.01673" lon="6.59589">
        <ele>393.8</ele>
        <time>2026-03-29T12:17:18Z</time>
      </trkpt>
      <trkpt lat="48.01671" lon="6.59595">
        <ele>393.7</ele>
        <time>2026-03-29T12:17:23Z</time>
      </trkpt>
      <trkpt lat="48.01668" lon="6.59601">
        <ele>393.6</ele>
        <time>2026-03-29T12:17:28Z</time>
      </trkpt>
      <trkpt lat="48.01665" lon="6.5961">
        <ele>393.3</ele>
        <time>2026-03-29T12:17:33Z</time>
      </trkpt>
      <trkpt lat="48.01667" lon="6.59613">
        <ele>393.3</ele>
        <time>2026-03-29T12:17:38Z</time>
      </trkpt>
      <trkpt lat="48.01678" lon="6.59623">
        <ele>392.8</ele>
        <time>2026-03-29T12:17:43Z</time>
      </trkpt>
      <trkpt lat="48.01686" lon="6.59628">
        <ele>392.6</ele>
        <time>2026-03-29T12:17:48Z</time>
      </trkpt>
      <trkpt lat="48.01689" lon="6.59627">
        <ele>392.5</ele>
        <time>2026-03-29T12:17:53Z</time>
      </trkpt>
      <trkpt lat="48.01696" lon="6.59624">
        <ele>392.5</ele>
        <time>2026-03-29T12:17:58Z</time>
      </trkpt>
      <trkpt lat="48.01704" lon="6.59627">
        <ele>392.3</ele>
        <time>2026-03-29T12:18:03Z</time>
      </trkpt>
      <trkpt lat="48.0171" lon="6.59634">
        <ele>391.9</ele>
        <time>2026-03-29T12:18:08Z</time>
      </trkpt>
      <trkpt lat="48.01715" lon="6.59641">
        <ele>391.6</ele>
        <time>2026-03-29T12:18:13Z</time>
      </trkpt>
      <trkpt lat="48.01721" lon="6.59651">
        <ele>391.2</ele>
        <time>2026-03-29T12:18:18Z</time>
      </trkpt>
      <trkpt lat="48.01722" lon="6.5966">
        <ele>390.9</ele>
        <time>2026-03-29T12:18:23Z</time>
      </trkpt>
      <trkpt lat="48.01726" lon="6.59668">
        <ele>390.6</ele>
        <time>2026-03-29T12:18:28Z</time>
      </trkpt>
      <trkpt lat="48.01731" lon="6.59679">
        <ele>390.5</ele>
        <time>2026-03-29T12:18:33Z</time>
      </trkpt>
      <trkpt lat="48.01736" lon="6.5969">
        <ele>390.3</ele>
        <time>2026-03-29T12:18:38Z</time>
      </trkpt>
      <trkpt lat="48.01739" lon="6.59696">
        <ele>390.3</ele>
        <time>2026-03-29T12:18:43Z</time>
      </trkpt>
      <trkpt lat="48.01744" lon="6.59707">
        <ele>390.1</ele>
        <time>2026-03-29T12:18:48Z</time>
      </trkpt>
      <trkpt lat="48.01748" lon="6.59715">
        <ele>390</ele>
        <time>2026-03-29T12:18:53Z</time>
      </trkpt>
      <trkpt lat="48.01752" lon="6.59723">
        <ele>390</ele>
        <time>2026-03-29T12:18:58Z</time>
      </trkpt>
      <trkpt lat="48.01757" lon="6.59733">
        <ele>389.8</ele>
        <time>2026-03-29T12:19:03Z</time>
      </trkpt>
      <trkpt lat="48.01761" lon="6.5974">
        <ele>389.7</ele>
        <time>2026-03-29T12:19:08Z</time>
      </trkpt>
      <trkpt lat="48.01764" lon="6.59746">
        <ele>389.7</ele>
        <time>2026-03-29T12:19:13Z</time>
      </trkpt>
      <trkpt lat="48.0177" lon="6.59756">
        <ele>389.4</ele>
        <time>2026-03-29T12:19:18Z</time>
      </trkpt>
      <trkpt lat="48.01772" lon="6.59759">
        <ele>389.4</ele>
        <time>2026-03-29T12:19:23Z</time>
      </trkpt>
      <trkpt lat="48.01778" lon="6.59768">
        <ele>389.1</ele>
        <time>2026-03-29T12:19:28Z</time>
      </trkpt>
      <trkpt lat="48.01784" lon="6.59777">
        <ele>388.9</ele>
        <time>2026-03-29T12:19:33Z</time>
      </trkpt>
      <trkpt lat="48.01788" lon="6.59783">
        <ele>388.7</ele>
        <time>2026-03-29T12:19:38Z</time>
      </trkpt>
      <trkpt lat="48.01792" lon="6.59789">
        <ele>388.5</ele>
        <time>2026-03-29T12:19:43Z</time>
      </trkpt>
      <trkpt lat="48.01799" lon="6.59798">
        <ele>388.2</ele>
        <time>2026-03-29T12:19:48Z</time>
      </trkpt>
      <trkpt lat="48.01803" lon="6.59805">
        <ele>388.1</ele>
        <time>2026-03-29T12:19:53Z</time>
      </trkpt>
      <trkpt lat="48.01809" lon="6.59814">
        <ele>387.8</ele>
        <time>2026-03-29T12:19:58Z</time>
      </trkpt>
      <trkpt lat="48.01813" lon="6.5982">
        <ele>387.6</ele>
        <time>2026-03-29T12:20:03Z</time>
      </trkpt>
      <trkpt lat="48.01819" lon="6.59829">
        <ele>387.4</ele>
        <time>2026-03-29T12:20:08Z</time>
      </trkpt>
      <trkpt lat="48.01823" lon="6.59835">
        <ele>387.2</ele>
        <time>2026-03-29T12:20:13Z</time>
      </trkpt>
      <trkpt lat="48.01828" lon="6.59843">
        <ele>387</ele>
        <time>2026-03-29T12:20:18Z</time>
      </trkpt>
      <trkpt lat="48.01833" lon="6.59851">
        <ele>386.8</ele>
        <time>2026-03-29T12:20:23Z</time>
      </trkpt>
      <trkpt lat="48.01838" lon="6.59858">
        <ele>386.7</ele>
        <time>2026-03-29T12:20:28Z</time>
      </trkpt>
      <trkpt lat="48.01842" lon="6.59866">
        <ele>386.5</ele>
        <time>2026-03-29T12:20:33Z</time>
      </trkpt>
      <trkpt lat="48.01846" lon="6.59873">
        <ele>386.3</ele>
        <time>2026-03-29T12:20:38Z</time>
      </trkpt>
      <trkpt lat="48.01851" lon="6.59883">
        <ele>386</ele>
        <time>2026-03-29T12:20:43Z</time>
      </trkpt>
      <trkpt lat="48.01855" lon="6.59892">
        <ele>385.7</ele>
        <time>2026-03-29T12:20:48Z</time>
      </trkpt>
      <trkpt lat="48.0186" lon="6.59897">
        <ele>385.5</ele>
        <time>2026-03-29T12:20:53Z</time>
      </trkpt>
      <trkpt lat="48.01861" lon="6.59899">
        <ele>385.4</ele>
        <time>2026-03-29T12:20:58Z</time>
      </trkpt>
      <trkpt lat="48.01863" lon="6.599">
        <ele>385.3</ele>
        <time>2026-03-29T12:21:03Z</time>
      </trkpt>
      <trkpt lat="48.01864" lon="6.59903">
        <ele>385.2</ele>
        <time>2026-03-29T12:21:08Z</time>
      </trkpt>
      <trkpt lat="48.01864" lon="6.59905">
        <ele>385.2</ele>
        <time>2026-03-29T12:21:13Z</time>
      </trkpt>
      <trkpt lat="48.01865" lon="6.59908">
        <ele>385.1</ele>
        <time>2026-03-29T12:21:18Z</time>
      </trkpt>
      <trkpt lat="48.01865" lon="6.59909">
        <ele>385.1</ele>
        <time>2026-03-29T12:21:23Z</time>
      </trkpt>
      <trkpt lat="48.01865" lon="6.59909">
        <ele>385.1</ele>
        <time>2026-03-29T12:21:28Z</time>
      </trkpt>
      <trkpt lat="48.01869" lon="6.59903">
        <ele>385.1</ele>
        <time>2026-03-29T12:21:33Z</time>
      </trkpt>
      <trkpt lat="48.01874" lon="6.599">
        <ele>385</ele>
        <time>2026-03-29T12:21:38Z</time>
      </trkpt>
      <trkpt lat="48.01877" lon="6.59896">
        <ele>385.1</ele>
        <time>2026-03-29T12:21:43Z</time>
      </trkpt>
      <trkpt lat="48.01875" lon="6.59897">
        <ele>385.1</ele>
        <time>2026-03-29T12:21:48Z</time>
      </trkpt>
      <trkpt lat="48.01874" lon="6.59897">
        <ele>385.1</ele>
        <time>2026-03-29T12:21:53Z</time>
      </trkpt>
      <trkpt lat="48.01874" lon="6.59897">
        <ele>385.1</ele>
        <time>2026-03-29T12:21:58Z</time>
      </trkpt>
      <trkpt lat="48.01874" lon="6.59897">
        <ele>385.1</ele>
        <time>2026-03-29T12:22:03Z</time>
      </trkpt>
      <trkpt lat="48.01878" lon="6.59907">
        <ele>384.7</ele>
        <time>2026-03-29T12:22:08Z</time>
      </trkpt>
      <trkpt lat="48.01884" lon="6.59915">
        <ele>384.2</ele>
        <time>2026-03-29T12:22:13Z</time>
      </trkpt>
      <trkpt lat="48.0189" lon="6.59923">
        <ele>384</ele>
        <time>2026-03-29T12:22:18Z</time>
      </trkpt>
      <trkpt lat="48.01894" lon="6.59929">
        <ele>383.9</ele>
        <time>2026-03-29T12:22:23Z</time>
      </trkpt>
      <trkpt lat="48.01899" lon="6.59937">
        <ele>383.8</ele>
        <time>2026-03-29T12:22:28Z</time>
      </trkpt>
      <trkpt lat="48.01905" lon="6.59946">
        <ele>383.7</ele>
        <time>2026-03-29T12:22:33Z</time>
      </trkpt>
      <trkpt lat="48.01909" lon="6.59951">
        <ele>383.6</ele>
        <time>2026-03-29T12:22:38Z</time>
      </trkpt>
      <trkpt lat="48.01909" lon="6.59951">
        <ele>383.6</ele>
        <time>2026-03-29T12:22:43Z</time>
      </trkpt>
      <trkpt lat="48.01909" lon="6.59951">
        <ele>383.6</ele>
        <time>2026-03-29T12:22:48Z</time>
      </trkpt>
      <trkpt lat="48.01909" lon="6.59951">
        <ele>383.6</ele>
        <time>2026-03-29T12:22:53Z</time>
      </trkpt>
      <trkpt lat="48.01909" lon="6.59951">
        <ele>383.6</ele>
        <time>2026-03-29T12:22:58Z</time>
      </trkpt>
      <trkpt lat="48.01909" lon="6.59951">
        <ele>383.6</ele>
        <time>2026-03-29T12:23:03Z</time>
      </trkpt>
      <trkpt lat="48.01909" lon="6.59951">
        <ele>383.6</ele>
        <time>2026-03-29T12:23:08Z</time>
      </trkpt>
      <trkpt lat="48.01909" lon="6.59951">
        <ele>383.6</ele>
        <time>2026-03-29T12:23:13Z</time>
      </trkpt>
      <trkpt lat="48.01909" lon="6.59951">
        <ele>383.6</ele>
        <time>2026-03-29T12:23:18Z</time>
      </trkpt>
      <trkpt lat="48.01909" lon="6.59951">
        <ele>383.6</ele>
        <time>2026-03-29T12:23:23Z</time>
      </trkpt>
      <trkpt lat="48.01909" lon="6.59951">
        <ele>383.6</ele>
        <time>2026-03-29T12:23:28Z</time>
      </trkpt>
      <trkpt lat="48.01909" lon="6.59951">
        <ele>383.6</ele>
        <time>2026-03-29T12:23:33Z</time>
      </trkpt>
      <trkpt lat="48.01914" lon="6.59953">
        <ele>383.5</ele>
        <time>2026-03-29T12:23:38Z</time>
      </trkpt>
      <trkpt lat="48.0192" lon="6.5996">
        <ele>383.5</ele>
        <time>2026-03-29T12:23:43Z</time>
      </trkpt>
      <trkpt lat="48.01925" lon="6.59968">
        <ele>383.5</ele>
        <time>2026-03-29T12:23:48Z</time>
      </trkpt>
      <trkpt lat="48.01929" lon="6.59974">
        <ele>383.5</ele>
        <time>2026-03-29T12:23:53Z</time>
      </trkpt>
      <trkpt lat="48.01933" lon="6.5998">
        <ele>383.5</ele>
        <time>2026-03-29T12:23:58Z</time>
      </trkpt>
      <trkpt lat="48.01937" lon="6.59986">
        <ele>383.5</ele>
        <time>2026-03-29T12:24:03Z</time>
      </trkpt>
      <trkpt lat="48.01941" lon="6.59992">
        <ele>383.6</ele>
        <time>2026-03-29T12:24:08Z</time>
      </trkpt>
      <trkpt lat="48.01946" lon="6.59999">
        <ele>383.6</ele>
        <time>2026-03-29T12:24:13Z</time>
      </trkpt>
      <trkpt lat="48.01949" lon="6.60004">
        <ele>383.6</ele>
        <time>2026-03-29T12:24:18Z</time>
      </trkpt>
      <trkpt lat="48.01952" lon="6.60008">
        <ele>383.5</ele>
        <time>2026-03-29T12:24:23Z</time>
      </trkpt>
      <trkpt lat="48.01956" lon="6.60014">
        <ele>383.4</ele>
        <time>2026-03-29T12:24:28Z</time>
      </trkpt>
      <trkpt lat="48.01961" lon="6.60022">
        <ele>383.4</ele>
        <time>2026-03-29T12:24:33Z</time>
      </trkpt>
      <trkpt lat="48.01966" lon="6.60028">
        <ele>383.3</ele>
        <time>2026-03-29T12:24:38Z</time>
      </trkpt>
      <trkpt lat="48.01971" lon="6.60035">
        <ele>383.3</ele>
        <time>2026-03-29T12:24:43Z</time>
      </trkpt>
      <trkpt lat="48.01976" lon="6.60042">
        <ele>383.4</ele>
        <time>2026-03-29T12:24:48Z</time>
      </trkpt>
      <trkpt lat="48.0198" lon="6.60048">
        <ele>383.4</ele>
        <time>2026-03-29T12:24:53Z</time>
      </trkpt>
      <trkpt lat="48.01984" lon="6.60055">
        <ele>383.5</ele>
        <time>2026-03-29T12:24:58Z</time>
      </trkpt>
      <trkpt lat="48.0199" lon="6.60062">
        <ele>383.6</ele>
        <time>2026-03-29T12:25:03Z</time>
      </trkpt>
      <trkpt lat="48.01994" lon="6.60069">
        <ele>383.7</ele>
        <time>2026-03-29T12:25:08Z</time>
      </trkpt>
      <trkpt lat="48.02" lon="6.60078">
        <ele>383.9</ele>
        <time>2026-03-29T12:25:13Z</time>
      </trkpt>
      <trkpt lat="48.02007" lon="6.60087">
        <ele>383.9</ele>
        <time>2026-03-29T12:25:18Z</time>
      </trkpt>
      <trkpt lat="48.02012" lon="6.60094">
        <ele>383.6</ele>
        <time>2026-03-29T12:25:23Z</time>
      </trkpt>
      <trkpt lat="48.02017" lon="6.60101">
        <ele>383.4</ele>
        <time>2026-03-29T12:25:28Z</time>
      </trkpt>
      <trkpt lat="48.02021" lon="6.60108">
        <ele>383.1</ele>
        <time>2026-03-29T12:25:33Z</time>
      </trkpt>
      <trkpt lat="48.02026" lon="6.60115">
        <ele>382.9</ele>
        <time>2026-03-29T12:25:38Z</time>
      </trkpt>
      <trkpt lat="48.02032" lon="6.60124">
        <ele>382.5</ele>
        <time>2026-03-29T12:25:43Z</time>
      </trkpt>
      <trkpt lat="48.02035" lon="6.60129">
        <ele>382.4</ele>
        <time>2026-03-29T12:25:48Z</time>
      </trkpt>
      <trkpt lat="48.02041" lon="6.60138">
        <ele>382</ele>
        <time>2026-03-29T12:25:53Z</time>
      </trkpt>
      <trkpt lat="48.02046" lon="6.60145">
        <ele>381.8</ele>
        <time>2026-03-29T12:25:58Z</time>
      </trkpt>
      <trkpt lat="48.02051" lon="6.60152">
        <ele>381.5</ele>
        <time>2026-03-29T12:26:03Z</time>
      </trkpt>
      <trkpt lat="48.02056" lon="6.6016">
        <ele>381.2</ele>
        <time>2026-03-29T12:26:08Z</time>
      </trkpt>
      <trkpt lat="48.02063" lon="6.6017">
        <ele>381</ele>
        <time>2026-03-29T12:26:13Z</time>
      </trkpt>
      <trkpt lat="48.02068" lon="6.60176">
        <ele>381.1</ele>
        <time>2026-03-29T12:26:18Z</time>
      </trkpt>
      <trkpt lat="48.02072" lon="6.60182">
        <ele>381.1</ele>
        <time>2026-03-29T12:26:23Z</time>
      </trkpt>
      <trkpt lat="48.02076" lon="6.60187">
        <ele>381.2</ele>
        <time>2026-03-29T12:26:28Z</time>
      </trkpt>
      <trkpt lat="48.02081" lon="6.60193">
        <ele>381.3</ele>
        <time>2026-03-29T12:26:33Z</time>
      </trkpt>
      <trkpt lat="48.02086" lon="6.60196">
        <ele>381.4</ele>
        <time>2026-03-29T12:26:38Z</time>
      </trkpt>
      <trkpt lat="48.02095" lon="6.60197">
        <ele>381.5</ele>
        <time>2026-03-29T12:26:43Z</time>
      </trkpt>
      <trkpt lat="48.02102" lon="6.60199">
        <ele>381.5</ele>
        <time>2026-03-29T12:26:48Z</time>
      </trkpt>
      <trkpt lat="48.02108" lon="6.60205">
        <ele>381.6</ele>
        <time>2026-03-29T12:26:53Z</time>
      </trkpt>
      <trkpt lat="48.02112" lon="6.60211">
        <ele>381.7</ele>
        <time>2026-03-29T12:26:58Z</time>
      </trkpt>
      <trkpt lat="48.0211" lon="6.60225">
        <ele>381.8</ele>
        <time>2026-03-29T12:27:03Z</time>
      </trkpt>
      <trkpt lat="48.0211" lon="6.60237">
        <ele>381.9</ele>
        <time>2026-03-29T12:27:08Z</time>
      </trkpt>
      <trkpt lat="48.02112" lon="6.60247">
        <ele>382</ele>
        <time>2026-03-29T12:27:13Z</time>
      </trkpt>
      <trkpt lat="48.02116" lon="6.6026">
        <ele>382</ele>
        <time>2026-03-29T12:27:18Z</time>
      </trkpt>
      <trkpt lat="48.02121" lon="6.60265">
        <ele>382</ele>
        <time>2026-03-29T12:27:23Z</time>
      </trkpt>
      <trkpt lat="48.02128" lon="6.60271">
        <ele>382</ele>
        <time>2026-03-29T12:27:28Z</time>
      </trkpt>
      <trkpt lat="48.02133" lon="6.60278">
        <ele>382</ele>
        <time>2026-03-29T12:27:33Z</time>
      </trkpt>
      <trkpt lat="48.0214" lon="6.60284">
        <ele>382</ele>
        <time>2026-03-29T12:27:38Z</time>
      </trkpt>
      <trkpt lat="48.02146" lon="6.6029">
        <ele>382</ele>
        <time>2026-03-29T12:27:43Z</time>
      </trkpt>
      <trkpt lat="48.02151" lon="6.60295">
        <ele>382</ele>
        <time>2026-03-29T12:27:48Z</time>
      </trkpt>
      <trkpt lat="48.02153" lon="6.60302">
        <ele>382</ele>
        <time>2026-03-29T12:27:53Z</time>
      </trkpt>
      <trkpt lat="48.02155" lon="6.60313">
        <ele>382</ele>
        <time>2026-03-29T12:27:58Z</time>
      </trkpt>
      <trkpt lat="48.02155" lon="6.60324">
        <ele>382</ele>
        <time>2026-03-29T12:28:03Z</time>
      </trkpt>
      <trkpt lat="48.02156" lon="6.60336">
        <ele>382.1</ele>
        <time>2026-03-29T12:28:08Z</time>
      </trkpt>
      <trkpt lat="48.02158" lon="6.60344">
        <ele>382.4</ele>
        <time>2026-03-29T12:28:13Z</time>
      </trkpt>
      <trkpt lat="48.02158" lon="6.60353">
        <ele>382.7</ele>
        <time>2026-03-29T12:28:18Z</time>
      </trkpt>
      <trkpt lat="48.0216" lon="6.60361">
        <ele>382.9</ele>
        <time>2026-03-29T12:28:23Z</time>
      </trkpt>
      <trkpt lat="48.0216" lon="6.6037">
        <ele>383.2</ele>
        <time>2026-03-29T12:28:28Z</time>
      </trkpt>
      <trkpt lat="48.02156" lon="6.60375">
        <ele>383.4</ele>
        <time>2026-03-29T12:28:33Z</time>
      </trkpt>
      <trkpt lat="48.02153" lon="6.60384">
        <ele>383.6</ele>
        <time>2026-03-29T12:28:38Z</time>
      </trkpt>
      <trkpt lat="48.02154" lon="6.60393">
        <ele>383.9</ele>
        <time>2026-03-29T12:28:43Z</time>
      </trkpt>
      <trkpt lat="48.02154" lon="6.604">
        <ele>384.2</ele>
        <time>2026-03-29T12:28:48Z</time>
      </trkpt>
      <trkpt lat="48.02153" lon="6.60409">
        <ele>384.4</ele>
        <time>2026-03-29T12:28:53Z</time>
      </trkpt>
      <trkpt lat="48.02151" lon="6.6042">
        <ele>384.7</ele>
        <time>2026-03-29T12:28:58Z</time>
      </trkpt>
      <trkpt lat="48.02147" lon="6.60429">
        <ele>384.8</ele>
        <time>2026-03-29T12:29:03Z</time>
      </trkpt>
      <trkpt lat="48.02145" lon="6.6044">
        <ele>385</ele>
        <time>2026-03-29T12:29:08Z</time>
      </trkpt>
      <trkpt lat="48.02145" lon="6.60451">
        <ele>385.2</ele>
        <time>2026-03-29T12:29:13Z</time>
      </trkpt>
      <trkpt lat="48.02145" lon="6.60462">
        <ele>385.4</ele>
        <time>2026-03-29T12:29:18Z</time>
      </trkpt>
      <trkpt lat="48.02144" lon="6.60472">
        <ele>385.5</ele>
        <time>2026-03-29T12:29:23Z</time>
      </trkpt>
      <trkpt lat="48.02143" lon="6.60481">
        <ele>385.7</ele>
        <time>2026-03-29T12:29:28Z</time>
      </trkpt>
      <trkpt lat="48.02143" lon="6.6049">
        <ele>385.8</ele>
        <time>2026-03-29T12:29:33Z</time>
      </trkpt>
      <trkpt lat="48.02142" lon="6.60501">
        <ele>385.9</ele>
        <time>2026-03-29T12:29:38Z</time>
      </trkpt>
      <trkpt lat="48.02141" lon="6.6051">
        <ele>386</ele>
        <time>2026-03-29T12:29:43Z</time>
      </trkpt>
      <trkpt lat="48.0214" lon="6.6052">
        <ele>386.1</ele>
        <time>2026-03-29T12:29:48Z</time>
      </trkpt>
      <trkpt lat="48.02139" lon="6.6053">
        <ele>386.2</ele>
        <time>2026-03-29T12:29:53Z</time>
      </trkpt>
      <trkpt lat="48.02139" lon="6.60539">
        <ele>386.3</ele>
        <time>2026-03-29T12:29:58Z</time>
      </trkpt>
      <trkpt lat="48.0214" lon="6.60547">
        <ele>386.5</ele>
        <time>2026-03-29T12:30:03Z</time>
      </trkpt>
      <trkpt lat="48.0214" lon="6.60559">
        <ele>386.7</ele>
        <time>2026-03-29T12:30:08Z</time>
      </trkpt>
      <trkpt lat="48.0214" lon="6.60569">
        <ele>386.9</ele>
        <time>2026-03-29T12:30:13Z</time>
      </trkpt>
      <trkpt lat="48.02139" lon="6.6058">
        <ele>387</ele>
        <time>2026-03-29T12:30:18Z</time>
      </trkpt>
      <trkpt lat="48.02137" lon="6.6059">
        <ele>387</ele>
        <time>2026-03-29T12:30:23Z</time>
      </trkpt>
      <trkpt lat="48.02137" lon="6.60602">
        <ele>387.2</ele>
        <time>2026-03-29T12:30:28Z</time>
      </trkpt>
      <trkpt lat="48.02137" lon="6.60615">
        <ele>387.5</ele>
        <time>2026-03-29T12:30:33Z</time>
      </trkpt>
      <trkpt lat="48.02137" lon="6.60624">
        <ele>387.7</ele>
        <time>2026-03-29T12:30:38Z</time>
      </trkpt>
      <trkpt lat="48.02138" lon="6.6063">
        <ele>387.9</ele>
        <time>2026-03-29T12:30:43Z</time>
      </trkpt>
      <trkpt lat="48.02146" lon="6.60635">
        <ele>388.4</ele>
        <time>2026-03-29T12:30:48Z</time>
      </trkpt>
      <trkpt lat="48.02153" lon="6.60634">
        <ele>388.8</ele>
        <time>2026-03-29T12:30:53Z</time>
      </trkpt>
      <trkpt lat="48.02158" lon="6.60633">
        <ele>389.1</ele>
        <time>2026-03-29T12:30:58Z</time>
      </trkpt>
      <trkpt lat="48.02164" lon="6.60627">
        <ele>389.4</ele>
        <time>2026-03-29T12:31:03Z</time>
      </trkpt>
      <trkpt lat="48.02169" lon="6.60618">
        <ele>389.6</ele>
        <time>2026-03-29T12:31:08Z</time>
      </trkpt>
      <trkpt lat="48.02172" lon="6.60609">
        <ele>389.7</ele>
        <time>2026-03-29T12:31:13Z</time>
      </trkpt>
      <trkpt lat="48.02173" lon="6.60599">
        <ele>389.7</ele>
        <time>2026-03-29T12:31:18Z</time>
      </trkpt>
      <trkpt lat="48.02173" lon="6.6059">
        <ele>389.6</ele>
        <time>2026-03-29T12:31:23Z</time>
      </trkpt>
      <trkpt lat="48.02172" lon="6.60581">
        <ele>389.4</ele>
        <time>2026-03-29T12:31:28Z</time>
      </trkpt>
      <trkpt lat="48.02171" lon="6.60572">
        <ele>389.2</ele>
        <time>2026-03-29T12:31:33Z</time>
      </trkpt>
      <trkpt lat="48.02172" lon="6.60562">
        <ele>389.2</ele>
        <time>2026-03-29T12:31:38Z</time>
      </trkpt>
      <trkpt lat="48.02171" lon="6.60553">
        <ele>389</ele>
        <time>2026-03-29T12:31:43Z</time>
      </trkpt>
      <trkpt lat="48.02168" lon="6.60544">
        <ele>388.7</ele>
        <time>2026-03-29T12:31:48Z</time>
      </trkpt>
      <trkpt lat="48.02171" lon="6.60533">
        <ele>388.8</ele>
        <time>2026-03-29T12:31:53Z</time>
      </trkpt>
      <trkpt lat="48.02173" lon="6.60523">
        <ele>388.9</ele>
        <time>2026-03-29T12:31:58Z</time>
      </trkpt>
      <trkpt lat="48.02175" lon="6.60513">
        <ele>389</ele>
        <time>2026-03-29T12:32:03Z</time>
      </trkpt>
      <trkpt lat="48.02176" lon="6.60503">
        <ele>389</ele>
        <time>2026-03-29T12:32:08Z</time>
      </trkpt>
      <trkpt lat="48.02178" lon="6.60495">
        <ele>389.1</ele>
        <time>2026-03-29T12:32:13Z</time>
      </trkpt>
      <trkpt lat="48.0218" lon="6.60485">
        <ele>388.9</ele>
        <time>2026-03-29T12:32:18Z</time>
      </trkpt>
      <trkpt lat="48.02182" lon="6.60476">
        <ele>388.8</ele>
        <time>2026-03-29T12:32:23Z</time>
      </trkpt>
      <trkpt lat="48.02184" lon="6.60468">
        <ele>388.8</ele>
        <time>2026-03-29T12:32:28Z</time>
      </trkpt>
      <trkpt lat="48.02187" lon="6.6046">
        <ele>388.9</ele>
        <time>2026-03-29T12:32:33Z</time>
      </trkpt>
      <trkpt lat="48.02189" lon="6.60453">
        <ele>388.9</ele>
        <time>2026-03-29T12:32:38Z</time>
      </trkpt>
      <trkpt lat="48.02192" lon="6.60442">
        <ele>388.9</ele>
        <time>2026-03-29T12:32:43Z</time>
      </trkpt>
      <trkpt lat="48.02195" lon="6.60433">
        <ele>388.9</ele>
        <time>2026-03-29T12:32:48Z</time>
      </trkpt>
      <trkpt lat="48.02198" lon="6.60424">
        <ele>389</ele>
        <time>2026-03-29T12:32:53Z</time>
      </trkpt>
      <trkpt lat="48.02201" lon="6.60416">
        <ele>389.1</ele>
        <time>2026-03-29T12:32:58Z</time>
      </trkpt>
      <trkpt lat="48.02204" lon="6.60408">
        <ele>389.1</ele>
        <time>2026-03-29T12:33:03Z</time>
      </trkpt>
      <trkpt lat="48.02208" lon="6.604">
        <ele>389.2</ele>
        <time>2026-03-29T12:33:08Z</time>
      </trkpt>
      <trkpt lat="48.02211" lon="6.6039">
        <ele>389</ele>
        <time>2026-03-29T12:33:13Z</time>
      </trkpt>
      <trkpt lat="48.02214" lon="6.60383">
        <ele>389</ele>
        <time>2026-03-29T12:33:18Z</time>
      </trkpt>
      <trkpt lat="48.02214" lon="6.60387">
        <ele>389.2</ele>
        <time>2026-03-29T12:33:23Z</time>
      </trkpt>
      <trkpt lat="48.02214" lon="6.60397">
        <ele>389.7</ele>
        <time>2026-03-29T12:33:28Z</time>
      </trkpt>
      <trkpt lat="48.02212" lon="6.60405">
        <ele>389.9</ele>
        <time>2026-03-29T12:33:33Z</time>
      </trkpt>
      <trkpt lat="48.0221" lon="6.60413">
        <ele>390</ele>
        <time>2026-03-29T12:33:38Z</time>
      </trkpt>
      <trkpt lat="48.02208" lon="6.60423">
        <ele>390.2</ele>
        <time>2026-03-29T12:33:43Z</time>
      </trkpt>
      <trkpt lat="48.0221" lon="6.60431">
        <ele>390.6</ele>
        <time>2026-03-29T12:33:48Z</time>
      </trkpt>
      <trkpt lat="48.02215" lon="6.60439">
        <ele>391.4</ele>
        <time>2026-03-29T12:33:53Z</time>
      </trkpt>
      <trkpt lat="48.02219" lon="6.60447">
        <ele>392.1</ele>
        <time>2026-03-29T12:33:58Z</time>
      </trkpt>
      <trkpt lat="48.02225" lon="6.60453">
        <ele>393</ele>
        <time>2026-03-29T12:34:03Z</time>
      </trkpt>
      <trkpt lat="48.02229" lon="6.60459">
        <ele>393.6</ele>
        <time>2026-03-29T12:34:08Z</time>
      </trkpt>
      <trkpt lat="48.02235" lon="6.60465">
        <ele>394.5</ele>
        <time>2026-03-29T12:34:13Z</time>
      </trkpt>
      <trkpt lat="48.0224" lon="6.6047">
        <ele>395.2</ele>
        <time>2026-03-29T12:34:18Z</time>
      </trkpt>
      <trkpt lat="48.02246" lon="6.60476">
        <ele>396</ele>
        <time>2026-03-29T12:34:23Z</time>
      </trkpt>
      <trkpt lat="48.02252" lon="6.60481">
        <ele>396.7</ele>
        <time>2026-03-29T12:34:28Z</time>
      </trkpt>
      <trkpt lat="48.02258" lon="6.60485">
        <ele>397.3</ele>
        <time>2026-03-29T12:34:33Z</time>
      </trkpt>
      <trkpt lat="48.02263" lon="6.6049">
        <ele>397.9</ele>
        <time>2026-03-29T12:34:38Z</time>
      </trkpt>
      <trkpt lat="48.02268" lon="6.60495">
        <ele>398.4</ele>
        <time>2026-03-29T12:34:43Z</time>
      </trkpt>
      <trkpt lat="48.02275" lon="6.60499">
        <ele>399.1</ele>
        <time>2026-03-29T12:34:48Z</time>
      </trkpt>
      <trkpt lat="48.02284" lon="6.60492">
        <ele>399.7</ele>
        <time>2026-03-29T12:34:53Z</time>
      </trkpt>
      <trkpt lat="48.0229" lon="6.60485">
        <ele>400.2</ele>
        <time>2026-03-29T12:34:58Z</time>
      </trkpt>
      <trkpt lat="48.02296" lon="6.60482">
        <ele>400.7</ele>
        <time>2026-03-29T12:35:03Z</time>
      </trkpt>
      <trkpt lat="48.023" lon="6.60485">
        <ele>401.1</ele>
        <time>2026-03-29T12:35:08Z</time>
      </trkpt>
      <trkpt lat="48.02307" lon="6.60491">
        <ele>401.7</ele>
        <time>2026-03-29T12:35:13Z</time>
      </trkpt>
      <trkpt lat="48.02313" lon="6.60496">
        <ele>402.3</ele>
        <time>2026-03-29T12:35:18Z</time>
      </trkpt>
      <trkpt lat="48.02317" lon="6.60503">
        <ele>402.6</ele>
        <time>2026-03-29T12:35:23Z</time>
      </trkpt>
      <trkpt lat="48.02323" lon="6.60507">
        <ele>403.1</ele>
        <time>2026-03-29T12:35:28Z</time>
      </trkpt>
      <trkpt lat="48.02329" lon="6.60513">
        <ele>403.6</ele>
        <time>2026-03-29T12:35:33Z</time>
      </trkpt>
      <trkpt lat="48.02335" lon="6.60518">
        <ele>404</ele>
        <time>2026-03-29T12:35:38Z</time>
      </trkpt>
      <trkpt lat="48.02339" lon="6.60524">
        <ele>404</ele>
        <time>2026-03-29T12:35:43Z</time>
      </trkpt>
      <trkpt lat="48.02343" lon="6.60531">
        <ele>404.1</ele>
        <time>2026-03-29T12:35:48Z</time>
      </trkpt>
      <trkpt lat="48.02349" lon="6.60536">
        <ele>404.1</ele>
        <time>2026-03-29T12:35:53Z</time>
      </trkpt>
      <trkpt lat="48.02356" lon="6.6054">
        <ele>404.1</ele>
        <time>2026-03-29T12:35:58Z</time>
      </trkpt>
      <trkpt lat="48.02362" lon="6.60546">
        <ele>404.2</ele>
        <time>2026-03-29T12:36:03Z</time>
      </trkpt>
      <trkpt lat="48.02367" lon="6.60552">
        <ele>404.2</ele>
        <time>2026-03-29T12:36:08Z</time>
      </trkpt>
      <trkpt lat="48.02373" lon="6.60557">
        <ele>404.2</ele>
        <time>2026-03-29T12:36:13Z</time>
      </trkpt>
      <trkpt lat="48.02373" lon="6.60561">
        <ele>404.1</ele>
        <time>2026-03-29T12:36:18Z</time>
      </trkpt>
      <trkpt lat="48.02369" lon="6.60568">
        <ele>404.1</ele>
        <time>2026-03-29T12:36:23Z</time>
      </trkpt>
      <trkpt lat="48.02365" lon="6.60575">
        <ele>404</ele>
        <time>2026-03-29T12:36:28Z</time>
      </trkpt>
      <trkpt lat="48.02362" lon="6.60583">
        <ele>404</ele>
        <time>2026-03-29T12:36:33Z</time>
      </trkpt>
      <trkpt lat="48.02359" lon="6.60592">
        <ele>403.8</ele>
        <time>2026-03-29T12:36:38Z</time>
      </trkpt>
      <trkpt lat="48.02356" lon="6.606">
        <ele>403.5</ele>
        <time>2026-03-29T12:36:43Z</time>
      </trkpt>
      <trkpt lat="48.02353" lon="6.60608">
        <ele>403.3</ele>
        <time>2026-03-29T12:36:48Z</time>
      </trkpt>
      <trkpt lat="48.02351" lon="6.60612">
        <ele>403.2</ele>
        <time>2026-03-29T12:36:53Z</time>
      </trkpt>
      <trkpt lat="48.0235" lon="6.60613">
        <ele>403.2</ele>
        <time>2026-03-29T12:36:58Z</time>
      </trkpt>
      <trkpt lat="48.0235" lon="6.60613">
        <ele>403.2</ele>
        <time>2026-03-29T12:37:03Z</time>
      </trkpt>
      <trkpt lat="48.0235" lon="6.60613">
        <ele>403.2</ele>
        <time>2026-03-29T12:37:08Z</time>
      </trkpt>
      <trkpt lat="48.0235" lon="6.60613">
        <ele>403.2</ele>
        <time>2026-03-29T12:37:13Z</time>
      </trkpt>
      <trkpt lat="48.0235" lon="6.60613">
        <ele>403.2</ele>
        <time>2026-03-29T12:37:18Z</time>
      </trkpt>
      <trkpt lat="48.0235" lon="6.60613">
        <ele>403.2</ele>
        <time>2026-03-29T12:37:23Z</time>
      </trkpt>
      <trkpt lat="48.0235" lon="6.60613">
        <ele>403.2</ele>
        <time>2026-03-29T12:37:28Z</time>
      </trkpt>
      <trkpt lat="48.0235" lon="6.60613">
        <ele>403.2</ele>
        <time>2026-03-29T12:37:33Z</time>
      </trkpt>
      <trkpt lat="48.0235" lon="6.60613">
        <ele>403.2</ele>
        <time>2026-03-29T12:37:38Z</time>
      </trkpt>
      <trkpt lat="48.0235" lon="6.60613">
        <ele>403.2</ele>
        <time>2026-03-29T12:37:43Z</time>
      </trkpt>
      <trkpt lat="48.0235" lon="6.60613">
        <ele>403.2</ele>
        <time>2026-03-29T12:37:48Z</time>
      </trkpt>
      <trkpt lat="48.0235" lon="6.60613">
        <ele>403.2</ele>
        <time>2026-03-29T12:37:53Z</time>
      </trkpt>
      <trkpt lat="48.02347" lon="6.60609">
        <ele>403.3</ele>
        <time>2026-03-29T12:37:58Z</time>
      </trkpt>
      <trkpt lat="48.02346" lon="6.60606">
        <ele>403.4</ele>
        <time>2026-03-29T12:38:03Z</time>
      </trkpt>
      <trkpt lat="48.02346" lon="6.60606">
        <ele>403.4</ele>
        <time>2026-03-29T12:38:08Z</time>
      </trkpt>
      <trkpt lat="48.02351" lon="6.60606">
        <ele>403.4</ele>
        <time>2026-03-29T12:38:13Z</time>
      </trkpt>
      <trkpt lat="48.02356" lon="6.60604">
        <ele>403.4</ele>
        <time>2026-03-29T12:38:18Z</time>
      </trkpt>
      <trkpt lat="48.02362" lon="6.60603">
        <ele>403.4</ele>
        <time>2026-03-29T12:38:23Z</time>
      </trkpt>
      <trkpt lat="48.02362" lon="6.60603">
        <ele>403.4</ele>
        <time>2026-03-29T12:38:28Z</time>
      </trkpt>
      <trkpt lat="48.02362" lon="6.60603">
        <ele>403.4</ele>
        <time>2026-03-29T12:38:33Z</time>
      </trkpt>
      <trkpt lat="48.02362" lon="6.60603">
        <ele>403.4</ele>
        <time>2026-03-29T12:38:38Z</time>
      </trkpt>
      <trkpt lat="48.02362" lon="6.60603">
        <ele>403.4</ele>
        <time>2026-03-29T12:38:43Z</time>
      </trkpt>
      <trkpt lat="48.02362" lon="6.60603">
        <ele>403.4</ele>
        <time>2026-03-29T12:38:48Z</time>
      </trkpt>
      <trkpt lat="48.02362" lon="6.60603">
        <ele>403.4</ele>
        <time>2026-03-29T12:38:53Z</time>
      </trkpt>
      <trkpt lat="48.02362" lon="6.60603">
        <ele>403.4</ele>
        <time>2026-03-29T12:38:58Z</time>
      </trkpt>
      <trkpt lat="48.02362" lon="6.60603">
        <ele>403.4</ele>
        <time>2026-03-29T12:39:03Z</time>
      </trkpt>
      <trkpt lat="48.02353" lon="6.60604">
        <ele>403.4</ele>
        <time>2026-03-29T12:39:08Z</time>
      </trkpt>
      <trkpt lat="48.02353" lon="6.60605">
        <ele>403.4</ele>
        <time>2026-03-29T12:39:13Z</time>
      </trkpt>
      <trkpt lat="48.02353" lon="6.60605">
        <ele>403.4</ele>
        <time>2026-03-29T12:39:18Z</time>
      </trkpt>
      <trkpt lat="48.02353" lon="6.60605">
        <ele>403.4</ele>
        <time>2026-03-29T12:39:23Z</time>
      </trkpt>
      <trkpt lat="48.02345" lon="6.6061">
        <ele>403.3</ele>
        <time>2026-03-29T12:39:28Z</time>
      </trkpt>
      <trkpt lat="48.02345" lon="6.6061">
        <ele>403.3</ele>
        <time>2026-03-29T12:39:33Z</time>
      </trkpt>
      <trkpt lat="48.02345" lon="6.6061">
        <ele>403.3</ele>
        <time>2026-03-29T12:39:38Z</time>
      </trkpt>
      <trkpt lat="48.02345" lon="6.6061">
        <ele>403.3</ele>
        <time>2026-03-29T12:39:43Z</time>
      </trkpt>
      <trkpt lat="48.02345" lon="6.6061">
        <ele>403.3</ele>
        <time>2026-03-29T12:39:48Z</time>
      </trkpt>
      <trkpt lat="48.02345" lon="6.6061">
        <ele>403.3</ele>
        <time>2026-03-29T12:39:53Z</time>
      </trkpt>
      <trkpt lat="48.02345" lon="6.6061">
        <ele>403.3</ele>
        <time>2026-03-29T12:39:58Z</time>
      </trkpt>
      <trkpt lat="48.02345" lon="6.6061">
        <ele>403.3</ele>
        <time>2026-03-29T12:40:03Z</time>
      </trkpt>
      <trkpt lat="48.02344" lon="6.60614">
        <ele>403.2</ele>
        <time>2026-03-29T12:40:08Z</time>
      </trkpt>
      <trkpt lat="48.02341" lon="6.60614">
        <ele>403.2</ele>
        <time>2026-03-29T12:40:13Z</time>
      </trkpt>
      <trkpt lat="48.02338" lon="6.60613">
        <ele>403.3</ele>
        <time>2026-03-29T12:40:18Z</time>
      </trkpt>
      <trkpt lat="48.02335" lon="6.60613">
        <ele>403.3</ele>
        <time>2026-03-29T12:40:23Z</time>
      </trkpt>
      <trkpt lat="48.02334" lon="6.60613">
        <ele>403.3</ele>
        <time>2026-03-29T12:40:28Z</time>
      </trkpt>
      <trkpt lat="48.02334" lon="6.60613">
        <ele>403.3</ele>
        <time>2026-03-29T12:40:33Z</time>
      </trkpt>
      <trkpt lat="48.02334" lon="6.60613">
        <ele>403.3</ele>
        <time>2026-03-29T12:40:38Z</time>
      </trkpt>
      <trkpt lat="48.02334" lon="6.60613">
        <ele>403.3</ele>
        <time>2026-03-29T12:40:43Z</time>
      </trkpt>
      <trkpt lat="48.02334" lon="6.60613">
        <ele>403.3</ele>
        <time>2026-03-29T12:40:48Z</time>
      </trkpt>
      <trkpt lat="48.02334" lon="6.60613">
        <ele>403.3</ele>
        <time>2026-03-29T12:40:53Z</time>
      </trkpt>
      <trkpt lat="48.02334" lon="6.60613">
        <ele>403.3</ele>
        <time>2026-03-29T12:40:58Z</time>
      </trkpt>
      <trkpt lat="48.02334" lon="6.60613">
        <ele>403.3</ele>
        <time>2026-03-29T12:41:03Z</time>
      </trkpt>
      <trkpt lat="48.02334" lon="6.60613">
        <ele>403.3</ele>
        <time>2026-03-29T12:41:08Z</time>
      </trkpt>
      <trkpt lat="48.02334" lon="6.60613">
        <ele>403.3</ele>
        <time>2026-03-29T12:41:13Z</time>
      </trkpt>
      <trkpt lat="48.02334" lon="6.60613">
        <ele>403.3</ele>
        <time>2026-03-29T12:41:18Z</time>
      </trkpt>
      <trkpt lat="48.02334" lon="6.60613">
        <ele>403.3</ele>
        <time>2026-03-29T12:41:23Z</time>
      </trkpt>
      <trkpt lat="48.02334" lon="6.60613">
        <ele>403.3</ele>
        <time>2026-03-29T12:41:28Z</time>
      </trkpt>
      <trkpt lat="48.02334" lon="6.60613">
        <ele>403.3</ele>
        <time>2026-03-29T12:41:33Z</time>
      </trkpt>
      <trkpt lat="48.02334" lon="6.60613">
        <ele>403.3</ele>
        <time>2026-03-29T12:41:38Z</time>
      </trkpt>
      <trkpt lat="48.02334" lon="6.60613">
        <ele>403.3</ele>
        <time>2026-03-29T12:41:43Z</time>
      </trkpt>
      <trkpt lat="48.02334" lon="6.60613">
        <ele>403.3</ele>
        <time>2026-03-29T12:41:48Z</time>
      </trkpt>
      <trkpt lat="48.02334" lon="6.60613">
        <ele>403.3</ele>
        <time>2026-03-29T12:41:53Z</time>
      </trkpt>
      <trkpt lat="48.02334" lon="6.60613">
        <ele>403.3</ele>
        <time>2026-03-29T12:41:58Z</time>
      </trkpt>
      <trkpt lat="48.02334" lon="6.60613">
        <ele>403.3</ele>
        <time>2026-03-29T12:42:03Z</time>
      </trkpt>
      <trkpt lat="48.02334" lon="6.60613">
        <ele>403.3</ele>
        <time>2026-03-29T12:42:08Z</time>
      </trkpt>
      <trkpt lat="48.02334" lon="6.60613">
        <ele>403.3</ele>
        <time>2026-03-29T12:42:13Z</time>
      </trkpt>
      <trkpt lat="48.02334" lon="6.60613">
        <ele>403.3</ele>
        <time>2026-03-29T12:42:18Z</time>
      </trkpt>
      <trkpt lat="48.02334" lon="6.60613">
        <ele>403.3</ele>
        <time>2026-03-29T12:42:23Z</time>
      </trkpt>
      <trkpt lat="48.02334" lon="6.60613">
        <ele>403.3</ele>
        <time>2026-03-29T12:42:28Z</time>
      </trkpt>
      <trkpt lat="48.02334" lon="6.60613">
        <ele>403.3</ele>
        <time>2026-03-29T12:42:33Z</time>
      </trkpt>
      <trkpt lat="48.02334" lon="6.60613">
        <ele>403.3</ele>
        <time>2026-03-29T12:42:38Z</time>
      </trkpt>
      <trkpt lat="48.02334" lon="6.60613">
        <ele>403.3</ele>
        <time>2026-03-29T12:42:43Z</time>
      </trkpt>
      <trkpt lat="48.02334" lon="6.60613">
        <ele>403.3</ele>
        <time>2026-03-29T12:42:48Z</time>
      </trkpt>
      <trkpt lat="48.02334" lon="6.60613">
        <ele>403.3</ele>
        <time>2026-03-29T12:42:53Z</time>
      </trkpt>
      <trkpt lat="48.02334" lon="6.60613">
        <ele>403.3</ele>
        <time>2026-03-29T12:42:58Z</time>
      </trkpt>
      <trkpt lat="48.02334" lon="6.60613">
        <ele>403.3</ele>
        <time>2026-03-29T12:43:03Z</time>
      </trkpt>
      <trkpt lat="48.02334" lon="6.60613">
        <ele>403.3</ele>
        <time>2026-03-29T12:43:08Z</time>
      </trkpt>
      <trkpt lat="48.02334" lon="6.60613">
        <ele>403.3</ele>
        <time>2026-03-29T12:43:13Z</time>
      </trkpt>
      <trkpt lat="48.02334" lon="6.60613">
        <ele>403.3</ele>
        <time>2026-03-29T12:43:18Z</time>
      </trkpt>
      <trkpt lat="48.02334" lon="6.60613">
        <ele>403.3</ele>
        <time>2026-03-29T12:43:23Z</time>
      </trkpt>
      <trkpt lat="48.02334" lon="6.60613">
        <ele>403.3</ele>
        <time>2026-03-29T12:43:28Z</time>
      </trkpt>
      <trkpt lat="48.02334" lon="6.60613">
        <ele>403.3</ele>
        <time>2026-03-29T12:43:33Z</time>
      </trkpt>
      <trkpt lat="48.02334" lon="6.60613">
        <ele>403.3</ele>
        <time>2026-03-29T12:43:38Z</time>
      </trkpt>
      <trkpt lat="48.02334" lon="6.60613">
        <ele>403.3</ele>
        <time>2026-03-29T12:43:43Z</time>
      </trkpt>
      <trkpt lat="48.02334" lon="6.60613">
        <ele>403.3</ele>
        <time>2026-03-29T12:43:48Z</time>
      </trkpt>
      <trkpt lat="48.02334" lon="6.60613">
        <ele>403.3</ele>
        <time>2026-03-29T12:43:53Z</time>
      </trkpt>
      <trkpt lat="48.02334" lon="6.60613">
        <ele>403.3</ele>
        <time>2026-03-29T12:43:58Z</time>
      </trkpt>
      <trkpt lat="48.02334" lon="6.60613">
        <ele>403.3</ele>
        <time>2026-03-29T12:44:03Z</time>
      </trkpt>
      <trkpt lat="48.02334" lon="6.60613">
        <ele>403.3</ele>
        <time>2026-03-29T12:44:08Z</time>
      </trkpt>
      <trkpt lat="48.02334" lon="6.60613">
        <ele>403.3</ele>
        <time>2026-03-29T12:44:13Z</time>
      </trkpt>
      <trkpt lat="48.02334" lon="6.60613">
        <ele>403.3</ele>
        <time>2026-03-29T12:44:18Z</time>
      </trkpt>
      <trkpt lat="48.02334" lon="6.60613">
        <ele>403.3</ele>
        <time>2026-03-29T12:44:23Z</time>
      </trkpt>
      <trkpt lat="48.02334" lon="6.60613">
        <ele>403.3</ele>
        <time>2026-03-29T12:44:28Z</time>
      </trkpt>
      <trkpt lat="48.02334" lon="6.60613">
        <ele>403.3</ele>
        <time>2026-03-29T12:44:33Z</time>
      </trkpt>
    </trkseg>
  </trk>
</gpx>